GFSMW_sfc_wetblb_000.txt.gz
Wetbulb
51.24 52.47 53.00 53.46 53.08 53.19 54.64 57.37 58.49 60.41 60.92 60.82 60.89 61.50 61.71 61.52 62.22 63.14 63.30 63.14 62.68 61.94 61.17 60.91 60.62 60.68 59.30 58.23 58.46 57.96 56.64 56.65 55.85 54.30 53.91 54.23 54.80 53.74 54.19 53.74 54.40 54.42 53.71
50.35 51.51 52.47 53.03 53.15 53.32 53.64 54.26 56.33 58.62 59.91 60.72 61.38 61.74 62.02 62.54 63.24 63.65 63.81 63.96 63.50 63.09 62.14 61.44 60.97 60.85 60.71 59.99 58.56 58.27 57.41 57.44 56.75 55.01 52.18 51.29 52.11 54.98 56.39 56.90 56.63 56.22 56.41
50.05 50.85 51.35 52.00 52.57 52.94 52.97 54.58 55.01 55.90 59.08 59.95 60.59 60.59 61.04 60.88 60.44 61.59 61.99 62.68 63.10 63.28 63.03 62.54 61.93 61.41 61.40 60.97 60.50 59.10 57.89 56.75 56.73 58.06 55.62 49.60 48.92 48.87 52.18 54.44 56.06 56.24 53.35
50.09 51.21 51.78 51.41 51.72 52.96 54.00 54.51 54.52 54.85 56.57 58.27 58.96 58.83 58.40 58.34 59.89 60.47 61.26 61.92 62.76 63.06 63.32 63.20 62.70 62.31 62.53 61.92 61.78 61.67 60.04 59.63 57.84 57.92 58.51 57.08 53.39 48.87 48.79 50.86 50.43 51.12 51.86
49.52 50.44 51.57 52.75 52.96 53.08 52.64 52.96 54.19 54.71 55.25 54.92 54.95 55.84 58.11 59.10 59.98 60.47 60.05 60.08 60.98 63.13 63.17 63.10 62.67 62.66 63.29 63.57 62.77 62.76 62.08 61.28 59.48 58.22 57.72 57.28 56.33 55.68 52.78 50.92 52.72 52.49 52.83
49.49 50.66 52.18 52.78 51.90 52.21 52.20 51.97 52.10 52.30 52.93 54.48 56.02 55.62 54.39 54.77 55.88 56.74 57.23 57.96 58.93 59.87 61.64 62.74 62.63 62.74 62.88 63.03 63.16 63.22 62.59 61.53 60.59 59.96 59.04 58.14 55.84 54.90 54.10 52.70 52.80 52.65 54.54
48.88 49.41 49.89 50.43 50.91 50.86 51.28 52.08 51.77 51.38 51.95 52.01 51.99 52.18 53.35 55.58 56.66 57.16 57.46 57.85 58.14 58.65 59.52 60.53 61.79 62.33 62.65 63.11 63.49 63.43 62.97 62.34 61.14 59.99 59.32 59.27 58.62 57.98 55.78 54.06 52.88 51.50 53.10
48.55 49.15 49.82 49.91 49.93 50.86 51.25 51.51 51.92 51.80 52.00 51.71 51.53 51.51 51.55 51.67 52.89 54.14 54.77 56.21 57.51 58.78 60.20 60.62 61.04 61.13 62.11 62.57 63.15 63.52 63.11 62.85 62.23 61.33 60.64 60.00 59.86 59.81 58.51 55.87 53.58 51.40 52.40
47.95 48.54 49.38 49.49 49.54 50.03 50.72 50.99 51.03 51.40 51.74 51.54 51.46 51.26 51.36 50.96 50.81 51.29 51.45 52.29 53.00 55.04 54.80 56.15 58.22 59.57 61.73 62.33 62.23 61.84 62.22 62.10 62.16 61.62 61.50 61.35 61.03 60.42 59.32 58.37 57.12 54.47 50.83
48.42 48.65 49.01 49.50 49.74 49.69 50.55 50.71 51.01 51.01 51.50 51.44 51.10 51.67 51.56 51.79 51.59 51.26 50.82 51.01 51.32 51.78 51.96 52.37 52.89 54.07 56.05 58.06 59.71 60.70 61.20 60.82 61.03 61.23 61.13 61.26 61.44 60.68 59.48 58.30 57.58 56.87 54.71
47.89 48.37 48.70 49.47 49.82 49.90 49.99 50.06 50.17 50.39 50.42 50.85 50.84 50.66 51.17 51.82 51.74 51.44 51.86 52.03 52.23 51.88 51.68 51.58 51.55 51.69 52.24 53.46 54.61 56.35 58.03 59.09 59.73 60.03 60.19 60.18 60.84 60.06 59.22 58.53 57.90 56.73 56.27
48.29 48.71 48.74 49.00 48.92 49.30 49.60 49.12 49.39 49.31 49.96 50.36 50.48 50.49 50.79 50.79 50.33 50.47 51.11 51.97 51.73 52.55 52.57 52.66 52.69 52.50 51.96 52.30 52.28 53.33 54.63 55.36 56.01 57.48 58.70 58.88 59.63 59.52 59.57 58.54 57.41 56.96 57.03
47.79 48.31 48.07 48.25 47.95 48.44 49.37 49.17 49.24 49.39 50.31 50.46 50.04 49.91 49.74 49.56 49.31 49.89 50.93 51.50 51.32 51.24 51.60 52.02 51.84 52.30 52.76 52.67 52.51 52.60 53.10 53.76 54.83 55.76 56.30 57.21 57.95 58.05 58.52 58.61 58.04 57.41 56.79
47.33 46.50 45.76 45.68 46.35 46.98 48.23 48.62 49.03 49.54 49.65 49.44 48.66 48.16 48.44 48.22 48.23 48.64 49.01 49.32 49.67 49.48 49.91 50.43 50.85 51.33 51.91 52.32 52.48 52.53 51.74 52.28 53.75 54.80 55.57 56.33 56.61 57.14 57.83 57.84 57.79 57.51 56.70
46.43 45.40 44.97 44.78 45.37 46.70 47.78 47.56 47.64 47.10 46.39 46.27 46.20 46.82 47.43 47.11 46.86 46.60 46.87 47.56 47.89 48.30 48.61 48.58 48.90 49.35 50.17 51.18 51.06 51.01 51.01 50.63 51.04 52.04 53.19 54.16 53.85 52.10 54.72 57.02 57.35 57.22 56.33
45.06 45.29 45.23 44.68 45.48 45.80 46.10 45.95 45.15 44.62 44.94 43.80 44.15 45.70 45.26 45.08 44.83 44.89 45.25 45.92 46.14 46.48 46.78 46.70 47.40 47.30 48.95 49.72 50.16 50.25 49.70 49.45 49.64 49.98 51.30 52.49 51.54 53.35 53.57 53.75 53.27 55.04 55.68
43.79 43.94 44.38 45.31 44.80 44.00 44.44 41.69 41.52 42.37 42.58 42.29 42.87 42.51 41.71 41.39 41.97 42.83 42.80 42.78 42.48 42.91 43.71 44.86 45.65 45.83 46.41 48.74 49.77 49.79 48.38 48.52 48.67 49.30 50.05 50.89 52.88 51.83 53.87 54.18 53.78 53.31 53.17
43.75 44.19 43.49 42.90 42.72 42.81 41.88 39.79 39.54 39.15 39.13 39.13 39.02 39.29 39.32 39.00 39.45 39.65 39.53 39.82 40.57 40.66 41.16 42.43 43.95 44.27 45.77 47.67 48.69 48.11 46.78 45.63 46.48 47.27 47.52 49.66 50.60 52.14 52.60 53.06 52.98 53.92 54.84
43.24 42.82 41.85 40.97 40.17 39.17 37.91 37.23 36.69 36.57 36.67 36.39 35.80 36.85 37.26 36.77 37.13 36.97 36.88 37.46 38.29 38.89 39.12 40.56 41.40 42.66 43.56 45.46 46.55 44.85 42.99 43.88 44.03 46.59 46.98 47.54 48.11 48.86 50.26 50.34 50.63 51.24 53.04
43.86 40.64 39.41 39.04 37.31 36.26 35.85 34.40 33.75 32.97 32.74 33.45 33.99 34.86 35.36 35.11 34.62 34.93 35.07 36.00 36.93 37.24 38.41 38.07 40.02 42.42 40.68 43.46 45.00 43.93 42.37 40.35 42.17 43.19 43.21 45.29 45.98 47.20 47.65 47.68 48.17 48.48 50.11
39.62 39.83 39.09 35.83 33.99 34.09 32.97 31.09 30.41 29.50 31.65 32.83 33.04 33.11 33.54 33.33 33.88 33.94 34.39 34.38 34.36 35.70 35.64 36.17 37.60 37.81 38.70 38.66 43.31 43.17 40.88 40.31 38.94 37.40 39.48 42.14 44.75 45.37 45.61 45.70 45.44 45.82 49.52
38.46 37.20 34.55 33.25 32.79 32.87 30.65 28.69 28.20 31.15 32.32 32.09 31.96 31.90 32.07 32.64 33.30 31.93 32.46 32.70 32.66 32.43 33.76 34.29 34.70 36.65 36.04 40.09 40.57 41.98 42.87 42.15 37.46 36.70 37.94 40.22 42.13 43.12 43.95 44.65 46.05 46.86 47.64
34.50 33.68 32.14 31.12 31.26 31.72 30.01 27.96 29.28 30.61 30.91 30.43 30.02 30.54 31.11 31.22 31.51 30.72 30.60 30.39 31.43 31.36 31.87 32.14 32.32 32.08 33.92 35.75 39.37 41.06 41.85 41.13 38.11 37.55 39.11 41.35 42.23 43.09 43.40 44.28 44.90 46.17 39.92
32.03 31.59 30.41 29.25 28.49 29.69 29.84 29.01 29.31 30.21 29.80 28.65 28.82 29.45 29.19 30.23 30.17 30.84 30.96 30.08 29.61 30.35 30.84 30.36 29.93 30.91 32.43 33.38 34.80 36.82 37.56 38.83 37.07 37.99 38.89 41.40 43.57 44.53 44.16 43.63 43.19 36.57 35.94
30.60 29.90 28.42 27.98 27.46 27.66 27.70 28.45 29.58 29.64 28.52 28.36 28.35 28.37 29.09 28.58 28.69 29.57 29.24 29.53 31.14 32.63 31.40 31.30 31.45 30.55 30.63 32.96 38.16 38.40 36.63 35.81 36.37 38.96 39.15 38.92 38.40 38.97 39.25 36.78 33.47 33.49 34.97
29.01 27.93 27.40 26.50 26.40 26.75 27.22 28.44 29.42 28.83 27.59 27.21 27.52 27.59 27.98 27.82 28.11 27.67 28.10 33.25 34.53 35.75 36.24 36.56 35.67 34.10 36.96 37.78 38.65 38.41 38.21 38.33 39.71 36.43 35.62 35.71 34.92 35.16 35.85 33.50 32.03 32.14 31.42

GFSMW_sfc_wetblb_003.txt.gz
Wetbulb
49.10 51.34 52.12 52.30 52.53 52.19 52.52 52.40 54.51 58.01 59.43 58.83 60.34 60.28 61.59 60.43 60.55 60.54 60.91 60.43 59.94 59.45 58.55 59.45 58.43 58.13 58.02 57.35 56.73 57.07 55.93 56.35 54.26 53.43 54.76 54.40 54.53 54.16 54.90 55.27 54.72 54.69 53.53
49.66 50.42 51.05 50.93 51.66 51.93 51.96 52.64 53.34 54.01 57.57 58.93 60.11 60.92 60.62 60.68 61.34 61.93 62.06 61.75 61.41 60.85 59.74 59.64 59.58 59.29 59.29 58.69 57.09 56.76 56.70 56.97 55.64 54.79 50.83 52.02 52.96 54.79 56.60 56.18 54.16 53.95 54.68
48.63 48.83 49.37 49.79 50.35 51.06 51.45 53.23 52.78 53.47 54.88 58.28 59.61 59.59 59.88 59.44 59.40 59.69 60.45 61.85 62.19 62.42 61.86 61.84 60.65 60.22 59.82 59.64 59.45 58.06 57.02 56.28 55.88 56.44 55.18 51.14 49.27 47.72 50.66 53.97 56.10 55.97 55.72
47.77 49.21 49.91 50.07 50.47 50.51 50.36 51.29 52.35 53.32 55.11 54.20 55.06 56.54 56.70 56.68 58.05 58.83 59.57 60.37 61.50 62.31 62.69 62.65 62.16 61.01 60.92 60.46 60.59 60.97 59.35 58.24 57.11 56.51 57.36 57.19 51.70 48.55 48.12 49.94 50.24 52.51 54.20
47.59 48.94 49.60 50.99 50.68 50.60 49.67 49.89 50.99 51.59 51.73 52.26 53.81 53.24 52.92 54.94 56.64 57.33 57.58 58.09 58.88 60.42 61.90 62.32 62.22 61.70 61.86 61.70 62.23 62.41 62.03 61.08 59.12 58.48 57.90 56.16 56.56 55.75 53.30 51.82 53.41 50.57 51.01
47.46 48.91 49.94 50.61 49.92 49.57 49.70 49.93 50.69 50.67 50.91 50.92 50.41 50.11 50.08 52.00 53.52 54.81 55.35 56.24 57.24 58.31 59.09 61.21 61.86 62.12 62.17 61.97 62.47 62.87 62.77 62.50 61.95 60.97 59.82 58.12 55.16 55.15 54.07 53.29 53.52 53.79 55.10
46.94 47.98 48.33 48.40 49.08 49.06 49.29 50.73 50.27 50.15 50.38 50.22 49.97 49.57 49.21 49.21 49.49 50.13 51.57 51.50 54.01 55.78 56.31 57.85 59.42 62.02 62.77 62.79 62.92 62.76 62.43 62.53 62.26 61.86 60.86 60.47 59.12 58.89 57.80 55.33 54.05 53.76 55.24
46.74 47.71 47.79 47.67 48.07 48.91 48.88 49.08 49.44 49.68 50.04 49.82 49.80 49.61 49.59 49.62 49.65 49.29 49.33 49.80 50.45 51.21 52.06 51.70 52.79 54.30 58.50 62.11 62.81 62.94 62.85 62.57 61.91 61.83 61.99 61.47 60.96 60.33 58.89 57.28 55.79 53.40 53.41
46.47 47.62 47.68 47.61 47.76 48.20 48.87 48.77 49.11 49.49 49.94 49.73 49.55 49.53 49.78 49.90 49.73 49.36 49.34 49.58 50.23 52.77 51.99 50.87 50.77 51.49 52.03 52.71 55.03 57.01 59.47 60.52 60.88 60.79 61.07 60.80 60.70 60.80 60.67 59.84 58.62 55.69 51.79
46.38 46.84 47.49 48.05 48.34 47.91 48.14 48.05 48.29 48.25 48.56 49.09 49.11 49.87 49.45 50.12 50.05 49.97 49.58 49.98 51.47 51.23 51.27 50.72 50.64 50.72 50.95 51.34 51.42 51.94 53.10 54.08 55.79 58.00 58.43 58.70 59.41 59.80 60.18 59.91 59.39 58.26 55.67
45.97 46.49 47.11 47.63 47.78 47.59 46.91 46.97 47.64 48.59 49.34 49.86 49.71 49.33 49.53 49.85 50.36 50.08 50.30 50.52 50.94 50.98 51.08 51.15 51.03 51.11 51.21 51.26 50.80 51.10 51.58 51.50 52.40 53.74 54.66 55.82 57.47 57.71 58.16 58.62 58.66 57.85 57.02
46.41 46.81 47.13 46.68 46.07 46.63 47.15 47.36 48.67 48.87 48.62 48.97 48.70 48.67 49.06 48.81 48.34 48.36 48.65 49.11 48.87 49.59 49.56 49.85 50.00 50.14 50.33 50.65 50.47 50.43 51.00 50.81 51.05 52.14 53.20 54.12 55.67 55.47 56.56 57.00 56.76 57.21 57.61
46.40 45.66 44.18 44.08 44.57 46.12 46.56 46.53 46.81 46.18 45.83 46.44 46.70 46.63 47.32 46.63 46.00 46.16 46.60 46.89 46.91 47.16 47.67 48.22 48.20 48.19 48.56 48.55 48.92 49.58 50.02 50.38 51.62 51.62 52.10 52.95 53.75 53.57 54.12 54.83 55.18 55.77 56.32
45.68 43.34 42.74 42.87 44.52 45.60 44.87 44.43 44.05 43.69 43.86 44.03 44.03 43.72 45.06 44.12 44.04 44.48 44.87 45.15 45.63 45.75 46.46 47.00 46.70 46.75 47.58 47.89 47.86 48.04 47.13 47.56 49.21 50.27 50.88 51.40 51.93 52.21 52.59 53.20 53.71 54.34 54.28
42.51 42.61 41.96 42.87 43.46 43.29 42.67 42.09 41.60 41.96 42.39 42.05 41.71 41.78 41.51 41.01 41.09 41.52 42.38 43.15 43.51 44.16 44.76 44.05 43.91 46.10 46.28 47.61 46.81 46.29 46.55 47.53 48.18 48.74 49.39 50.17 50.09 49.11 51.00 51.93 52.30 52.69 52.44
42.05 42.87 44.56 42.45 40.86 40.07 39.95 39.67 38.79 38.60 39.27 38.28 38.33 39.11 38.69 38.74 38.77 39.06 39.42 40.15 40.52 40.94 41.52 41.31 43.17 42.49 45.46 47.08 47.61 47.60 47.19 48.10 45.15 43.69 45.50 47.45 47.97 49.24 51.20 52.40 52.15 52.41 51.82
42.73 43.26 41.47 40.79 40.40 39.42 38.12 35.75 35.67 36.51 36.26 36.17 36.61 36.06 36.31 36.23 36.46 36.98 37.22 37.28 37.28 37.91 37.56 39.55 40.02 40.72 42.23 45.43 47.58 47.43 45.40 41.82 41.60 43.18 43.12 45.16 47.09 46.81 48.31 48.82 49.67 50.31 51.40
41.80 40.85 39.39 38.18 38.05 36.30 35.38 35.10 35.52 34.48 34.12 34.15 33.03 33.71 33.94 33.82 34.50 34.62 34.54 34.63 35.47 35.12 35.83 36.99 37.43 38.34 39.33 43.62 45.76 47.01 40.44 39.73 41.02 41.45 42.02 43.50 41.13 42.90 45.27 46.25 46.39 46.30 47.73
40.74 39.30 38.51 37.41 35.69 34.68 34.51 33.07 32.10 31.39 31.11 30.98 30.79 31.70 32.03 31.81 32.23 31.94 32.01 33.01 33.42 33.81 34.04 35.06 36.11 35.26 36.96 41.66 44.40 41.72 39.15 38.01 38.42 40.57 41.15 38.95 38.68 42.64 44.48 43.19 42.95 43.40 44.09
40.74 38.79 37.45 37.15 35.22 33.66 31.52 30.05 29.33 28.15 28.19 29.59 30.46 30.99 31.24 30.97 30.46 30.62 30.80 31.85 32.13 32.59 33.66 33.00 33.68 37.03 36.29 39.73 40.56 39.11 37.47 35.97 36.84 38.70 38.05 40.11 40.27 42.45 42.84 40.39 40.49 39.85 40.45
38.16 37.74 36.17 32.99 31.22 30.79 29.20 27.71 27.31 26.64 28.62 30.11 30.44 30.48 30.46 29.79 30.24 30.34 30.48 30.52 30.60 30.99 30.42 31.16 32.50 33.37 35.21 34.25 38.79 39.51 36.99 35.34 36.75 36.90 36.89 37.16 39.97 41.52 41.65 43.25 41.91 41.90 43.62
35.57 35.03 32.81 30.41 30.13 29.68 27.98 26.40 25.40 28.00 28.69 28.97 29.12 29.20 29.22 30.16 31.17 29.01 29.08 29.30 29.18 28.54 28.75 29.17 30.87 32.50 32.56 35.73 36.33 37.67 38.67 38.97 36.56 36.04 36.51 36.35 39.48 39.91 42.28 43.24 44.80 44.79 44.08
34.29 32.74 29.38 28.79 29.21 28.62 27.21 25.59 26.38 27.49 27.99 27.30 27.55 28.04 28.79 28.97 29.17 28.04 27.95 27.92 28.48 27.69 27.91 29.22 29.17 30.10 32.00 32.44 36.28 37.21 37.98 38.75 36.49 36.05 37.10 38.93 39.01 41.02 40.15 40.55 41.73 41.38 37.87
31.84 30.56 29.50 28.20 28.28 28.79 27.57 26.14 26.70 27.89 27.46 26.43 26.71 27.35 27.21 28.25 28.27 28.65 28.61 27.53 26.90 27.31 28.30 28.50 28.82 29.56 30.54 31.53 32.85 34.07 34.58 36.50 35.31 35.74 35.32 38.00 38.44 39.16 38.19 37.16 37.86 35.08 34.73
30.80 29.89 27.71 26.50 27.18 26.45 25.65 26.86 27.93 27.16 26.43 26.03 26.52 26.65 27.18 26.74 26.78 27.60 27.15 27.31 28.63 30.08 29.02 29.32 29.69 29.08 29.31 31.50 35.81 35.04 33.35 33.58 34.50 35.49 35.28 33.56 32.96 33.52 33.59 34.39 34.20 35.06 34.04
28.78 27.80 27.16 26.75 26.04 25.04 25.00 26.42 26.94 26.81 25.49 25.83 26.36 26.49 26.89 26.41 26.58 25.80 26.06 31.27 32.42 33.29 33.59 33.81 32.85 32.23 34.44 35.21 35.43 35.03 35.94 35.76 35.10 33.20 30.53 29.60 30.07 30.80 32.02 31.70 32.44 33.24 33.88

GFSMW_sfc_wetblb_006.txt.gz
Wetbulb
47.57 49.51 49.92 50.46 51.29 51.30 51.40 51.42 52.74 53.57 58.13 59.28 58.85 58.65 60.25 59.80 59.30 59.41 59.33 58.78 58.37 57.88 57.50 58.30 58.34 57.43 57.19 57.68 57.08 55.68 55.14 55.20 53.92 52.49 54.91 55.12 55.15 55.03 55.78 56.09 55.28 55.19 54.56
48.04 48.88 49.41 48.94 49.23 49.07 50.34 50.96 51.52 52.36 54.76 57.88 59.13 59.81 59.57 59.82 60.48 60.94 60.80 60.57 59.96 59.62 58.88 58.35 58.74 58.40 57.82 57.68 57.67 56.17 55.67 55.82 54.71 53.78 54.09 52.30 54.87 55.59 55.82 56.29 55.81 55.39 55.70
47.57 47.81 48.08 48.38 48.29 47.89 47.72 49.94 50.89 52.51 53.14 56.82 58.51 58.54 59.24 58.95 58.86 59.25 59.92 60.92 61.35 61.51 60.76 60.75 59.69 59.52 58.29 58.34 58.31 57.59 55.76 56.25 58.16 56.09 55.19 51.70 50.68 48.96 50.59 52.32 54.91 55.56 55.23
47.29 47.77 48.30 48.18 48.10 47.89 48.18 49.31 50.06 50.46 51.56 52.73 53.00 53.36 54.24 54.08 56.04 57.06 58.16 58.42 59.39 60.33 61.26 61.44 61.26 60.87 60.15 58.91 59.22 59.54 58.78 58.44 56.42 58.42 57.03 57.47 56.91 52.76 52.62 53.27 50.19 51.79 53.50
46.71 47.40 47.85 48.91 48.36 48.32 48.07 48.74 49.72 50.42 49.70 49.23 49.62 49.59 49.18 51.78 53.23 53.31 52.57 53.41 55.22 56.58 57.71 59.39 60.25 60.53 61.06 61.06 60.91 60.65 60.18 60.49 59.21 58.45 58.12 56.86 56.40 56.55 54.29 52.50 54.54 55.91 53.09
46.29 47.14 47.84 48.90 48.34 48.02 48.49 48.74 49.36 49.20 49.38 49.31 48.68 48.04 47.53 47.72 48.46 48.41 49.47 50.21 51.97 54.03 53.24 53.43 55.54 58.99 60.30 61.00 61.85 62.06 61.72 61.72 61.15 60.88 60.05 58.39 56.17 55.56 55.02 54.01 54.60 54.64 56.63
46.04 46.51 46.32 47.10 47.51 47.36 47.62 49.07 48.76 48.48 48.53 48.40 48.46 48.24 47.92 47.76 47.40 47.29 47.53 48.03 49.31 49.70 50.82 50.10 50.40 50.79 51.83 53.97 57.97 60.17 60.84 61.22 60.58 60.11 59.85 60.35 59.81 59.58 58.24 57.18 56.10 55.55 56.95
45.80 46.35 46.26 46.69 46.98 47.59 47.52 47.37 47.67 47.72 48.17 48.22 48.28 48.32 48.65 48.68 48.59 48.08 47.94 48.21 48.39 49.01 49.42 50.03 50.26 50.37 50.74 50.89 51.01 51.80 54.06 56.61 58.13 58.23 58.65 58.77 58.85 59.35 59.24 57.91 56.57 54.30 55.41
45.48 46.22 46.25 46.74 47.11 46.64 45.82 46.43 47.10 47.42 47.80 47.97 48.17 48.23 48.19 48.37 48.18 48.03 48.24 48.45 48.81 50.55 49.88 49.59 49.04 49.70 49.96 50.21 50.14 50.21 50.11 50.66 51.44 52.23 53.85 55.49 56.45 57.27 57.97 58.01 57.91 55.57 51.99
45.10 45.86 46.29 46.61 46.06 45.70 45.70 46.52 47.25 47.29 47.53 47.70 47.49 47.97 47.83 47.83 47.57 47.26 46.82 47.06 47.69 48.04 48.10 48.24 48.51 48.93 49.42 49.60 49.47 49.32 49.66 49.43 49.93 50.76 50.67 51.42 52.88 54.24 55.93 56.82 56.83 56.23 54.56
44.55 45.09 45.76 45.35 45.37 45.45 46.05 46.46 46.59 45.89 45.54 46.23 46.24 45.75 46.64 46.40 45.74 45.21 45.36 45.28 45.37 45.62 45.80 46.32 46.83 47.34 47.90 47.63 47.34 47.38 47.80 47.74 48.36 49.43 49.55 50.53 51.77 52.50 53.64 54.57 54.78 54.33 54.16
44.88 44.94 44.06 44.78 45.03 44.88 45.05 44.40 43.99 43.01 43.10 44.13 43.95 43.72 44.82 43.76 42.78 42.44 42.86 43.54 43.04 43.73 43.94 44.85 45.12 45.10 44.73 45.49 45.88 45.93 46.39 46.44 45.19 45.94 47.53 48.91 50.75 50.58 51.51 51.93 51.71 51.96 52.77
44.36 42.64 42.64 43.81 44.23 43.73 43.38 42.44 41.67 41.09 41.72 42.14 41.77 41.37 41.57 39.94 39.04 39.57 40.48 41.01 41.07 41.46 41.71 42.40 41.90 41.74 42.60 44.30 44.11 45.09 44.83 44.28 44.84 45.58 46.84 48.12 48.59 47.60 48.47 49.37 49.43 50.08 51.17
43.04 41.31 41.70 43.08 42.69 42.15 41.15 39.80 39.47 39.58 40.00 40.21 39.33 39.37 37.64 37.13 37.46 38.00 38.15 38.37 39.04 38.97 39.05 39.47 39.21 40.12 42.31 41.50 43.23 44.44 42.36 44.01 44.87 46.79 47.69 46.82 44.56 44.55 46.24 46.93 47.04 48.34 49.07
41.26 40.99 42.17 41.12 40.40 39.32 38.23 37.40 37.18 37.32 37.97 37.02 36.94 36.24 36.25 36.02 35.94 35.84 35.89 36.42 36.70 36.75 37.26 36.80 36.93 37.78 40.19 39.97 42.38 40.80 40.68 42.41 44.50 43.80 42.05 42.97 43.25 45.55 47.36 44.84 42.90 46.10 45.62
40.62 43.18 42.30 39.18 37.89 36.64 35.88 36.04 35.35 35.64 35.82 34.50 34.38 34.26 33.51 33.38 33.23 33.45 33.77 34.04 34.05 34.19 34.85 34.62 35.06 36.86 36.95 41.17 43.16 42.14 39.74 42.61 40.88 38.47 39.25 41.46 42.35 44.97 43.71 43.79 45.05 45.12 44.14
42.41 41.79 39.58 38.80 37.84 35.56 35.18 33.92 33.79 34.01 32.80 32.98 31.78 31.78 31.83 31.41 31.54 32.05 32.10 31.82 31.66 32.53 32.38 32.77 33.80 33.01 34.58 40.60 41.55 42.62 38.24 38.18 38.37 37.57 37.10 37.90 41.16 40.16 37.69 40.36 42.95 41.64 43.74
40.86 39.45 37.93 36.62 35.60 34.31 33.67 32.81 32.51 30.77 30.09 30.07 29.81 30.66 30.68 30.22 30.55 30.39 30.12 30.03 30.67 30.46 30.66 31.44 31.93 32.35 33.26 38.77 40.54 41.33 34.95 33.59 34.18 35.80 35.55 37.31 37.90 37.73 38.83 38.41 37.74 38.55 40.18
39.07 37.78 36.78 35.97 33.91 32.74 31.37 30.22 28.84 28.04 28.49 28.69 28.73 29.63 29.69 29.26 29.36 28.74 28.73 29.35 29.42 29.46 29.95 31.04 30.84 30.42 31.23 37.57 39.79 37.51 33.28 33.42 33.84 34.89 35.46 37.77 37.56 39.88 40.54 37.46 36.73 37.55 39.19
38.11 36.86 36.25 35.97 32.66 30.15 28.83 27.61 26.75 26.32 26.64 27.77 28.50 28.97 29.14 28.77 28.04 28.07 28.06 29.23 29.10 29.43 30.30 29.79 30.08 32.20 30.58 35.20 37.08 36.02 33.24 31.96 32.69 33.92 35.39 39.07 38.10 39.31 39.10 36.43 36.34 36.22 38.55
38.09 36.98 34.51 32.89 30.63 28.25 27.29 26.26 25.68 25.14 26.71 27.89 28.18 28.30 28.33 27.78 28.02 28.31 28.46 28.23 27.98 28.44 27.82 28.19 28.87 29.54 30.90 32.03 36.19 36.54 33.56 32.67 33.01 33.28 34.13 34.63 37.71 37.91 38.54 39.33 38.39 38.11 39.50
34.99 34.29 30.69 31.59 30.71 30.07 27.08 25.15 23.98 26.16 26.61 26.93 27.29 27.36 27.19 28.13 29.26 26.91 27.10 27.30 27.06 26.42 26.42 26.67 27.95 30.16 30.92 34.32 34.91 36.42 36.83 36.61 32.88 32.61 33.03 33.69 37.04 38.54 39.55 38.69 39.73 39.76 38.71
33.58 32.71 31.51 30.65 30.27 27.79 25.69 24.13 25.05 25.76 26.15 25.39 25.55 26.17 26.95 26.83 27.04 25.74 26.08 25.93 26.41 25.61 25.53 26.51 27.22 28.23 30.29 30.90 34.97 36.01 36.55 36.16 33.33 32.92 34.65 35.39 36.64 36.81 35.81 36.40 37.53 37.61 33.93
31.62 31.36 30.21 28.88 26.80 26.57 26.10 25.11 25.33 25.89 25.21 24.22 24.78 25.52 25.25 26.61 26.50 26.88 26.87 25.77 24.86 25.20 25.82 26.87 26.83 27.76 28.75 29.84 31.20 32.46 32.10 33.99 33.33 33.79 31.45 33.89 33.94 34.00 33.43 33.40 33.97 33.13 32.90
31.07 30.09 28.50 25.98 25.07 24.69 24.37 24.88 25.62 25.10 23.81 23.83 24.20 25.15 25.75 25.29 25.47 26.30 25.77 25.57 26.80 28.31 27.86 27.91 28.14 27.43 27.92 29.41 33.54 32.64 31.29 32.93 31.75 31.27 29.72 29.08 28.04 27.97 28.92 29.75 31.16 32.26 32.33
29.40 26.61 25.13 24.15 23.85 23.55 23.51 24.32 25.27 24.73 23.70 24.14 24.90 25.02 25.52 25.07 25.50 24.78 24.73 29.92 31.14 32.18 32.25 32.25 31.07 30.06 32.38 33.53 33.18 33.36 34.68 33.51 32.23 27.80 26.24 25.51 25.00 25.76 26.97 27.80 29.13 30.49 31.87

GFSMW_sfc_wetblb_009.txt.gz
Wetbulb
46.86 48.12 48.29 48.27 48.66 49.50 50.18 49.93 51.23 51.79 56.58 58.22 57.69 57.51 58.20 58.79 58.49 58.29 58.20 57.76 57.27 56.89 56.20 57.16 57.27 57.04 56.55 57.15 57.12 55.32 54.50 54.61 54.29 53.91 55.07 55.94 55.89 55.49 56.00 56.35 56.26 55.82 55.42
46.13 47.30 48.01 47.39 47.12 46.90 47.64 48.93 50.44 51.63 53.94 57.52 58.27 58.77 58.45 58.77 59.43 60.05 60.11 59.86 59.36 58.81 57.76 57.11 57.72 57.72 56.98 56.69 56.70 56.14 55.45 55.27 55.29 54.38 54.30 52.61 54.49 54.44 55.32 55.90 55.72 55.72 56.20
45.77 46.03 46.44 46.55 46.37 46.36 46.52 48.50 48.76 49.52 51.22 53.88 57.24 57.45 57.51 57.28 56.40 56.73 57.70 58.21 58.84 59.91 59.88 59.49 59.08 58.75 57.51 57.33 57.86 56.94 55.99 55.57 57.34 56.32 54.86 52.17 50.94 51.64 52.32 52.26 54.79 55.16 55.11
45.82 46.60 46.96 46.55 46.60 46.53 47.12 48.25 48.95 49.41 49.92 49.50 50.15 50.42 50.89 50.86 52.21 53.56 53.11 52.86 53.83 54.90 55.45 56.52 57.74 58.76 59.66 58.38 58.48 59.49 58.97 57.84 56.27 57.88 57.47 56.92 56.77 53.74 53.39 55.28 52.96 53.82 54.21
46.17 46.43 46.90 47.54 46.99 47.24 46.93 47.47 48.58 48.93 48.29 48.12 47.56 47.28 46.81 47.47 48.68 48.42 48.42 49.24 50.18 51.61 51.13 50.58 51.23 52.08 54.37 56.61 58.37 59.34 60.10 60.28 58.87 58.37 58.50 58.13 56.51 56.24 54.11 52.22 54.64 57.09 55.19
45.37 46.04 46.85 47.52 46.78 46.44 47.01 47.41 48.18 47.76 47.92 48.61 48.18 47.14 46.47 46.86 47.52 47.08 47.76 48.07 48.59 49.46 49.85 49.70 48.91 48.52 48.93 49.68 50.90 52.42 54.14 56.82 58.15 58.42 58.00 57.01 55.51 55.41 54.95 54.10 54.76 54.87 56.52
45.02 45.31 45.65 46.06 46.24 45.87 46.00 47.74 47.28 47.00 47.33 47.67 47.67 47.46 47.25 46.93 46.52 46.38 46.38 46.46 47.25 47.63 48.15 47.74 48.01 48.20 48.49 48.65 48.61 49.02 49.47 50.63 51.44 52.30 53.54 55.28 55.58 55.74 55.13 54.46 53.22 52.78 55.73
44.49 44.86 45.32 45.62 45.16 45.30 45.44 46.15 46.60 46.72 47.08 47.11 47.16 47.03 47.04 47.13 46.74 46.24 46.13 46.00 46.04 46.48 46.35 47.22 47.36 47.50 48.19 48.66 48.79 48.44 48.40 48.80 48.57 48.40 49.76 50.66 51.83 53.12 54.07 53.44 52.16 49.80 50.70
44.22 44.77 45.25 45.01 44.20 44.26 44.98 45.95 46.22 46.19 46.29 46.07 46.12 46.05 45.63 45.24 45.04 44.86 44.64 44.64 44.46 46.13 45.36 45.42 45.31 46.14 46.79 47.46 47.37 46.44 46.44 46.93 47.09 47.58 47.93 48.71 49.78 50.81 51.99 52.85 53.18 50.97 47.68
44.23 44.63 44.91 44.04 44.06 44.90 45.47 45.54 45.05 44.30 44.44 44.35 44.18 44.74 44.51 43.87 43.46 42.86 42.12 42.36 42.79 43.01 42.87 43.01 43.88 44.35 44.77 44.28 43.90 44.75 45.76 45.36 45.85 46.87 45.62 45.30 47.19 49.13 50.47 51.21 51.84 51.27 49.23
44.00 44.31 43.52 43.57 44.43 44.79 44.13 43.27 42.51 42.11 42.02 42.61 42.24 41.89 41.90 41.18 40.04 39.23 39.39 39.69 40.04 40.28 40.35 40.53 40.81 40.46 40.38 41.18 42.51 42.28 43.06 43.67 43.38 42.94 43.83 44.15 46.17 48.04 48.68 48.30 48.42 47.93 48.46
43.65 43.40 43.03 43.82 43.79 43.10 41.93 40.81 40.59 40.20 40.48 40.80 40.01 40.00 38.54 37.48 36.80 37.01 37.42 37.79 37.10 37.95 38.06 37.81 37.59 37.03 37.88 39.12 39.58 38.69 41.62 40.24 39.66 41.72 42.72 43.66 47.27 46.24 45.81 44.50 44.74 46.24 46.52
42.92 41.97 43.06 43.27 42.57 41.71 40.25 38.83 38.27 37.95 38.83 38.47 37.94 36.79 35.68 34.99 34.63 34.98 35.50 35.50 35.35 35.32 35.31 35.61 35.19 35.19 35.93 37.68 37.31 37.73 39.40 37.46 37.91 40.09 41.33 44.57 42.90 42.41 40.45 41.68 43.98 44.25 42.84
42.34 41.49 42.64 41.97 40.65 39.55 38.12 36.88 36.32 36.30 36.52 36.25 35.60 33.85 33.39 33.11 33.19 33.18 33.31 33.53 33.80 33.19 33.15 33.88 33.85 34.14 34.80 35.61 35.62 37.01 36.54 36.66 38.52 40.55 43.46 39.99 39.41 39.91 39.89 41.69 37.98 37.89 38.67
40.15 41.41 41.73 40.36 38.72 37.34 35.86 34.98 34.77 34.95 34.76 34.18 32.80 32.03 32.11 31.73 31.33 31.16 31.43 31.92 32.00 32.00 32.29 32.36 32.32 32.79 33.41 34.60 34.81 35.77 35.84 36.92 35.10 35.28 36.82 36.87 38.32 40.30 42.47 40.83 38.16 36.85 37.28
39.73 41.97 41.30 38.04 36.74 35.01 34.14 34.21 33.26 32.99 32.33 31.63 30.27 30.93 30.62 30.29 29.96 30.17 30.34 30.46 30.36 30.33 30.66 30.52 30.67 30.93 32.89 36.51 37.85 37.67 36.34 34.54 32.53 31.68 33.02 35.23 36.95 37.18 41.94 41.49 41.26 40.34 36.97
40.97 41.55 38.96 38.02 36.67 33.89 33.40 31.84 31.56 30.53 29.65 29.65 29.49 29.68 29.69 29.28 29.14 29.39 29.19 28.74 28.46 28.87 28.72 29.04 29.73 29.72 30.50 35.76 37.36 38.08 35.20 32.52 31.80 32.29 32.94 33.51 35.46 36.72 37.57 39.43 40.53 39.54 39.80
41.15 38.91 37.44 35.82 33.62 32.71 32.25 31.59 31.75 29.32 28.23 28.08 28.07 28.68 28.58 28.14 28.37 27.92 27.44 27.35 28.05 27.77 27.86 28.32 29.17 29.16 30.37 34.99 36.39 36.92 33.06 32.23 32.18 32.47 32.72 32.75 33.43 35.68 36.55 36.22 35.35 35.07 35.38
38.87 37.65 36.09 34.53 32.09 31.30 32.47 30.89 27.77 26.67 26.79 26.84 26.78 27.52 27.60 27.30 27.37 26.66 26.47 27.12 27.37 27.16 27.49 28.58 28.35 27.85 28.57 34.00 35.25 34.82 32.26 31.82 31.80 33.01 33.33 34.02 33.65 36.72 37.76 34.78 33.42 32.93 33.88
37.45 35.84 34.66 33.47 33.69 31.42 28.61 28.09 28.17 25.95 24.99 26.08 26.55 26.88 27.13 26.73 26.09 25.76 26.07 27.20 26.80 27.27 28.12 27.54 27.90 29.91 28.18 32.65 35.02 34.46 32.25 31.10 31.64 33.41 33.53 35.88 34.75 36.70 37.30 33.65 32.94 32.99 34.94
36.06 34.78 34.39 33.01 30.58 29.85 29.24 27.97 27.31 24.53 25.32 26.22 26.40 26.48 26.38 25.54 25.61 25.78 26.25 26.40 25.93 26.38 25.71 26.14 26.87 27.57 29.47 30.37 34.55 35.28 32.54 31.68 32.32 31.43 31.03 31.93 35.65 36.50 35.80 36.61 33.79 34.07 35.79
34.34 33.30 30.75 31.13 30.32 30.30 29.24 27.37 24.05 24.92 25.15 25.43 25.38 25.31 24.98 26.16 27.77 24.58 25.03 25.13 25.02 24.38 24.48 24.71 25.99 28.28 29.19 32.50 33.28 34.97 35.16 35.15 31.07 30.17 31.18 31.92 34.35 34.24 34.77 33.68 34.41 35.02 35.30
31.39 31.41 30.15 29.06 30.03 29.60 27.96 23.62 24.13 24.63 24.61 23.76 23.44 23.87 24.43 24.72 24.91 23.22 24.49 24.08 24.55 23.89 23.55 24.41 25.28 26.71 28.55 29.10 33.27 34.31 35.02 34.28 31.34 32.03 32.74 33.03 32.79 32.87 31.06 31.93 33.42 33.79 30.85
29.86 29.93 30.20 28.95 28.08 26.82 24.71 23.59 23.80 24.31 23.50 22.26 22.18 23.68 22.72 25.44 25.06 24.62 24.95 24.26 23.22 23.46 24.41 25.39 25.98 26.42 27.04 27.95 29.07 30.95 30.39 32.34 31.92 32.95 28.97 29.74 30.61 31.05 29.51 28.59 29.56 29.56 29.64
31.38 30.33 28.77 26.91 24.24 23.49 23.14 23.42 24.01 23.59 22.88 22.46 22.82 22.73 23.81 22.72 23.66 24.52 24.50 24.39 25.26 26.81 26.92 26.78 26.94 26.07 25.72 27.50 31.86 31.67 29.65 29.98 33.40 30.25 26.12 24.53 25.40 24.23 24.61 25.45 27.10 27.43 28.12
29.77 28.05 24.82 22.95 22.83 22.50 22.42 23.24 24.13 23.69 22.27 22.90 23.67 23.65 24.31 23.45 24.20 23.87 23.71 28.91 30.07 31.22 31.42 31.37 29.98 28.86 31.03 32.16 32.44 32.23 32.60 33.45 32.09 26.53 23.31 22.48 23.28 23.02 23.49 24.06 24.61 26.37 26.97

GFSMW_sfc_wetblb_012.txt.gz
Wetbulb
45.63 47.06 46.84 46.70 47.22 47.23 47.64 48.22 50.96 52.14 56.42 57.04 56.52 56.47 56.75 57.54 57.84 58.49 58.57 57.72 56.98 56.57 55.61 55.64 55.83 55.91 55.29 56.21 57.23 57.23 55.02 55.22 55.01 53.97 54.96 55.64 55.81 55.54 55.72 56.04 55.59 55.51 55.67
45.37 46.23 46.42 45.90 45.90 45.85 46.83 48.31 48.67 49.72 52.63 56.65 57.11 57.51 57.42 57.84 58.43 57.88 56.76 56.97 58.36 58.45 58.22 57.12 56.70 56.65 56.08 56.04 55.63 55.74 56.38 56.71 56.71 54.30 54.89 52.64 54.54 54.71 55.83 55.90 55.63 55.47 56.19
44.87 45.01 45.37 45.21 45.39 45.63 45.88 47.67 47.64 48.64 49.26 50.31 53.53 53.27 53.89 52.86 51.96 52.22 51.25 51.81 52.54 51.75 51.35 52.00 53.09 54.38 56.18 56.51 56.80 57.17 57.21 56.09 57.30 57.44 54.95 52.48 52.22 55.41 56.41 53.07 54.57 54.94 55.20
44.83 45.65 46.12 45.87 45.82 45.75 46.56 47.29 48.03 48.26 48.64 47.97 48.52 47.77 47.23 47.00 48.02 48.61 48.02 49.06 49.62 49.82 49.35 49.12 48.88 48.95 50.93 49.83 51.89 52.97 55.60 55.98 55.14 57.28 58.22 57.47 56.21 52.89 51.89 56.62 54.46 54.07 54.16
44.82 45.34 46.10 46.60 46.15 46.38 45.82 46.16 47.69 48.00 47.88 48.05 47.28 47.47 46.52 46.37 46.76 46.91 46.64 46.88 47.62 48.39 48.28 47.84 47.19 47.10 47.86 47.70 47.80 48.21 48.76 49.58 51.28 51.46 52.85 53.60 53.61 53.93 52.24 49.21 51.59 55.11 56.68
44.55 45.30 45.76 45.90 45.13 45.30 45.86 46.27 47.52 47.07 47.47 47.85 47.31 46.55 45.52 45.40 45.47 45.22 45.08 45.71 46.16 46.69 46.78 46.74 46.52 46.28 46.52 46.97 47.40 47.48 47.06 47.50 48.34 48.95 48.58 48.56 48.46 48.80 49.38 48.43 48.69 49.45 52.11
43.86 44.41 44.41 44.38 44.42 44.57 45.51 47.00 46.68 45.99 46.46 46.59 46.19 45.70 45.16 44.40 43.85 43.74 43.79 43.09 43.53 43.83 44.14 44.30 44.70 45.07 45.73 46.35 46.84 46.68 46.42 46.61 46.70 46.59 46.68 48.03 48.06 49.25 49.22 48.15 47.09 47.61 49.99
43.34 44.13 44.18 43.73 43.57 44.59 45.14 45.51 45.38 44.95 45.11 45.21 44.83 44.10 43.71 43.90 43.11 42.43 42.36 41.95 41.99 42.41 42.21 42.74 43.04 43.65 44.26 44.70 43.91 43.86 44.66 45.16 45.05 44.46 45.40 46.65 46.77 47.43 47.28 47.01 46.93 44.39 45.43
43.29 43.84 43.56 42.98 43.32 44.20 44.54 44.31 43.82 43.46 43.32 43.03 43.19 42.01 41.21 40.49 39.94 39.87 39.42 39.49 39.65 41.22 40.47 40.07 40.00 40.58 40.49 40.13 40.46 41.51 41.59 41.83 43.15 43.44 43.69 42.59 43.88 44.92 46.27 48.12 48.57 45.35 40.97
43.14 43.37 43.06 42.81 43.75 44.16 43.16 42.27 42.10 41.55 41.48 41.10 40.96 40.03 38.64 37.82 37.34 36.97 36.20 36.42 36.96 37.22 37.22 37.01 36.84 36.86 36.50 37.22 37.38 40.11 37.93 38.98 41.71 39.38 39.02 40.55 42.75 43.60 45.72 47.63 46.52 45.02 43.65
43.14 43.01 42.39 43.25 43.69 42.55 41.25 40.22 40.01 39.90 39.26 39.23 38.48 36.69 35.97 35.36 34.76 34.35 34.39 34.33 34.46 34.72 34.83 34.64 34.88 34.51 34.47 35.05 35.05 36.95 36.08 37.68 37.23 36.47 37.01 38.61 40.98 43.01 43.27 44.30 41.33 40.05 42.03
43.26 42.46 42.19 43.01 42.16 40.49 39.26 38.16 38.10 37.81 37.51 37.86 36.20 34.53 33.83 33.10 32.17 32.17 32.62 33.07 32.14 33.24 33.16 33.00 33.10 32.93 33.28 33.46 34.07 33.26 33.83 35.53 34.12 35.28 36.86 38.12 41.91 38.19 39.82 39.72 37.29 38.99 42.65
41.89 41.27 42.13 42.09 41.10 39.29 37.84 36.46 35.83 35.33 35.60 35.37 33.16 31.87 31.24 30.53 29.87 30.28 31.41 31.84 31.58 31.47 31.47 31.64 31.43 31.46 31.94 32.27 32.11 32.88 33.65 33.78 34.40 35.73 35.11 33.00 35.36 34.43 34.76 34.58 35.16 39.69 39.25
41.53 41.45 41.76 40.90 39.54 37.85 35.89 34.41 34.05 33.83 33.85 32.77 31.12 30.16 29.74 29.36 29.35 29.72 30.11 30.40 30.53 29.67 29.99 30.37 30.51 30.68 31.06 31.46 32.24 33.14 33.47 34.01 35.34 33.82 32.60 32.18 32.43 32.71 33.95 33.86 34.47 38.63 36.37
40.21 42.11 41.51 38.94 37.09 35.25 33.89 33.03 32.73 31.82 31.99 30.32 29.73 29.38 29.68 29.42 29.06 28.99 28.98 29.09 29.06 29.34 29.54 29.46 29.56 29.79 30.65 32.30 32.56 33.31 33.35 33.29 32.66 32.05 32.21 33.10 34.76 36.96 36.74 35.33 34.88 35.91 35.35
39.83 41.65 40.52 37.72 35.43 33.32 32.60 32.32 30.98 29.93 30.07 29.41 29.96 29.37 28.96 28.70 28.38 28.25 28.31 28.13 28.05 28.00 28.22 28.06 28.20 28.27 30.76 34.50 36.17 35.52 32.80 32.49 31.36 30.74 31.62 32.41 34.56 34.80 37.87 38.07 38.39 37.36 34.24
39.10 40.87 38.57 37.20 34.72 32.57 32.17 30.16 28.91 29.10 29.08 29.92 27.91 28.09 28.12 27.71 27.60 27.69 27.19 26.88 26.55 26.54 26.63 26.85 27.38 27.40 28.28 34.00 35.62 36.10 32.61 31.49 31.13 31.03 31.15 31.76 33.69 34.74 33.72 36.02 37.30 36.76 37.74
40.17 39.22 37.22 34.61 32.47 31.69 30.54 29.37 29.83 30.01 28.65 26.94 26.59 27.17 27.05 26.49 26.64 25.92 25.26 25.04 25.89 25.50 25.78 26.24 27.04 27.16 28.47 33.33 34.67 35.42 31.80 31.11 31.22 31.49 31.71 31.78 33.07 33.12 33.48 32.91 32.70 33.35 32.62
38.88 37.38 35.61 33.34 30.85 30.12 30.80 30.72 28.87 26.23 26.10 27.94 26.66 25.98 25.93 25.43 25.36 24.62 24.25 24.93 25.14 25.40 25.75 26.76 26.52 25.89 26.65 32.52 33.85 33.54 30.73 30.49 30.53 31.71 32.19 33.34 31.52 34.58 36.04 32.90 31.24 30.18 32.02
36.89 34.80 33.07 31.98 30.65 28.41 27.45 26.28 25.65 27.66 27.56 27.26 25.20 25.35 25.44 24.74 24.03 23.68 24.08 24.85 24.87 25.81 26.44 25.90 25.99 28.08 26.44 31.07 33.78 33.10 30.56 29.67 29.77 31.29 32.48 33.74 32.89 35.47 35.38 31.00 30.11 28.68 27.72
34.59 33.48 32.27 29.64 27.78 28.28 29.33 26.16 25.36 26.51 25.94 25.04 25.04 24.97 24.76 23.79 23.83 23.73 23.92 24.73 24.49 24.64 24.00 24.25 25.21 25.59 27.33 28.83 33.39 33.95 30.98 29.78 30.43 29.58 28.89 30.01 34.60 34.82 33.36 33.41 29.25 28.37 31.26
33.04 31.82 28.98 29.34 30.18 29.80 26.39 25.03 26.42 24.46 24.00 24.03 23.88 23.69 23.39 24.69 26.39 22.87 23.39 23.17 23.13 22.80 23.11 23.30 24.12 26.42 27.65 31.35 32.03 33.45 33.60 33.70 30.17 28.11 28.93 30.62 33.66 32.00 31.77 31.15 32.01 32.26 31.93
31.17 30.23 29.06 28.20 26.62 26.52 27.49 23.84 23.20 23.32 23.16 22.41 22.22 22.36 23.10 23.33 23.48 21.64 22.99 22.93 23.39 22.85 22.36 23.20 24.01 25.62 27.40 27.80 31.95 32.78 33.50 33.69 30.20 29.41 32.92 31.76 31.09 30.21 28.83 30.02 30.60 29.97 26.05
29.29 28.87 28.70 28.20 28.09 27.44 24.29 22.58 22.72 23.00 22.32 20.79 21.01 21.97 21.45 23.87 23.23 23.90 23.85 22.31 22.39 21.86 23.60 24.36 25.07 25.26 26.08 26.56 27.56 29.10 29.73 31.33 30.13 32.27 29.72 28.88 28.72 28.75 27.94 26.40 25.78 24.42 25.25
29.65 29.67 28.66 27.33 26.28 22.58 22.16 22.34 23.03 22.49 21.90 21.42 21.99 21.88 22.84 21.07 22.53 23.63 22.63 22.89 24.01 25.64 25.53 25.91 26.03 25.09 25.00 26.68 30.94 30.80 28.94 29.18 30.51 29.89 26.57 24.30 23.35 22.41 22.72 23.12 23.25 23.58 24.18
29.59 27.97 26.74 24.34 22.10 21.58 21.37 22.17 22.86 22.51 20.87 21.47 22.93 22.92 23.43 22.19 23.43 22.64 22.52 28.09 29.36 30.44 30.57 30.70 29.33 28.28 30.36 31.39 31.70 31.45 31.68 32.08 30.62 25.20 22.79 22.36 21.62 21.11 21.63 21.80 22.12 22.48 23.81

GFSMW_sfc_wetblb_015.txt.gz
Wetbulb
48.87 49.27 49.61 50.06 51.12 51.17 51.94 52.22 55.16 57.17 60.53 60.68 60.73 61.17 60.49 59.75 58.05 57.61 57.67 58.02 58.95 59.73 59.13 58.84 58.36 58.84 58.77 58.81 59.15 58.60 57.94 58.30 59.67 56.09 55.92 57.58 59.68 60.22 60.51 60.99 60.34 59.92 59.84
48.15 48.43 48.98 49.47 49.52 49.95 50.89 51.45 51.85 52.93 56.87 60.33 60.64 60.77 58.33 55.89 55.00 54.56 53.97 53.89 52.83 52.68 52.47 52.62 52.78 53.27 53.79 53.77 54.13 55.00 54.25 55.53 57.62 55.72 55.38 53.15 55.52 59.01 59.09 60.44 60.10 60.23 60.70
47.38 47.65 48.37 48.78 49.37 49.26 49.86 50.89 51.42 51.80 52.22 53.82 55.04 54.80 54.55 54.07 53.07 51.90 51.54 51.62 51.84 50.95 50.67 50.73 50.63 50.87 51.45 50.62 51.37 51.76 51.29 49.92 51.84 53.77 53.06 49.84 49.40 51.74 55.23 57.93 58.96 59.53 59.78
47.68 47.89 48.10 48.60 48.91 48.96 50.15 50.94 51.14 51.69 51.73 52.71 52.12 51.39 50.83 49.46 49.83 50.03 50.17 50.07 50.35 49.93 48.99 49.23 49.33 49.42 49.81 49.25 49.64 49.93 49.82 49.13 47.88 50.19 51.68 51.88 51.88 46.91 46.66 51.34 54.23 55.87 56.53
47.87 47.40 47.87 48.31 48.57 49.36 49.38 50.38 50.73 50.48 50.76 50.98 50.95 50.30 48.89 49.05 48.83 48.35 47.80 48.02 48.18 48.59 47.04 47.36 47.68 47.51 47.84 48.29 48.40 47.99 47.98 48.41 47.77 47.92 48.08 48.50 49.29 50.23 47.92 45.60 47.94 51.59 52.85
47.22 47.57 47.63 47.90 48.09 49.12 49.66 50.16 49.80 48.93 49.18 49.17 48.80 48.09 47.28 46.41 45.76 45.41 44.67 44.89 45.18 45.73 44.74 44.76 44.97 45.44 45.19 45.60 45.63 46.36 46.68 46.84 47.04 47.73 47.43 46.86 46.23 46.47 46.58 45.17 45.80 46.38 49.05
46.79 46.82 46.76 47.03 47.62 48.28 48.89 49.04 48.72 47.30 47.61 47.04 46.32 46.23 45.31 44.52 43.16 42.59 41.84 41.37 41.28 42.25 41.91 42.42 41.88 42.38 42.54 42.41 42.72 43.18 45.13 45.29 44.98 45.28 46.06 46.91 45.27 45.14 44.91 45.20 44.65 44.96 47.52
46.50 46.60 46.65 46.68 47.19 47.46 47.51 47.22 46.58 45.86 46.01 45.12 43.64 43.12 42.81 42.05 41.06 40.59 40.20 39.73 39.65 40.33 40.58 40.33 40.10 40.07 39.86 39.41 40.25 40.81 43.88 42.50 42.69 44.36 42.95 42.52 41.79 43.56 44.53 44.24 43.56 41.27 42.47
45.62 46.15 45.87 46.07 46.68 46.60 46.00 45.57 44.82 44.22 44.37 43.15 41.40 39.96 39.53 38.95 38.42 38.49 38.63 38.32 38.43 38.35 38.32 38.45 37.98 38.37 38.08 37.97 38.41 38.48 39.77 39.19 40.15 41.25 39.87 40.10 40.95 43.33 44.61 45.68 45.92 42.47 37.95
45.12 45.45 45.06 45.58 46.04 44.86 44.09 44.04 43.32 42.39 42.02 40.58 39.50 37.84 37.44 37.24 37.13 37.08 36.25 36.31 36.73 36.91 36.66 36.41 36.53 36.67 36.54 36.68 36.63 37.03 37.73 37.12 37.85 38.63 37.76 39.23 40.50 41.90 44.12 43.54 42.80 42.78 38.10
44.95 44.97 44.57 45.69 44.56 43.20 42.47 41.78 41.15 40.74 40.00 38.37 36.95 36.10 35.79 35.69 35.61 35.22 35.31 35.34 35.53 35.40 35.02 34.83 34.89 34.85 34.76 35.17 35.11 35.27 35.98 35.30 36.44 37.18 37.63 38.03 38.98 37.36 38.39 40.66 40.54 38.96 37.76
45.06 44.49 44.75 44.22 42.47 41.03 40.16 39.54 39.12 38.71 38.04 36.55 35.43 34.71 34.63 34.41 33.95 33.85 34.17 34.53 33.89 34.37 33.95 33.86 33.67 33.69 33.66 34.00 33.71 33.59 34.73 34.74 34.90 35.69 37.20 35.45 35.41 34.57 35.74 36.58 35.92 36.76 37.36
43.90 43.29 43.85 42.74 41.06 39.55 38.43 37.63 37.23 36.98 36.00 34.75 34.05 33.55 33.20 33.11 32.90 32.96 33.23 33.42 33.22 33.16 33.15 32.86 32.39 32.33 32.63 32.73 33.32 34.07 34.51 34.91 35.20 35.63 35.03 34.00 33.81 33.36 34.76 35.17 35.48 36.84 36.55
43.20 42.93 43.20 42.06 40.21 38.67 37.33 36.30 35.21 35.64 34.51 33.58 33.00 32.51 32.50 32.36 32.35 32.51 32.54 32.38 32.45 31.92 31.94 32.08 31.88 31.85 31.86 32.20 33.21 34.17 34.58 34.65 34.91 34.91 34.38 33.92 33.57 33.30 34.47 34.95 35.67 35.81 35.76
41.93 42.85 42.10 40.46 38.24 36.65 35.74 35.17 34.04 33.55 33.34 32.37 32.06 31.75 32.14 32.14 32.01 31.78 31.64 31.60 31.45 31.31 31.36 30.94 31.10 31.27 31.34 32.31 33.45 34.33 34.17 33.78 33.51 33.87 33.85 34.20 34.97 36.00 36.40 35.44 35.00 35.22 34.23
41.65 42.99 41.74 39.39 37.13 35.97 35.20 34.16 32.65 31.99 32.41 31.44 30.91 31.28 31.14 31.16 30.97 30.91 30.66 30.44 30.37 30.50 30.26 29.95 29.86 29.88 30.83 33.34 35.15 35.14 34.01 33.42 32.81 32.43 33.24 33.96 34.79 35.34 37.04 36.58 36.85 36.12 33.13
41.55 42.65 40.89 38.75 36.27 35.30 34.47 32.59 31.27 31.44 30.98 30.53 30.06 30.18 30.20 29.84 29.92 29.93 29.52 29.26 29.09 29.39 29.07 29.24 29.44 29.23 29.93 32.99 34.47 35.11 33.67 32.86 32.31 32.15 32.85 33.14 34.12 35.07 34.48 35.49 36.19 36.12 35.81
40.84 41.13 39.36 36.74 34.87 33.87 32.65 31.29 31.04 30.57 29.68 29.28 29.14 29.22 29.13 28.80 29.10 28.74 28.34 28.33 28.79 28.45 28.42 28.55 28.92 28.85 29.55 32.23 33.65 34.40 32.96 32.47 32.10 32.18 32.63 32.59 33.25 33.88 33.23 33.35 34.06 32.63 32.38
41.02 39.82 37.89 34.71 32.95 32.14 31.69 30.57 29.49 29.10 28.98 28.90 28.34 28.28 28.19 27.85 27.85 27.51 27.50 28.05 28.22 28.25 28.23 28.50 28.20 27.69 28.09 31.70 32.76 33.39 32.04 31.46 31.37 32.50 32.60 33.35 32.42 33.77 35.08 34.01 30.64 30.05 31.00
38.20 36.20 34.16 32.67 31.71 30.09 29.73 29.97 28.66 28.19 27.78 27.80 27.41 27.78 27.83 27.30 26.83 27.18 27.32 27.98 28.06 27.66 28.08 27.46 27.63 28.53 27.82 30.52 32.88 32.90 31.53 30.45 30.63 31.52 32.75 33.21 32.49 34.21 35.71 31.28 29.19 27.35 28.66
35.07 33.88 33.21 31.73 29.99 30.00 30.58 28.93 27.84 27.21 27.26 27.13 27.16 27.33 27.43 26.56 27.39 27.34 27.38 27.30 26.96 26.84 26.27 26.11 27.05 27.50 28.76 29.81 32.71 33.23 31.06 30.31 30.32 30.84 30.36 31.19 33.16 35.83 33.24 32.44 29.07 28.36 30.39
33.95 32.25 29.95 29.38 31.08 30.56 29.49 27.34 26.85 26.80 26.43 26.30 26.03 26.36 26.50 26.53 27.40 26.17 26.70 26.52 25.87 25.21 25.00 25.35 26.14 28.14 29.17 31.14 31.61 32.73 32.90 32.88 30.19 29.44 30.31 31.17 35.11 32.38 31.46 30.08 30.54 31.30 30.39
32.47 31.62 30.73 29.89 28.92 28.66 28.24 26.08 26.22 25.83 25.60 25.10 25.10 25.34 25.97 26.23 26.53 25.77 25.77 25.44 25.39 24.67 24.39 25.07 25.77 27.03 28.77 29.28 31.37 32.18 32.80 33.00 30.21 30.56 32.14 32.25 31.01 30.81 29.21 29.10 29.57 29.15 26.02
30.23 29.80 29.11 28.76 28.47 28.28 26.97 25.53 25.36 25.38 24.70 24.10 24.46 25.49 25.27 27.03 26.77 25.86 25.88 24.92 24.39 24.20 25.14 25.68 26.02 26.45 27.49 28.22 29.21 29.89 30.59 31.40 30.80 32.08 28.91 28.92 28.98 29.21 28.01 26.81 26.60 25.93 25.63
30.33 29.88 28.58 28.80 27.37 25.87 24.76 24.72 25.47 24.64 24.38 24.33 24.60 24.85 25.25 24.43 24.72 25.29 25.14 25.33 26.70 27.19 26.63 26.82 26.97 26.19 25.97 27.75 30.89 30.48 29.09 29.70 30.67 28.57 26.65 25.26 25.45 24.04 23.99 24.19 24.50 24.90 24.99
28.71 27.93 27.85 26.84 24.84 23.88 23.83 24.32 24.77 24.54 23.56 23.68 24.82 24.61 25.44 24.91 24.76 24.06 24.25 27.89 28.98 30.01 30.14 30.26 29.15 28.61 30.14 31.15 31.25 30.99 31.17 31.65 30.10 25.76 23.18 22.32 23.49 22.25 22.31 22.24 22.60 23.64 23.91

GFSMW_sfc_wetblb_021.txt.gz
Wetbulb
55.59 56.50 57.63 58.54 59.11 60.92 62.58 63.76 63.97 64.75 65.19 65.08 64.25 62.05 59.64 58.82 57.68 57.07 56.65 56.07 55.85 55.75 55.40 55.25 54.84 54.93 54.23 54.06 53.76 53.75 53.27 53.10 54.04 51.80 52.15 53.05 53.53 55.19 55.24 54.84 54.11 54.35 55.55
54.33 55.36 56.23 56.97 57.15 57.68 59.50 61.68 62.84 64.25 64.51 62.39 61.28 59.73 58.12 57.19 56.46 56.24 55.25 54.66 53.66 53.38 53.22 52.79 52.76 52.50 52.29 52.12 51.44 51.17 49.91 50.41 51.13 48.17 47.96 46.09 48.42 52.70 51.11 50.75 51.97 52.53 53.41
53.40 54.18 55.16 55.89 56.78 56.50 57.08 57.98 58.70 58.92 59.38 59.31 58.98 58.13 57.75 57.23 55.05 54.20 53.56 52.92 52.21 50.39 50.08 50.03 49.70 49.76 49.89 49.38 49.08 48.56 48.08 45.92 47.95 48.79 46.07 42.66 41.23 44.65 48.32 48.88 49.82 50.13 49.83
54.07 54.42 54.70 55.19 55.86 56.22 57.23 57.24 57.47 57.67 58.16 58.69 57.74 56.48 54.14 51.86 52.66 52.84 52.59 52.05 51.09 48.92 47.40 47.32 47.04 47.01 47.24 46.25 46.57 46.11 45.93 45.81 44.42 46.17 45.93 46.99 45.80 41.62 40.79 46.39 46.80 47.83 46.66
53.73 53.70 54.40 54.90 55.65 56.40 56.06 55.98 55.63 55.40 55.73 55.66 55.24 54.01 52.54 52.24 52.03 51.59 50.49 49.81 49.26 47.96 45.74 45.29 45.39 44.84 44.85 44.46 44.23 44.20 44.06 44.53 44.65 43.53 43.33 43.89 44.89 45.15 40.94 37.49 40.78 43.45 44.55
53.48 54.02 54.46 54.88 54.82 55.62 55.10 54.83 53.90 53.25 53.64 53.56 53.07 52.17 50.96 50.37 49.49 48.55 47.56 47.13 46.74 46.12 44.66 43.86 43.65 43.72 43.30 42.93 42.90 43.39 43.50 43.39 44.75 43.45 42.55 42.24 42.04 40.26 38.73 37.11 37.93 38.59 42.24
53.02 52.68 52.76 53.33 53.81 53.95 53.73 53.21 52.38 51.16 51.60 51.07 50.49 49.93 49.12 48.39 46.62 45.97 45.04 44.19 43.75 43.20 42.41 42.42 41.81 41.89 42.48 42.31 42.48 42.56 43.10 43.06 42.92 42.01 41.28 41.47 41.56 41.93 39.86 38.78 37.80 37.69 40.83
52.94 52.47 53.13 53.56 53.55 53.26 52.82 52.25 51.12 49.60 49.36 48.69 47.79 47.50 47.28 46.09 44.95 43.97 43.26 42.47 41.75 41.46 41.59 41.17 41.03 40.90 41.02 40.77 41.31 41.25 41.91 42.06 41.27 41.02 40.50 40.31 40.93 41.00 40.41 39.14 37.65 35.28 35.68
52.52 52.62 53.38 53.62 53.16 52.63 52.29 51.55 49.93 48.64 47.77 47.02 46.44 45.35 44.67 43.79 42.92 42.52 42.22 41.33 41.08 40.33 40.29 40.38 39.81 40.01 39.94 39.72 39.99 39.78 39.32 39.66 39.63 39.55 39.70 39.42 39.92 40.57 40.18 40.59 39.26 35.19 29.95
52.55 52.78 52.98 53.10 52.88 52.08 51.43 51.03 49.70 47.61 46.49 45.74 45.00 43.82 42.62 42.00 41.77 41.42 40.16 39.92 39.90 39.68 39.30 39.04 38.87 38.80 38.85 38.72 38.69 38.40 38.77 38.08 38.46 38.59 38.46 38.41 38.95 38.78 39.73 39.11 37.94 36.79 33.72
52.25 52.30 52.66 52.93 51.83 51.02 50.12 49.18 47.57 46.09 45.03 44.67 43.84 42.57 41.38 41.01 41.00 40.14 39.45 38.98 38.88 38.62 38.28 38.00 37.78 37.72 37.54 37.66 37.25 37.02 37.23 36.70 37.03 37.83 37.62 37.34 37.94 37.29 37.46 37.33 36.74 35.64 35.33
52.63 52.36 52.37 51.79 50.21 49.64 48.76 48.00 47.09 45.46 44.45 43.31 42.23 41.11 41.01 40.66 39.85 38.91 38.48 38.43 37.86 38.16 37.79 37.54 37.12 36.98 36.79 36.71 35.91 35.48 36.04 35.51 35.61 36.40 36.49 36.22 37.08 36.03 36.39 35.83 35.00 34.70 34.96
52.16 51.92 51.72 50.32 49.52 48.85 47.90 46.85 45.97 44.22 42.89 41.89 41.20 40.48 39.68 39.16 38.40 37.97 37.86 37.78 37.39 37.13 37.27 37.01 36.24 35.92 36.00 35.71 35.49 35.42 34.76 35.12 35.60 35.75 35.56 35.40 35.50 34.40 34.60 34.48 33.76 34.02 34.79
51.56 51.10 50.83 50.12 49.69 48.46 47.00 45.85 44.62 43.20 41.28 40.42 39.77 38.84 38.21 37.82 37.53 37.42 37.22 36.99 36.91 36.45 36.42 36.32 35.86 35.73 35.56 35.53 35.31 34.53 34.19 34.52 34.93 35.45 35.41 35.45 34.79 33.88 33.53 33.38 33.34 34.02 33.14
50.46 50.38 50.41 50.11 49.17 47.44 46.05 44.85 43.29 41.43 40.30 38.88 38.12 37.27 37.31 37.29 36.94 36.64 36.47 36.47 36.34 36.25 36.28 35.67 35.59 35.73 35.56 35.19 34.66 34.11 33.61 33.40 33.54 34.34 34.99 35.21 35.88 36.36 35.63 33.96 33.32 32.80 32.18
50.25 50.46 50.70 50.37 48.61 46.71 44.93 43.08 41.15 39.51 39.27 37.65 36.58 36.50 36.20 35.96 35.91 35.85 35.55 35.52 35.57 35.71 35.75 35.34 35.14 34.63 34.71 36.38 36.10 34.81 32.89 32.97 32.74 32.78 33.89 34.45 35.46 35.16 36.21 36.24 36.31 35.19 31.57
50.37 50.14 50.38 50.04 48.42 46.10 44.49 41.94 40.10 38.81 37.81 36.44 35.67 35.26 35.24 34.86 34.94 35.05 34.82 34.75 34.83 35.26 34.77 34.78 34.56 33.79 33.83 35.66 35.48 34.96 32.63 32.21 32.77 32.68 32.73 32.95 34.13 34.26 33.43 34.93 35.73 35.13 35.53
50.38 50.17 50.32 49.30 46.83 45.45 43.35 40.80 38.69 37.54 36.10 35.28 34.94 34.78 34.42 33.99 34.27 34.18 34.12 34.48 34.56 34.13 33.84 33.79 33.67 32.98 33.24 34.87 34.55 34.21 32.61 32.48 32.68 32.64 32.62 32.15 32.21 33.03 33.07 32.43 31.89 32.77 32.81
50.18 50.06 49.57 46.95 44.46 42.07 40.25 38.63 36.87 35.36 34.57 34.47 34.25 34.02 33.81 33.19 33.31 33.08 33.30 33.77 33.54 33.28 33.03 33.10 32.54 32.06 32.07 34.00 34.08 33.51 32.09 31.67 31.49 32.35 32.48 32.07 31.93 34.07 34.88 32.00 31.02 29.00 29.15
48.06 47.00 45.70 43.15 41.71 40.26 39.26 37.71 35.56 34.21 33.87 33.70 33.37 33.76 33.72 33.13 32.68 32.83 32.84 33.35 33.30 32.65 32.67 32.09 32.44 33.02 31.50 33.84 34.21 33.58 31.90 30.33 30.51 31.43 32.14 33.71 32.55 34.28 34.81 31.06 28.45 25.91 26.66
43.78 43.05 42.12 41.13 39.50 38.59 38.14 35.75 34.12 33.54 33.37 33.51 33.48 33.44 33.61 33.10 33.07 32.77 33.09 32.79 32.32 31.97 31.51 31.01 31.67 31.74 32.56 32.61 34.21 34.11 31.59 30.54 29.80 29.90 30.07 31.19 33.38 34.10 33.81 32.67 28.27 27.33 30.06
40.49 41.22 40.17 38.14 38.01 37.42 36.50 33.72 33.05 33.35 33.37 33.14 32.79 32.94 33.15 33.18 32.95 32.50 32.55 32.08 31.44 30.48 29.95 29.83 29.99 31.63 32.18 33.34 33.23 33.92 33.58 33.05 29.85 28.99 29.94 30.47 34.06 32.23 31.70 30.39 30.95 31.31 30.25
39.79 40.52 39.20 37.09 36.20 35.09 34.87 33.49 32.98 32.91 32.61 32.41 32.34 32.51 32.86 32.90 32.89 31.63 30.99 30.54 30.44 29.35 28.72 28.47 28.43 29.11 30.70 30.91 32.74 32.90 33.00 32.97 30.19 30.16 31.10 33.63 31.15 30.59 29.26 29.54 30.10 29.55 25.52
39.24 39.97 38.22 35.83 33.74 33.60 32.79 33.08 32.65 32.47 31.92 31.56 31.78 32.23 31.78 31.87 31.87 31.93 31.34 30.07 29.25 28.29 27.84 27.43 27.24 27.78 28.30 28.95 29.76 30.01 30.29 31.47 30.31 31.28 30.97 29.60 29.27 29.22 28.02 27.01 26.72 25.59 25.37
39.49 39.03 37.97 36.13 34.61 33.62 32.38 32.42 32.11 31.92 30.88 31.07 31.23 31.43 31.46 30.90 30.65 30.86 30.37 29.56 30.09 29.80 27.80 27.89 27.86 26.40 26.03 27.88 30.89 30.55 28.89 28.89 30.20 29.73 27.15 25.57 24.50 23.46 23.78 24.04 24.24 24.43 24.66
38.40 37.88 37.55 35.94 32.95 32.36 31.96 31.83 31.80 31.22 30.30 29.60 30.33 30.65 30.14 30.38 30.16 29.39 29.27 32.10 32.05 32.17 31.72 31.41 30.07 29.51 30.85 31.59 31.52 31.07 30.84 31.52 30.91 26.34 23.55 22.38 22.56 22.08 22.19 22.03 22.25 23.29 23.97

GFSMW_sfc_wetblb_024.txt.gz
Wetbulb
52.10 53.00 53.53 54.74 56.47 58.80 59.28 59.88 60.14 60.84 61.06 60.68 59.51 56.51 53.99 52.45 51.88 51.82 51.71 50.83 50.37 50.68 49.13 49.24 49.00 48.70 48.04 47.57 47.36 46.56 45.50 45.04 45.57 43.96 44.22 45.09 46.63 45.54 45.94 46.00 46.08 47.71 48.86
50.42 51.57 52.61 52.44 53.89 55.92 57.96 58.68 59.87 59.11 58.32 57.52 56.10 55.08 53.06 52.03 51.56 51.07 50.07 48.96 47.44 47.28 47.39 45.63 45.57 45.14 44.84 44.65 43.63 42.84 42.37 42.90 42.98 40.70 40.19 38.10 40.91 43.35 44.67 45.60 46.19 45.92 45.89
49.60 50.01 50.08 51.34 51.60 52.38 53.40 54.73 55.27 55.34 55.42 54.90 54.67 53.62 52.69 51.30 49.33 48.78 47.84 47.43 45.93 44.92 44.22 43.66 42.97 42.76 42.64 41.62 40.97 40.66 40.14 38.84 40.89 41.25 39.19 36.32 35.32 38.71 41.84 43.13 44.23 42.94 43.65
50.40 50.48 50.75 50.91 50.95 51.26 52.40 53.25 53.90 54.03 54.35 54.02 52.90 50.68 48.42 46.66 47.38 47.03 46.98 46.23 45.06 43.05 42.77 42.57 41.63 40.84 41.00 39.37 39.20 41.15 38.93 38.57 38.10 40.34 42.36 39.31 38.30 35.60 35.68 40.21 41.18 41.53 41.13
50.22 50.02 50.65 51.76 52.00 51.82 50.73 50.61 50.82 50.99 50.97 50.73 50.10 48.49 46.88 46.43 46.11 45.61 44.30 43.60 43.30 42.13 41.39 40.97 40.06 39.26 39.51 38.37 38.09 37.68 37.66 38.52 38.21 38.83 37.75 37.38 37.78 38.48 36.91 33.52 34.83 37.99 39.32
49.75 50.29 51.21 51.97 51.04 50.77 50.11 49.25 48.87 48.78 48.86 48.22 47.46 46.06 44.48 44.05 43.18 41.91 41.16 41.07 40.95 40.63 39.69 40.21 38.47 38.17 38.07 37.76 37.38 37.33 36.89 37.56 37.87 38.63 37.24 36.97 34.34 34.35 34.49 33.83 33.70 33.70 36.63
49.49 49.44 49.15 49.55 49.70 49.16 49.07 48.65 47.62 46.54 46.38 45.55 44.82 44.16 42.88 41.51 39.71 39.40 38.64 37.97 37.95 37.57 36.90 37.37 36.63 36.65 37.09 37.34 36.96 36.64 36.15 37.01 35.87 36.55 35.81 36.82 35.94 36.87 36.33 34.43 33.13 32.43 35.35
49.10 48.89 49.02 49.16 49.15 49.09 47.72 46.91 45.74 44.53 44.11 43.13 42.12 41.53 41.39 40.22 39.09 38.18 37.58 36.78 36.37 36.14 36.57 36.32 36.05 36.00 36.45 36.05 35.61 35.51 35.73 35.55 34.25 33.29 33.99 35.01 35.81 36.50 35.97 34.71 32.76 30.13 32.42
48.75 48.67 49.24 49.33 48.78 47.70 47.27 46.03 44.61 43.55 42.88 41.97 40.45 39.01 38.58 38.00 37.34 36.81 36.58 36.17 35.94 37.72 35.70 35.25 34.81 34.99 35.20 35.18 34.71 34.11 33.61 33.51 33.14 32.81 32.95 33.71 35.18 35.71 35.63 35.20 34.68 32.28 27.49
48.70 48.89 49.45 48.99 48.33 47.73 46.87 45.51 44.17 42.35 41.59 40.62 39.40 38.27 37.06 36.99 36.60 36.00 34.95 35.14 34.96 35.44 34.72 34.24 34.13 34.14 34.24 34.10 33.25 32.83 33.37 33.06 32.72 34.29 33.27 33.78 34.57 34.51 34.87 34.31 34.19 33.13 30.39
48.66 49.10 49.11 48.74 47.29 46.50 45.64 43.58 42.06 41.29 40.37 39.70 38.33 36.85 36.46 36.53 35.97 34.97 34.42 34.13 34.41 33.93 33.77 33.88 33.47 33.33 33.29 33.06 32.04 31.67 32.73 32.21 31.44 32.38 33.04 33.27 34.03 33.70 33.53 33.76 33.40 32.16 31.62
48.91 49.01 48.67 47.36 45.72 44.99 44.02 42.50 41.56 40.34 39.43 38.57 37.38 36.63 36.45 35.77 34.44 33.95 33.88 34.34 32.97 33.64 33.38 33.34 33.06 32.91 32.91 32.29 31.28 31.21 31.51 30.53 30.71 31.56 31.99 32.07 34.33 32.32 32.92 32.39 31.45 31.19 31.46
48.24 48.00 47.86 46.32 45.01 44.10 43.20 42.21 40.56 39.03 38.33 37.90 36.63 35.76 34.91 34.00 33.19 33.01 33.68 33.70 33.14 32.52 32.68 32.90 32.27 32.29 32.79 32.32 31.46 31.88 30.36 30.83 31.08 31.39 31.29 31.49 31.71 31.14 31.67 31.06 30.51 30.90 31.88
48.52 47.65 47.08 45.50 44.64 43.75 42.37 41.05 39.18 38.07 37.21 36.71 35.57 34.24 33.45 32.98 32.81 32.98 33.06 33.02 32.69 32.16 31.96 32.15 32.36 32.51 32.54 32.53 32.60 31.35 30.71 30.55 31.20 31.54 31.58 31.47 31.44 31.09 30.91 31.10 30.97 32.11 31.16
47.54 47.19 46.51 45.14 43.72 42.43 41.18 39.87 38.07 36.98 36.39 35.35 34.56 33.41 33.60 33.30 33.13 32.79 32.94 32.98 32.45 32.37 32.20 32.05 31.85 31.73 32.39 33.79 32.26 32.24 30.63 29.85 30.01 30.56 31.07 31.96 33.69 36.34 34.89 32.80 31.54 31.18 29.74
47.66 47.13 47.26 45.13 42.87 41.15 39.76 39.11 36.61 35.75 35.63 34.16 33.46 34.01 33.35 32.93 32.67 32.31 32.06 31.29 31.03 30.79 31.10 30.66 30.63 29.92 33.06 36.21 36.68 35.20 30.95 29.97 29.49 28.98 30.47 31.20 33.01 33.19 35.70 35.56 35.63 34.47 31.14
47.06 47.22 46.42 45.21 43.50 41.09 39.34 36.41 35.05 35.15 33.91 33.38 33.22 33.40 32.92 32.32 31.90 31.38 30.61 29.90 29.38 29.50 29.15 29.03 29.18 28.34 28.60 35.52 36.28 35.97 31.29 29.69 29.37 29.42 29.61 30.00 31.84 32.08 30.47 33.40 35.24 35.06 35.44
47.13 46.73 46.30 44.10 42.07 40.24 38.45 35.66 34.84 33.82 33.36 32.84 33.74 33.55 32.26 30.97 30.36 29.51 28.86 28.43 28.75 28.07 27.71 27.87 28.11 27.83 30.08 35.02 35.31 35.33 30.65 29.66 29.50 29.74 29.66 29.35 29.31 30.58 31.94 31.27 30.90 31.04 31.04
45.99 45.77 44.64 42.01 39.48 37.21 35.54 34.42 32.90 32.27 32.33 32.60 31.97 31.46 30.62 29.32 29.10 28.03 27.33 27.77 27.47 27.05 26.75 28.17 27.83 26.89 28.00 34.05 34.80 33.82 29.97 29.50 29.04 30.03 30.25 30.39 30.17 33.14 34.40 31.00 30.40 28.21 27.67
44.42 42.47 40.79 39.41 37.80 35.22 34.79 33.03 31.76 31.15 31.13 31.05 30.55 30.13 30.01 28.94 27.66 27.19 27.02 27.57 27.33 28.09 29.13 28.58 27.66 29.83 27.59 32.80 34.73 33.69 30.46 28.69 28.58 29.37 29.97 32.68 31.73 33.63 34.38 30.50 27.90 25.41 24.75
40.27 39.73 38.65 36.78 34.30 34.98 34.59 31.49 30.44 29.75 30.22 30.69 30.45 30.03 29.29 28.14 27.80 27.41 27.18 26.76 26.27 26.79 25.64 26.37 26.34 25.98 27.77 29.22 34.09 34.05 30.38 29.00 28.48 28.40 28.09 28.97 32.35 34.18 33.50 32.70 27.02 26.41 29.16
38.43 38.29 35.35 34.37 34.24 34.16 32.27 30.24 28.53 29.38 30.00 29.84 29.51 28.69 27.90 29.38 30.27 26.58 26.11 26.05 25.32 24.33 24.07 24.20 25.46 27.05 27.53 31.84 32.03 33.32 33.10 32.66 28.79 27.78 27.80 28.24 32.97 31.93 31.43 29.43 30.50 31.02 29.61
37.46 36.66 34.75 33.11 31.82 31.76 30.52 28.78 28.02 29.63 29.33 27.99 27.16 27.20 28.03 28.16 27.79 25.81 25.10 24.58 24.60 23.40 23.54 24.45 24.57 25.24 27.44 27.45 31.50 32.27 32.85 32.60 29.28 28.21 30.16 32.76 31.06 29.95 27.62 28.68 29.41 28.84 23.24
35.87 35.41 33.35 30.74 29.31 29.30 29.47 28.76 29.25 29.14 27.97 26.22 26.08 26.78 26.19 27.53 26.31 26.79 26.02 24.00 23.11 23.48 24.58 24.72 24.52 24.91 25.54 25.98 27.13 28.71 28.84 30.52 28.87 30.37 29.38 28.41 28.02 27.97 26.91 25.28 24.72 23.42 23.67
36.13 35.17 32.96 30.55 29.04 28.64 28.39 28.29 28.75 27.87 25.49 25.31 25.31 25.78 26.30 25.27 24.81 25.27 24.30 23.41 24.34 26.47 26.52 26.02 25.65 24.59 24.60 26.65 31.31 30.64 28.40 28.21 29.40 28.89 24.83 22.81 22.26 21.42 21.67 22.07 22.43 23.40 23.66
34.96 34.27 33.01 29.62 28.31 28.43 27.94 27.99 28.04 26.77 25.48 24.13 24.87 24.69 24.45 24.05 24.21 23.25 24.86 30.37 31.48 32.11 32.04 31.91 30.12 28.63 31.12 32.00 31.79 31.28 31.15 31.15 30.35 24.65 21.23 20.51 20.55 20.29 20.84 21.03 21.61 22.51 23.44

GFSMW_sfc_wetblb_027.txt.gz
Wetbulb
49.79 51.84 52.90 55.01 56.59 57.24 57.85 58.40 59.25 59.31 60.38 56.52 53.99 52.19 49.90 50.03 49.38 48.86 47.98 47.02 46.90 46.61 45.04 45.18 44.62 44.04 43.79 42.11 42.16 42.22 41.27 41.01 41.03 39.91 40.05 40.68 42.26 40.96 41.04 41.57 43.14 43.77 45.10
48.75 50.51 51.53 52.70 54.78 55.00 55.63 56.74 56.09 55.67 56.68 55.77 53.66 51.51 49.91 48.81 48.28 47.32 45.20 44.37 43.76 44.01 43.64 41.97 41.83 41.09 41.24 39.76 38.86 38.78 38.62 39.47 39.57 38.08 36.98 35.43 38.21 40.06 40.78 40.88 42.35 41.38 41.23
48.67 47.95 48.32 50.03 51.19 51.56 52.59 53.38 53.44 53.74 53.60 53.29 52.69 51.43 50.11 48.20 46.62 45.41 44.10 42.76 42.26 42.02 41.59 40.59 39.99 39.48 39.26 37.82 37.09 37.14 37.00 35.90 37.92 38.84 36.86 33.00 32.23 35.30 38.55 39.38 40.17 40.00 40.19
48.74 48.96 49.08 48.66 49.33 49.29 50.73 51.96 52.64 52.74 52.35 52.13 51.22 48.77 46.47 44.93 44.90 44.91 43.48 42.05 40.90 40.13 40.47 39.93 38.83 38.18 38.22 36.47 36.70 38.32 36.22 36.42 35.21 37.91 40.59 37.11 35.67 32.52 31.56 37.11 37.66 38.75 39.02
48.79 49.00 49.41 50.14 49.78 48.89 47.59 47.62 48.48 48.72 48.71 48.37 47.85 46.96 44.57 44.14 43.59 42.09 40.67 40.08 39.05 39.05 39.27 38.50 37.38 36.87 37.00 35.78 35.55 35.24 34.78 35.21 35.72 35.46 36.25 34.81 34.63 34.65 31.67 29.20 31.63 36.52 36.99
48.45 49.32 50.03 50.22 48.32 47.31 46.60 46.30 47.03 45.79 45.98 46.02 45.04 44.04 42.19 40.71 39.39 38.47 37.91 37.89 37.79 37.59 37.30 37.73 35.90 35.51 35.55 35.15 34.82 34.92 34.18 34.31 35.11 34.57 35.14 34.14 32.53 32.74 31.33 30.11 31.22 31.63 33.95
48.45 48.72 48.54 48.15 46.99 45.96 45.59 45.82 45.05 43.41 43.18 42.99 41.92 40.65 38.84 37.87 37.15 36.69 35.84 35.61 35.55 35.15 34.70 34.98 34.13 34.04 34.44 34.81 34.40 33.98 33.59 33.93 32.57 32.47 32.40 33.39 33.81 33.75 33.42 32.25 30.79 30.02 32.93
48.28 48.37 48.38 47.63 46.51 46.14 44.72 43.65 42.76 41.45 40.96 40.19 39.33 38.70 38.27 37.34 36.50 36.01 35.19 34.63 34.32 34.18 33.98 33.72 33.63 33.56 34.02 33.71 33.24 32.97 32.91 33.06 31.33 30.44 30.59 31.88 32.66 33.91 33.82 32.21 30.65 28.20 29.33
47.48 47.88 48.25 47.74 46.17 44.45 43.43 42.66 41.58 40.49 39.89 38.60 37.31 36.22 36.20 35.93 35.00 34.43 34.38 33.91 33.66 36.33 33.43 33.10 32.83 32.79 32.94 32.84 32.24 31.74 31.05 30.90 30.58 30.15 30.23 30.36 32.60 33.21 33.44 33.19 32.53 29.70 25.41
47.09 47.74 48.07 47.43 45.67 44.78 42.92 41.68 40.91 39.80 38.70 37.26 36.12 35.70 34.98 34.89 34.24 33.63 32.86 32.96 32.90 33.01 32.74 32.38 32.13 32.05 32.15 31.89 31.00 30.52 31.17 30.24 30.03 31.59 29.44 30.46 32.00 32.30 32.78 32.40 31.96 31.47 29.05
46.74 47.51 47.81 47.23 45.41 44.02 42.35 40.36 39.45 38.63 37.39 36.43 35.34 34.76 34.57 34.31 33.56 32.90 32.47 32.21 32.32 32.10 32.05 31.95 31.72 31.68 31.61 31.45 30.36 30.07 30.68 29.72 28.80 29.03 30.26 30.32 31.22 31.06 31.48 31.76 31.66 30.93 30.01
47.10 47.36 47.16 45.57 44.67 42.82 40.77 39.49 38.63 37.59 36.44 35.94 35.21 34.56 34.25 33.23 32.21 31.91 32.18 32.50 31.51 31.78 31.56 31.86 32.11 31.66 32.02 31.46 30.06 29.17 29.13 28.23 28.21 28.87 29.18 29.61 31.85 29.90 30.52 30.68 30.22 29.89 30.21
46.76 46.58 45.30 44.46 43.76 41.73 40.27 38.74 37.54 36.24 35.97 35.55 34.37 33.55 32.70 32.06 31.25 31.29 32.14 32.28 31.63 31.24 31.81 31.76 31.58 31.64 32.02 30.95 29.94 29.53 28.51 28.73 28.59 28.75 28.99 29.36 29.34 28.64 29.51 29.84 29.69 30.18 31.27
46.85 45.95 44.68 43.83 43.13 41.78 40.28 37.96 36.24 35.84 35.23 34.60 33.39 32.27 31.73 31.44 31.28 31.67 31.81 31.81 31.59 31.08 31.10 31.57 31.38 31.32 30.76 30.73 30.57 29.62 29.02 28.33 29.00 29.52 29.53 29.36 29.18 28.99 29.53 30.10 30.06 31.34 29.83
45.90 45.46 43.98 43.35 42.23 40.47 38.36 36.90 35.48 34.84 34.62 33.57 32.76 32.04 32.03 32.08 31.73 31.73 31.31 31.43 31.18 31.34 31.09 30.50 29.98 29.69 30.48 32.62 31.99 31.70 29.93 27.88 27.54 28.30 29.44 30.20 31.66 34.19 33.54 31.60 29.76 29.30 28.54
45.77 45.51 44.73 43.12 41.24 39.41 37.52 36.40 34.56 33.96 33.99 32.59 32.13 32.64 32.09 31.79 31.24 31.01 30.54 30.13 30.00 29.39 29.03 28.41 28.19 27.69 31.35 35.21 36.20 34.94 30.76 28.54 27.73 27.51 29.18 29.67 31.93 31.72 34.72 34.51 34.86 33.87 30.23
45.31 45.62 44.74 43.21 41.20 38.89 37.18 34.56 33.59 33.17 32.23 31.86 31.88 32.43 33.47 31.41 30.89 30.38 29.59 28.56 27.80 27.06 26.72 26.81 26.91 26.36 26.49 34.90 35.82 35.83 31.27 28.79 27.37 27.96 28.33 28.93 30.85 31.39 29.46 32.56 34.30 33.71 35.07
46.11 45.97 44.21 42.19 39.85 37.52 35.62 33.81 33.13 32.01 31.71 31.48 32.54 33.24 31.68 30.39 29.59 28.52 27.44 26.37 26.46 25.92 25.59 25.88 26.13 25.56 28.16 34.37 34.82 35.16 30.38 27.96 27.42 27.82 28.28 28.18 28.59 29.85 30.92 29.90 29.82 31.00 30.95
45.92 44.40 42.51 39.34 37.43 35.11 34.41 33.04 31.54 31.49 31.20 31.03 30.53 30.61 30.22 28.80 28.11 26.35 25.55 25.79 25.50 25.09 24.84 25.99 25.37 24.36 25.17 33.00 34.04 33.14 29.22 28.59 28.03 29.04 28.79 29.91 29.14 32.10 33.40 30.07 29.94 27.77 26.98
41.64 39.00 37.80 35.81 34.29 33.41 33.27 31.82 29.82 29.91 30.20 30.08 30.08 29.75 29.35 27.88 26.15 25.47 25.29 25.71 25.07 25.93 26.53 26.08 25.10 27.74 24.32 31.08 33.28 32.36 29.16 27.47 27.44 28.54 29.06 31.70 30.38 32.64 34.25 30.01 27.24 23.51 23.71
37.65 37.68 36.05 34.03 33.01 32.44 32.04 30.11 29.09 28.60 29.63 30.01 29.58 29.19 28.19 26.65 26.28 25.62 25.06 24.68 24.42 24.31 22.96 22.70 22.91 23.45 25.46 27.06 32.69 32.94 29.31 27.97 28.53 27.38 26.98 27.44 31.78 34.56 32.32 31.66 25.19 25.12 28.57
35.75 35.35 33.74 32.94 32.15 31.28 30.74 28.04 26.89 28.27 29.05 29.08 28.73 27.80 26.41 27.85 28.55 24.93 24.46 24.02 23.31 22.09 21.37 20.99 22.51 23.74 24.71 30.21 31.29 32.78 32.86 32.61 28.50 27.05 26.83 27.79 33.00 30.97 30.10 28.17 29.74 30.30 28.89
34.18 34.36 32.56 30.52 29.41 29.52 28.99 26.99 27.01 28.14 27.89 27.26 25.94 25.85 26.74 26.38 25.81 24.09 23.64 22.76 22.45 21.36 22.56 22.86 23.86 24.55 26.04 25.34 31.12 32.25 32.91 32.41 29.09 28.07 30.26 30.99 29.65 28.58 26.46 27.82 28.68 28.22 22.79
32.75 32.12 30.56 28.76 27.05 27.76 27.97 27.00 27.43 28.03 26.68 24.90 25.02 25.24 24.57 26.48 24.40 24.55 23.96 21.69 21.09 21.18 24.10 24.55 24.29 24.10 25.10 25.64 26.84 28.68 28.13 30.21 29.33 29.98 26.45 26.84 26.81 26.97 26.01 24.57 24.38 23.56 23.71
32.68 31.61 29.91 28.16 26.34 26.29 26.35 26.68 27.12 26.47 24.90 24.27 23.77 23.42 24.36 23.23 22.86 23.34 21.92 22.02 22.96 25.97 25.70 25.17 25.19 23.99 24.17 26.29 30.87 30.03 28.00 28.43 28.99 27.74 23.30 21.81 21.55 20.73 21.25 22.11 22.58 23.02 23.19
32.52 30.64 28.78 27.29 25.91 25.91 25.80 26.15 26.61 25.70 24.17 23.18 23.64 23.26 23.45 22.25 22.54 21.00 22.06 28.66 30.14 31.00 31.00 30.89 29.11 27.58 30.35 31.32 31.17 31.04 31.11 30.68 29.51 23.74 20.38 19.84 20.13 19.86 20.32 20.47 21.01 22.00 22.71

GFSMW_sfc_wetblb_030.txt.gz
Wetbulb
48.58 49.72 52.03 54.06 55.83 55.92 56.95 57.65 58.40 56.61 54.99 53.61 51.37 48.92 46.83 48.28 47.49 46.78 45.47 44.86 44.08 43.34 42.37 42.02 41.24 41.62 39.76 38.24 39.04 38.72 38.32 38.21 38.61 37.97 37.63 38.52 40.05 38.51 38.07 38.66 39.79 39.98 40.73
47.53 49.79 52.02 53.20 55.47 55.44 56.25 56.57 56.86 55.63 54.22 52.71 50.34 48.90 46.93 45.95 45.94 43.66 42.29 41.88 41.62 41.76 41.39 39.97 39.28 38.91 38.28 36.87 36.41 36.26 36.02 36.59 37.50 35.68 35.22 33.55 35.97 37.67 38.18 37.95 38.45 37.85 38.73
47.75 48.28 50.12 51.63 52.11 52.70 53.19 53.32 53.02 52.44 51.98 51.13 49.95 48.45 47.64 45.92 43.77 41.89 40.40 39.84 40.09 40.30 39.49 38.76 38.14 37.56 36.83 35.56 35.14 35.16 35.09 33.95 35.87 36.23 35.03 30.50 29.48 32.76 35.43 36.67 36.22 36.98 36.20
48.30 47.69 49.01 49.20 50.05 49.89 50.84 51.49 51.64 51.21 51.01 50.83 48.98 47.41 45.47 43.59 42.91 41.83 39.56 38.58 38.66 38.55 38.63 38.09 37.13 36.25 36.00 34.43 34.86 36.63 33.98 33.75 33.21 35.05 38.54 35.83 34.12 29.73 28.93 33.90 35.63 34.28 35.82
48.53 48.12 49.42 49.36 48.92 48.92 48.47 48.90 49.72 49.73 49.07 48.32 47.39 46.31 43.62 42.90 41.45 39.81 37.77 36.93 36.76 37.37 37.52 36.76 35.64 34.92 35.02 33.74 33.52 33.50 32.54 32.99 33.81 32.85 33.41 33.07 32.49 32.50 30.66 27.34 29.14 33.42 34.94
47.67 47.85 48.38 48.34 46.10 45.73 45.80 46.53 47.42 46.00 46.32 46.27 44.36 43.32 41.57 39.28 38.34 36.78 36.15 35.99 35.80 35.79 35.68 35.84 34.08 33.55 33.50 33.16 32.78 32.57 32.10 32.13 32.05 31.98 31.90 31.54 29.79 29.83 28.41 27.36 28.27 28.87 31.69
47.04 47.41 47.08 46.12 45.26 44.66 44.37 44.91 44.93 42.32 42.81 42.27 41.07 39.51 38.11 37.14 36.00 35.34 34.78 34.46 34.16 33.75 33.24 33.29 32.41 32.19 32.49 32.82 32.40 31.95 31.56 31.50 30.22 29.32 29.58 30.98 31.26 31.93 30.43 29.19 28.12 27.72 30.57
47.64 47.66 46.96 45.76 44.72 44.31 42.83 42.71 42.19 40.20 40.25 39.52 37.60 36.67 36.51 36.00 35.34 34.78 34.14 33.55 33.22 32.93 32.53 32.06 31.86 31.82 32.25 31.83 31.25 31.04 30.87 31.09 29.41 28.36 28.33 29.55 30.04 30.65 30.74 29.58 28.11 25.47 26.95
47.17 46.78 46.20 45.51 44.43 42.79 41.79 41.31 40.29 38.73 38.37 37.46 36.52 35.06 35.01 34.78 33.90 33.31 33.13 32.59 32.59 35.01 31.89 31.52 31.16 31.15 31.23 31.06 30.56 30.15 29.38 29.08 28.76 28.13 28.07 28.07 29.44 30.11 30.59 30.61 30.00 27.46 23.20
46.60 46.37 46.05 44.90 43.55 42.22 40.35 39.65 39.54 38.02 36.45 35.50 35.11 34.49 33.74 33.37 32.81 32.47 31.72 31.80 31.67 31.77 31.32 31.00 30.75 30.73 30.77 30.60 29.75 29.19 29.64 28.66 28.36 29.88 27.82 27.72 29.15 29.78 30.10 30.00 29.95 29.33 27.02
46.28 46.40 45.82 44.69 42.81 41.11 39.96 38.56 37.85 36.43 35.12 34.78 33.89 33.33 32.95 32.68 32.21 31.65 31.28 31.26 31.08 30.83 30.84 30.62 30.40 30.31 30.24 30.23 29.09 28.79 29.27 28.20 27.47 27.82 27.97 28.32 28.92 29.11 29.20 29.52 29.46 28.79 28.62
46.58 46.43 45.53 43.46 41.57 40.06 38.77 37.69 36.65 35.63 34.67 34.27 33.63 32.92 32.56 31.85 31.07 30.97 31.12 31.30 30.42 30.60 30.16 30.47 30.42 30.29 30.46 30.12 29.18 28.15 27.71 26.98 27.07 27.43 27.45 27.69 30.66 27.90 28.42 28.53 28.09 28.39 28.97
45.80 45.68 44.16 42.80 40.84 39.29 37.69 36.96 35.92 34.74 34.34 34.18 32.94 32.10 31.50 30.94 30.26 30.46 30.96 31.15 30.36 29.90 30.20 30.24 30.08 30.13 30.57 29.82 28.90 27.97 27.51 27.54 27.54 27.37 27.26 27.57 27.67 27.09 27.78 27.98 27.95 28.82 30.28
45.59 44.70 43.58 42.36 40.55 39.01 37.64 36.05 34.48 34.66 33.86 33.24 32.06 31.17 30.81 30.44 30.26 30.62 30.67 30.82 30.47 29.55 29.68 29.71 29.83 29.93 29.20 28.94 28.88 28.87 28.19 27.66 28.06 28.23 28.21 27.88 27.69 27.43 27.73 28.91 28.70 30.09 27.92
44.51 44.14 42.93 41.72 39.34 37.94 36.28 35.17 34.27 33.77 33.41 32.34 31.78 30.99 30.87 30.80 30.68 30.45 30.23 30.02 30.10 29.77 29.42 28.92 28.55 28.02 28.63 31.23 31.09 30.65 28.79 27.30 26.64 27.12 27.77 28.78 30.84 34.07 33.17 31.10 29.86 29.01 28.13
44.63 44.08 43.10 41.13 39.15 37.30 35.76 34.91 33.37 33.05 33.14 31.84 31.25 31.50 31.00 31.71 31.05 29.92 29.34 28.88 28.48 28.15 27.97 27.02 26.44 25.96 29.97 34.20 35.76 34.32 29.83 28.02 26.59 26.64 27.92 28.47 31.21 30.80 34.21 33.91 34.23 33.07 29.32
44.59 43.63 42.98 41.87 39.81 36.86 35.64 33.52 32.81 32.59 31.55 31.22 31.00 31.09 32.63 32.02 29.85 29.16 28.42 27.71 26.52 26.38 25.63 25.36 25.25 24.78 24.94 34.00 35.03 35.29 30.47 27.30 26.43 26.24 27.05 27.67 29.86 30.58 28.96 31.74 33.26 32.73 34.14
45.05 44.24 43.31 40.96 38.54 36.37 34.53 32.82 32.40 31.41 30.84 30.40 31.01 32.70 31.95 29.48 28.63 27.49 26.62 25.66 25.50 24.84 24.33 24.39 24.71 23.90 25.95 33.11 34.19 34.51 28.54 27.36 26.96 26.81 26.52 26.36 28.00 28.57 29.85 28.84 28.81 30.65 27.99
45.41 44.22 42.32 38.14 35.70 34.02 33.55 32.12 30.79 30.41 30.50 30.29 31.16 30.65 29.35 28.00 26.94 26.04 25.10 24.76 24.46 23.72 23.55 24.36 23.69 22.43 23.37 31.93 33.26 32.21 28.03 27.57 26.78 27.70 26.96 28.89 27.93 31.21 33.30 31.40 27.21 26.06 25.02
41.17 38.76 36.92 35.47 33.84 32.72 32.63 31.46 29.76 29.20 29.25 30.23 29.18 28.52 28.11 27.18 25.77 24.75 24.48 24.61 23.55 24.08 24.44 23.45 23.03 26.28 23.15 29.79 32.72 31.95 28.55 26.60 26.68 27.86 28.76 31.24 29.92 32.88 34.05 28.23 25.56 22.03 22.76
35.31 35.53 35.24 33.47 31.69 31.55 31.52 29.38 28.66 28.44 28.71 28.67 28.27 28.06 26.78 25.83 25.44 24.47 23.65 23.22 23.00 23.17 21.54 21.84 21.60 21.75 23.72 24.96 32.21 32.84 29.35 27.79 28.52 27.32 26.76 27.00 31.95 32.66 31.49 30.89 24.09 24.57 28.49
33.78 33.86 32.16 30.77 30.20 30.98 30.74 27.63 26.44 27.11 27.87 27.90 27.20 26.12 25.52 27.13 26.90 23.52 23.10 22.64 21.72 20.61 20.17 19.92 21.45 23.16 23.38 29.55 30.94 32.68 32.94 32.70 27.57 26.48 26.90 28.20 31.28 30.20 29.48 27.64 29.47 30.33 28.60
32.54 32.89 31.42 29.29 28.07 28.09 28.67 26.40 25.60 26.95 26.56 25.76 24.92 24.81 24.99 24.75 23.91 22.37 21.92 20.75 20.91 19.94 19.87 22.05 22.83 23.90 25.57 23.59 30.61 32.02 32.73 31.74 28.92 27.86 29.76 30.21 29.14 28.13 25.99 27.41 28.66 28.02 22.53
30.57 30.90 29.78 27.83 25.77 26.52 26.87 26.09 26.19 26.59 25.54 24.02 23.23 23.37 23.10 24.75 22.74 23.61 22.69 20.18 20.04 19.87 23.76 23.97 23.44 22.96 24.13 24.78 26.04 28.03 27.12 29.93 28.62 29.14 25.85 26.46 26.25 26.38 25.49 24.29 23.84 22.84 22.88
30.14 30.05 28.46 26.54 24.74 25.17 25.22 25.52 25.83 25.36 23.87 23.06 23.33 22.78 23.68 21.74 21.65 21.99 20.50 20.82 22.00 24.81 24.60 23.91 23.96 22.90 23.15 25.42 30.20 29.35 27.81 27.69 28.22 27.27 22.70 21.09 20.69 20.06 20.60 21.34 21.79 22.34 22.54
29.37 28.27 26.52 25.48 24.22 24.56 24.37 24.80 25.32 24.35 23.16 23.21 23.42 22.98 22.84 20.81 21.76 20.28 20.05 27.03 29.22 30.13 30.20 30.14 28.25 26.59 29.46 30.62 30.54 30.82 30.68 30.10 28.82 23.02 19.48 18.91 19.19 19.08 19.45 19.79 20.55 21.26 21.84

GFSMW_sfc_wetblb_033.txt.gz
Wetbulb
47.14 48.88 49.58 51.93 53.03 53.87 54.44 53.61 55.45 53.04 54.34 52.88 50.82 49.04 48.45 47.46 46.49 46.09 45.52 44.33 42.69 41.91 40.37 39.85 39.36 38.75 37.34 36.19 36.88 36.63 35.74 36.02 36.61 35.12 35.89 37.01 38.15 37.42 35.71 36.99 35.77 36.53 37.26
46.31 48.16 50.18 52.59 54.23 54.58 55.28 55.78 53.71 52.41 52.32 51.54 48.46 47.29 46.25 45.37 43.70 42.56 42.43 40.81 40.04 40.08 39.80 38.33 37.59 36.98 36.36 35.36 34.57 34.32 34.22 34.38 35.60 34.13 33.76 31.24 33.23 35.91 37.29 35.76 37.25 34.64 35.46
46.25 47.09 49.53 52.21 53.06 53.77 54.04 54.78 52.77 51.39 50.28 48.89 47.74 45.62 45.52 44.47 42.88 41.42 38.48 38.20 38.68 38.66 38.16 37.38 36.70 35.81 35.18 34.04 33.54 33.37 32.96 31.90 33.90 34.88 32.03 27.90 27.16 31.13 33.44 33.81 34.56 35.00 33.67
47.15 48.31 49.52 50.78 51.94 52.64 52.24 51.73 51.04 49.74 49.16 49.31 47.43 46.76 44.59 42.07 40.74 38.44 36.59 36.73 37.31 36.99 37.37 36.69 35.65 34.79 34.27 32.87 33.49 34.36 31.78 32.31 31.33 32.97 35.80 33.88 32.87 27.75 26.47 32.01 33.73 32.09 33.57
47.33 47.86 50.46 51.64 51.03 49.97 49.71 49.37 49.23 48.93 47.92 47.25 46.91 45.45 42.89 41.75 38.94 36.79 35.37 35.09 35.38 35.96 35.96 35.41 34.24 33.55 33.24 32.04 31.95 31.36 30.91 31.47 31.44 30.85 31.23 31.10 30.90 30.15 28.23 25.76 27.52 30.93 32.29
47.10 48.42 49.10 48.81 46.90 46.69 47.46 48.17 48.36 46.44 46.13 45.75 44.31 44.03 41.29 38.95 37.28 35.49 34.73 34.35 34.24 34.47 34.29 34.22 32.89 32.19 32.06 31.45 31.08 30.87 30.55 30.24 30.15 29.91 29.25 29.24 28.09 27.98 26.46 25.01 25.90 26.17 29.14
46.35 47.00 47.53 46.83 45.60 45.65 45.82 46.68 46.78 43.62 43.28 42.53 41.50 40.56 38.96 38.02 36.14 34.81 34.08 33.40 33.08 32.70 32.09 32.07 31.30 31.05 31.14 31.31 31.03 30.58 30.11 29.98 28.49 27.57 27.85 29.17 29.14 29.87 28.59 26.83 25.62 24.90 27.87
46.47 47.83 47.98 46.87 45.57 44.90 44.77 44.48 43.67 41.10 40.21 39.30 37.07 36.28 36.33 36.11 34.73 34.06 33.27 32.67 32.34 32.02 31.57 31.15 30.84 30.66 30.98 30.53 30.05 29.79 29.61 29.65 27.94 26.99 26.71 28.03 28.27 28.86 28.53 27.27 25.52 23.26 24.76
46.39 47.45 46.25 45.23 44.30 42.79 42.31 42.22 40.54 38.54 37.82 36.53 35.83 34.29 34.48 34.08 33.11 32.26 32.17 31.77 31.79 33.67 30.99 30.56 30.20 30.08 30.21 29.99 29.47 29.00 28.21 27.75 27.49 26.92 27.04 26.82 28.16 28.68 28.49 28.38 27.91 25.49 21.41
46.29 45.51 44.71 43.62 42.39 40.97 39.30 39.29 39.34 37.52 35.75 34.84 34.86 33.67 32.56 32.33 31.84 31.60 30.97 31.00 30.87 30.93 30.51 30.10 29.72 29.63 29.66 29.50 28.63 28.09 28.61 27.47 27.29 28.57 26.91 26.59 27.69 27.92 28.22 28.06 28.26 27.65 25.34
44.79 44.33 43.62 42.52 40.86 39.37 38.56 37.07 36.40 35.38 34.32 34.16 33.20 32.52 31.64 31.42 31.22 30.76 30.48 30.43 30.25 30.10 30.02 29.64 29.31 29.17 29.10 28.89 27.91 27.54 28.19 26.96 26.63 26.74 26.85 27.12 27.79 27.36 27.42 27.70 27.81 27.16 26.95
44.86 43.82 42.31 40.81 39.78 37.96 37.03 35.52 34.80 34.29 33.45 33.28 32.67 31.57 31.21 30.82 30.31 30.14 30.21 30.40 29.54 29.66 29.33 29.20 29.07 28.87 28.99 28.42 27.34 26.64 26.86 26.47 25.99 26.55 26.24 26.58 29.93 26.82 26.94 26.73 26.55 26.96 27.54
43.92 42.86 41.29 40.07 38.30 37.17 35.64 34.76 33.97 33.17 33.07 32.98 31.94 30.77 30.28 30.03 29.54 29.59 29.99 30.09 29.45 28.79 28.80 28.88 28.50 28.31 28.66 28.01 27.36 26.99 26.85 26.65 26.56 26.52 26.15 26.66 26.61 25.90 26.73 26.83 26.83 27.40 29.38
44.03 42.47 40.98 39.30 37.70 36.53 35.50 34.10 32.84 33.41 32.75 32.24 31.15 30.11 29.76 29.49 29.45 29.63 29.61 29.57 28.91 28.14 28.03 28.03 27.93 27.91 27.44 27.52 27.67 27.99 27.45 26.91 27.41 27.38 27.04 26.78 26.67 26.28 26.64 28.16 28.38 29.70 27.54
43.15 42.40 40.63 38.54 36.42 35.19 34.28 33.57 32.96 32.73 32.50 31.58 30.77 29.93 29.78 29.90 29.75 30.11 29.80 28.80 28.20 27.78 27.61 27.30 26.96 26.34 27.33 30.05 29.68 29.43 27.96 26.52 25.76 26.10 26.33 27.67 29.92 33.05 32.23 30.49 28.31 28.12 27.50
43.47 42.85 41.25 37.67 36.11 35.29 33.85 33.64 32.41 32.17 32.49 31.19 30.14 30.30 30.07 30.39 31.08 30.85 28.00 27.38 26.93 26.78 26.30 25.49 25.19 24.67 28.65 33.12 35.18 33.97 28.66 26.57 25.59 25.25 26.47 26.66 30.11 29.70 33.62 33.26 33.59 32.51 28.58
43.52 42.63 40.70 39.03 37.61 35.35 34.27 32.92 32.42 31.86 31.19 30.62 30.08 30.23 31.08 31.01 30.76 29.05 27.21 26.64 25.27 24.55 24.41 24.38 24.21 23.48 23.53 32.74 34.63 34.90 29.08 26.07 25.59 25.30 26.36 26.83 29.03 29.96 28.03 30.89 32.97 32.88 33.62
43.79 42.86 41.36 38.99 36.71 35.06 33.74 32.27 32.08 31.15 30.48 29.49 30.06 31.10 31.09 30.31 27.87 26.56 25.02 24.35 24.13 23.75 24.04 23.74 23.37 22.57 24.75 32.62 33.70 34.13 27.42 25.92 25.53 25.77 25.82 25.55 26.42 28.12 29.44 29.03 30.66 27.00 26.66
44.14 43.07 40.98 37.80 34.92 33.44 32.91 31.90 30.11 29.66 29.58 29.17 29.61 30.96 30.36 27.33 25.84 24.60 23.82 23.78 23.71 23.71 22.66 23.06 22.46 21.35 22.09 31.24 32.82 32.01 27.20 26.53 25.45 26.02 26.83 28.26 28.30 31.09 33.33 30.15 25.90 25.14 24.74
42.19 38.63 36.51 35.05 33.47 32.33 32.36 31.06 29.14 28.88 28.36 28.93 30.31 29.51 26.96 25.70 24.54 23.77 23.49 23.98 22.76 23.59 23.86 22.92 22.05 24.79 22.04 29.14 32.34 31.68 28.06 26.35 26.63 27.86 28.04 30.78 29.84 32.66 33.57 28.05 25.25 21.93 22.57
36.44 35.70 35.25 33.59 31.61 31.77 31.78 29.35 28.31 27.68 28.23 28.45 27.65 26.50 25.47 24.75 24.30 23.66 23.44 22.05 21.64 22.06 20.35 21.06 20.48 20.97 23.03 24.47 31.89 32.53 28.77 27.22 27.62 25.95 26.57 27.03 31.67 32.78 31.66 30.96 24.41 24.39 28.58
33.59 33.02 31.14 29.90 30.47 31.27 30.86 28.09 27.17 27.01 27.11 26.69 26.00 24.81 24.03 26.38 25.87 22.68 21.64 21.20 20.56 19.57 19.37 19.46 21.45 23.04 22.79 29.02 30.39 32.22 32.58 32.31 26.78 26.58 26.58 27.29 31.44 30.27 29.63 27.70 29.23 30.40 28.56
31.70 31.73 30.30 28.76 28.04 28.41 29.99 27.04 24.74 26.02 25.51 24.65 23.68 23.42 24.17 23.92 23.12 21.29 20.81 19.75 19.87 19.24 19.38 21.66 21.95 22.89 25.02 22.97 30.10 31.59 32.18 31.61 29.01 27.61 29.41 30.17 29.17 28.08 25.66 26.99 28.49 27.64 21.85
30.31 30.80 30.14 28.18 25.28 25.93 26.16 25.85 25.31 25.53 24.42 22.74 22.32 22.77 22.74 22.72 21.54 23.25 22.27 19.25 19.53 19.67 23.04 23.15 22.73 22.08 23.32 23.74 25.17 26.75 26.35 29.82 28.39 28.75 25.46 26.46 25.98 25.93 25.05 23.55 23.20 22.01 22.15
29.83 30.15 28.63 26.66 24.02 24.50 24.39 24.62 24.82 24.40 22.97 22.36 22.81 22.37 23.08 20.82 20.69 21.52 19.62 20.24 21.40 23.98 23.97 23.23 23.24 22.39 22.43 24.85 29.80 29.10 27.60 27.53 28.17 27.14 22.59 20.46 19.99 19.39 19.85 20.44 21.02 21.42 21.59
27.82 26.82 25.48 24.78 23.19 23.75 23.36 23.75 24.18 23.85 22.76 22.58 23.28 23.26 22.20 19.91 21.39 19.60 19.55 26.60 28.63 29.77 29.88 29.83 27.86 26.19 28.95 30.23 30.27 30.69 30.69 30.13 28.94 22.79 18.79 18.33 18.40 18.27 18.60 18.95 19.39 20.27 20.74

GFSMW_sfc_wetblb_036.txt.gz
Wetbulb
49.54 48.04 48.65 49.33 49.71 50.88 52.37 53.80 54.69 54.36 54.78 52.94 51.25 50.43 47.42 46.12 46.40 46.00 45.40 44.59 43.40 41.65 39.82 38.59 37.60 36.95 36.01 34.85 35.48 34.97 33.66 34.35 35.12 33.94 34.80 35.39 36.11 36.70 35.25 35.19 34.93 34.74 35.29
45.94 47.20 47.83 49.96 51.75 52.24 52.74 53.81 52.39 52.19 53.58 53.73 48.87 47.24 48.87 45.23 43.66 42.87 41.58 41.99 41.37 39.42 38.68 37.03 36.07 35.66 35.14 34.22 33.30 32.58 32.48 32.64 33.93 31.86 31.61 29.00 31.45 34.07 35.59 33.45 35.55 32.61 34.01
47.74 45.87 47.03 50.24 51.94 52.48 53.15 53.45 51.42 50.43 49.40 47.75 46.43 43.97 43.94 43.00 41.64 40.84 40.36 39.32 38.40 37.74 36.95 36.09 35.40 34.51 34.23 33.22 32.26 31.65 31.93 30.84 32.14 33.28 30.45 26.28 24.98 29.69 31.95 32.80 33.78 32.61 31.76
46.62 46.48 46.98 49.88 51.70 52.26 52.88 51.89 50.44 48.50 47.59 48.07 46.99 45.84 44.73 42.08 41.81 39.88 38.87 37.49 36.25 36.12 36.11 35.46 34.52 33.67 33.27 32.00 32.72 32.55 30.66 31.18 29.72 31.00 33.99 32.05 31.60 25.98 25.10 30.16 31.99 30.16 31.99
47.62 46.15 47.63 50.95 51.61 51.65 50.88 49.24 47.97 47.33 46.23 46.60 46.74 44.70 41.51 40.00 39.34 37.70 35.88 33.98 34.05 34.65 34.81 34.21 33.33 32.66 32.33 31.00 30.77 29.98 29.63 30.11 29.64 29.27 29.34 29.01 29.20 28.37 26.52 24.25 25.95 29.90 30.94
45.49 46.84 48.36 50.76 49.78 49.06 48.46 48.03 47.49 45.45 45.19 45.43 45.49 44.22 40.50 38.57 36.54 34.56 33.72 33.08 33.12 33.18 33.04 33.10 31.97 31.58 31.37 30.51 30.06 29.65 29.34 28.99 28.66 28.40 27.82 27.71 26.54 26.18 24.68 23.26 25.06 25.17 27.28
43.93 45.57 47.65 49.08 47.57 47.78 47.62 47.51 46.82 44.05 45.97 45.21 44.05 42.44 39.63 37.62 35.78 34.11 33.39 32.46 32.01 31.36 30.88 31.10 30.78 30.50 30.54 30.45 30.19 29.60 29.09 28.84 27.59 26.68 26.77 27.95 27.87 28.38 27.27 25.13 24.54 23.72 26.40
43.57 46.35 48.30 49.27 48.37 47.83 47.38 47.18 45.37 42.11 43.08 41.45 38.37 37.61 37.51 36.57 34.90 33.84 32.82 31.86 31.25 30.84 30.47 30.28 30.26 30.21 30.39 29.72 29.27 29.01 28.72 28.49 26.95 25.98 25.81 27.16 27.34 27.82 27.47 25.79 24.42 22.24 22.67
43.93 46.07 48.16 48.48 47.11 46.70 45.79 45.03 42.63 40.00 38.92 37.45 36.77 34.95 34.76 34.24 32.76 31.43 31.53 31.18 30.90 32.25 30.06 30.05 29.80 29.68 29.60 29.12 28.68 28.20 27.37 26.69 26.42 26.03 25.92 25.97 27.24 27.74 27.66 27.27 26.34 24.29 20.24
44.07 46.02 46.71 45.27 45.05 43.92 42.08 41.53 40.83 38.51 36.29 35.31 35.25 33.75 32.34 32.17 31.38 31.20 30.14 30.03 30.05 30.17 29.92 29.51 29.36 29.15 28.89 28.49 27.62 27.04 27.39 26.48 26.49 27.81 26.05 25.71 26.57 26.99 27.36 26.88 27.06 26.51 24.34
44.92 45.05 43.97 42.07 40.63 40.24 39.90 37.84 36.86 36.02 34.49 33.83 32.86 32.24 31.14 30.66 30.40 30.15 29.56 29.46 29.47 29.61 29.39 29.21 28.81 28.40 27.99 27.60 26.61 26.19 27.19 26.35 26.14 26.13 25.89 26.26 26.67 26.37 26.52 26.66 26.89 26.09 25.90
43.60 42.23 40.63 39.68 39.40 37.61 37.34 36.08 35.44 34.57 33.46 32.77 32.06 31.02 30.67 30.10 29.63 29.12 29.11 29.53 28.75 29.00 28.84 28.70 28.25 27.77 27.75 26.88 25.82 25.61 26.10 25.69 25.47 25.84 25.59 25.64 29.09 25.81 26.13 26.27 25.78 25.74 26.61
40.96 39.78 39.48 38.83 37.07 35.89 35.02 34.43 34.04 32.81 32.51 32.30 31.28 30.27 29.48 29.22 28.47 28.58 29.03 29.15 28.64 28.24 28.27 28.08 27.37 26.95 27.21 26.50 26.10 25.98 25.95 26.02 25.89 25.71 25.25 25.33 25.24 24.70 25.52 25.66 25.61 26.46 28.21
41.27 40.48 38.62 36.95 35.89 35.21 33.92 32.84 32.28 32.76 31.99 31.48 30.64 29.50 28.73 28.48 28.37 28.53 28.60 28.65 28.28 27.95 27.32 26.89 26.71 26.55 26.12 26.48 26.67 27.35 26.99 26.34 26.31 26.16 26.03 25.73 25.50 25.12 25.55 26.22 26.81 28.62 26.21
40.64 39.61 37.35 35.71 34.84 33.25 32.46 32.44 32.00 31.87 31.94 30.97 30.27 28.98 28.76 28.86 28.60 28.53 28.52 28.20 28.08 27.12 26.80 26.16 25.65 25.19 26.36 29.21 28.81 28.96 27.70 26.10 25.13 25.57 26.02 26.51 28.52 32.81 32.26 30.17 28.21 27.71 27.03
41.78 39.81 38.06 35.20 34.03 33.05 32.36 32.26 31.57 31.27 31.86 30.71 29.35 29.45 29.12 29.01 28.68 28.34 28.50 27.93 26.69 25.82 25.23 24.61 24.22 23.65 27.83 32.36 34.79 33.76 27.98 26.82 25.76 24.89 26.03 25.75 29.36 28.77 33.48 33.29 33.58 32.52 29.16
42.28 40.19 37.54 36.20 35.15 33.51 33.09 31.84 31.41 31.19 30.70 29.91 29.44 29.46 29.63 28.91 28.29 29.07 28.44 26.42 24.72 23.75 23.48 23.32 23.10 22.62 22.67 32.36 34.41 34.63 28.72 26.44 24.90 24.91 25.32 26.24 28.65 29.57 26.78 30.62 33.02 33.16 33.31
42.61 40.48 38.19 36.20 34.49 33.53 32.80 31.51 31.62 30.83 29.99 29.10 29.28 29.75 29.13 27.99 28.47 27.94 25.58 24.18 23.25 22.73 22.16 22.37 22.49 21.51 23.85 32.28 33.39 33.84 27.10 25.54 24.86 25.08 24.89 24.49 25.32 26.93 29.61 29.04 30.64 27.03 26.41
43.13 40.91 39.11 35.99 33.81 32.73 32.39 31.46 30.14 29.43 29.32 28.54 28.48 28.66 28.63 28.63 27.52 25.09 23.28 22.78 22.49 21.87 21.51 22.51 21.44 20.50 21.51 31.17 32.45 31.77 26.17 25.59 25.17 26.03 25.19 25.74 27.71 31.12 33.26 30.52 26.77 25.36 24.96
42.17 38.70 35.97 34.59 32.85 31.95 32.17 30.92 29.11 28.76 28.04 28.05 28.24 28.31 28.89 27.39 24.39 23.06 22.80 22.32 21.60 23.40 23.59 22.46 21.46 24.67 21.14 29.07 31.92 31.43 27.42 25.38 26.27 26.62 26.42 30.37 29.97 32.58 33.74 28.12 25.47 22.17 22.61
37.13 35.79 35.15 33.60 31.61 31.82 32.00 29.37 28.47 27.65 27.70 28.13 27.74 27.85 27.06 23.98 23.22 22.38 21.75 21.05 20.89 21.44 19.68 20.84 20.46 20.97 22.72 24.10 31.45 32.28 28.21 26.57 27.16 25.92 26.44 27.12 31.41 32.54 31.66 31.03 24.32 24.19 28.57
34.89 33.51 31.19 30.10 30.85 31.80 31.06 28.43 26.95 26.33 26.81 26.27 26.77 25.38 23.59 25.91 24.38 21.52 20.62 20.11 19.67 19.16 18.97 19.41 21.48 22.68 22.18 28.51 29.89 31.91 32.24 31.88 26.92 26.41 26.72 26.93 31.52 30.44 29.68 27.67 29.02 30.27 28.32
31.45 31.52 30.14 28.46 27.94 29.27 31.25 28.34 23.98 26.00 24.97 24.88 23.18 22.94 23.29 22.71 22.76 20.54 19.75 19.23 19.31 18.94 19.10 21.41 21.79 22.61 25.04 22.38 29.62 31.24 31.77 31.69 28.88 27.66 29.31 30.53 29.42 28.12 25.39 26.64 28.12 27.29 21.05
30.00 30.23 29.79 28.30 25.94 26.27 26.82 26.14 25.20 25.13 24.04 21.92 21.79 22.21 22.94 21.24 20.58 23.20 21.92 19.19 19.21 19.22 22.43 22.59 22.41 21.75 22.82 23.00 24.74 25.87 26.16 29.69 28.60 28.92 25.93 26.63 25.82 25.59 24.64 22.92 22.61 21.50 21.43
30.49 30.57 28.55 26.11 24.02 25.36 24.67 24.70 24.34 24.03 22.70 21.78 22.27 22.33 22.13 20.14 20.06 21.23 19.22 19.45 20.80 22.95 23.69 23.01 23.22 21.93 22.01 24.62 29.55 28.99 27.46 27.92 28.31 27.37 22.51 19.95 19.43 18.79 19.20 19.71 20.30 20.87 21.00
28.05 26.70 25.72 24.72 23.61 24.06 23.02 22.86 23.56 23.45 22.24 22.02 23.06 23.44 21.17 19.15 21.06 19.09 18.90 26.21 28.32 29.55 29.62 29.47 27.44 25.86 28.57 29.94 30.13 30.42 30.72 30.04 28.87 22.61 18.26 17.72 17.99 17.76 17.93 18.25 18.73 19.68 20.49

GFSMW_sfc_wetblb_039.txt.gz
Wetbulb
52.02 53.25 53.30 53.66 53.48 53.93 55.51 56.14 59.66 61.80 60.25 58.22 57.00 55.68 53.47 53.24 51.03 48.42 47.29 46.67 45.85 44.94 43.54 43.05 42.26 42.36 41.44 40.46 40.67 41.63 40.41 40.08 40.97 41.03 41.99 42.99 42.73 44.44 44.73 42.11 43.20 41.61 41.28
50.00 52.03 52.37 52.51 52.96 54.01 55.21 56.55 59.04 59.08 58.98 58.83 56.32 54.11 52.46 50.33 49.92 45.80 45.02 45.50 43.82 42.53 42.43 42.03 41.17 41.23 40.47 39.97 39.70 39.95 39.72 39.08 39.86 37.75 38.26 36.76 40.00 41.58 41.75 42.03 41.24 40.13 40.33
48.63 51.12 50.74 51.54 53.78 53.96 54.85 55.96 56.13 56.52 55.89 51.63 50.30 47.90 47.64 46.57 44.83 42.46 41.85 42.80 41.98 41.43 41.27 40.97 40.43 40.32 40.63 38.86 38.56 39.01 38.97 37.41 38.49 38.61 37.79 35.51 34.34 35.31 39.19 39.89 40.53 39.18 38.31
47.54 50.33 50.99 51.07 53.07 55.03 55.62 55.72 54.56 53.48 51.83 51.63 51.06 50.20 49.94 46.96 45.58 41.82 40.66 39.43 40.10 39.66 40.28 39.80 39.72 39.42 39.25 38.58 38.21 37.98 37.94 38.25 35.91 37.91 37.29 37.91 36.88 32.86 31.63 37.26 38.12 37.58 36.09
46.95 48.82 50.60 51.65 53.42 54.88 55.50 54.32 52.79 51.62 50.63 51.47 52.02 51.87 48.44 44.76 41.37 38.91 37.85 36.79 37.79 39.34 38.98 39.02 38.73 38.07 37.96 37.44 37.37 36.82 36.69 36.87 36.43 35.93 35.70 35.40 35.36 35.24 32.53 29.87 32.74 34.79 35.99
47.30 49.57 51.14 51.80 53.10 54.43 53.56 51.86 50.99 49.15 49.42 49.83 48.79 47.41 43.41 40.78 37.86 37.13 36.21 35.90 37.73 37.59 37.58 37.48 37.55 37.52 37.19 36.96 36.58 36.21 35.97 35.54 35.32 35.35 34.69 33.93 33.04 32.45 31.09 29.67 30.70 30.57 33.13
47.01 47.72 48.45 50.69 51.96 52.67 51.50 50.38 49.63 47.23 47.89 47.84 46.55 45.25 42.58 40.54 38.27 37.14 36.70 36.69 36.18 36.06 36.03 36.81 36.58 36.46 36.43 36.18 36.38 36.09 35.72 35.24 34.89 34.12 34.10 34.34 33.98 33.60 32.42 30.96 29.98 29.10 31.58
46.20 46.61 48.71 50.96 51.91 52.17 50.63 50.24 48.44 46.51 47.15 46.44 44.15 42.20 41.26 39.60 38.42 37.07 37.52 37.07 36.40 35.68 35.89 35.78 36.04 35.77 35.69 35.53 35.59 35.61 35.38 34.96 34.55 32.96 33.14 33.34 33.88 33.63 32.98 31.39 29.39 27.73 29.63
45.11 46.59 48.61 50.61 51.60 51.23 50.45 49.06 47.12 45.73 45.15 43.09 40.52 39.63 38.97 38.04 37.40 37.08 36.98 36.23 35.74 35.27 35.40 35.68 35.29 35.18 35.07 34.76 34.59 34.71 34.00 33.94 33.81 33.45 33.10 32.52 33.30 33.58 33.50 33.04 31.92 28.86 24.96
43.58 46.38 48.70 49.89 50.56 50.71 48.57 47.31 45.59 43.30 41.87 40.42 39.26 38.02 37.37 37.03 36.24 36.18 35.21 35.33 35.24 35.13 34.94 34.82 34.84 34.55 34.24 33.91 33.53 33.36 33.28 33.11 33.51 33.71 32.60 32.59 32.87 32.91 33.21 32.72 32.19 31.31 28.65
44.50 46.59 48.13 48.34 47.38 45.83 45.34 43.16 41.42 39.64 38.44 37.81 37.18 36.62 35.52 35.16 35.27 34.68 34.43 34.51 34.67 34.64 34.38 34.26 33.87 33.64 33.15 32.82 32.67 32.26 32.53 31.81 32.18 32.76 32.13 31.58 32.26 31.90 32.09 32.17 31.70 30.66 30.07
45.08 45.71 43.48 42.53 43.31 42.04 41.82 41.66 39.98 37.96 36.59 36.70 35.98 34.81 34.37 34.30 33.96 33.56 33.63 34.34 33.71 34.09 33.61 33.46 32.93 32.55 32.16 31.90 31.47 31.15 31.66 31.48 31.25 31.51 31.05 30.78 31.59 30.91 31.23 30.79 30.10 30.19 30.76
40.81 40.26 41.04 41.46 40.77 40.11 39.58 39.00 37.06 35.25 34.71 35.18 34.46 33.88 33.53 33.46 33.06 32.92 33.27 33.47 33.16 32.83 32.80 32.64 31.93 31.36 31.12 30.95 31.17 31.41 31.88 31.96 31.68 31.19 30.44 30.48 30.09 29.39 30.00 30.14 29.95 30.36 30.27
39.85 40.26 39.51 38.68 38.13 38.16 37.77 35.76 34.85 34.57 34.11 34.38 34.01 33.19 32.95 32.78 32.78 32.73 32.68 32.68 32.72 32.16 31.84 31.56 30.84 30.35 30.29 30.53 31.22 32.24 32.72 32.26 31.98 31.12 31.03 30.55 30.08 29.56 29.93 30.23 30.59 30.84 30.25
39.47 38.63 37.26 36.87 36.09 35.57 35.54 34.95 33.98 33.89 34.43 33.56 33.30 32.20 32.14 32.38 32.17 31.96 31.92 31.90 31.98 31.42 31.10 30.42 29.76 29.65 30.30 31.24 33.23 33.76 33.18 31.99 31.35 31.11 30.92 31.15 31.76 33.17 33.21 31.80 30.92 30.42 29.90
39.38 37.70 36.87 35.76 34.82 34.76 34.36 34.14 33.62 33.60 34.33 33.13 31.78 31.93 31.79 31.82 31.58 31.32 31.04 30.94 30.46 30.16 29.85 29.11 28.50 28.55 29.72 32.22 34.66 34.94 33.18 31.89 30.69 29.93 30.55 30.80 31.05 30.98 33.25 33.24 33.57 32.74 30.29
39.21 37.14 36.08 35.59 35.06 34.63 34.47 33.54 33.44 33.81 32.97 31.91 31.71 31.64 31.83 31.14 30.89 30.92 30.67 29.98 29.24 29.20 28.51 28.26 28.05 27.63 27.79 32.25 34.32 34.49 32.86 31.06 30.63 30.18 29.93 29.61 30.31 31.40 30.22 31.63 33.19 33.48 34.78
39.61 37.82 37.15 35.34 34.53 34.74 34.28 33.37 33.56 32.91 32.11 31.52 31.48 31.72 31.11 30.11 30.21 30.17 29.38 28.82 28.70 28.06 27.89 27.57 27.15 26.74 27.71 31.94 33.28 33.58 31.89 30.87 30.57 30.24 29.89 29.28 29.40 30.21 30.71 31.06 31.65 31.09 30.04
40.90 39.23 37.76 35.38 34.67 33.91 33.87 33.07 32.33 31.98 31.67 31.03 30.85 30.55 30.37 29.77 29.87 28.52 28.27 27.83 27.77 27.46 26.96 27.05 26.39 26.29 27.45 30.55 32.29 32.43 30.92 29.97 29.82 30.05 30.11 29.99 29.78 31.81 33.34 31.44 29.60 28.10 28.02
40.46 37.40 36.08 35.34 34.18 33.51 33.83 32.63 31.42 31.53 30.48 30.45 30.06 30.29 30.42 29.97 28.32 27.74 27.40 26.71 26.74 27.14 27.11 26.24 26.87 26.66 26.54 29.33 31.78 31.98 30.42 29.03 29.19 30.15 30.25 31.07 31.04 32.51 33.53 30.10 28.32 25.65 25.52
37.88 36.98 36.25 34.65 33.09 33.62 33.64 31.61 31.46 30.07 29.76 29.82 29.68 29.51 29.57 28.02 27.49 26.79 26.35 25.79 25.81 25.51 25.02 25.64 26.30 26.59 27.42 28.47 31.21 31.92 30.42 29.33 29.25 28.58 28.71 29.68 31.58 32.89 32.16 31.37 27.43 25.84 29.36
35.94 35.00 32.76 32.04 33.10 33.74 33.06 31.66 28.94 28.99 29.84 29.13 28.66 28.15 27.83 28.22 26.59 25.85 25.22 24.94 24.69 24.35 24.19 24.77 26.49 27.52 27.26 28.88 30.14 31.60 32.09 32.07 28.95 28.21 29.32 29.51 31.87 30.80 30.04 28.73 28.77 30.30 29.27
33.15 33.11 31.61 30.25 31.04 32.66 32.94 29.04 27.96 28.95 28.18 28.05 27.17 26.39 26.30 26.02 25.90 25.36 24.68 25.08 24.06 23.71 24.06 25.21 25.33 25.85 27.43 27.22 29.58 30.98 31.57 31.60 29.77 30.00 30.30 30.97 29.72 28.44 26.41 26.73 28.35 27.38 23.56
30.55 31.04 30.68 29.44 28.48 31.22 30.45 28.67 28.29 28.07 27.28 26.22 25.57 25.77 25.37 24.70 24.70 26.14 25.22 24.15 23.94 24.07 25.17 25.10 24.93 25.25 25.64 26.19 27.36 28.41 29.58 30.37 29.80 29.90 28.70 27.68 26.42 25.78 25.21 23.96 24.09 23.64 23.42
30.97 31.05 29.34 27.31 25.91 27.12 27.10 27.63 26.95 26.84 25.31 24.95 25.26 25.42 24.68 24.11 24.01 24.48 24.19 25.01 25.48 26.24 26.60 26.26 25.89 24.62 24.33 26.27 30.01 29.65 28.62 29.50 29.15 28.44 25.13 22.28 21.50 20.82 21.12 21.60 22.13 22.61 22.70
28.82 27.43 26.65 25.94 25.49 25.78 25.06 25.27 25.98 26.45 25.51 24.87 25.47 24.99 24.15 23.32 24.01 23.08 23.26 26.58 28.40 28.98 29.10 28.89 28.04 27.41 28.69 29.78 30.03 30.25 30.70 30.15 28.98 24.28 20.34 19.59 19.88 19.32 19.36 19.43 20.04 21.09 21.84

GFSMW_sfc_wetblb_042.txt.gz
Wetbulb
55.10 56.61 58.09 59.39 59.98 59.91 60.13 60.85 61.47 63.35 65.26 65.79 66.26 67.01 64.88 63.29 61.66 60.70 57.45 56.44 54.15 51.17 47.66 50.35 49.15 49.15 47.43 46.19 46.22 45.58 45.10 44.37 44.92 45.12 46.25 47.16 46.95 48.05 47.98 47.67 46.43 45.58 44.66
51.25 53.90 55.85 57.88 58.99 59.21 59.82 60.79 61.69 63.89 65.10 65.51 65.11 65.15 61.37 57.62 54.44 53.50 51.10 52.32 49.19 46.84 45.51 48.37 47.89 47.03 45.66 45.04 44.86 44.99 44.49 43.58 43.93 41.89 42.99 42.53 43.77 46.24 46.61 45.15 45.28 43.79 44.32
49.23 50.71 52.74 55.74 58.51 58.71 59.61 60.10 61.65 63.85 64.53 64.53 63.98 59.27 54.71 51.29 47.48 47.63 47.73 47.16 47.05 46.79 46.70 47.57 46.89 46.14 45.59 44.03 43.93 44.01 43.49 42.54 42.94 42.18 41.53 40.40 40.07 39.79 44.15 43.56 42.80 43.13 41.95
49.89 50.48 51.55 53.05 56.83 58.66 60.36 60.29 61.47 62.82 63.34 61.51 58.27 56.45 57.35 53.17 49.56 47.78 45.37 43.76 44.25 46.29 45.58 45.93 45.68 44.95 44.39 43.62 42.77 42.89 42.77 43.08 41.31 42.75 40.98 41.03 39.71 37.02 36.39 41.64 41.64 41.45 40.10
49.73 50.39 51.49 52.30 55.02 58.69 59.83 60.04 60.63 61.28 60.20 59.43 60.02 59.73 57.80 54.50 48.37 45.15 42.17 41.01 42.14 43.42 43.51 44.46 44.28 43.63 43.18 42.68 42.24 41.81 41.36 41.92 41.59 40.39 40.09 39.84 39.30 38.92 36.10 34.38 37.69 39.59 40.57
49.38 50.37 51.83 53.17 54.09 57.81 59.53 59.78 59.06 58.80 58.73 59.51 59.52 60.32 56.32 49.30 44.78 42.45 39.35 39.57 40.97 41.71 43.38 43.15 43.24 42.92 42.27 41.91 41.32 41.13 40.36 41.00 40.48 40.20 39.34 37.71 36.74 36.46 35.63 34.37 35.24 35.28 37.80
49.17 50.20 51.60 52.75 53.88 55.84 58.44 58.37 57.87 56.68 57.42 57.95 58.78 56.69 51.90 48.48 46.15 41.16 39.32 40.04 40.79 39.85 41.90 42.36 41.95 41.75 41.56 41.17 41.19 40.87 40.90 40.16 39.75 38.79 38.26 38.07 37.39 37.29 36.06 34.69 34.08 33.65 36.10
50.11 49.59 51.82 53.47 54.28 55.61 57.72 57.37 56.80 55.32 55.93 55.95 55.22 54.09 49.74 45.21 41.15 40.12 38.95 39.08 40.61 42.65 42.06 41.61 41.30 40.76 40.57 40.35 40.36 40.87 40.52 39.84 39.51 37.20 37.55 37.17 37.39 37.37 36.55 34.77 33.10 31.02 33.31
49.58 50.05 51.06 53.38 54.81 55.99 57.24 56.84 56.03 54.52 54.61 54.05 52.48 49.16 44.50 41.08 40.70 38.68 39.51 40.08 40.25 40.86 40.97 40.94 40.29 40.16 39.77 39.39 39.38 39.80 38.87 38.78 38.47 37.67 37.49 36.92 37.17 37.24 36.98 36.36 35.25 32.22 28.56
49.82 49.52 50.11 52.77 55.11 56.69 57.18 56.83 55.46 53.46 52.59 50.71 49.43 45.63 41.09 39.59 38.84 39.78 39.60 41.24 40.89 40.41 40.15 40.00 39.72 39.33 38.82 38.39 38.39 38.28 37.84 37.19 37.84 37.16 36.72 36.49 36.74 36.44 36.51 36.01 35.39 34.44 31.72
49.08 48.65 50.03 53.32 55.06 56.31 55.74 54.28 52.96 50.71 48.96 47.71 44.72 42.37 38.91 38.95 39.25 40.54 41.45 40.80 40.31 39.97 39.44 39.20 38.88 38.25 37.66 37.51 37.59 36.96 36.61 35.73 36.26 36.75 35.96 35.28 35.76 35.20 35.25 35.17 34.48 33.32 32.75
48.33 49.33 50.99 52.92 53.71 53.14 52.60 51.19 49.41 48.15 46.44 43.39 42.20 38.83 39.06 39.16 40.22 40.46 40.02 40.00 39.28 39.46 38.85 38.40 37.75 36.98 36.43 36.60 36.07 35.46 35.87 35.48 35.25 35.46 35.11 34.57 34.73 33.93 34.15 33.84 32.93 32.68 33.28
46.96 46.78 48.35 49.46 50.72 50.37 49.65 48.03 45.65 42.06 42.06 40.77 38.47 37.88 39.63 40.07 39.52 39.18 38.98 39.06 38.66 38.17 37.83 37.52 36.52 35.73 35.44 35.33 35.34 35.30 35.60 35.85 35.69 35.39 34.57 34.13 33.58 32.64 33.24 33.03 32.71 33.08 32.85
44.96 45.87 47.16 48.02 48.57 46.37 44.15 41.67 38.87 38.08 37.68 37.77 37.73 38.85 39.91 39.15 38.46 38.38 38.24 38.05 38.03 37.42 36.84 36.39 35.30 34.87 34.76 34.53 34.56 35.53 35.94 36.15 35.79 35.40 34.74 34.06 33.07 32.58 32.62 32.71 32.81 32.67 31.87
43.24 44.12 44.96 45.57 43.31 39.88 38.32 37.16 36.63 36.70 37.11 36.51 37.44 38.62 38.70 38.19 37.53 37.12 37.35 37.22 37.20 36.48 35.83 34.94 34.49 34.56 34.30 34.18 35.05 36.06 36.34 35.65 35.02 34.94 34.43 34.07 33.73 33.53 33.90 32.66 32.17 31.78 31.11
41.89 42.32 42.28 40.60 38.18 36.82 35.75 35.60 35.27 35.52 36.37 36.03 35.89 37.29 36.90 36.87 36.48 36.53 36.34 36.20 35.38 35.15 34.77 34.04 33.66 33.29 33.29 32.14 34.43 35.41 35.36 35.02 34.13 33.02 33.50 33.72 33.52 33.28 33.98 34.24 34.08 33.03 31.08
41.35 40.95 39.12 38.03 36.75 36.27 35.89 34.89 35.40 36.48 35.82 36.87 36.75 36.49 36.46 35.75 35.69 35.87 35.48 34.78 34.21 34.69 33.86 33.25 33.05 32.79 32.83 31.95 34.08 34.63 34.59 34.11 33.38 32.95 32.63 32.40 32.89 33.08 32.16 32.85 33.87 34.28 34.76
42.14 40.48 37.60 37.15 36.82 37.04 36.73 36.47 36.83 37.96 37.69 36.68 36.27 36.29 35.70 34.73 34.99 34.94 34.14 33.40 33.91 33.56 33.37 33.20 32.67 32.20 32.37 31.54 33.11 33.78 34.06 33.64 33.35 33.05 32.76 32.19 32.09 32.38 32.06 31.58 32.50 32.91 32.54
42.99 39.98 38.77 38.20 38.40 38.02 38.30 38.64 38.19 37.80 37.01 35.75 35.15 34.83 34.77 34.08 34.31 33.37 32.51 33.05 33.24 33.28 33.25 32.51 31.63 31.52 32.16 30.83 32.22 32.90 33.02 32.66 32.56 32.86 33.06 32.68 31.79 32.87 33.68 32.10 31.50 30.10 30.52
43.06 40.68 40.20 40.12 39.31 38.83 39.25 37.97 36.90 36.57 34.63 34.52 34.24 34.67 34.84 34.22 33.42 31.95 32.80 32.64 33.10 32.42 32.36 31.55 31.98 30.46 31.15 31.12 31.73 32.50 32.19 31.33 31.61 32.49 32.77 33.04 32.43 33.29 33.56 31.67 29.63 28.15 28.19
40.82 40.77 40.29 39.33 38.42 38.79 38.26 36.25 35.77 34.24 34.33 33.90 33.26 32.93 33.05 31.83 32.16 33.04 32.92 32.23 32.17 31.75 31.53 30.87 31.94 31.42 31.28 31.23 31.42 32.02 31.50 31.06 30.59 30.62 30.57 31.74 32.84 33.11 32.96 32.01 29.03 27.78 29.65
37.90 37.04 34.98 35.19 36.05 37.20 36.25 34.36 31.80 31.78 31.91 31.61 30.91 30.59 31.06 31.78 32.70 32.47 31.82 31.32 31.39 31.07 30.44 30.46 31.07 31.90 31.69 30.95 30.87 31.64 32.09 32.34 30.32 29.50 30.71 31.58 32.36 31.87 31.10 29.95 29.68 30.37 30.33
36.88 38.02 37.08 36.12 37.05 36.57 34.26 30.26 30.09 30.64 30.52 30.41 30.01 31.00 32.00 31.95 32.19 32.06 31.21 31.77 30.86 30.00 29.59 29.29 29.15 29.73 30.58 30.83 30.77 31.48 32.08 32.35 30.93 30.89 31.63 32.09 31.00 29.93 28.21 28.34 28.86 28.34 26.71
35.76 36.27 35.75 35.15 33.90 32.91 31.45 30.15 30.18 30.88 30.91 30.77 31.25 31.68 31.40 30.97 31.31 31.17 31.17 30.88 30.17 29.40 28.76 28.54 28.16 28.57 29.01 29.52 30.24 30.56 30.93 31.48 31.04 31.20 31.10 29.84 28.80 27.86 27.53 26.77 27.01 26.78 26.28
35.37 35.96 34.52 33.61 31.37 30.64 29.83 30.35 30.86 32.13 31.88 31.86 31.62 31.33 31.07 30.84 30.41 30.16 30.72 30.65 30.90 29.64 28.34 28.48 28.15 27.09 26.79 28.27 30.32 30.50 29.55 30.51 30.44 29.85 27.50 25.98 25.09 24.39 24.63 24.97 25.37 25.79 25.70
33.30 32.71 32.31 31.62 30.73 29.86 29.25 30.19 32.59 32.99 31.87 30.71 30.68 30.71 30.46 30.42 29.94 29.59 29.86 27.99 28.27 28.40 28.38 28.42 28.14 28.44 29.31 29.87 30.02 30.15 30.80 30.41 29.83 25.87 23.88 23.30 23.42 22.79 22.77 22.60 22.81 23.76 24.55

GFSMW_sfc_wetblb_045.txt.gz
Wetbulb
55.29 56.81 57.86 59.22 59.65 60.35 61.18 61.54 62.05 62.42 63.54 65.28 66.51 67.44 67.43 66.70 64.97 66.17 67.14 65.76 62.94 58.19 55.99 54.08 52.94 52.39 50.93 49.55 48.83 47.49 46.81 45.64 45.65 46.86 47.67 48.01 47.40 48.51 48.47 48.67 47.12 46.84 46.04
52.01 53.80 55.64 57.41 58.36 59.40 60.97 61.20 61.70 62.43 63.91 65.81 67.07 67.59 66.78 60.72 60.70 61.34 62.71 60.85 57.59 54.61 52.20 51.22 51.06 49.82 48.27 47.30 47.02 47.09 45.63 45.00 44.92 42.46 44.61 44.07 44.66 46.66 47.82 47.68 45.81 44.84 45.27
50.58 51.56 52.53 55.25 58.49 59.01 60.06 60.86 61.54 62.83 64.55 65.82 66.83 66.72 59.00 54.59 52.04 52.19 51.63 51.91 51.75 50.18 50.08 50.11 49.07 48.82 48.60 47.03 46.45 46.00 45.89 44.10 44.34 43.33 41.87 40.90 40.87 40.40 45.33 44.51 44.54 43.80 44.06
50.65 51.34 51.99 53.15 55.40 58.35 61.19 61.54 61.97 62.91 64.72 66.03 65.03 62.58 57.13 53.21 50.34 50.06 50.33 49.60 50.11 49.43 49.15 49.00 48.22 47.41 47.19 45.65 44.87 44.49 44.15 44.73 41.93 43.47 41.99 42.13 40.22 37.00 36.40 43.23 42.84 43.51 40.99
50.45 50.68 51.81 53.25 54.03 56.62 60.09 61.78 62.08 62.82 64.56 64.61 64.48 60.87 58.18 57.82 50.62 47.46 46.16 45.63 47.02 47.05 46.35 46.05 46.50 46.36 45.77 44.37 43.96 43.41 42.70 42.13 41.90 40.72 40.18 40.13 40.26 39.70 36.57 34.65 38.41 40.35 41.47
49.83 50.59 52.03 53.58 54.34 56.19 59.37 61.81 61.43 62.14 63.87 63.79 60.98 59.55 60.57 52.14 46.35 43.81 43.44 44.04 44.67 45.40 45.82 44.66 45.56 45.13 44.31 43.48 42.75 42.69 42.19 41.29 40.91 40.28 39.43 38.04 36.86 36.71 36.38 34.77 35.22 35.26 38.01
49.24 49.93 50.59 51.72 52.75 54.61 55.97 60.52 60.55 60.63 61.83 60.62 60.99 60.77 60.01 51.31 46.89 44.71 42.92 41.32 42.02 42.21 42.49 44.27 43.87 43.53 43.34 42.76 42.65 42.36 42.17 41.14 40.25 39.27 38.58 38.57 37.80 38.22 36.68 35.12 34.06 33.45 36.12
49.48 50.81 51.76 52.55 53.23 55.09 56.04 58.84 59.51 59.64 59.60 60.20 60.38 61.82 55.20 51.97 47.99 45.48 42.40 41.59 41.99 41.59 43.39 43.99 43.15 42.26 41.99 41.69 41.93 41.49 41.21 40.69 40.08 38.80 38.50 37.99 37.83 38.20 37.29 35.33 33.37 30.78 32.67
49.27 50.67 51.82 52.81 53.56 54.96 55.61 58.55 58.97 58.93 58.87 59.44 60.52 56.12 53.37 49.18 45.50 43.60 43.25 41.80 41.86 42.18 41.90 42.49 41.70 41.41 41.13 40.96 40.76 40.28 39.15 38.83 38.78 38.46 38.65 37.76 38.04 38.17 37.66 36.92 35.62 32.34 27.91
49.16 50.33 50.90 52.30 52.84 55.11 56.49 58.92 58.78 57.41 58.03 58.54 56.81 52.58 47.63 43.92 41.66 41.98 40.70 41.01 41.26 42.11 41.75 41.39 41.03 40.53 40.19 39.67 39.36 38.68 38.44 37.48 38.14 38.06 37.11 37.07 37.35 37.08 36.98 36.34 35.74 34.63 31.57
48.90 50.08 50.78 51.64 53.15 55.74 57.02 57.77 57.70 56.41 56.01 54.86 51.16 47.36 43.73 41.23 40.59 39.88 40.41 39.62 40.94 40.65 41.10 40.71 40.14 39.60 38.90 38.45 38.06 37.43 37.05 36.49 36.99 37.40 36.76 36.16 36.49 35.75 35.54 35.37 34.62 33.35 32.69
49.17 49.82 51.33 52.16 53.85 55.85 56.62 56.69 55.55 54.18 53.01 50.20 46.77 43.40 41.61 40.85 40.42 40.32 39.84 40.90 40.12 41.06 40.36 39.90 39.20 38.45 37.83 37.38 36.70 36.05 36.63 36.19 35.86 36.13 35.93 35.28 35.66 34.78 34.67 34.06 33.24 32.87 33.00
48.56 49.18 50.34 51.89 53.24 54.28 54.40 54.13 52.33 50.73 48.41 46.56 43.41 40.86 40.40 40.07 39.58 39.45 40.84 40.52 40.57 39.35 39.20 38.95 38.02 37.27 36.62 36.10 35.97 36.01 36.09 36.27 36.34 36.11 35.40 34.82 34.39 33.21 33.38 33.18 32.47 32.79 33.50
48.35 48.33 48.92 49.91 50.93 51.79 51.45 50.48 48.68 46.58 45.23 43.74 41.78 40.01 40.00 39.00 39.18 39.36 40.34 39.72 39.22 38.42 38.22 37.89 36.90 36.14 35.61 35.33 35.21 36.15 36.23 36.60 36.55 36.43 35.84 34.95 34.00 32.88 32.49 32.08 31.93 32.42 31.28
47.15 46.58 47.15 47.97 48.71 48.87 47.63 44.81 44.28 43.27 41.61 41.38 40.09 38.63 39.42 39.05 39.90 39.24 39.05 38.78 38.55 37.86 37.21 36.23 35.62 35.41 35.26 34.97 34.37 35.44 35.87 35.59 35.42 35.62 35.28 34.96 35.35 34.98 34.55 32.74 31.90 31.59 30.33
44.19 44.23 45.77 46.02 43.67 41.21 40.22 39.47 38.95 38.44 39.61 39.45 38.21 38.15 38.56 39.10 38.43 38.07 37.87 37.40 36.64 36.20 35.98 35.13 34.77 34.50 34.34 32.92 34.20 35.07 34.30 34.36 34.18 33.68 33.79 34.13 34.63 34.29 35.12 35.27 35.23 33.85 30.52
42.78 42.60 43.00 40.92 38.73 36.89 37.05 36.51 36.90 37.52 36.82 37.43 36.71 37.60 38.10 37.65 37.54 37.52 36.74 36.01 35.55 35.69 34.91 34.42 34.04 33.67 33.83 32.29 33.88 34.58 33.61 33.11 33.59 33.13 32.90 32.63 33.50 33.78 32.60 33.65 34.53 34.15 34.89
41.88 41.18 39.78 38.70 36.50 36.57 36.32 37.09 37.82 36.23 36.74 35.90 36.24 36.82 37.40 36.57 36.59 36.27 35.28 34.80 35.07 34.83 34.38 33.75 33.41 33.22 33.64 31.59 32.84 33.84 32.84 33.20 33.34 33.35 33.00 32.29 32.19 32.80 32.54 31.81 30.99 31.45 32.21
41.27 39.74 38.13 36.50 35.90 35.88 36.84 37.39 36.93 36.36 36.27 35.70 36.12 37.12 36.67 36.07 35.57 34.38 33.89 34.12 34.06 33.82 33.59 32.96 32.69 32.51 32.65 31.72 32.13 32.70 31.89 32.02 31.91 33.12 33.15 32.85 32.27 33.84 34.55 31.64 29.82 30.15 29.51
38.49 36.86 37.09 36.82 36.79 37.20 38.25 37.37 36.51 36.35 36.12 36.73 36.46 36.59 36.45 35.52 34.04 33.50 33.44 33.77 33.95 32.77 32.64 32.37 32.76 32.55 31.11 32.70 32.16 32.30 31.09 30.04 30.88 31.82 32.13 33.93 32.89 34.37 34.36 31.25 29.28 26.77 27.24
38.33 38.60 38.04 37.40 37.30 38.62 39.09 38.06 37.99 36.27 36.20 36.39 35.94 35.13 34.46 33.41 33.79 33.75 33.69 33.22 32.58 32.26 32.29 31.68 32.76 32.73 32.52 31.72 32.14 32.34 30.51 30.21 29.97 29.81 29.95 31.22 33.53 33.72 33.96 33.31 28.92 27.52 29.41
40.71 41.49 40.12 39.78 40.54 41.07 39.41 36.86 34.34 34.40 33.78 32.88 32.27 31.88 32.41 33.46 33.70 32.87 32.57 32.13 31.95 31.78 31.56 31.39 31.25 32.26 32.49 32.58 32.08 31.96 32.20 32.66 30.14 29.13 30.05 30.72 32.90 33.17 32.39 30.69 30.61 31.00 30.74
35.04 35.78 36.00 35.81 36.20 35.55 34.05 30.64 30.58 31.21 31.01 30.71 30.74 31.71 32.69 33.05 33.45 32.76 31.96 31.83 31.52 30.78 30.31 29.57 29.37 29.92 30.88 31.04 32.38 32.35 32.74 32.72 30.58 30.64 31.59 32.60 32.16 31.36 29.29 29.43 30.12 29.77 26.23
37.96 37.46 36.87 35.14 32.81 32.43 31.25 30.40 30.73 31.41 31.26 31.06 31.85 32.09 31.76 31.96 32.01 31.55 31.56 31.29 30.63 29.61 28.82 28.45 28.13 28.41 28.82 29.30 29.92 30.03 30.23 31.24 30.50 31.04 29.91 30.10 29.88 29.47 28.43 27.21 27.05 26.35 25.87
38.02 38.48 36.13 32.24 30.24 30.27 29.93 30.91 31.54 32.53 31.88 32.10 31.70 31.59 31.43 31.63 31.02 30.74 30.95 30.64 31.00 29.10 27.53 27.61 27.05 26.29 25.89 27.70 30.27 29.96 28.87 29.24 30.18 29.61 27.08 25.52 24.93 24.20 24.39 24.62 24.90 25.19 25.14
36.61 33.78 31.25 29.59 29.27 29.58 29.95 31.60 33.88 34.02 32.52 30.96 31.01 31.32 31.09 31.03 30.69 30.31 30.40 29.41 28.82 28.52 28.99 28.83 27.81 27.65 29.34 30.02 29.99 30.14 30.77 30.93 30.46 25.85 23.31 22.92 23.12 22.60 22.58 22.36 22.55 23.41 24.35

GFSMW_sfc_wetblb_048.txt.gz
Wetbulb
51.64 52.32 52.91 53.48 53.60 54.51 55.78 58.08 57.90 58.09 58.93 57.89 63.69 65.51 65.20 65.09 66.40 66.24 65.58 64.90 61.97 55.68 51.78 50.55 49.06 48.28 46.62 45.03 44.20 42.42 41.73 39.67 39.59 39.33 39.87 40.62 41.64 42.86 41.94 42.73 41.87 41.39 41.40
48.13 49.75 51.29 52.35 53.31 54.08 54.50 55.23 57.03 58.21 59.20 59.88 61.57 64.29 60.94 59.01 58.66 62.29 63.87 61.32 56.13 53.14 50.53 48.60 47.00 45.33 43.95 42.92 43.56 41.97 40.73 39.82 38.88 36.56 37.40 36.18 38.17 40.57 41.81 41.65 40.94 38.76 38.93
47.24 48.19 48.45 49.99 51.41 53.09 53.77 55.43 56.39 56.64 59.20 60.24 62.03 57.11 56.14 53.31 51.71 52.30 50.72 51.79 50.35 49.57 50.63 50.10 48.14 45.66 44.87 43.42 42.98 42.06 40.97 38.87 38.23 37.43 36.56 33.97 33.23 33.63 38.11 38.21 38.80 37.61 36.94
47.78 48.14 48.12 47.62 49.60 52.06 54.40 54.79 56.43 56.71 58.22 60.78 61.73 58.54 58.09 54.99 50.86 50.02 49.77 49.38 48.45 49.73 49.92 49.30 46.35 45.54 43.26 41.36 40.26 41.24 39.09 38.99 36.97 37.42 39.37 36.06 34.52 30.94 29.61 35.22 36.08 36.22 36.68
45.63 46.30 47.12 48.63 49.07 49.30 52.01 55.41 55.59 57.30 57.96 61.74 62.48 58.46 54.93 50.89 49.73 48.17 47.49 47.23 48.76 49.39 48.27 45.98 44.36 42.96 41.42 40.99 39.12 38.34 37.53 37.04 36.35 35.43 34.85 34.23 34.04 33.41 30.63 28.46 31.51 33.91 35.05
43.82 44.99 46.62 48.13 47.80 48.87 49.52 52.61 54.96 55.95 58.44 61.24 60.78 57.10 52.92 48.61 45.74 44.40 44.55 44.58 45.55 44.87 44.85 44.31 42.59 41.66 40.40 39.34 38.65 37.76 36.85 36.21 35.75 35.35 34.62 33.65 31.98 31.10 30.06 28.24 28.27 29.11 31.99
42.09 43.81 45.04 45.94 46.94 47.27 49.08 50.05 55.17 55.16 59.01 59.59 58.23 56.67 50.62 47.37 44.82 43.51 43.27 42.78 42.65 42.72 43.62 43.57 42.51 39.90 40.15 39.63 38.87 38.00 36.86 35.89 35.03 33.82 33.40 33.90 33.37 33.66 32.18 30.07 28.19 27.49 29.82
42.66 43.10 45.24 47.12 47.85 48.38 48.78 49.07 54.65 55.53 58.28 57.95 56.19 55.47 48.67 46.09 44.45 44.17 43.86 42.85 42.27 42.88 43.68 42.62 41.69 40.63 39.59 38.55 38.23 37.30 36.26 35.58 34.86 33.22 32.93 33.18 33.14 33.50 32.71 30.72 28.17 26.74 26.63
43.42 43.29 46.40 47.04 47.78 47.92 49.27 49.70 54.26 55.32 56.81 56.63 56.57 50.99 48.16 45.19 43.75 42.66 43.14 42.45 42.40 42.34 42.17 41.20 39.63 38.40 37.73 37.56 37.20 36.02 34.37 33.87 33.38 32.52 32.43 32.47 33.05 33.04 32.34 31.84 30.61 27.24 24.50
42.90 44.68 46.53 47.35 48.08 48.22 50.20 50.43 54.87 54.75 55.28 55.96 53.02 49.95 46.83 44.78 42.41 42.79 42.07 41.61 41.33 41.20 40.54 39.40 38.94 38.39 36.60 36.36 35.84 34.69 34.33 33.14 32.59 33.28 31.97 31.81 32.25 31.71 31.42 30.87 30.74 29.60 26.78
42.97 44.65 46.09 47.41 48.14 47.97 49.98 51.83 54.16 54.29 54.97 54.31 48.32 42.53 40.20 40.68 41.20 41.18 40.79 40.52 40.80 40.30 40.00 39.45 38.53 36.98 35.41 35.07 34.20 33.26 33.40 32.41 32.20 32.32 32.18 32.06 31.91 30.73 30.19 29.92 29.55 28.38 27.45
43.32 45.49 45.93 46.88 47.70 48.74 50.64 52.76 54.57 54.87 50.34 45.58 41.62 38.96 38.80 38.91 39.26 39.21 39.37 40.21 39.66 39.94 38.83 38.58 36.82 35.71 34.76 33.75 32.66 32.12 32.62 31.95 31.55 31.82 31.50 31.28 34.05 29.67 29.56 28.53 27.84 27.54 27.58
43.18 45.37 45.19 46.78 48.73 50.92 52.82 52.83 52.92 47.10 43.79 41.27 38.87 37.86 38.47 39.16 38.99 39.26 39.86 40.10 39.88 38.51 38.24 36.81 35.36 34.11 34.25 33.70 32.53 32.44 31.99 31.90 31.91 31.84 31.09 30.74 30.26 28.43 28.19 27.73 27.07 27.51 30.53
44.51 44.84 44.41 45.84 49.15 49.64 49.99 48.75 45.09 43.39 40.26 38.45 38.35 38.58 39.12 39.04 39.03 39.12 38.93 38.36 37.91 36.61 36.11 34.43 33.91 33.93 33.64 33.27 32.92 33.51 32.45 31.87 32.29 32.64 31.80 30.86 30.09 28.88 27.54 28.34 27.43 29.06 27.29
44.98 44.33 44.26 45.85 47.73 48.00 46.38 44.02 42.31 39.99 38.64 38.25 38.66 38.24 38.63 38.61 38.40 37.72 37.46 36.46 37.03 35.16 34.48 33.00 33.19 33.08 33.21 33.91 32.68 33.17 32.41 31.11 30.56 30.67 31.45 31.25 32.93 35.95 34.55 31.78 27.76 27.73 27.38
43.04 43.00 44.20 45.81 43.18 41.97 41.41 41.01 39.01 38.25 38.53 38.74 38.82 38.38 37.55 37.41 36.93 36.49 35.87 35.00 33.34 33.05 33.64 32.08 32.93 31.14 33.66 34.45 34.62 34.40 31.68 30.55 29.47 28.69 29.56 30.02 33.36 32.33 35.57 35.63 35.61 33.96 29.54
43.08 43.68 43.04 39.46 38.15 38.27 38.29 38.00 37.32 38.94 39.02 37.74 37.51 37.17 36.72 36.17 35.85 35.39 34.66 32.98 32.74 31.95 32.14 31.42 30.90 31.53 31.72 33.81 33.91 34.30 31.05 29.46 28.64 28.22 28.33 29.13 32.12 32.15 29.16 32.70 34.60 33.60 34.63
43.28 42.15 38.99 37.08 36.53 36.92 36.90 37.02 37.23 37.43 36.98 36.86 36.27 36.30 35.89 34.96 34.58 33.91 32.82 31.96 32.73 31.16 30.03 31.13 31.73 31.24 32.27 33.15 32.97 33.79 29.42 28.41 28.07 28.25 28.12 27.40 27.47 28.74 31.25 29.64 26.68 27.65 28.61
39.67 37.81 36.77 35.95 35.66 35.72 36.67 36.74 36.38 36.00 35.49 35.00 35.01 35.24 35.14 34.10 33.57 32.34 31.65 30.69 29.75 31.61 31.12 31.44 30.41 28.25 27.74 32.41 32.53 31.80 28.28 27.82 26.07 28.63 28.25 29.34 28.15 32.74 34.90 30.74 26.50 27.86 28.07
36.27 35.04 35.53 36.13 36.21 36.61 36.97 35.90 35.11 34.95 34.25 34.42 34.81 35.26 34.43 33.20 31.13 29.60 30.17 32.02 31.66 30.86 30.76 28.97 28.21 31.44 26.89 32.64 32.97 31.76 28.16 25.33 25.88 26.79 28.22 32.73 31.56 34.09 34.36 30.48 29.11 25.71 25.19
36.58 37.32 37.11 36.83 37.58 38.65 38.25 36.06 35.70 34.42 35.21 35.45 34.43 32.98 31.99 31.11 31.64 32.00 31.60 30.84 29.30 28.51 27.30 26.93 27.42 27.86 28.53 27.61 33.10 33.24 28.10 26.37 26.71 25.93 26.35 27.02 32.91 33.78 34.33 34.04 27.30 26.29 29.04
37.36 37.67 36.62 37.11 39.05 39.36 37.43 33.91 32.36 32.79 31.91 31.12 31.08 31.60 32.26 33.01 32.20 30.02 28.62 27.83 27.49 26.52 26.03 25.83 25.33 26.59 26.62 32.31 31.93 33.29 32.92 32.39 27.28 26.04 26.08 27.05 32.95 33.18 32.70 30.91 31.23 31.72 31.12
35.85 36.84 34.57 32.66 34.03 34.44 32.67 28.73 28.31 30.83 30.94 30.86 30.66 31.09 31.26 30.30 29.57 27.86 27.06 26.55 26.90 25.62 24.69 24.62 23.58 23.39 25.28 24.58 31.99 32.34 32.51 32.02 28.78 27.86 30.16 32.32 32.01 31.19 28.71 29.43 30.56 29.74 23.44
34.96 34.98 33.31 31.52 30.22 30.97 30.97 30.52 30.86 31.48 31.31 30.37 29.54 28.84 28.40 27.73 27.44 27.44 27.42 26.19 25.11 23.94 23.31 22.70 21.78 21.47 22.43 23.23 24.42 27.05 25.52 29.45 28.26 29.41 26.54 29.07 28.97 28.90 27.60 25.75 24.84 23.67 23.42
35.77 33.80 31.52 29.48 28.58 29.71 29.92 31.02 31.82 32.22 30.45 28.85 27.35 27.38 27.69 26.93 25.95 25.79 24.47 23.58 24.35 24.77 22.92 22.50 22.54 21.07 20.88 24.15 29.66 29.08 27.20 27.33 29.31 28.92 24.42 22.39 21.30 21.34 21.91 22.26 22.50 22.82 22.85
31.54 30.49 29.64 28.97 29.02 29.93 30.59 31.78 32.64 31.59 29.25 27.47 26.94 26.36 25.50 25.24 24.74 23.83 23.41 29.98 29.26 29.22 29.04 28.83 26.52 25.06 28.40 30.01 30.18 30.32 31.05 31.04 30.41 24.01 20.24 19.69 20.41 20.26 20.58 20.60 20.83 21.67 22.65

GFSMW_sfc_wetblb_051.txt.gz
Wetbulb
48.78 49.39 49.58 50.42 50.92 51.73 52.96 55.66 55.86 57.69 61.29 65.97 65.31 64.84 63.84 65.09 63.60 65.02 65.15 63.36 59.91 56.93 53.11 51.19 48.39 46.65 45.12 43.44 42.55 40.89 39.39 38.05 37.90 38.67 38.37 39.75 40.26 40.49 40.29 40.95 39.81 40.22 40.53
46.88 47.50 48.63 49.02 50.03 51.15 50.99 52.78 55.03 57.09 59.49 62.88 66.12 65.24 64.05 60.64 61.88 63.30 64.46 63.18 57.61 53.75 51.65 49.58 46.95 45.44 43.56 42.18 41.48 41.96 39.77 40.30 38.26 37.01 36.86 36.10 38.05 39.43 40.14 40.09 40.12 37.57 38.25
44.66 45.52 45.84 46.91 47.86 48.99 50.55 52.35 53.11 55.15 56.15 56.93 58.57 57.02 56.15 55.30 55.07 53.71 55.45 54.61 53.65 51.98 49.76 47.93 45.83 43.23 42.66 41.77 41.49 41.43 41.26 38.01 37.41 36.80 37.28 33.77 33.74 32.76 36.53 37.27 37.42 35.81 35.40
43.91 45.36 46.33 45.65 46.09 47.22 49.68 51.63 53.28 54.30 55.85 57.34 58.43 59.43 59.65 58.80 54.62 52.00 50.33 49.44 50.30 51.28 51.16 49.05 45.49 44.49 43.06 40.80 40.61 40.55 39.37 39.20 36.26 37.03 38.27 34.82 33.58 30.58 29.63 33.47 34.36 34.27 35.14
45.04 45.80 44.95 46.43 46.59 46.87 47.47 49.93 51.69 53.71 55.15 58.00 59.39 59.67 58.54 52.31 50.60 49.26 47.77 48.44 48.31 49.21 50.00 48.05 46.04 45.65 45.07 41.06 39.69 37.91 38.35 38.53 37.15 35.85 34.53 33.16 32.79 31.75 29.70 27.91 30.56 32.38 33.05
41.63 42.93 44.20 45.49 45.36 45.28 45.68 48.56 50.80 52.21 53.49 57.89 59.16 58.87 53.56 50.04 49.23 47.09 46.73 46.22 47.37 47.17 46.56 45.60 45.22 44.49 43.61 41.82 40.91 37.84 36.48 36.36 35.96 35.22 34.46 33.46 31.76 30.35 29.20 27.49 27.12 27.67 30.04
40.80 41.86 44.36 45.18 45.30 45.62 46.41 46.49 48.46 51.19 52.99 56.90 58.46 55.21 53.07 51.45 49.73 47.46 46.26 45.77 43.72 43.35 43.35 43.39 43.44 43.02 42.63 41.52 40.40 37.03 37.15 35.92 34.51 33.66 33.09 33.42 32.53 32.60 31.11 29.11 27.22 26.51 28.06
40.73 41.08 44.79 44.69 44.49 45.18 46.00 46.37 46.92 50.09 54.05 57.20 56.11 52.55 50.17 49.75 48.21 47.33 45.28 46.31 44.23 44.03 44.12 42.94 42.88 41.78 41.74 41.29 38.09 38.28 36.76 35.56 34.24 32.96 32.80 32.62 32.27 32.48 31.78 30.05 27.60 24.62 25.22
40.67 42.36 43.80 45.05 45.45 45.78 45.97 46.23 46.83 51.14 55.64 56.06 51.06 48.39 48.23 47.47 46.30 45.42 44.44 45.12 43.94 42.96 42.24 42.25 41.57 41.99 41.86 39.76 38.44 37.20 35.44 33.89 33.45 32.87 32.13 32.03 32.28 32.22 31.38 30.78 29.67 26.56 22.61
41.95 42.86 44.47 45.38 46.17 46.23 45.90 46.38 47.42 52.42 55.17 54.65 48.88 46.59 46.31 45.98 44.99 43.64 41.67 42.48 41.95 41.67 41.01 40.56 39.90 40.12 39.75 37.97 37.56 35.55 34.32 33.89 32.85 33.01 31.31 31.05 31.55 30.99 30.51 29.79 29.50 28.34 25.69
41.52 42.28 44.60 45.52 46.03 46.17 46.44 46.59 49.92 52.97 52.83 49.79 46.60 45.59 43.52 43.56 42.70 42.40 41.60 41.75 41.08 40.94 40.20 39.55 39.05 38.46 36.94 36.32 35.34 34.01 33.96 32.71 32.38 32.14 31.58 31.54 31.12 29.87 29.00 28.73 28.31 27.20 25.80
43.86 41.58 44.14 44.91 45.14 45.70 47.01 47.71 51.04 50.51 45.88 43.29 43.38 41.61 41.62 40.79 41.92 40.44 41.12 40.89 40.04 40.27 39.40 39.00 38.32 36.78 36.01 34.96 34.57 33.62 32.54 32.09 32.14 31.60 31.48 31.43 33.42 29.68 29.01 27.77 26.77 25.87 25.96
42.64 43.11 43.61 44.37 45.42 48.20 49.03 48.63 44.39 41.91 41.28 41.09 40.76 40.11 39.54 39.93 39.39 40.55 40.06 40.02 39.25 39.27 38.27 37.28 35.84 35.26 34.90 33.74 31.79 32.10 32.16 32.72 31.78 31.76 31.50 30.94 30.13 28.46 27.75 26.73 25.95 26.43 29.18
45.11 43.34 43.85 44.03 46.08 46.07 43.73 42.08 40.50 40.40 38.64 38.91 39.08 38.68 38.57 39.01 39.37 39.47 39.47 39.34 38.86 37.95 36.74 35.81 35.00 34.56 34.17 33.67 32.92 32.85 32.81 31.64 31.90 31.96 31.09 30.20 29.12 27.73 26.86 26.99 26.57 27.61 25.66
44.64 45.54 44.62 43.54 44.43 41.49 41.23 40.27 39.96 39.46 39.53 39.06 39.27 38.68 39.86 39.57 38.85 38.35 38.29 37.40 37.27 35.93 35.17 34.26 33.77 33.50 33.23 33.21 31.83 33.56 31.85 31.30 30.82 30.34 30.22 30.21 31.65 35.60 34.01 31.03 27.14 26.23 25.58
44.28 44.44 43.03 41.55 39.59 39.42 39.66 39.29 40.23 40.13 40.13 37.92 37.63 38.81 38.02 37.71 37.39 36.55 36.17 35.21 34.31 33.84 33.58 32.95 32.51 31.60 33.88 36.34 36.26 34.21 31.89 30.49 29.11 27.72 28.58 28.43 32.35 31.72 35.35 35.35 35.43 33.87 28.57
44.40 42.98 36.41 35.87 36.13 37.67 38.31 37.68 38.66 39.12 37.99 37.39 36.97 36.64 36.55 35.73 35.24 35.07 34.44 33.42 32.80 32.61 31.55 31.22 30.33 30.32 32.28 35.52 35.03 34.73 30.88 28.52 27.30 26.95 27.29 27.59 30.68 30.57 27.58 31.63 34.69 33.76 34.77
40.70 37.15 35.57 35.24 35.61 36.19 37.03 37.67 37.53 37.09 36.43 35.68 35.51 35.64 34.86 34.23 34.27 33.82 32.94 32.44 32.30 31.24 30.99 30.99 31.02 30.17 33.11 34.54 34.00 34.10 28.02 27.35 27.15 27.08 26.70 25.91 26.17 27.33 30.60 28.49 27.10 28.18 27.76
35.10 34.90 35.31 35.18 35.69 36.00 36.37 36.00 35.09 35.16 34.63 34.06 34.15 33.68 34.17 33.51 33.07 32.11 31.57 31.53 31.39 31.28 31.19 31.28 30.03 28.37 30.10 33.29 32.97 31.17 27.73 27.11 25.90 27.43 27.33 28.30 27.22 32.00 34.46 30.03 25.89 26.36 27.33
34.92 34.61 35.39 35.61 35.58 35.75 36.04 34.94 34.23 33.68 32.67 33.51 32.92 33.91 33.55 32.92 32.02 31.90 31.56 31.58 31.42 30.95 30.41 29.24 28.63 30.60 26.25 32.65 33.08 31.77 27.98 25.73 25.98 26.20 26.54 31.68 30.80 33.44 34.40 30.91 28.32 24.91 24.34
36.21 37.20 36.91 35.91 35.83 36.32 35.75 34.38 34.14 33.04 33.69 35.06 34.87 34.45 34.11 32.81 31.95 31.19 31.37 30.74 29.77 28.79 26.90 25.61 26.14 26.85 27.89 27.23 33.44 33.75 27.46 26.00 24.91 25.04 25.40 25.96 32.19 33.63 34.11 33.47 26.62 26.04 29.27
35.99 36.19 34.99 33.97 37.04 37.34 36.24 33.74 33.56 33.11 34.25 34.08 33.33 32.14 31.61 32.37 31.98 30.11 28.58 27.64 26.89 24.92 25.04 25.31 24.70 25.24 25.10 31.63 32.01 33.42 32.85 32.23 26.09 25.25 25.12 25.83 32.32 32.49 31.99 29.89 30.92 31.57 30.05
35.70 35.32 34.84 35.72 36.58 35.66 35.61 33.30 31.88 32.34 31.31 30.61 30.83 30.98 31.20 29.96 28.48 26.27 25.46 25.23 25.85 25.00 23.32 23.48 22.25 22.10 23.52 22.44 30.26 31.40 32.09 31.34 27.89 26.88 29.59 31.96 31.01 29.58 27.00 28.76 29.79 28.95 22.63
33.06 33.62 32.90 30.89 29.57 30.64 30.90 30.47 30.82 31.48 31.11 30.13 29.70 28.58 26.98 26.31 26.30 26.86 26.18 24.80 23.89 22.47 22.37 22.03 20.56 20.00 21.12 22.28 23.67 25.93 24.99 28.90 28.16 28.89 25.62 27.72 26.92 27.09 26.38 24.76 24.16 22.88 22.50
34.02 33.42 31.66 30.07 29.29 30.27 30.27 31.34 31.85 31.72 29.84 28.58 26.61 26.59 26.44 25.29 24.22 24.43 23.39 23.02 23.25 23.77 22.00 21.89 22.29 20.65 20.59 24.06 29.30 28.87 27.30 27.74 28.72 27.53 22.34 20.80 20.70 20.56 21.14 21.51 21.82 22.10 22.11
32.06 30.57 29.68 29.01 29.18 30.01 30.40 31.13 31.85 31.05 28.46 25.86 25.61 25.13 24.21 23.68 22.93 22.13 22.18 30.31 29.91 30.25 29.57 29.05 26.35 24.84 28.37 30.37 30.34 30.71 30.91 30.31 29.35 21.56 19.41 18.84 19.43 19.33 19.57 19.60 19.80 20.60 21.66

GFSMW_sfc_wetblb_054.txt.gz
Wetbulb
48.33 47.70 48.07 48.88 49.20 50.02 50.19 52.02 55.67 62.48 65.29 65.07 64.79 64.47 64.61 64.23 64.40 63.37 62.31 61.88 60.25 58.01 56.18 53.09 49.38 46.81 46.35 43.76 41.90 40.23 38.69 37.00 36.83 37.97 38.18 41.32 39.96 39.49 39.89 39.46 38.90 39.61 39.30
44.36 46.36 47.80 47.76 47.94 48.64 48.73 49.94 52.89 57.74 63.48 65.69 65.78 65.21 64.72 63.84 63.67 63.26 62.44 62.06 59.58 57.40 56.29 51.94 48.63 46.04 43.85 42.07 41.21 40.98 38.68 37.30 36.54 36.14 37.44 37.67 38.04 39.14 40.07 40.21 39.69 37.36 37.28
44.92 45.10 44.98 45.94 46.35 47.07 48.28 49.48 50.66 53.61 60.55 65.09 63.42 58.51 58.10 57.03 57.19 59.03 60.60 60.93 57.90 55.82 54.69 50.67 47.76 44.87 43.63 42.03 40.59 40.54 39.91 37.00 35.86 36.62 37.71 34.17 33.98 33.24 35.59 36.43 35.88 35.31 34.45
43.68 44.81 44.81 44.51 45.07 45.53 47.16 48.91 50.85 51.93 53.90 59.38 62.15 61.30 61.06 59.78 59.01 59.49 53.68 53.63 54.37 54.36 52.63 49.59 47.79 47.10 44.52 41.70 40.60 41.28 40.83 39.11 35.49 35.88 37.77 35.01 34.68 31.75 31.28 34.03 34.42 33.66 34.50
42.87 43.09 43.31 45.14 45.38 45.22 44.82 46.22 48.52 51.05 52.75 57.45 61.32 60.95 61.10 59.00 51.85 52.29 51.83 50.29 51.60 52.83 51.38 48.89 46.63 46.53 45.04 43.51 42.94 42.20 41.26 38.41 36.75 35.83 35.15 33.83 33.41 32.10 30.77 29.40 30.94 32.79 32.69
41.11 42.48 43.44 44.44 44.57 44.43 44.96 45.12 47.10 48.56 51.06 53.47 58.07 60.65 57.52 51.48 50.51 48.99 49.71 48.79 48.68 51.00 50.64 47.75 47.07 46.50 44.80 44.33 43.62 40.53 39.21 36.90 37.57 34.70 34.18 33.17 32.14 31.19 29.98 28.43 27.88 28.11 30.24
39.44 40.61 42.60 43.71 44.16 43.99 44.88 45.70 45.81 46.91 49.10 51.22 55.27 58.14 57.09 54.11 52.62 50.22 49.68 48.06 46.61 46.31 47.75 47.35 46.26 44.34 43.38 41.65 40.73 40.09 39.63 37.52 36.26 34.68 33.74 32.81 32.28 32.63 31.24 29.48 27.63 26.96 28.51
39.64 39.81 42.76 43.19 43.85 44.33 44.98 45.31 45.37 45.49 46.87 49.71 55.24 56.69 56.03 54.63 52.59 51.28 49.13 48.64 47.16 44.57 45.04 44.56 44.85 42.81 41.80 41.28 40.93 39.61 38.39 36.95 34.66 33.56 33.14 32.16 32.01 32.47 31.62 30.13 27.94 25.31 25.65
40.45 41.06 41.78 44.00 44.50 44.92 45.23 45.44 45.92 46.13 46.31 50.79 53.76 51.10 52.01 50.55 49.12 46.97 47.99 45.33 44.54 44.28 44.60 44.64 42.80 41.95 41.19 40.38 40.16 38.88 37.04 35.74 35.19 34.53 33.76 31.82 31.47 31.43 30.90 30.65 29.69 27.08 22.97
43.37 41.81 43.06 44.67 45.01 45.17 45.25 45.60 46.03 45.59 46.68 52.35 49.21 49.15 49.05 48.77 46.72 46.66 45.70 44.78 43.46 44.02 44.20 42.50 41.19 40.17 39.95 39.43 38.34 36.94 35.88 35.08 32.79 34.10 32.60 31.07 30.70 30.26 29.83 29.38 28.94 27.89 25.62
42.03 41.55 44.14 43.67 44.86 44.76 44.62 45.63 46.74 47.11 50.28 47.61 46.03 45.91 45.62 45.72 45.45 45.70 45.35 44.12 42.95 42.58 41.61 40.29 39.94 39.04 37.99 37.74 36.34 34.77 34.72 33.96 33.50 33.35 32.95 31.19 30.85 30.42 28.83 28.46 27.95 26.75 25.32
43.54 43.09 41.25 42.16 43.25 44.01 46.13 47.89 48.35 49.56 46.12 45.16 44.28 43.89 43.81 44.45 43.45 44.16 43.30 42.46 41.61 41.62 40.66 39.43 38.55 37.91 37.26 34.61 34.23 34.85 34.52 33.88 32.93 31.30 30.36 30.90 33.02 29.34 28.24 27.10 26.66 25.64 25.27
42.08 42.90 43.16 43.71 44.15 47.71 47.16 46.79 44.57 42.09 42.13 42.84 42.53 42.02 42.11 42.04 41.81 40.51 40.81 40.97 40.62 39.46 38.76 37.86 36.52 35.81 35.11 34.33 33.84 33.50 32.89 32.93 32.74 32.44 30.64 30.61 29.08 27.87 27.40 26.33 25.56 25.34 27.96
44.30 45.54 44.56 45.26 46.51 44.05 41.66 38.72 38.06 38.88 39.08 41.21 40.26 39.74 40.44 40.06 40.32 40.06 39.78 39.46 39.09 37.98 37.16 36.56 35.49 34.67 34.20 34.45 34.44 34.21 33.48 32.64 32.18 31.46 30.17 29.42 29.05 28.07 26.98 26.99 26.20 26.99 25.55
45.40 45.67 45.67 46.01 44.26 39.08 36.36 36.69 37.37 38.42 39.69 39.48 38.68 37.90 38.96 40.20 38.98 38.72 38.19 37.96 37.08 35.82 35.10 34.41 34.60 34.85 34.75 34.89 33.54 33.65 32.25 31.42 31.04 29.41 29.07 29.44 31.54 35.17 33.89 30.72 27.45 26.64 25.87
42.59 45.00 43.53 41.16 38.15 33.72 35.28 37.41 38.51 39.52 40.19 39.62 38.35 38.78 38.44 37.36 37.55 36.85 36.12 34.88 34.54 34.30 33.96 33.14 33.06 33.43 35.18 37.66 37.23 34.02 31.44 30.51 29.26 27.29 27.45 27.70 30.86 30.51 34.63 35.11 35.26 33.81 28.09
42.29 39.42 35.41 35.26 35.35 34.07 36.12 35.70 36.73 38.15 37.36 37.08 36.97 37.15 36.34 34.82 34.63 34.73 34.26 33.55 32.83 32.94 32.27 31.99 32.09 32.51 34.19 36.80 36.22 35.21 29.58 27.35 26.36 25.56 25.66 26.88 29.66 29.72 27.06 31.27 34.18 33.34 34.85
34.85 34.75 34.37 34.60 35.79 36.80 36.58 36.78 36.39 35.60 35.12 34.63 34.88 35.53 35.05 34.49 34.52 33.94 32.64 32.44 32.50 32.30 32.33 31.98 32.03 31.89 33.41 35.80 34.98 33.80 27.68 26.23 25.92 26.00 25.92 25.10 26.35 27.44 30.06 28.28 26.77 27.17 27.82
34.35 34.51 35.37 35.56 35.61 35.32 35.62 34.72 34.17 34.27 34.08 33.84 34.20 34.48 34.27 33.29 33.00 32.01 31.49 31.31 31.12 31.15 31.04 31.13 30.19 30.70 30.73 34.36 33.90 30.79 26.12 26.38 25.65 26.61 26.70 27.71 27.15 31.46 33.93 29.43 25.88 26.77 26.86
35.00 34.60 35.29 35.44 35.13 35.04 35.16 33.98 33.39 33.32 32.75 33.48 33.54 33.60 33.16 32.21 31.51 32.12 32.52 32.59 32.22 31.15 31.19 29.47 27.94 30.24 25.36 33.72 33.27 31.48 26.89 25.78 25.87 26.00 26.44 30.62 29.98 32.86 33.99 30.45 26.74 23.82 23.98
36.25 36.52 35.82 34.65 35.16 36.02 36.04 34.61 33.99 32.25 32.59 33.96 33.02 32.91 33.79 33.84 33.49 32.59 31.99 31.21 30.17 28.51 26.65 26.11 24.71 24.84 26.68 26.04 33.36 33.84 26.92 26.21 25.23 24.85 25.24 26.02 31.67 33.35 33.58 32.74 25.45 25.39 28.38
35.50 35.67 34.61 34.12 36.69 36.55 35.33 32.76 31.56 32.50 33.27 34.04 34.04 33.91 33.79 34.76 33.38 31.35 29.84 27.97 26.62 23.40 23.32 23.37 22.60 23.69 23.29 30.77 31.39 32.36 32.21 31.58 25.96 25.17 25.42 25.76 32.04 31.68 30.97 28.69 30.04 31.11 29.44
34.77 36.05 35.24 35.13 34.88 36.55 34.92 32.18 32.72 33.91 33.32 33.18 31.93 31.46 31.21 30.26 28.84 26.48 24.72 23.59 23.93 23.56 22.14 22.83 21.15 21.31 23.20 21.76 29.81 31.04 31.54 31.04 27.76 26.77 29.40 31.00 30.12 28.55 26.13 27.87 29.06 28.40 21.83
36.06 36.44 35.25 32.98 31.59 33.07 34.29 33.29 33.29 32.42 31.48 30.44 29.73 28.16 25.93 25.36 25.33 25.62 25.31 23.83 22.42 21.45 22.00 21.92 20.22 19.53 21.21 22.43 24.05 25.98 24.94 28.91 27.90 28.31 23.35 26.25 26.02 26.06 25.65 24.10 23.51 22.53 21.97
33.33 32.54 30.28 29.47 28.84 30.32 30.43 31.17 31.48 32.60 31.52 28.10 25.24 25.46 25.97 24.29 23.17 23.74 22.94 22.28 22.03 23.40 21.79 21.38 21.95 20.47 20.50 23.98 29.09 28.71 27.19 26.14 27.50 24.84 21.26 20.08 20.04 19.68 20.31 20.78 21.15 21.39 21.39
33.14 31.26 30.02 29.36 29.55 30.28 30.41 30.86 31.15 30.07 26.97 24.74 24.80 24.58 23.52 22.44 22.15 21.44 21.25 30.66 30.15 30.46 29.80 29.44 26.33 24.93 28.54 30.44 30.30 30.18 29.95 29.21 28.95 21.17 18.49 17.97 18.41 18.46 18.82 18.94 19.18 19.86 20.80

GFSMW_sfc_wetblb_057.txt.gz
Wetbulb
47.46 46.74 47.54 48.38 48.35 47.86 48.60 51.06 58.78 63.23 65.22 65.12 65.12 65.07 64.65 65.01 63.79 64.50 63.15 61.37 60.47 59.00 57.89 55.72 53.12 50.32 48.61 46.25 42.92 40.15 38.98 37.13 36.45 37.52 37.53 38.45 38.73 38.12 38.35 39.17 39.03 39.94 39.18
43.49 44.45 45.94 46.51 47.15 47.73 47.10 47.75 52.90 61.94 63.64 65.13 65.31 65.00 65.19 64.89 64.64 64.10 62.22 61.31 60.39 59.18 57.87 55.46 52.55 49.92 45.69 42.51 41.13 40.73 38.37 36.93 36.00 35.97 36.05 35.43 36.78 37.79 37.79 38.58 39.12 37.38 36.84
44.44 45.05 43.07 45.05 45.79 46.28 47.11 48.21 48.10 52.56 62.19 64.66 64.23 60.51 59.70 59.57 60.05 59.88 61.82 60.54 59.84 58.93 57.97 55.33 52.39 48.78 47.95 44.76 44.01 41.79 40.15 36.89 35.16 35.61 37.34 33.50 33.53 33.17 34.36 35.17 34.98 34.89 34.02
43.71 43.61 43.32 42.94 44.01 45.30 45.80 47.07 48.63 49.35 55.82 62.61 63.11 62.55 61.45 60.86 61.87 62.64 62.80 59.73 57.63 57.19 55.51 54.32 50.75 49.57 49.58 45.89 47.10 45.33 43.26 40.42 37.49 35.98 36.43 33.94 34.40 31.73 30.48 32.67 32.95 32.98 33.95
39.75 41.94 42.38 43.52 44.19 44.38 43.99 44.79 46.20 47.91 50.39 56.45 62.67 62.50 60.93 60.78 58.62 55.33 57.72 52.85 53.10 56.49 53.84 52.48 48.80 47.69 48.38 48.26 46.79 46.85 45.55 42.07 40.09 38.75 35.49 33.01 33.70 33.72 32.32 28.82 29.88 32.30 32.57
39.02 40.60 42.50 42.86 42.92 43.68 44.13 44.16 45.72 47.19 48.47 51.94 58.91 61.79 61.46 55.10 53.93 52.57 54.56 52.26 51.48 51.90 51.85 50.50 50.25 49.95 47.98 46.34 46.80 46.61 44.52 40.77 40.22 38.19 36.46 34.18 34.65 30.64 31.76 27.99 27.50 27.84 30.03
40.78 41.08 40.83 42.80 43.34 44.09 44.45 45.02 45.00 45.72 46.95 48.67 53.03 57.46 58.79 55.12 55.88 54.96 55.67 51.51 50.68 48.88 48.52 48.25 48.63 48.30 47.74 46.17 43.90 42.86 39.96 39.76 38.59 36.88 35.38 33.98 34.47 33.02 31.47 28.88 26.70 26.25 27.84
39.14 41.10 41.51 42.49 42.69 43.26 44.14 44.44 44.90 45.19 45.50 45.29 48.39 53.37 56.54 56.55 54.70 53.53 53.96 53.19 51.58 49.53 48.15 47.96 47.51 47.39 45.23 43.61 42.34 41.12 38.94 38.32 37.05 34.99 34.95 33.78 33.60 33.07 30.83 31.22 27.27 24.52 24.78
41.60 40.44 42.18 43.37 43.62 44.01 44.25 43.88 44.51 45.30 45.77 45.64 46.76 51.73 53.53 52.47 52.06 50.64 50.35 49.15 46.99 47.04 46.56 46.71 45.67 44.31 42.85 41.78 40.09 38.99 37.49 36.78 35.77 35.12 34.11 34.32 33.18 33.62 32.64 30.50 29.19 26.88 22.63
42.63 42.25 40.98 41.85 43.77 44.59 44.89 44.08 44.62 45.30 46.10 45.76 48.80 50.26 51.53 51.08 48.45 47.86 45.86 44.83 45.36 45.56 45.13 43.45 42.44 41.61 41.46 40.31 39.06 37.37 36.97 35.79 35.10 34.70 33.76 33.07 32.24 31.19 32.19 31.67 29.62 27.77 25.67
41.40 42.23 42.13 42.20 41.34 42.59 42.83 43.10 43.77 45.83 47.17 48.46 46.55 46.18 45.55 44.83 45.32 45.36 44.87 44.17 44.04 43.72 42.91 42.10 41.69 40.15 38.99 38.13 36.72 35.88 35.48 34.17 34.27 33.87 33.52 33.20 33.08 32.34 29.36 29.43 27.68 26.65 25.69
42.30 42.12 42.09 43.46 42.86 43.07 45.54 46.28 46.80 47.65 47.53 44.32 43.51 42.85 43.10 43.43 43.38 42.83 43.02 42.79 43.49 42.73 41.56 41.57 39.61 38.54 37.42 36.58 35.47 35.14 34.72 34.32 34.02 33.44 32.62 32.25 33.36 31.05 29.91 29.06 26.93 25.88 25.28
44.80 43.97 45.09 46.14 44.44 43.95 42.33 40.04 38.33 39.69 41.72 41.97 41.69 41.43 41.65 42.20 44.60 44.19 43.10 43.56 41.52 40.53 40.15 38.96 37.60 36.29 36.10 35.47 35.16 34.74 33.65 33.27 33.22 33.41 32.84 32.14 31.10 29.98 29.02 27.91 26.25 25.77 27.45
43.87 43.39 43.95 45.11 45.86 40.13 38.99 38.06 37.63 37.64 39.59 40.61 40.82 41.01 42.59 42.94 41.99 42.69 42.63 41.16 39.41 38.20 37.10 36.23 35.36 34.73 34.53 34.62 34.58 34.51 34.03 33.97 33.23 32.87 31.94 31.26 30.34 29.16 28.02 27.53 26.50 26.84 24.58
40.25 40.68 44.27 45.20 38.97 38.38 37.83 37.28 37.97 38.13 38.80 38.67 39.61 40.56 41.00 40.69 40.38 39.67 38.89 37.83 36.54 35.26 35.04 34.62 34.66 35.30 35.93 36.03 34.90 34.67 33.81 32.56 31.40 30.69 30.09 29.76 31.37 34.34 33.51 30.70 26.54 25.74 25.19
36.35 41.33 38.54 37.07 35.41 35.34 34.32 35.54 35.55 37.05 37.85 38.03 37.52 38.20 37.89 37.23 36.11 35.43 34.68 34.82 34.51 34.47 34.83 34.84 35.14 35.61 36.92 38.17 36.79 33.79 31.48 30.39 28.81 27.37 26.84 27.08 30.05 30.32 34.01 34.44 35.00 33.55 27.39
35.52 34.18 33.98 34.82 35.33 35.05 34.28 34.09 34.85 36.28 36.07 35.43 35.17 35.21 35.47 34.97 35.12 35.05 34.83 34.39 34.07 34.60 33.95 33.52 33.75 34.18 35.58 36.84 36.48 33.57 30.12 28.41 27.39 26.15 25.46 26.58 29.00 29.09 26.85 30.97 33.78 33.30 34.86
34.32 34.27 34.79 35.33 36.08 36.64 36.01 36.04 36.26 35.76 35.45 34.79 34.84 35.47 35.46 34.58 34.41 33.76 33.05 32.95 33.08 32.58 32.13 32.09 32.30 32.40 34.67 36.41 35.93 33.13 28.67 27.39 26.41 26.19 24.89 24.50 25.60 27.03 29.51 28.12 26.65 27.10 27.53
34.23 34.59 35.32 35.22 35.54 35.47 35.81 35.37 35.04 35.22 35.01 33.91 33.76 34.50 35.08 33.99 33.53 32.46 32.17 32.24 31.96 31.92 31.76 31.79 31.48 31.58 32.51 35.37 35.25 31.11 27.13 27.16 25.55 25.80 25.77 26.95 26.23 30.71 33.36 28.91 26.79 27.57 27.03
34.91 34.49 35.08 35.23 34.59 34.70 35.17 34.30 33.90 33.99 33.56 34.14 34.09 34.21 34.09 33.42 32.36 32.06 31.84 32.02 32.39 31.99 31.75 30.14 29.64 31.41 27.65 33.59 33.60 31.78 27.57 25.68 25.70 26.31 26.17 30.17 29.43 32.77 33.96 30.80 26.24 23.00 23.25
35.33 35.76 35.81 35.09 35.64 36.38 35.50 33.55 32.86 31.47 33.14 34.33 34.16 34.04 34.16 33.13 32.81 32.02 31.98 32.01 31.85 30.48 27.98 25.72 25.39 26.21 27.96 27.16 33.78 33.57 27.24 26.89 25.83 25.33 25.29 26.12 31.81 33.06 32.88 32.10 23.72 24.73 27.77
35.13 35.75 35.25 35.11 36.08 35.84 34.39 32.59 31.34 32.65 32.58 33.07 32.90 32.83 32.99 34.88 34.10 32.28 31.31 29.22 25.76 24.38 24.74 24.13 23.63 23.53 22.82 30.15 30.88 31.97 31.93 31.20 26.15 25.38 25.55 26.06 31.58 31.03 30.26 28.21 29.55 30.81 29.35
34.75 35.62 35.24 35.13 36.12 35.68 34.45 32.16 32.69 35.05 33.91 33.30 33.20 33.19 33.17 31.59 28.03 25.02 23.25 22.21 22.88 22.04 21.40 23.07 21.11 21.46 23.63 22.42 30.03 30.89 31.47 31.19 27.72 26.86 28.58 29.42 28.84 28.13 25.34 27.52 29.21 28.24 21.25
34.59 35.80 34.73 33.44 33.36 34.69 34.31 34.09 34.46 34.35 32.64 31.09 29.54 26.03 23.94 23.52 23.37 24.08 23.34 22.07 21.05 20.72 22.19 21.85 20.65 19.94 21.80 22.72 23.97 25.99 24.58 28.55 27.32 26.71 21.81 25.37 25.33 25.41 25.16 23.57 23.02 21.97 21.47
35.08 32.20 32.11 30.30 31.48 33.54 33.12 32.60 32.53 32.56 29.52 25.33 24.72 24.33 23.70 22.10 21.84 22.69 21.09 20.80 21.09 23.38 21.93 21.24 21.64 20.06 20.23 24.13 28.96 28.53 26.61 25.23 26.65 24.32 20.48 19.36 19.23 18.95 19.69 20.23 20.65 20.81 20.78
31.23 29.92 30.43 30.05 30.16 30.61 30.41 31.16 32.23 30.30 25.67 24.15 23.75 23.09 22.22 21.94 22.62 21.99 21.59 31.25 30.63 30.92 30.44 29.50 26.29 24.95 28.31 29.92 29.98 29.79 29.33 28.34 28.56 20.55 17.73 17.26 17.74 17.95 18.40 18.53 18.73 19.25 20.14

GFSMW_sfc_wetblb_060.txt.gz
Wetbulb
46.88 46.01 46.67 47.28 47.94 46.89 47.26 49.56 56.01 63.63 65.79 65.04 65.12 65.17 64.56 65.04 65.08 64.77 64.24 61.43 60.41 59.29 58.58 58.12 56.26 54.01 51.80 49.16 45.21 40.73 39.31 37.08 36.96 37.64 37.10 37.67 38.01 37.17 38.02 38.95 37.66 38.91 38.01
43.39 43.82 44.88 45.06 46.01 47.10 46.28 46.99 49.67 58.00 64.16 65.29 65.31 65.72 65.51 65.09 65.51 64.64 63.88 61.93 60.34 59.39 58.53 57.18 56.05 53.58 49.44 44.89 43.25 41.09 38.04 36.97 36.98 36.84 35.80 35.17 36.43 37.00 37.29 37.34 37.87 36.43 36.02
42.70 44.28 42.32 43.09 44.25 44.90 45.61 46.05 47.40 51.45 60.95 64.73 64.80 61.33 62.02 61.12 62.49 63.37 63.32 61.27 60.46 59.76 58.93 56.64 55.69 53.00 50.90 47.13 44.68 43.86 41.65 38.61 36.46 35.87 38.06 33.64 34.41 33.45 33.63 34.82 34.99 34.42 33.25
38.06 40.15 41.73 42.16 42.18 43.36 44.38 45.73 46.69 47.73 52.34 61.56 63.27 63.04 62.59 62.08 62.81 63.52 63.73 62.41 59.86 59.22 58.74 57.16 55.64 53.03 50.37 47.89 47.15 45.93 46.78 45.05 40.70 39.55 38.84 37.06 37.53 33.41 30.57 31.99 32.02 32.10 32.81
38.52 40.09 41.25 42.38 42.62 42.73 42.27 43.38 44.86 46.83 48.77 54.73 61.80 62.34 62.09 62.06 58.70 60.62 61.21 61.58 57.64 59.16 58.38 56.35 53.51 49.92 49.36 49.95 48.36 46.76 46.62 47.22 43.32 41.43 40.08 38.76 35.42 34.04 33.08 31.83 31.54 31.62 31.87
40.82 41.87 40.84 42.73 42.49 42.57 42.53 42.29 43.02 44.52 46.58 49.55 55.87 60.90 61.39 58.33 55.06 55.68 59.84 56.72 55.54 56.25 55.44 54.43 51.89 50.20 49.21 47.91 48.36 47.51 46.56 44.03 42.31 41.20 39.82 38.47 36.13 33.97 32.48 31.32 29.97 29.34 31.10
40.71 41.39 42.46 42.16 42.85 43.00 43.29 44.27 43.89 44.00 45.47 46.89 50.62 58.22 60.52 57.76 56.51 56.93 58.64 56.28 54.47 53.52 53.80 52.90 49.75 49.03 49.13 48.34 47.23 47.40 45.47 43.04 40.63 38.60 37.77 37.35 35.72 35.60 33.77 32.05 29.56 27.85 27.78
40.66 41.15 41.28 42.08 42.37 42.95 43.43 43.57 43.58 44.12 44.38 44.27 46.74 50.44 54.86 56.20 56.88 55.28 56.54 56.02 55.01 55.06 53.03 52.13 51.09 49.22 49.03 48.15 45.88 44.71 41.95 39.89 38.37 36.56 36.42 35.47 35.18 34.91 33.97 32.14 30.08 26.64 25.54
41.36 41.68 41.56 41.20 42.20 42.97 43.24 42.79 43.35 43.45 44.06 44.58 44.35 45.63 49.52 53.31 54.61 52.39 52.16 51.50 50.02 48.86 49.59 49.56 49.07 47.67 47.07 46.16 44.43 41.63 39.80 37.97 36.95 36.02 35.64 35.14 34.64 34.69 33.96 33.39 32.22 30.33 23.93
41.17 41.88 42.28 41.99 42.03 42.53 42.39 42.19 42.21 42.57 43.68 44.92 44.76 46.22 48.17 50.84 51.34 48.25 48.20 46.66 46.14 47.35 47.42 47.01 45.79 45.94 45.02 42.87 40.76 38.27 37.12 36.14 35.95 35.59 34.82 34.12 33.84 33.04 32.99 32.26 32.19 30.03 28.53
41.21 42.00 42.53 41.75 42.39 42.49 44.17 44.83 44.99 45.41 46.31 46.38 45.34 45.25 45.42 45.72 45.29 44.84 43.70 43.99 44.98 45.28 44.54 44.35 43.44 42.01 40.94 39.93 38.06 36.72 36.13 35.32 34.75 35.02 34.47 33.89 34.13 33.82 32.64 31.94 30.88 30.23 28.91
42.71 42.64 42.14 41.81 42.84 43.52 42.16 39.57 38.68 40.28 42.00 42.52 42.48 43.63 45.86 45.73 44.85 43.90 42.70 42.78 43.42 43.37 42.34 41.90 40.74 39.32 37.61 36.91 36.15 35.51 35.31 34.70 34.41 33.99 33.47 32.68 34.21 32.14 31.72 31.12 30.15 29.61 26.86
42.80 42.48 42.41 43.24 43.09 39.61 37.32 36.75 36.71 37.67 39.96 40.72 40.67 43.11 43.72 44.96 44.17 43.32 43.39 43.57 42.61 41.60 40.84 39.42 37.56 37.13 36.12 35.64 35.68 35.64 34.65 33.80 34.00 33.96 33.67 32.94 32.31 31.48 30.99 30.06 29.40 27.86 28.50
38.97 37.94 38.90 41.51 38.27 36.55 36.41 36.68 36.78 37.43 38.54 40.46 41.22 43.18 43.41 42.91 43.17 42.54 41.76 40.82 40.07 38.65 37.89 36.98 35.68 35.35 35.13 34.95 34.85 34.83 34.50 34.15 33.56 33.30 32.73 31.81 31.08 30.41 29.59 28.77 27.87 27.49 25.25
35.11 35.01 35.72 34.46 34.19 35.62 36.86 37.42 36.13 36.16 37.79 37.49 38.61 39.77 40.53 40.79 39.80 38.61 37.98 38.16 37.96 37.35 36.09 35.21 35.31 35.62 35.72 36.07 35.36 35.20 34.08 33.12 32.01 31.55 31.27 30.77 31.61 33.98 32.88 31.49 28.68 26.88 26.02
35.62 35.30 33.77 35.42 34.73 35.12 33.67 33.39 33.64 34.44 34.56 35.00 35.93 36.59 36.19 36.43 37.13 36.74 36.21 36.87 35.72 35.24 36.08 35.79 36.48 37.18 38.46 39.50 37.93 34.43 32.14 31.41 30.04 28.62 28.23 28.56 30.27 31.30 32.55 33.47 34.40 33.10 27.56
34.96 34.28 33.50 35.11 35.31 35.22 35.40 34.45 34.61 36.13 35.67 35.10 35.37 35.69 35.78 35.88 35.57 35.93 35.28 34.84 34.55 35.01 34.95 35.45 35.92 36.06 37.25 38.37 37.02 34.32 30.81 29.87 28.59 27.71 27.63 28.20 29.27 29.10 27.27 30.61 33.26 32.80 34.50
34.06 34.17 34.68 35.41 36.04 36.07 35.82 36.38 36.69 36.04 35.69 35.25 35.33 35.46 35.10 34.49 34.75 34.45 34.06 34.05 34.18 33.78 33.73 33.75 34.05 33.86 36.25 38.00 35.46 33.22 29.59 27.99 27.17 26.81 25.75 24.80 26.01 27.15 29.32 28.12 27.55 27.81 27.52
34.19 34.32 34.82 34.78 35.07 35.14 35.91 35.67 35.21 35.53 35.15 34.52 34.91 35.14 34.78 34.19 33.79 32.81 32.69 33.40 33.06 32.53 32.32 32.17 32.42 32.85 34.58 36.57 35.07 30.81 27.72 27.66 26.53 27.04 26.23 27.20 26.46 30.67 33.39 29.27 27.36 27.10 26.20
34.85 34.52 34.84 34.87 34.48 34.76 35.29 34.49 33.80 33.77 33.21 33.93 34.04 34.51 34.31 33.39 32.42 32.64 32.02 31.98 32.30 31.71 31.52 31.11 31.83 33.89 30.20 34.30 34.27 31.11 27.70 25.80 25.84 26.65 26.25 29.98 29.67 32.95 33.64 30.44 25.18 21.83 22.38
34.96 36.02 35.94 35.21 35.35 35.77 34.84 33.13 33.06 32.11 33.64 34.87 34.70 34.17 34.14 33.22 32.88 32.28 32.05 31.98 31.66 30.12 27.73 26.29 26.17 27.14 28.61 30.58 34.70 33.29 26.95 26.84 25.76 25.65 25.92 26.43 31.71 32.59 32.36 31.66 23.44 24.06 27.17
35.21 36.08 35.24 35.04 35.58 35.46 34.33 32.79 31.65 33.19 33.74 34.14 33.32 32.66 33.12 33.94 33.24 31.97 31.05 29.40 26.65 24.72 23.46 22.80 22.76 22.97 22.48 31.12 31.95 32.33 31.91 31.10 26.40 25.66 25.81 25.95 30.84 30.06 29.82 27.80 29.44 31.09 28.78
34.36 35.74 35.71 35.14 35.33 34.95 34.19 32.22 33.17 35.24 34.26 33.80 33.09 33.48 33.37 30.91 27.78 24.88 23.02 22.11 22.73 21.76 21.40 22.39 20.01 20.76 23.38 22.49 30.63 31.01 31.43 30.91 27.36 27.01 28.19 29.01 28.20 27.58 24.83 27.36 28.79 27.62 20.68
34.08 34.99 34.89 34.27 33.48 34.54 34.87 34.82 35.28 34.75 33.75 31.38 28.01 24.21 22.76 22.66 22.58 23.65 22.47 21.03 20.73 20.33 21.65 21.21 20.16 19.71 21.38 22.25 23.76 26.01 24.50 28.42 26.68 25.89 21.55 24.77 24.93 25.11 24.82 23.12 22.50 21.51 21.11
35.82 34.86 33.26 33.45 33.34 34.03 33.61 33.95 33.51 32.13 27.97 24.11 23.97 23.14 22.73 21.41 21.27 21.68 20.17 19.81 19.55 22.36 20.77 20.29 21.12 20.03 20.29 24.21 28.71 28.17 26.39 24.76 26.23 23.65 19.79 18.57 18.58 18.39 19.20 19.82 20.13 20.19 20.23
30.08 31.50 31.44 31.74 32.34 31.68 30.90 31.96 31.75 27.33 24.48 23.20 23.02 22.40 21.93 21.57 22.20 21.71 21.62 31.54 30.87 31.43 30.64 29.28 26.16 24.96 28.37 29.75 29.79 29.46 28.93 27.83 27.95 19.62 16.97 16.46 16.96 17.44 17.99 18.19 18.36 18.78 19.56

GFSMW_sfc_wetblb_063.txt.gz
Wetbulb
48.85 49.64 50.41 51.00 51.33 51.21 51.08 52.46 55.68 64.67 67.61 66.33 64.80 64.70 64.63 65.49 65.60 66.31 66.25 64.75 63.85 62.67 62.75 62.82 62.72 62.01 61.18 58.97 56.71 51.76 48.33 45.79 46.12 45.43 45.34 45.85 46.18 45.47 47.76 48.90 48.08 47.38 46.21
45.11 46.21 47.59 48.80 48.88 50.87 51.10 51.09 52.18 57.49 65.72 66.59 65.90 65.70 65.91 65.76 66.07 66.00 65.54 65.63 64.21 62.75 62.30 62.03 61.41 60.63 59.86 57.56 53.71 50.50 46.70 45.94 45.29 46.31 45.33 43.96 43.89 44.47 44.46 45.71 45.51 45.72 44.68
40.89 42.22 43.92 46.25 47.65 47.69 49.07 50.16 51.08 53.02 60.71 66.37 66.52 65.15 65.53 64.55 65.05 64.61 64.65 64.61 64.34 62.99 62.43 61.74 61.08 59.76 59.52 56.50 53.30 50.90 50.20 45.67 43.43 44.38 47.37 41.81 43.91 42.41 42.22 43.26 43.95 43.49 43.02
42.18 42.77 44.07 44.71 45.65 46.51 47.07 48.34 49.93 50.76 54.16 63.28 65.30 64.47 63.19 62.72 63.98 64.56 65.24 64.51 63.60 63.15 62.41 61.61 60.94 59.59 58.15 56.21 53.48 50.44 51.12 49.32 44.64 42.20 42.01 42.57 43.83 42.40 37.75 39.56 40.95 40.58 40.82
42.67 43.83 44.21 45.52 45.57 46.11 46.11 46.41 47.24 49.01 50.72 55.97 63.58 64.21 63.47 64.10 64.79 64.65 64.15 64.08 62.61 62.81 62.00 61.63 60.41 59.43 57.20 56.29 52.68 50.78 49.56 50.35 47.97 46.39 41.40 41.52 40.37 38.81 39.16 36.86 35.58 38.04 38.13
43.79 44.56 45.31 45.83 46.35 47.38 47.36 48.09 47.01 46.91 48.33 50.60 56.71 63.16 63.26 63.41 62.17 62.28 62.94 63.46 62.03 61.12 60.94 60.73 59.92 59.02 56.88 55.07 53.53 53.15 51.01 49.91 48.87 46.25 43.08 42.29 39.91 38.93 38.27 34.82 33.69 35.95 35.85
44.23 44.75 44.68 45.16 46.31 46.58 47.05 47.72 47.17 47.42 47.88 48.70 50.21 55.25 62.12 63.14 61.62 62.11 61.72 62.31 58.12 57.73 58.72 59.06 57.99 56.89 55.96 54.58 53.45 52.08 50.87 49.51 48.03 44.20 42.14 41.66 40.77 40.14 37.01 37.57 33.10 33.72 34.21
44.06 44.81 45.01 44.52 45.37 46.53 47.03 46.45 45.96 46.26 47.15 47.81 48.25 50.30 53.94 59.75 60.86 60.76 60.69 61.38 60.42 59.45 59.23 57.32 57.31 55.35 53.91 53.02 52.16 51.31 50.21 48.15 46.35 44.11 39.19 39.04 38.30 38.69 36.65 34.78 35.52 30.44 30.96
43.65 44.27 45.14 45.55 45.08 45.88 46.34 46.34 46.67 46.84 46.91 47.28 48.36 48.79 48.88 51.50 56.14 58.59 58.51 59.71 58.89 56.68 57.07 55.72 53.62 53.12 52.53 51.75 50.88 49.31 46.53 44.34 40.97 38.96 37.43 36.53 36.75 36.44 36.79 35.43 35.13 34.23 29.81
43.75 44.42 44.94 44.74 45.01 45.74 46.55 47.00 46.19 46.80 47.90 48.83 49.22 49.52 50.03 50.81 52.29 54.44 54.92 54.67 53.47 52.70 52.55 51.86 50.48 49.97 49.34 48.80 46.96 44.57 41.13 38.54 37.63 36.78 36.06 35.20 35.55 34.26 35.53 34.93 34.43 34.75 32.68
43.96 44.18 44.27 44.96 45.47 45.93 43.94 42.55 42.52 44.14 45.48 46.16 46.62 47.14 47.39 48.22 49.35 50.16 49.90 50.33 49.75 49.79 49.89 48.75 47.71 46.38 45.06 43.68 41.17 39.10 37.98 36.36 35.99 35.80 34.86 34.47 35.25 35.02 33.61 33.67 32.94 32.20 31.30
43.49 42.15 42.44 44.02 44.72 42.04 40.75 40.27 40.74 42.13 43.51 44.40 45.12 45.97 47.51 47.85 47.68 46.99 46.43 47.09 47.06 47.04 46.66 45.96 43.87 42.25 40.81 39.45 37.72 36.96 36.41 35.44 35.02 35.16 34.60 33.96 35.13 33.72 33.47 33.20 32.13 31.76 31.25
39.38 39.76 41.81 42.73 40.39 39.16 39.24 39.43 39.62 40.02 42.11 43.59 44.63 45.74 46.37 46.39 45.57 44.91 45.01 44.96 44.07 43.73 42.91 41.62 39.02 37.91 37.38 36.66 36.69 36.34 35.43 35.31 34.85 34.92 34.29 34.00 34.37 33.17 32.63 31.55 30.90 30.78 31.20
37.43 37.25 37.46 37.24 37.57 37.60 37.84 38.44 38.05 38.87 40.28 41.93 42.52 42.76 43.09 42.47 42.07 42.09 41.76 41.21 40.78 39.36 38.35 37.46 36.48 36.04 36.53 36.49 36.29 35.48 34.92 34.84 34.37 34.38 33.83 32.64 32.11 31.74 31.49 31.24 30.63 31.18 30.13
36.47 36.42 35.70 35.87 36.12 36.17 35.38 35.71 36.06 36.37 37.61 37.56 37.79 38.12 39.27 38.76 37.90 37.26 37.42 37.60 37.00 36.67 36.82 36.37 36.25 36.57 36.88 37.39 36.09 35.82 35.03 34.02 33.18 33.06 32.88 32.56 32.61 33.85 34.23 33.48 32.55 31.82 31.15
36.31 36.01 35.21 35.55 35.44 35.43 34.65 34.97 35.64 35.83 36.67 36.46 36.22 37.07 37.05 36.83 36.66 36.79 36.35 36.57 37.11 37.56 37.53 37.93 37.68 37.55 38.39 40.02 38.92 35.69 33.57 33.02 31.67 30.00 29.74 30.62 32.92 32.82 32.63 33.03 33.89 34.30 32.05
35.44 34.93 35.19 35.20 35.15 35.12 36.09 35.65 36.04 36.97 36.48 35.95 35.85 36.11 36.22 35.59 35.79 36.07 36.09 35.37 34.94 36.22 36.10 36.75 36.91 36.98 38.09 39.85 38.35 35.63 31.55 30.34 29.79 29.76 30.21 30.43 30.63 30.27 29.87 31.34 32.82 33.08 33.87
33.73 34.44 35.23 35.49 35.60 36.22 36.37 36.80 36.79 36.30 36.18 35.49 35.26 35.61 35.31 34.87 35.21 34.49 33.41 32.70 33.56 33.72 32.97 32.19 32.93 35.56 36.08 36.76 35.26 33.81 30.56 30.14 29.70 29.42 29.34 28.77 29.43 29.77 31.66 31.57 31.47 31.28 31.76
33.91 34.79 35.18 35.15 35.56 36.01 36.53 36.09 35.70 35.76 35.16 34.60 34.77 35.07 35.05 34.38 34.11 33.01 33.09 33.72 32.80 32.19 32.24 32.93 33.68 34.48 34.78 35.79 34.47 31.16 30.25 29.35 28.77 29.16 29.30 30.33 29.64 31.14 33.54 32.07 30.63 29.65 29.08
35.12 34.88 35.17 35.28 35.17 35.38 35.86 35.01 34.35 34.23 33.46 33.94 34.21 34.79 34.85 34.02 32.87 33.01 32.22 31.88 32.07 31.80 32.69 32.00 33.10 34.84 33.22 35.37 35.22 31.13 30.07 28.94 28.96 29.37 29.17 30.57 31.14 32.68 33.40 31.02 28.15 25.79 26.77
35.49 36.32 36.18 35.13 35.24 35.58 35.12 33.62 33.70 32.81 34.22 35.26 34.91 34.28 34.23 33.60 33.51 32.57 32.37 32.02 30.73 29.78 28.15 27.50 27.85 29.23 31.63 34.62 34.46 32.85 30.30 29.58 28.65 28.19 28.22 28.91 31.35 31.64 31.04 30.82 27.25 27.35 30.91
35.61 36.08 35.19 34.98 35.13 35.30 34.36 33.35 31.97 33.96 34.29 34.13 33.49 33.09 33.34 34.55 33.91 31.91 30.17 28.72 27.60 26.23 25.25 25.14 25.25 26.02 27.59 32.36 32.90 32.83 32.48 31.81 28.46 27.33 28.27 28.70 29.91 29.15 28.94 28.22 29.76 30.75 28.74
35.12 36.06 35.45 34.77 34.99 34.65 34.58 33.55 33.82 35.68 35.15 34.54 33.90 32.85 30.98 29.23 28.09 26.52 25.84 25.53 25.72 25.08 24.54 24.53 23.75 24.55 26.23 27.14 31.38 31.72 31.39 30.81 28.34 28.70 28.79 28.20 27.51 27.21 25.91 27.58 28.05 26.90 24.69
34.18 35.03 35.06 33.99 33.50 34.95 35.30 35.23 35.29 35.36 33.99 31.14 26.86 26.06 25.57 24.96 25.28 25.98 25.46 24.59 24.14 23.95 24.12 23.91 23.25 23.72 25.10 26.22 27.65 28.37 27.99 28.85 28.00 26.48 25.06 25.55 25.46 25.17 25.30 24.49 24.48 24.30 24.23
35.14 35.57 34.91 34.04 32.56 34.75 34.87 35.45 34.71 32.30 27.85 26.25 26.03 25.39 24.72 23.80 23.90 24.43 24.75 24.81 24.21 25.72 24.31 23.99 24.42 24.08 24.76 27.21 30.07 29.56 28.23 28.11 27.90 25.63 22.93 22.16 21.84 21.97 22.40 22.79 22.97 23.24 23.23
34.51 33.32 34.43 33.99 34.03 33.89 33.30 32.98 31.74 28.66 26.49 25.06 24.88 24.78 24.76 25.34 25.85 25.94 26.06 32.07 31.66 31.50 30.65 29.29 27.50 27.14 28.95 29.78 29.71 29.09 28.69 27.44 27.43 21.98 20.01 20.00 20.53 20.49 20.66 20.82 21.17 21.79 22.02

GFSMW_sfc_wetblb_066.txt.gz
Wetbulb
53.55 54.08 55.02 55.96 56.43 57.09 57.57 58.14 58.44 62.50 66.90 68.00 66.04 65.71 65.34 66.16 66.50 67.73 69.31 68.62 67.76 66.85 66.51 66.10 65.90 65.69 65.20 65.09 64.67 61.91 58.76 56.03 57.03 52.85 51.61 51.04 51.08 50.41 51.95 53.53 53.17 52.28 51.73
50.65 51.17 51.29 52.53 53.82 55.04 56.66 57.30 57.75 58.67 61.89 66.58 67.74 67.99 67.37 67.25 67.06 67.01 66.75 67.92 67.76 67.27 66.29 65.97 65.75 65.17 64.19 64.68 64.36 61.60 57.34 57.40 54.37 54.12 54.57 50.86 49.39 49.28 49.83 51.65 51.50 51.31 50.87
47.04 48.30 49.42 49.91 51.69 52.76 54.12 55.38 56.45 56.97 58.46 62.58 65.87 67.12 67.29 67.49 66.33 66.02 66.11 66.44 66.54 67.67 66.83 66.26 66.45 65.60 64.46 63.73 63.83 61.60 58.09 55.16 52.65 54.79 55.59 50.57 50.51 49.09 49.14 48.49 49.80 49.30 49.00
48.99 49.45 50.03 50.16 50.17 51.04 51.99 52.58 53.64 54.80 56.05 58.90 62.47 64.62 63.92 63.58 64.91 66.23 67.03 67.38 66.31 65.34 66.65 66.43 66.26 65.47 64.71 63.47 63.11 61.12 59.10 58.20 52.05 50.69 49.49 49.46 51.49 48.63 45.29 45.94 47.36 47.91 47.06
49.10 49.63 50.22 50.80 51.79 52.41 52.38 51.96 51.55 52.62 54.33 55.41 59.22 63.22 63.57 63.91 65.39 66.14 66.18 66.65 66.21 64.99 64.29 64.79 65.21 64.74 63.97 63.21 62.37 59.40 57.97 58.17 56.34 52.11 48.85 48.38 47.18 46.30 45.68 47.48 42.31 43.32 44.29
50.10 50.39 51.15 52.52 53.03 53.85 53.52 53.39 52.80 51.52 52.21 53.97 55.79 59.60 61.70 63.17 63.79 64.66 64.87 65.66 65.75 64.21 63.45 62.92 63.32 63.68 63.17 62.13 62.14 60.22 58.04 56.35 57.08 53.08 50.55 48.09 45.96 43.33 44.47 42.70 42.90 42.66 41.36
50.61 50.73 50.71 51.05 52.15 52.98 53.41 52.86 52.73 52.01 52.53 52.72 53.38 54.73 58.52 61.94 62.83 63.35 63.67 64.09 63.17 62.75 62.17 62.36 61.88 61.66 61.70 61.38 61.05 59.11 57.56 56.68 55.93 53.30 50.31 48.32 45.30 44.21 43.74 43.03 39.41 40.12 37.94
50.10 50.40 50.78 51.26 51.30 52.18 52.71 53.48 53.39 52.72 52.41 52.69 52.68 53.83 55.32 56.84 60.81 62.88 63.12 63.39 63.57 63.27 62.19 61.70 61.43 60.59 60.23 59.21 58.93 58.16 57.57 56.36 55.89 53.03 48.86 42.51 40.37 40.60 39.56 39.77 36.93 34.61 34.73
49.23 49.55 50.60 51.04 50.58 51.22 52.03 51.94 51.49 52.34 53.12 53.70 53.96 53.84 54.18 53.88 55.21 58.67 61.42 61.92 62.50 62.03 62.20 60.69 59.51 58.76 57.26 56.33 55.50 55.07 54.86 53.98 52.16 45.45 41.71 39.64 38.08 39.22 37.69 38.19 39.35 38.59 32.47
48.67 48.77 48.99 49.83 50.83 51.31 50.79 50.26 50.07 50.32 51.10 52.06 52.93 53.21 54.14 54.68 55.40 56.21 56.53 57.82 58.90 59.08 57.74 58.08 56.68 55.05 54.02 53.63 52.85 51.09 51.25 46.74 43.92 40.07 38.55 37.42 36.33 36.84 36.45 36.88 37.07 36.92 34.13
47.84 47.61 48.30 49.01 49.79 49.01 48.16 47.81 47.80 48.36 49.32 50.37 50.90 50.74 51.45 52.29 53.08 53.42 53.59 53.74 54.17 54.12 54.34 54.10 52.47 51.71 50.31 49.99 47.88 43.70 41.85 39.99 37.83 39.46 37.02 35.15 36.56 35.73 35.26 35.31 34.97 33.80 34.21
45.66 46.92 48.11 48.66 47.08 46.29 46.13 45.89 46.16 46.59 47.70 49.15 50.52 50.41 51.59 52.12 51.98 51.67 51.38 51.63 51.30 51.69 51.39 50.29 49.27 47.75 45.82 43.63 40.48 38.95 37.85 36.48 35.73 36.17 35.22 35.01 36.56 35.38 35.17 35.05 33.28 33.25 32.62
44.59 45.67 45.82 44.81 44.57 44.35 44.27 44.34 44.42 45.07 46.54 47.95 48.90 48.80 48.60 49.06 48.64 48.43 48.40 47.30 47.09 45.95 45.93 44.89 42.48 41.16 39.50 38.66 37.72 36.92 36.72 36.51 36.31 36.49 35.97 35.17 35.34 34.33 33.93 33.24 32.90 32.60 32.80
42.57 43.72 43.67 43.48 43.17 42.28 41.96 42.04 42.29 43.23 44.05 44.68 45.22 44.26 43.35 43.93 43.78 43.17 42.21 40.47 40.36 39.61 39.03 38.74 38.24 37.78 37.50 37.08 36.66 36.73 36.84 37.43 36.76 36.00 35.76 35.17 34.58 33.55 32.99 33.43 32.59 32.54 32.37
41.83 41.22 40.38 41.56 41.81 41.20 41.09 41.29 41.00 41.46 42.44 42.26 42.22 41.41 40.95 40.62 39.56 38.68 38.43 38.85 38.40 37.70 37.74 37.27 37.36 37.61 37.48 37.52 37.14 37.77 37.77 36.05 34.28 33.70 33.63 33.36 34.29 34.83 34.11 33.88 34.29 33.63 32.63
39.62 39.69 38.63 39.22 40.52 40.18 39.89 40.11 40.10 40.38 41.38 40.75 40.20 40.40 39.40 38.81 37.89 37.87 37.79 37.97 38.30 38.31 38.20 38.08 38.39 38.55 39.29 40.44 39.80 37.25 34.86 33.56 32.08 30.65 31.05 32.93 34.50 34.67 34.00 33.57 34.17 34.61 32.87
39.57 38.44 38.19 38.12 39.00 39.77 40.01 39.48 39.89 40.37 39.42 38.15 38.79 38.57 38.74 38.02 37.52 37.12 36.95 35.09 34.81 35.26 35.11 36.18 37.26 37.19 37.97 39.97 38.67 36.24 32.59 31.69 31.25 30.48 31.19 31.67 32.78 31.67 31.63 32.09 33.00 33.52 33.80
38.33 38.46 38.00 37.75 38.88 40.15 40.15 40.26 39.92 39.42 38.49 37.69 37.84 37.32 37.20 36.18 35.85 35.42 34.45 33.33 33.65 32.99 32.63 32.04 32.06 32.21 34.16 36.77 35.69 33.61 31.25 31.20 31.42 32.06 31.46 31.59 31.44 31.07 32.31 32.98 33.50 33.51 33.77
38.61 38.41 38.29 37.69 38.04 38.59 39.14 38.56 38.19 38.33 37.63 36.28 36.09 36.46 36.24 35.55 35.40 34.35 33.68 34.32 33.75 32.82 32.44 32.95 32.99 33.60 34.07 34.55 33.45 32.28 31.44 30.61 30.77 30.63 31.35 31.51 31.33 31.51 33.77 33.52 32.33 31.88 31.60
38.71 37.33 37.07 37.50 37.61 37.57 38.32 37.65 36.39 35.67 34.91 35.35 35.54 35.99 35.36 35.37 33.79 34.49 33.57 32.70 33.67 32.88 33.96 33.15 34.60 35.38 34.98 35.58 33.60 32.33 32.18 31.37 31.37 31.62 31.40 30.51 32.04 32.65 32.92 32.01 30.71 28.31 28.89
37.17 37.33 37.32 37.15 37.24 37.01 36.36 35.19 34.77 34.00 35.51 36.14 36.33 35.80 35.82 34.78 33.72 32.86 32.80 33.09 33.26 32.78 32.39 32.28 33.07 34.35 35.56 35.02 34.13 32.86 32.39 31.43 30.63 30.13 30.20 30.78 31.03 31.05 30.59 30.53 29.96 28.64 31.91
37.41 37.04 36.46 36.16 36.89 37.13 36.00 34.59 33.71 35.15 35.25 35.26 34.46 34.49 34.94 35.00 34.55 32.88 32.67 32.19 31.37 30.56 30.10 29.94 29.75 30.97 32.68 33.17 33.34 33.19 32.58 31.78 30.20 28.97 30.11 30.50 29.50 28.97 28.75 29.26 29.97 30.79 30.15
36.64 36.66 36.38 35.93 35.94 35.74 36.46 33.96 35.17 36.22 36.18 35.54 34.81 34.77 34.91 33.66 32.90 32.00 31.06 30.73 30.95 30.29 29.59 28.76 28.75 29.05 30.49 31.73 31.45 31.50 31.04 30.70 29.72 29.95 29.21 27.96 27.46 27.58 27.96 28.11 28.15 28.14 28.49
36.45 36.21 35.65 34.74 33.84 35.96 36.57 36.12 36.37 36.91 36.41 34.27 33.74 32.62 31.62 31.17 31.24 31.35 31.73 31.10 30.45 29.92 28.93 28.36 28.14 28.93 29.95 30.91 31.81 31.09 31.31 29.41 29.52 28.34 28.61 26.47 26.24 25.92 26.66 27.29 27.89 27.97 27.78
36.41 36.35 36.00 34.65 34.77 36.12 36.18 36.57 37.09 37.60 34.90 32.57 31.80 31.37 30.59 30.23 29.99 30.40 31.05 30.52 30.25 30.40 29.15 28.83 28.85 28.35 28.46 29.77 30.66 30.12 29.64 29.79 28.99 27.87 26.57 26.42 26.54 26.57 26.80 26.97 27.12 27.30 27.17
37.20 36.85 36.86 35.15 35.45 36.82 36.96 37.01 35.77 35.62 32.78 31.05 30.29 30.03 29.92 30.81 31.50 31.63 31.55 32.60 32.20 31.62 30.69 29.51 29.49 29.43 29.51 29.68 29.37 28.85 28.57 27.30 27.20 25.29 24.23 24.86 25.34 25.04 24.98 25.07 25.54 26.33 25.86

GFSMW_sfc_wetblb_069.txt.gz
Wetbulb
54.01 55.14 56.00 56.90 57.56 58.18 58.55 59.59 59.92 61.16 65.56 67.48 67.60 66.84 66.04 67.49 69.02 70.18 69.91 69.36 68.62 67.90 67.46 67.14 66.55 66.58 65.71 65.09 64.05 64.30 62.00 60.74 61.37 57.72 54.51 54.78 54.00 52.91 52.98 54.35 54.49 54.19 53.97
52.37 53.63 54.22 54.82 55.32 56.22 57.41 58.00 58.81 59.56 60.70 64.75 68.57 67.12 66.51 66.16 67.02 67.93 68.59 69.39 69.36 68.78 67.50 67.16 66.55 66.46 65.60 65.37 63.77 62.96 61.76 60.04 59.77 55.01 53.72 51.37 51.09 51.00 51.37 52.41 52.65 52.68 52.15
49.96 50.71 51.43 52.29 53.49 54.00 55.42 56.71 58.14 58.89 59.68 61.08 63.97 68.07 67.95 68.65 67.25 66.45 66.48 66.38 68.33 69.26 68.50 67.20 66.72 66.57 65.98 64.60 64.89 63.48 62.00 58.03 57.30 57.01 56.43 52.55 51.18 48.98 50.54 49.79 51.34 51.59 51.24
49.82 50.30 50.87 51.15 51.73 52.90 54.29 54.72 55.77 56.92 58.23 59.51 59.68 62.16 64.65 64.36 66.06 66.76 67.01 66.38 66.90 66.82 67.00 67.64 66.64 66.02 65.89 64.99 64.31 64.55 63.22 59.53 55.98 54.24 55.73 55.74 53.04 50.33 45.26 48.66 48.80 50.19 49.40
50.21 50.44 51.10 52.19 53.11 53.93 53.94 53.74 53.42 53.97 55.22 56.27 57.55 59.36 61.68 64.39 65.31 65.36 65.21 66.69 67.84 66.94 65.36 65.64 65.58 65.60 65.16 65.10 64.08 63.65 63.12 59.79 57.64 53.78 52.47 51.51 50.26 49.52 47.94 44.53 43.94 47.07 47.83
50.86 51.33 52.56 53.74 54.13 55.17 54.87 54.93 53.95 52.90 53.55 54.81 55.58 56.78 59.41 62.04 63.07 63.47 63.83 64.82 66.09 67.23 65.71 64.35 64.49 64.00 63.75 63.52 63.20 62.82 62.32 60.43 59.71 55.84 54.91 51.15 50.50 47.38 45.98 46.16 43.89 41.96 42.50
51.40 51.66 51.76 52.03 53.00 53.79 54.68 54.90 54.51 53.20 53.82 53.95 53.96 54.98 56.99 59.93 61.57 62.37 63.04 63.18 64.10 64.46 64.35 64.40 63.58 62.82 62.66 62.90 62.32 61.84 60.26 59.49 58.86 58.10 54.59 51.90 51.46 47.80 47.12 45.07 41.04 39.30 37.58
51.47 51.57 52.19 52.66 52.59 53.18 53.93 54.28 54.01 54.11 54.45 54.17 54.12 54.55 55.36 55.89 57.28 60.27 62.18 62.83 63.09 63.95 64.79 62.89 62.69 62.35 61.92 61.33 61.02 60.09 59.21 58.35 58.09 57.15 54.94 51.84 45.76 43.31 41.74 42.50 38.88 35.23 34.33
50.40 50.89 51.65 52.39 52.43 52.82 52.85 52.22 52.21 52.83 53.42 53.83 54.78 55.22 55.11 54.80 54.77 56.65 58.93 60.62 61.82 62.23 62.06 61.72 60.92 60.80 60.67 60.18 59.05 57.66 56.61 56.14 55.65 54.32 48.01 42.91 41.94 41.02 40.24 39.93 41.02 39.90 36.72
49.98 50.18 50.53 50.81 51.94 51.95 51.46 51.36 51.11 51.04 51.91 52.74 53.27 53.35 54.03 54.50 55.15 56.06 56.29 56.92 57.85 58.51 58.45 56.76 57.81 57.30 56.20 55.92 55.22 53.89 53.20 52.04 46.10 44.79 42.77 40.54 40.75 38.83 39.04 38.78 38.00 38.00 36.39
48.92 49.09 49.84 50.92 50.45 50.02 49.54 49.39 49.38 49.64 50.18 51.29 52.17 52.30 52.69 53.16 53.88 53.98 54.06 54.06 54.47 54.70 54.50 54.34 54.39 53.87 52.95 52.69 49.94 46.44 44.57 41.40 40.47 40.24 38.68 37.61 38.46 37.68 36.97 36.98 36.30 36.15 36.03
47.47 48.54 49.53 49.02 48.32 47.94 48.00 47.76 47.77 48.04 49.00 50.42 51.60 51.31 51.74 52.19 51.82 51.49 51.42 51.78 51.44 52.06 51.53 52.16 51.43 50.03 48.78 46.52 43.80 42.67 40.32 39.27 38.22 37.10 37.42 36.82 37.28 36.81 36.50 35.85 34.83 34.50 33.79
46.81 47.42 47.43 46.89 46.38 46.11 45.64 45.57 45.62 46.13 47.23 48.60 48.95 47.85 47.83 47.61 46.86 46.24 45.93 46.39 46.12 45.13 44.15 43.26 43.10 41.97 41.40 39.83 39.36 38.37 37.40 36.92 36.62 36.90 36.87 37.09 36.33 35.80 34.39 34.20 33.88 33.27 33.60
45.77 46.17 45.96 45.60 45.13 44.31 44.09 44.05 44.03 44.84 45.41 45.96 45.56 44.41 44.03 43.80 43.14 42.62 42.19 41.55 41.05 39.88 39.03 38.80 38.22 37.89 37.71 37.65 37.81 37.69 37.32 37.26 37.07 37.25 37.25 37.12 36.15 34.68 33.54 33.37 32.99 32.88 32.06
44.72 44.47 44.42 44.49 44.28 43.56 43.51 43.49 43.06 43.46 44.25 43.95 43.45 42.33 42.14 41.45 40.88 39.99 39.71 39.31 39.22 39.13 38.92 38.11 38.32 38.42 38.25 38.07 37.61 37.16 36.40 35.31 34.19 34.64 35.31 34.69 35.98 36.58 35.60 34.17 33.69 33.59 32.78
42.72 42.46 42.07 42.48 42.83 42.92 42.48 42.46 42.24 42.20 42.84 42.14 41.60 41.65 41.37 40.79 39.69 39.57 39.52 39.43 39.19 39.33 39.44 38.89 38.87 38.76 39.49 40.49 39.43 36.26 33.87 33.28 32.38 31.57 33.94 34.43 35.51 36.07 36.06 34.90 34.58 34.32 32.66
42.14 41.75 41.71 41.51 41.51 42.10 42.41 41.63 41.81 42.00 40.97 40.46 40.32 40.34 39.89 38.66 38.22 38.11 37.52 36.34 35.82 36.14 34.96 34.85 34.56 34.21 37.03 39.30 38.46 36.04 31.97 31.16 30.98 31.49 31.72 32.10 32.74 32.37 31.62 32.37 32.83 33.26 33.78
40.59 41.06 41.42 40.81 41.22 42.25 42.29 42.06 41.76 40.78 39.88 39.38 38.86 39.28 38.43 36.88 36.45 35.57 34.63 34.25 34.43 33.90 33.51 32.74 33.00 33.07 34.85 36.92 36.36 35.00 32.05 31.94 31.91 31.66 31.54 31.32 30.93 31.14 31.92 32.41 32.56 32.95 33.03
41.01 41.59 41.74 40.95 40.42 40.74 41.08 40.09 39.75 39.56 38.90 37.27 36.87 37.59 36.61 35.51 35.05 34.36 34.15 34.63 33.66 32.96 32.89 33.73 33.27 32.99 33.29 34.85 34.47 33.07 32.15 31.80 30.84 30.83 31.44 31.55 31.46 32.23 33.72 32.83 32.01 31.05 30.70
41.16 40.00 39.33 39.14 39.00 39.18 39.58 38.47 37.76 37.44 36.28 36.15 36.26 36.28 35.72 34.44 34.11 34.28 33.28 33.27 34.11 33.60 33.82 34.80 35.54 35.97 34.29 34.47 33.65 33.09 32.65 31.24 30.82 31.36 31.24 31.34 31.89 32.86 32.90 30.71 29.69 27.47 27.49
39.33 38.82 38.06 37.93 37.90 38.32 38.40 36.53 35.96 34.41 36.07 36.61 36.15 35.56 35.74 34.02 34.33 33.54 33.74 34.38 34.24 34.22 33.72 33.51 34.63 35.01 34.85 34.08 34.36 33.99 32.06 30.60 29.87 29.26 29.18 29.85 31.14 31.03 30.82 30.79 28.53 27.57 30.41
38.30 38.34 37.10 37.18 37.93 37.93 36.71 34.89 34.09 35.41 35.64 36.15 35.37 35.07 35.71 35.72 35.56 34.73 34.25 33.21 32.59 31.64 31.23 30.82 30.55 31.94 32.94 33.75 33.54 33.12 32.30 31.89 29.29 28.17 29.04 29.77 30.08 29.44 29.37 29.04 30.23 31.26 31.02
38.39 37.90 36.70 37.10 36.48 36.22 36.00 34.67 35.12 36.11 36.32 35.98 35.87 36.18 36.31 34.98 34.29 33.11 32.42 31.90 32.13 31.24 30.04 29.04 28.96 28.92 30.33 31.39 31.37 31.36 31.05 30.92 28.90 29.32 29.17 28.89 28.41 28.42 28.65 28.75 29.21 29.34 27.33
37.92 38.42 37.51 35.20 34.36 35.53 36.17 36.43 36.75 37.38 37.51 36.65 36.09 34.16 32.55 32.43 32.57 32.65 32.85 31.86 31.03 30.08 28.95 28.31 28.21 28.60 29.28 30.09 31.10 30.72 30.62 30.35 29.73 29.11 28.95 27.09 27.01 27.84 27.59 27.56 27.82 27.28 26.75
38.22 37.48 36.44 35.14 34.55 35.71 36.07 37.54 38.08 38.12 36.92 34.63 32.68 32.31 32.05 31.82 30.91 31.16 31.69 30.68 30.35 30.66 29.29 28.84 28.46 27.84 27.89 29.07 30.25 29.60 28.59 28.62 28.54 27.67 26.00 25.37 25.55 25.74 26.20 26.36 26.54 26.53 26.39
38.10 36.75 37.23 35.68 35.27 36.89 36.99 37.75 38.88 38.50 34.65 32.17 31.66 31.26 30.76 31.61 31.73 30.92 30.33 32.77 32.15 31.63 31.01 30.44 29.64 29.18 29.34 29.89 29.54 29.11 28.87 27.94 27.81 24.83 23.71 23.92 24.87 24.84 24.84 24.87 25.17 26.01 26.51

GFSMW_sfc_wetblb_072.txt.gz
Wetbulb
49.96 50.95 51.54 50.88 52.06 54.09 54.93 55.45 56.37 58.89 64.61 67.49 65.32 65.27 66.30 65.46 65.94 66.49 66.48 65.77 64.74 63.99 63.00 63.18 62.56 62.52 61.58 62.10 61.41 60.09 58.02 56.60 56.08 52.96 49.29 49.25 49.67 48.84 48.72 49.98 49.68 50.78 51.15
48.20 49.45 50.38 48.95 50.99 51.71 52.78 53.46 54.18 55.68 56.67 60.52 66.73 65.48 65.42 65.43 66.50 64.88 66.26 66.85 65.56 64.39 63.99 63.03 63.06 62.04 61.35 61.19 61.69 61.14 59.67 56.85 56.26 51.70 47.79 45.20 46.88 47.65 48.75 48.07 49.52 48.92 49.69
46.13 46.95 47.52 48.34 48.86 48.86 49.87 52.06 53.60 54.17 55.19 56.35 59.59 65.10 64.53 63.68 63.17 64.32 65.91 65.91 65.62 65.72 64.44 63.12 62.85 62.26 61.88 61.04 61.39 61.23 60.32 58.37 54.72 52.46 50.44 48.05 46.87 44.78 47.24 47.13 47.72 47.67 46.98
45.39 47.03 48.16 48.10 48.52 48.92 49.46 49.76 50.45 51.13 52.73 54.32 54.35 57.70 63.52 62.29 63.87 64.21 64.80 64.73 65.51 65.65 65.05 64.44 63.63 62.43 62.15 61.57 60.65 61.51 60.76 58.89 55.35 53.60 54.36 51.31 48.78 44.95 40.93 44.74 45.89 46.80 46.53
45.96 47.14 48.02 49.80 50.27 50.48 49.70 49.98 49.63 49.82 50.57 51.39 51.93 52.01 52.35 56.96 61.61 62.06 62.91 63.16 63.60 64.31 64.24 64.53 62.16 64.09 63.57 63.24 62.75 60.98 60.84 60.90 57.68 54.32 51.72 52.42 48.42 46.88 44.35 39.22 41.96 44.00 44.93
46.57 48.12 49.48 51.19 51.08 51.59 51.05 50.65 50.12 49.61 49.48 49.52 50.20 50.26 50.47 52.11 56.18 58.67 58.45 59.26 60.68 63.48 63.51 63.61 63.42 63.41 62.73 62.65 62.53 62.14 60.34 59.21 58.75 55.52 53.19 51.40 49.83 48.74 45.80 44.27 40.78 41.47 41.96
46.94 47.32 47.71 48.29 49.38 49.71 50.89 51.74 51.38 50.03 50.15 49.84 49.43 49.42 50.10 51.50 53.59 56.25 57.77 58.77 59.07 60.29 61.61 61.98 62.62 62.20 62.50 62.30 61.94 61.40 60.41 59.87 58.21 57.90 53.72 53.07 52.56 50.33 49.05 47.67 43.06 40.47 38.44
47.47 47.75 48.35 48.36 48.44 49.49 49.43 48.94 49.25 49.82 50.49 50.68 50.74 49.84 49.28 49.70 50.51 51.76 54.33 57.10 57.96 58.86 60.72 60.64 61.72 61.80 61.61 61.40 61.25 60.12 59.63 59.04 58.54 57.62 54.93 53.18 49.47 47.87 47.45 46.20 41.21 38.17 35.02
47.14 47.04 47.66 48.25 48.54 48.53 48.00 47.54 47.71 48.65 49.24 49.58 49.67 49.59 50.33 50.37 50.77 51.22 51.44 53.17 55.83 57.45 56.64 57.23 57.89 59.63 59.53 59.54 59.13 58.36 57.24 56.82 56.18 55.31 51.53 44.55 42.93 42.89 42.53 42.56 43.60 43.03 36.75
46.95 46.48 46.62 47.35 47.76 47.12 46.76 46.53 46.83 46.95 47.70 48.59 48.88 49.53 49.38 50.05 50.49 50.96 50.47 50.90 51.43 52.21 52.31 52.64 53.32 54.24 55.01 54.98 55.13 54.02 53.17 50.36 47.27 45.67 43.62 42.83 41.69 40.75 41.33 41.22 41.07 41.77 39.73
45.50 45.90 46.87 47.18 46.32 45.41 44.92 44.62 44.89 45.60 46.23 47.47 48.38 48.13 48.52 49.22 49.34 48.55 48.35 48.76 49.17 49.20 49.35 50.86 51.99 51.43 50.66 50.51 48.18 46.42 44.88 42.92 41.59 41.06 40.20 39.15 39.26 39.05 39.21 39.25 39.31 38.42 37.49
45.22 46.16 46.20 45.27 44.38 43.70 43.20 42.48 43.17 43.73 44.71 46.18 46.00 45.15 45.43 44.48 43.19 42.44 43.47 44.45 43.54 43.19 42.46 44.84 44.27 43.50 42.82 43.06 43.43 41.80 41.25 40.06 38.66 38.49 37.91 37.43 38.43 37.44 37.66 37.32 37.20 34.99 34.80
44.78 45.35 44.32 43.64 42.65 41.88 41.40 41.25 41.28 41.54 42.95 43.91 42.83 41.93 41.36 40.68 39.39 39.15 39.37 39.21 38.38 37.58 37.68 37.66 37.73 37.51 37.13 38.13 38.12 37.91 37.47 37.63 37.58 37.46 36.91 36.95 36.63 35.30 35.01 34.68 33.80 33.66 33.90
44.40 43.84 42.65 41.92 41.03 40.92 40.61 40.01 39.94 40.75 41.81 42.12 40.72 39.48 38.46 38.16 37.92 38.07 37.72 37.80 37.29 36.60 36.76 36.92 37.73 38.01 38.17 38.18 38.03 37.74 37.04 36.58 36.30 36.47 36.48 36.35 35.69 34.76 34.26 34.16 33.47 33.25 32.20
42.88 42.72 41.98 41.09 40.52 39.84 39.49 39.54 39.43 39.95 40.72 40.25 39.33 38.56 38.74 38.30 37.71 37.59 37.89 37.65 37.37 37.40 38.47 38.44 38.29 38.42 37.72 37.41 36.70 36.28 35.40 34.77 34.32 34.66 35.30 35.67 36.59 37.21 35.88 33.82 33.24 33.00 31.97
42.12 41.19 40.97 40.19 39.19 38.54 38.69 39.48 38.82 38.89 39.25 38.69 38.47 39.07 38.41 38.05 38.03 38.30 37.52 37.72 37.74 37.87 37.42 37.53 38.47 38.47 39.22 40.07 38.71 35.09 32.80 32.62 32.71 32.16 32.60 33.41 33.91 35.50 37.01 35.76 35.64 34.74 32.07
41.96 41.04 39.62 39.41 39.25 39.00 39.42 37.91 37.90 38.49 37.87 37.49 37.96 37.87 37.65 36.93 36.45 36.58 35.81 35.19 33.71 34.21 34.02 34.18 35.31 36.07 37.00 39.64 38.34 35.91 32.16 31.63 31.64 31.77 31.99 32.40 32.80 32.28 31.52 32.51 33.16 33.38 33.91
41.35 40.73 40.58 38.37 38.55 39.92 39.38 38.64 38.55 37.56 37.32 36.43 37.07 38.07 36.78 36.01 35.37 34.88 34.14 33.63 33.91 32.99 32.22 32.09 33.19 33.84 36.31 38.07 37.17 35.26 32.35 32.02 31.44 31.67 31.85 31.20 30.24 30.66 32.11 31.62 30.00 30.43 30.67
39.70 40.51 38.83 38.13 38.11 40.05 39.93 37.59 37.58 37.03 36.08 35.44 36.62 36.62 36.14 35.29 34.64 33.95 33.62 33.77 32.66 31.72 32.48 32.72 32.45 31.62 31.82 35.53 34.80 32.38 29.45 28.55 27.88 29.77 30.18 30.14 29.54 33.08 34.38 30.74 29.75 28.47 27.43
39.00 37.17 36.80 39.05 38.61 38.71 39.00 37.98 37.44 36.60 35.80 36.00 35.95 35.45 35.31 35.07 33.46 33.77 32.24 32.79 33.84 33.04 33.61 31.94 30.82 33.87 28.91 34.77 34.41 32.61 29.88 26.23 27.02 27.45 28.84 32.39 31.06 32.91 32.63 27.81 25.31 23.76 23.71
37.02 36.71 36.21 37.70 37.54 38.40 38.21 36.27 35.52 34.28 35.83 36.31 35.27 34.69 34.80 34.43 33.99 32.88 32.31 31.34 29.08 27.03 25.97 28.97 29.07 29.33 30.58 30.83 34.96 34.52 28.80 26.46 25.56 25.29 25.45 26.26 31.22 30.85 30.65 30.37 24.53 24.86 27.12
36.44 36.48 36.60 36.88 37.87 38.03 36.64 35.04 33.42 35.17 35.62 35.75 35.02 34.68 34.71 34.96 33.90 31.00 29.03 29.32 28.22 26.14 25.27 25.23 24.83 26.30 28.19 33.43 33.04 33.02 32.23 31.30 24.99 24.24 24.96 25.98 30.24 29.59 29.54 27.78 30.55 31.21 30.39
35.94 36.19 36.41 36.35 36.56 36.19 36.30 34.03 34.44 36.01 35.93 35.48 35.19 34.95 34.04 33.77 33.01 28.00 26.63 25.74 25.80 24.44 23.24 23.38 22.34 22.92 25.53 26.29 31.65 31.61 31.25 30.77 26.00 26.13 28.04 29.30 28.78 29.06 27.41 29.54 30.06 29.57 23.62
35.53 35.76 34.77 34.57 33.81 35.27 35.66 35.86 36.17 36.55 36.13 35.60 35.30 32.28 27.51 27.06 26.95 27.81 27.20 25.73 24.70 23.87 23.15 23.06 22.52 22.22 23.42 24.37 25.47 26.27 24.71 29.77 27.22 27.83 24.94 26.81 27.70 28.69 27.52 26.94 25.87 24.67 23.67
35.94 35.61 34.54 34.94 33.92 35.37 35.78 36.68 36.87 37.33 36.43 32.95 28.35 27.22 27.43 26.14 24.93 27.08 25.45 24.49 25.77 26.73 23.26 22.69 23.16 22.33 22.24 25.97 28.90 27.97 26.22 25.04 26.63 26.20 22.18 21.21 21.89 22.25 23.10 23.36 23.67 23.57 23.63
35.71 35.14 36.17 35.16 34.49 35.50 35.96 37.05 37.98 37.49 31.32 27.40 26.20 25.49 24.83 25.04 26.02 26.07 26.32 32.74 31.58 31.94 31.66 31.07 27.46 26.19 28.93 30.08 29.58 29.23 29.09 28.91 28.21 22.54 19.95 19.35 20.35 21.10 22.44 22.57 22.87 23.34 25.69

GFSMW_sfc_wetblb_075.txt.gz
Wetbulb
48.82 49.48 49.93 50.01 49.82 50.43 53.05 55.06 60.01 66.78 66.71 65.19 63.75 63.79 64.44 64.61 65.05 65.72 65.01 63.57 63.15 62.96 61.76 61.91 61.62 61.24 61.29 61.60 60.28 58.06 56.92 55.88 54.85 52.04 49.18 48.29 48.27 48.26 49.41 50.07 49.46 50.94 53.51
45.55 46.56 48.00 47.38 49.04 49.20 49.76 51.07 52.68 54.35 62.89 66.82 66.26 64.04 63.80 64.24 64.87 64.77 65.54 66.36 65.43 63.06 62.81 61.92 62.18 61.32 60.33 60.39 60.46 59.33 56.99 56.45 54.95 51.37 46.72 45.32 46.61 47.52 48.08 47.96 49.33 48.64 49.91
45.01 44.78 46.20 46.90 47.59 48.04 48.02 49.19 49.31 50.34 51.96 54.79 64.76 63.79 64.19 62.77 62.64 63.00 64.37 64.78 65.04 65.02 63.90 62.14 61.52 61.86 61.44 60.43 60.69 60.40 58.44 57.25 55.52 52.62 49.74 45.43 45.20 44.63 45.91 47.14 47.52 47.80 47.49
45.30 45.66 46.37 46.92 48.17 48.38 48.40 48.92 48.91 48.90 50.08 50.24 52.86 62.46 62.05 62.12 61.85 62.36 63.70 63.89 63.99 63.44 63.73 63.41 62.63 61.00 60.68 59.97 59.81 60.79 60.36 57.08 55.65 54.53 53.38 52.08 49.60 44.80 43.39 45.76 46.93 47.33 46.57
45.27 46.17 46.90 48.86 49.75 49.51 48.88 48.83 48.18 48.37 48.60 48.66 49.21 49.69 51.90 55.86 60.47 62.64 62.70 63.16 62.65 63.28 63.24 63.05 62.41 62.01 60.84 60.73 59.62 59.53 59.65 59.63 58.04 55.35 52.79 52.60 51.51 47.90 44.74 43.46 44.57 46.45 47.09
45.62 47.31 48.48 50.06 50.06 50.28 49.79 49.72 48.40 48.62 48.76 48.19 47.78 48.41 47.91 48.31 50.27 54.75 59.18 60.95 61.00 61.63 62.11 62.10 63.48 62.82 61.70 62.31 62.63 62.14 60.71 60.85 60.60 57.83 55.57 52.65 51.46 51.42 47.60 44.16 42.96 44.02 42.71
45.21 46.48 47.00 47.79 48.56 48.86 48.79 49.72 49.48 49.12 49.55 49.60 49.13 47.62 47.05 47.27 48.95 51.13 54.66 56.83 57.69 57.91 60.65 61.61 61.31 60.86 61.02 62.11 61.76 61.23 60.60 59.75 59.74 58.78 56.48 55.12 53.73 52.74 51.28 48.11 44.05 41.79 40.22
45.13 46.69 47.32 47.25 47.73 47.96 47.14 47.22 47.98 48.24 48.89 48.74 48.56 48.97 48.89 48.14 48.84 49.18 50.81 53.62 55.64 57.02 57.96 58.66 59.48 60.90 61.29 60.98 60.67 59.80 59.48 59.41 58.73 57.50 55.83 54.50 53.25 51.01 50.55 48.63 44.61 38.51 37.91
45.58 46.25 46.67 46.87 46.79 46.31 45.89 45.77 46.27 46.76 47.41 48.16 48.40 48.40 48.70 49.04 49.31 49.78 50.46 50.66 51.90 54.48 53.58 55.21 57.21 57.61 57.80 57.60 57.36 57.02 57.03 56.98 55.10 53.02 51.55 47.44 45.23 45.88 46.01 46.35 46.22 46.30 37.69
45.00 45.00 45.82 45.85 45.32 45.10 44.56 44.92 45.56 45.81 46.40 47.61 47.98 48.16 48.12 48.85 48.61 48.11 47.94 48.46 48.80 49.52 50.45 50.36 50.45 50.30 50.54 52.64 53.10 52.59 51.09 50.65 47.19 45.91 44.64 42.72 42.10 42.21 42.71 43.48 44.02 44.21 41.89
44.24 44.42 45.06 44.67 44.14 43.31 42.66 42.74 43.63 44.63 44.97 46.28 45.10 44.18 43.42 42.97 42.87 42.87 43.65 43.55 42.92 43.30 45.67 47.08 47.09 46.62 47.47 47.22 46.35 45.32 44.62 43.19 42.10 41.87 40.87 39.70 40.39 39.91 39.75 40.10 40.22 39.79 39.54
44.25 45.14 44.07 43.13 42.00 40.90 40.47 40.29 41.28 42.16 43.29 43.33 42.21 41.46 40.79 39.83 38.74 38.02 38.04 38.32 37.26 37.81 38.13 39.59 39.06 37.97 38.43 38.94 41.89 41.46 41.03 40.26 39.15 38.85 38.74 38.21 39.02 37.86 38.06 37.92 36.76 35.88 36.04
44.36 43.76 42.55 41.45 40.55 40.01 39.79 39.76 40.05 40.98 41.74 41.12 39.57 38.69 37.95 37.58 36.58 36.70 37.20 37.13 36.30 35.92 36.16 36.24 35.86 35.86 36.09 36.22 36.56 37.89 38.18 37.93 37.84 37.77 37.47 37.06 36.80 35.55 35.26 34.88 34.41 34.35 35.07
43.84 42.54 40.94 40.04 39.41 39.49 39.23 38.97 39.33 40.41 40.81 39.98 38.47 37.44 36.74 36.64 36.48 36.66 36.55 36.42 36.02 35.65 35.76 36.13 36.44 36.75 36.91 37.01 36.78 36.45 35.85 36.47 36.47 36.71 36.54 36.17 35.54 34.69 34.27 34.04 33.78 33.58 32.42
42.48 41.93 40.43 39.13 38.66 38.50 38.38 38.53 38.89 39.60 39.78 38.87 38.08 37.31 37.31 37.22 36.95 36.56 36.71 37.26 37.02 37.42 37.77 37.43 37.63 37.32 37.19 36.56 34.87 35.40 35.09 34.73 34.58 35.24 36.19 36.43 37.33 38.01 36.84 34.46 33.21 32.96 32.07
41.66 41.42 40.71 39.26 37.95 37.61 37.97 38.57 38.04 38.20 38.86 38.09 37.41 37.69 37.27 38.27 37.59 37.14 36.87 36.50 36.42 36.50 37.06 37.83 37.75 37.54 38.00 39.51 38.36 34.42 33.11 33.49 33.05 32.21 32.87 33.64 34.32 35.68 37.03 37.47 36.75 34.20 31.82
40.48 40.36 39.34 38.46 38.34 37.82 38.21 36.83 36.87 37.50 36.99 36.77 36.81 36.80 37.33 36.53 36.06 36.23 35.12 34.77 34.15 34.43 34.30 35.54 36.52 37.04 37.96 38.98 38.26 35.81 30.28 28.92 29.88 31.00 31.34 32.12 32.86 32.37 31.43 32.98 33.76 33.60 34.32
39.99 39.67 39.73 39.34 39.50 38.23 37.73 37.38 37.44 36.60 36.48 35.95 36.48 37.14 36.63 35.68 35.57 34.34 33.85 33.49 33.31 32.52 32.93 32.76 33.57 34.43 37.25 38.30 37.07 35.48 31.15 30.60 30.72 30.18 28.82 28.16 28.09 28.89 31.07 30.80 29.52 29.57 30.01
39.46 39.51 40.21 38.23 37.69 38.09 39.24 38.12 35.52 35.20 35.29 34.84 36.08 36.47 36.18 35.04 34.92 33.56 33.23 32.97 32.63 32.07 32.44 31.44 29.10 28.68 30.92 35.74 35.18 31.06 26.92 26.77 26.34 27.94 27.82 27.99 27.31 33.18 34.29 27.82 25.87 25.49 25.47
38.97 38.24 36.94 37.35 37.07 38.28 38.90 37.30 35.62 35.79 35.34 35.24 35.60 35.99 35.89 34.90 33.67 33.34 32.77 32.89 33.02 31.67 29.23 26.43 27.97 32.82 27.88 35.63 35.38 30.81 28.11 24.99 26.00 26.41 26.90 32.35 29.87 32.23 31.85 25.82 23.91 22.47 22.71
37.47 36.39 36.24 36.08 37.83 38.71 38.15 36.06 35.74 34.63 35.87 35.72 35.21 35.38 35.39 34.42 33.99 33.17 33.06 30.72 24.82 24.81 24.16 27.33 27.32 27.90 29.39 30.87 34.84 33.60 27.34 25.55 24.54 24.60 24.94 25.72 31.36 30.82 30.54 30.16 24.03 24.46 25.98
35.96 35.62 35.27 36.64 38.02 38.25 36.99 35.21 34.02 35.56 35.50 35.21 34.38 34.14 34.56 34.92 33.53 30.78 27.94 28.13 26.71 24.59 23.84 23.98 24.15 26.10 27.32 32.61 32.80 32.85 32.23 30.04 24.48 24.03 24.73 25.41 30.30 29.69 29.76 27.85 30.35 31.16 29.74
35.19 35.56 35.19 36.30 36.78 36.93 36.83 34.36 34.71 35.99 35.53 34.94 34.26 34.63 35.02 32.44 31.30 28.13 26.86 25.54 24.34 22.92 21.81 22.72 22.04 22.33 25.88 25.30 32.26 32.20 31.46 30.92 25.75 25.84 28.30 29.92 28.88 28.63 26.57 29.67 30.32 29.54 23.24
34.64 35.01 34.37 32.76 33.18 35.08 35.98 35.91 36.11 36.51 35.92 35.03 34.68 32.42 30.89 30.12 28.77 26.41 25.29 23.54 22.42 21.70 22.30 22.84 22.08 21.46 22.45 23.83 24.84 25.38 24.24 28.69 26.67 27.35 23.93 26.96 27.50 28.42 27.47 26.47 25.27 24.23 23.27
35.04 34.74 33.60 32.85 33.92 34.61 35.56 36.31 36.73 36.69 35.80 35.33 33.25 28.76 26.09 24.72 24.54 25.35 22.15 22.60 24.31 24.20 22.18 22.67 23.15 21.99 22.20 25.57 28.66 27.60 26.18 24.86 26.73 25.54 22.23 20.78 21.40 21.90 22.63 22.97 23.25 23.42 23.85
35.73 34.07 33.91 33.76 34.43 35.18 35.59 36.50 37.19 37.08 34.57 31.09 25.87 25.01 24.28 22.77 24.79 25.15 25.33 32.16 31.80 32.81 32.28 31.07 26.66 26.29 29.30 30.62 29.70 29.18 29.17 29.18 28.61 22.66 19.65 18.76 19.97 20.63 22.01 22.14 22.36 22.60 25.22

GFSMW_sfc_wetblb_078.txt.gz
Wetbulb
47.77 48.57 48.70 49.11 48.74 52.88 60.97 63.39 64.53 65.51 64.72 64.03 63.20 62.85 63.30 64.08 64.72 63.74 63.05 61.83 61.80 61.75 60.86 60.59 60.37 60.83 61.20 60.77 59.83 57.56 56.31 55.54 54.67 52.25 50.41 48.85 48.93 48.10 48.53 49.16 49.37 55.07 56.26
44.10 45.35 47.01 45.94 47.68 47.94 49.63 52.66 55.09 61.60 65.19 64.52 64.01 64.13 63.54 63.27 64.16 64.73 64.73 64.47 62.51 61.51 61.04 60.39 60.86 60.82 60.03 59.94 59.63 58.88 56.24 55.81 54.22 52.72 48.36 49.37 48.80 47.79 48.39 47.42 48.96 48.69 52.77
44.32 42.76 45.11 46.00 46.14 46.50 46.85 48.55 49.22 50.15 53.05 61.55 64.37 63.10 63.03 62.39 62.30 62.68 63.26 64.48 64.47 64.00 62.16 60.80 60.55 60.38 60.62 60.41 60.12 59.72 58.10 58.29 54.97 52.90 52.57 45.65 46.29 45.39 46.47 46.30 46.08 46.94 47.09
43.18 44.05 45.30 45.81 46.78 47.05 47.29 47.80 48.24 48.36 49.14 49.88 56.98 62.60 63.36 62.27 61.62 61.66 62.41 62.62 62.97 63.39 63.90 63.35 61.96 60.64 60.02 59.71 59.44 60.10 59.57 56.57 55.60 54.18 55.64 51.04 48.90 46.63 45.72 44.82 48.24 49.13 48.67
43.92 44.63 45.88 47.97 48.35 48.58 48.08 47.42 46.87 46.90 47.06 47.53 48.82 54.56 57.63 59.02 59.31 60.73 61.21 61.53 61.67 62.60 62.60 62.86 61.81 61.27 60.33 59.24 59.02 60.09 59.40 59.48 59.41 55.25 52.31 51.45 51.51 48.88 47.78 48.42 45.04 47.08 47.34
44.21 45.74 47.29 48.89 48.89 48.92 48.60 47.48 48.66 48.82 48.44 46.59 46.22 47.14 47.40 47.90 48.69 50.57 56.24 59.72 60.96 61.31 61.58 61.31 60.81 61.16 61.55 60.93 60.30 59.20 60.01 59.87 60.01 59.55 57.43 55.30 52.98 52.39 48.54 46.14 44.76 45.53 43.58
44.26 45.75 47.40 47.82 48.00 47.52 47.35 48.58 48.41 48.04 48.45 47.99 48.06 46.37 45.84 46.04 47.66 49.56 52.32 55.38 56.83 57.58 61.27 59.82 60.10 59.60 59.74 60.70 61.19 61.02 60.40 59.58 58.95 59.11 57.87 56.56 55.84 53.99 53.00 52.17 46.37 44.32 43.34
43.49 45.01 46.23 47.07 47.30 46.73 46.30 47.27 47.14 47.13 48.00 48.04 47.86 48.00 48.48 48.68 49.00 48.55 50.87 53.14 55.51 56.66 56.85 58.09 58.67 59.19 61.12 60.84 60.13 59.31 58.76 58.57 58.43 58.34 58.24 56.99 54.75 52.49 51.82 50.38 48.24 41.24 39.85
44.46 44.99 45.12 45.99 45.72 44.99 44.89 45.72 45.92 46.24 47.28 47.58 47.61 47.58 47.78 48.21 47.96 47.98 48.86 49.46 50.78 53.16 52.93 53.77 53.88 54.15 54.85 56.20 56.34 54.55 53.20 54.20 51.64 49.85 48.78 47.84 46.00 46.55 46.62 47.48 47.68 46.96 40.47
44.40 44.45 44.73 44.24 43.99 44.05 43.92 44.33 44.93 44.84 45.83 46.37 45.88 45.57 45.42 45.51 45.42 45.78 45.51 45.64 46.10 48.70 49.18 49.02 48.70 48.31 49.16 49.40 48.86 46.47 48.16 47.82 45.72 45.03 44.65 43.07 42.69 42.69 43.42 43.92 44.16 44.66 43.50
44.02 43.90 43.82 43.00 42.52 41.84 41.75 42.54 43.32 43.90 44.16 43.07 41.46 39.97 39.26 39.02 38.85 39.10 39.34 39.20 39.57 41.63 43.38 43.93 42.75 42.54 43.68 46.20 45.95 45.09 44.79 43.52 42.34 41.76 40.95 40.21 40.98 40.26 40.30 40.72 40.61 40.32 40.00
43.99 44.02 42.85 41.79 40.79 40.04 39.95 40.10 41.13 42.10 41.85 41.11 39.68 38.76 38.56 37.82 37.07 36.65 36.65 36.95 36.30 36.81 37.22 37.17 36.71 36.84 37.26 37.99 41.44 41.47 41.38 40.86 39.73 39.55 39.22 38.80 39.32 37.98 38.10 37.59 36.26 36.03 36.07
43.62 43.06 41.72 40.73 39.74 38.99 38.94 39.25 40.19 40.46 39.88 39.16 38.02 37.36 36.72 36.17 35.62 35.71 36.25 36.53 35.98 35.88 36.29 36.49 36.08 35.91 36.20 36.19 36.36 36.46 36.08 37.56 37.92 37.71 37.45 37.47 37.16 35.93 35.73 35.34 34.61 34.58 35.13
43.45 42.04 40.55 39.82 39.00 38.72 38.49 38.43 38.90 39.89 39.18 38.34 37.35 36.42 36.11 36.02 36.01 36.24 36.40 36.36 35.96 35.66 35.87 36.02 35.94 35.99 35.83 35.81 35.47 35.02 34.55 35.06 34.72 35.28 36.01 36.11 35.66 34.92 34.51 34.33 34.18 33.83 32.94
42.64 41.73 40.12 38.72 38.18 37.81 37.44 37.90 38.40 38.85 38.65 37.86 37.11 36.56 36.85 36.75 36.48 36.58 36.55 36.53 36.83 36.57 36.64 36.34 36.22 36.04 36.06 35.78 33.89 34.83 34.59 34.49 34.57 35.66 35.93 36.28 37.83 38.46 36.95 33.13 32.97 33.79 33.13
41.70 41.57 40.69 38.82 37.33 36.60 37.02 37.58 37.69 38.13 38.36 37.52 36.88 37.37 38.18 37.76 37.19 36.77 36.45 36.58 36.60 36.98 37.75 37.54 36.32 37.02 38.03 39.46 38.42 34.91 33.61 33.01 32.75 32.48 33.18 33.84 33.10 35.89 38.40 38.21 36.73 34.81 32.19
41.38 40.99 40.38 39.32 37.70 37.30 37.50 36.56 36.62 37.45 37.03 36.52 36.43 36.93 37.46 36.55 36.16 35.81 35.36 34.72 34.42 35.31 35.23 36.17 37.05 37.21 37.31 39.06 38.29 35.65 28.56 27.27 30.66 29.87 25.41 29.81 32.56 32.22 30.77 32.67 34.00 33.50 34.78
40.44 40.03 38.66 37.92 38.39 38.76 37.87 36.87 36.94 36.41 36.36 35.50 35.86 37.23 36.60 35.84 35.04 34.77 33.91 33.40 33.53 33.53 34.03 33.45 34.09 34.87 37.61 38.37 37.31 35.04 27.74 26.42 25.48 24.62 24.63 26.00 26.63 28.30 29.90 28.68 27.87 27.82 28.07
40.23 39.45 39.39 39.01 38.73 37.07 37.02 36.69 36.76 36.31 35.46 34.97 36.37 36.70 36.21 35.08 34.42 33.38 32.77 33.28 32.77 32.65 32.47 32.28 30.15 28.85 30.26 35.67 34.53 29.83 25.51 26.13 25.62 27.24 26.85 26.87 26.91 33.76 33.78 27.05 25.60 24.72 24.99
38.96 38.90 38.93 38.54 37.49 36.75 37.17 36.04 35.57 35.15 34.46 35.55 36.24 36.13 35.95 35.14 33.68 33.39 32.90 32.49 29.64 26.87 27.56 26.33 26.46 32.41 27.50 35.84 34.57 30.11 27.35 24.92 25.95 25.91 26.08 32.60 29.23 32.20 31.90 25.59 23.81 22.39 22.82
37.04 37.17 37.54 36.30 36.89 37.88 37.91 36.43 35.99 34.73 36.09 36.21 36.03 35.86 35.53 34.66 33.82 33.25 33.19 31.14 24.22 25.44 22.90 26.25 25.93 26.96 29.05 30.34 34.27 32.58 26.57 25.35 24.15 24.54 24.91 25.62 31.56 31.07 30.64 30.11 23.85 24.34 25.42
37.13 36.04 35.16 35.58 37.18 38.58 37.46 35.81 34.84 35.86 35.65 35.35 35.16 34.73 34.48 34.72 34.06 32.96 27.31 27.44 26.19 24.65 23.85 24.23 24.67 25.80 26.39 32.34 32.60 32.84 31.74 29.26 24.51 24.13 24.80 25.35 30.36 29.99 30.00 28.25 30.03 31.09 28.25
36.02 35.87 34.51 34.98 36.67 37.58 37.16 35.24 35.30 35.68 35.28 34.51 34.03 34.52 34.85 33.56 32.79 27.94 26.71 25.43 23.91 22.73 21.81 23.53 22.68 23.14 26.05 24.44 32.26 32.35 31.71 30.94 25.73 25.73 27.73 30.59 29.36 28.73 26.36 29.60 30.45 29.37 23.08
35.66 35.12 34.44 33.41 32.88 35.35 36.71 36.37 36.10 35.99 35.41 33.89 33.99 34.42 32.83 31.40 28.26 28.02 26.37 23.48 22.11 20.86 21.75 22.04 21.67 21.06 22.21 23.67 25.04 25.81 24.22 28.37 26.65 27.46 23.96 26.50 27.40 28.29 27.05 26.07 24.79 23.96 23.12
35.94 34.96 33.87 32.80 32.17 33.30 34.25 36.57 36.68 36.51 35.33 34.85 33.91 32.44 30.22 29.05 26.11 24.22 22.46 20.90 21.48 23.33 21.64 21.72 22.41 21.24 22.21 25.48 28.17 27.40 25.97 24.60 26.99 24.99 21.83 20.56 21.17 21.58 22.33 22.68 23.08 23.24 23.67
34.98 34.87 33.68 32.86 32.64 33.62 35.36 36.28 37.05 36.69 35.71 34.42 31.52 29.28 25.14 22.55 24.02 22.69 23.86 30.95 31.79 32.92 31.69 30.67 26.26 26.15 29.08 31.49 31.10 29.84 29.45 29.46 29.41 22.76 19.32 18.04 19.33 19.99 21.50 21.67 21.94 22.05 24.83

GFSMW_sfc_wetblb_081.txt.gz
Wetbulb
48.91 48.75 48.14 49.63 54.04 58.10 61.73 63.44 63.91 64.45 64.32 63.55 62.61 62.09 62.63 63.66 63.60 61.60 61.68 61.05 62.16 61.90 60.55 59.97 59.25 59.70 58.47 58.41 58.13 56.59 55.88 55.02 54.57 53.40 51.76 50.50 50.51 49.68 48.85 49.12 49.08 53.45 55.44
46.04 45.12 45.32 45.92 49.13 48.74 55.30 60.39 62.77 63.89 64.04 63.71 63.36 63.31 62.85 63.22 64.00 64.01 63.08 62.16 61.07 60.79 60.46 59.85 59.78 59.63 59.95 59.41 58.79 58.07 56.12 55.48 54.18 54.00 51.54 52.00 53.06 49.09 49.50 47.93 48.94 48.06 53.29
43.39 42.59 43.53 43.57 44.74 46.19 46.98 50.40 52.93 55.47 62.17 63.27 63.61 62.51 62.64 61.99 61.83 62.50 63.12 63.81 63.00 62.09 60.80 59.93 59.81 59.64 59.75 59.64 59.34 58.47 57.33 57.82 54.25 53.05 55.61 49.04 48.90 46.63 48.08 45.81 45.83 46.89 46.59
42.35 42.78 44.29 45.19 46.04 45.78 46.55 47.20 47.65 48.07 48.97 52.54 61.57 62.25 62.79 61.10 61.29 61.41 61.97 62.39 62.79 63.27 63.16 61.70 60.11 59.68 59.54 59.16 58.87 59.05 58.95 58.41 58.55 54.61 55.16 53.57 51.50 49.60 48.73 46.23 46.75 46.39 47.08
42.76 43.47 44.56 46.77 47.00 47.17 46.71 46.21 45.87 46.14 46.11 46.77 49.04 57.78 59.94 60.62 60.00 60.31 60.75 61.07 61.53 62.30 62.84 63.03 61.67 60.77 59.27 58.66 58.40 57.91 59.72 59.62 59.61 56.90 55.21 54.39 51.78 49.48 49.33 50.89 50.06 47.14 45.98
43.24 44.42 46.28 47.82 47.51 47.39 46.91 47.93 48.51 48.10 47.80 46.05 45.48 47.17 52.90 53.71 52.76 52.19 55.09 57.52 59.44 60.28 60.90 61.17 61.19 61.00 60.47 59.83 59.02 58.28 58.69 59.65 59.26 58.25 57.09 55.96 53.18 51.95 50.42 48.37 50.05 46.86 45.19
42.31 44.27 46.29 46.98 46.82 46.10 46.96 48.21 47.82 47.10 47.66 48.05 47.69 46.52 45.51 45.56 46.52 47.38 49.11 51.75 54.74 56.36 58.75 59.65 59.40 59.17 59.06 59.59 59.53 60.32 59.39 57.68 58.68 58.85 58.23 57.42 56.21 54.85 52.82 51.92 50.61 45.95 43.85
43.09 45.07 45.97 46.23 45.82 45.73 46.26 46.55 46.29 46.57 47.05 47.23 47.38 47.72 48.38 48.58 48.57 48.82 50.78 52.05 54.13 55.94 55.56 56.69 57.98 58.18 58.59 58.54 58.47 59.18 58.47 58.05 57.13 56.14 56.29 56.34 53.55 53.18 52.75 51.45 49.53 43.06 41.52
42.93 44.59 45.28 45.61 44.41 44.12 44.56 44.71 44.99 45.66 46.58 46.65 46.79 46.35 46.86 47.19 47.21 47.46 48.32 48.97 49.96 52.75 53.40 54.33 54.36 54.23 54.38 55.63 55.93 54.03 53.51 51.35 49.98 48.36 48.47 47.71 45.84 46.45 46.88 47.69 48.25 47.44 43.00
43.04 43.60 44.46 43.50 43.31 43.23 43.42 44.12 44.30 44.54 44.39 43.69 44.07 42.71 42.38 43.38 43.64 43.84 43.34 43.94 45.70 48.28 48.30 48.17 48.70 48.99 49.39 49.29 48.78 48.53 49.26 46.43 45.57 45.23 44.45 41.92 43.16 43.28 43.51 43.99 44.25 44.22 43.50
42.94 43.44 43.21 42.35 41.73 41.40 42.02 42.42 43.49 43.68 41.83 40.78 39.36 38.16 37.60 37.83 37.65 37.42 37.50 38.10 39.27 41.00 41.26 41.20 41.67 42.30 44.04 45.18 44.71 44.67 45.31 44.06 42.81 42.56 41.89 40.95 41.42 39.67 40.69 40.75 40.59 40.02 40.40
42.65 42.75 41.89 41.04 39.69 39.77 39.93 40.44 41.62 41.41 40.48 39.50 37.99 37.13 36.95 36.37 35.57 35.27 35.57 36.19 35.89 36.45 36.62 37.09 37.05 37.30 38.10 38.94 40.73 40.25 41.59 40.69 40.41 40.07 39.93 39.15 39.83 38.31 38.16 37.30 36.76 36.07 36.81
42.41 41.45 40.55 40.72 39.20 38.43 38.62 39.40 40.23 39.38 38.79 38.32 37.31 36.44 35.77 35.56 34.89 34.99 35.56 35.83 35.72 35.94 36.46 36.54 36.17 36.27 36.48 36.39 36.13 36.00 37.66 38.02 37.97 38.13 37.78 37.51 37.28 35.51 35.28 34.76 31.38 30.72 35.24
42.87 40.98 40.11 39.64 39.11 38.41 38.23 38.29 39.15 39.00 38.03 37.63 36.84 35.87 35.44 35.36 35.48 36.09 36.19 36.18 35.95 35.69 35.45 35.54 35.59 35.49 35.34 35.22 34.92 35.11 35.09 34.66 33.98 34.23 33.95 33.61 33.38 32.27 31.48 31.36 31.14 32.07 31.78
41.91 40.96 39.49 38.71 38.11 37.75 37.45 38.01 39.00 38.42 37.93 37.08 36.52 35.96 36.10 36.19 35.85 35.75 35.92 36.17 36.08 35.79 35.77 35.52 35.62 35.35 35.35 35.31 35.26 35.66 35.31 35.01 34.87 35.23 36.44 36.54 37.51 38.37 35.93 32.34 31.02 30.85 30.28
42.62 41.35 40.00 38.27 37.45 37.10 36.59 37.68 38.14 37.77 37.86 36.78 36.34 37.03 37.46 37.56 36.31 36.76 36.82 36.89 37.02 37.08 35.82 35.41 36.33 37.11 37.92 39.25 38.22 35.66 34.22 33.94 33.78 32.92 32.99 33.48 32.68 35.63 38.25 37.61 37.07 35.12 29.18
41.47 42.11 41.04 39.60 37.58 37.40 37.55 36.70 37.29 37.77 36.77 36.22 36.12 36.81 37.66 36.81 36.22 36.08 35.73 35.17 35.34 36.22 36.14 36.69 36.87 36.89 37.28 39.06 38.21 35.57 29.29 30.95 30.92 26.45 24.52 28.93 31.33 30.16 28.62 32.97 34.11 34.45 35.74
41.11 40.85 39.94 38.52 38.14 37.68 37.26 36.34 36.88 36.67 36.25 35.36 35.57 36.71 36.76 35.71 35.46 34.72 34.25 33.87 34.34 34.30 34.58 33.66 34.26 35.09 36.98 38.37 37.16 34.56 25.88 24.91 24.08 23.01 23.53 25.28 25.94 28.64 28.73 27.92 27.34 27.33 26.52
41.95 40.82 39.32 38.35 37.51 37.74 37.43 36.93 36.06 35.76 35.64 34.81 35.36 36.56 36.46 35.16 34.51 33.37 33.20 33.50 33.42 32.76 32.51 32.51 29.92 29.03 30.50 35.28 34.12 29.21 24.86 25.85 25.24 26.68 26.37 26.87 27.00 33.66 33.34 26.59 25.49 24.30 24.67
39.27 38.66 37.96 37.59 36.90 36.68 37.68 35.98 35.36 35.57 35.50 35.67 35.82 36.49 36.11 34.93 33.70 33.30 32.90 32.52 32.56 31.14 28.80 27.23 26.55 32.41 27.67 35.44 34.01 29.34 27.00 24.71 25.74 25.36 25.76 32.68 29.18 32.24 31.94 25.10 23.53 22.05 22.60
37.65 37.18 37.02 37.12 37.66 37.28 35.83 34.52 35.18 35.29 36.17 36.77 36.38 36.04 35.80 34.61 34.11 33.28 32.96 29.60 26.81 25.68 22.55 25.46 24.92 26.44 28.54 30.36 33.96 32.09 26.39 25.20 24.12 24.58 24.92 25.90 32.01 31.73 31.00 30.05 23.64 24.13 25.28
36.97 36.45 36.15 36.46 36.57 36.83 36.33 35.86 35.15 36.08 36.05 36.01 35.62 35.03 34.91 34.75 34.22 32.65 30.91 27.16 26.22 24.71 23.52 23.85 24.77 25.59 25.05 32.22 32.92 33.36 31.58 29.23 24.52 24.07 25.01 25.29 30.38 30.13 30.28 28.28 29.78 31.09 27.64
36.72 36.70 36.53 35.65 35.82 36.50 37.47 35.86 35.83 35.89 35.36 35.18 34.57 34.43 34.45 33.99 33.67 30.07 26.95 25.26 24.70 23.46 22.48 24.32 23.39 23.85 25.98 24.07 32.61 32.64 32.00 31.25 26.03 26.08 27.61 30.76 30.72 29.15 26.51 29.53 30.60 29.16 22.93
35.52 35.74 35.27 33.24 32.85 34.62 36.58 36.65 36.28 36.00 35.10 34.25 34.27 34.48 32.99 32.52 31.28 29.24 27.26 24.30 22.39 21.17 22.36 22.32 21.76 20.79 22.21 23.05 24.37 25.68 24.13 28.33 26.95 27.55 23.91 26.39 27.55 28.34 26.93 26.05 24.70 23.82 22.88
36.01 35.24 34.77 32.86 32.86 33.35 35.18 36.61 36.49 36.18 34.84 34.26 33.89 33.74 32.95 32.41 29.44 26.60 24.31 21.95 21.85 23.50 21.46 21.47 22.25 21.04 21.08 24.51 27.64 27.06 25.84 24.21 27.07 24.83 21.32 20.12 20.72 21.11 21.87 22.25 22.60 22.76 23.19
35.30 35.10 33.99 33.45 33.00 33.44 34.01 35.73 36.91 36.55 35.35 34.09 33.56 33.07 32.01 28.94 26.22 22.94 21.30 30.10 29.61 31.80 31.91 30.56 25.85 25.02 28.82 30.99 32.66 31.77 30.52 30.08 30.04 22.88 19.36 17.50 18.73 19.40 20.89 21.18 21.40 21.51 22.96

GFSMW_sfc_wetblb_084.txt.gz
Wetbulb
49.32 50.22 49.63 52.53 59.38 60.96 62.09 63.31 63.95 64.54 64.58 63.09 61.98 61.97 63.24 62.74 61.71 61.07 62.35 62.39 63.64 62.41 60.41 59.18 58.01 57.38 57.02 57.17 56.67 55.86 55.58 54.73 54.22 53.82 53.19 52.54 52.60 52.22 50.98 50.19 49.63 50.01 52.98
47.45 47.17 47.94 46.89 49.67 56.44 59.20 60.82 62.38 63.14 64.34 63.89 62.88 62.86 62.30 62.79 63.41 63.09 61.55 61.62 61.00 61.25 60.75 59.91 58.86 58.37 58.08 57.11 56.69 56.14 54.86 54.90 53.93 53.78 52.21 53.09 54.53 50.86 50.05 48.83 48.80 48.25 50.34
49.56 45.43 45.04 46.13 45.52 47.95 50.86 56.68 60.54 62.38 62.95 63.32 63.02 62.15 62.07 61.40 61.27 62.01 62.56 62.25 61.45 60.79 60.26 59.74 59.53 58.74 59.16 58.99 58.50 57.65 56.61 55.67 54.05 53.70 56.57 51.11 50.65 49.79 51.37 48.48 46.66 46.75 46.44
44.10 43.45 43.22 43.98 44.12 44.91 46.39 47.99 48.86 50.65 53.00 61.25 62.00 61.31 61.49 61.04 61.24 61.13 61.76 62.17 62.67 62.16 61.54 60.42 59.39 59.11 58.91 58.74 58.60 58.50 58.31 58.08 58.16 54.71 55.36 54.57 53.08 51.98 50.51 48.00 46.15 46.38 46.53
44.18 43.62 43.36 44.78 45.46 46.05 45.43 45.11 45.94 46.25 46.11 47.24 51.43 59.25 60.40 60.70 60.24 60.29 60.45 60.57 61.27 62.16 62.49 62.19 60.83 59.38 58.59 58.34 58.12 57.36 57.30 57.84 57.62 55.25 53.56 52.33 52.10 51.17 50.36 51.50 52.34 48.54 45.99
44.19 43.66 44.44 46.03 45.74 45.04 45.66 47.10 47.80 47.53 47.44 45.99 45.31 46.14 51.30 55.81 56.29 56.15 56.59 57.84 58.82 59.92 60.54 61.00 61.27 60.86 59.88 58.96 58.52 57.87 57.28 57.36 57.44 58.66 57.20 55.62 53.84 51.91 50.21 49.29 50.22 50.32 46.61
43.30 43.49 45.14 45.33 44.84 45.03 45.80 46.99 47.28 46.84 47.55 47.60 47.36 46.45 44.86 44.66 46.50 48.00 48.78 49.81 52.66 55.43 57.20 58.72 59.21 59.27 59.22 59.12 59.05 58.53 57.84 57.49 58.14 57.73 58.19 56.58 56.59 55.36 53.27 52.07 51.19 48.57 45.22
42.35 43.95 45.67 45.41 44.53 45.28 45.25 45.50 46.17 46.15 46.87 47.17 46.91 47.14 47.82 47.82 47.54 47.80 49.49 51.20 52.90 55.01 56.31 55.91 57.25 57.89 58.57 58.62 58.39 57.68 58.54 57.98 55.86 54.46 54.48 55.11 51.51 52.62 52.51 51.84 50.09 45.97 43.23
41.75 44.31 45.22 44.86 43.89 44.32 44.46 44.67 45.26 45.27 45.66 45.82 46.10 45.62 45.83 46.16 45.87 45.94 46.95 47.58 48.35 52.86 52.95 53.60 54.07 54.28 55.52 57.35 56.32 54.86 52.33 51.01 49.99 48.84 48.26 47.92 46.06 45.83 46.66 47.92 48.66 47.90 43.78
41.92 43.11 44.20 43.27 42.76 42.90 43.02 43.69 44.26 43.68 42.77 42.79 42.38 41.38 41.33 41.97 41.80 41.51 41.25 42.83 44.51 46.28 47.76 48.51 49.12 49.47 49.82 50.19 50.33 49.66 48.33 45.72 46.08 45.99 45.23 42.83 42.39 42.22 42.90 43.57 44.89 44.93 44.94
41.62 42.24 42.05 41.60 41.28 41.51 41.95 42.56 43.48 41.91 40.38 39.39 38.21 37.54 36.89 37.03 37.07 36.86 36.80 37.70 38.47 39.56 39.83 41.10 42.40 44.50 45.72 46.50 46.09 45.82 46.17 44.69 43.69 43.39 42.65 41.50 41.94 40.87 40.46 38.97 38.70 38.30 38.54
41.99 41.75 40.49 39.78 39.64 39.87 40.66 40.98 41.28 40.45 39.17 38.28 37.44 36.68 36.12 35.73 35.28 35.21 35.42 36.06 35.74 36.39 36.86 37.78 38.28 38.82 39.06 39.89 41.02 40.72 41.29 41.62 41.03 40.75 40.49 39.62 40.10 38.39 38.00 38.09 36.88 34.37 36.72
41.31 40.27 39.33 38.70 38.34 38.33 39.34 40.19 39.83 38.48 38.22 38.00 36.88 36.07 35.51 34.99 34.32 34.70 35.21 35.60 35.80 36.11 36.49 36.56 36.45 36.42 36.74 36.62 36.06 36.74 38.56 38.54 38.49 38.66 38.27 37.86 37.59 36.17 35.85 35.23 34.52 32.94 33.42
41.51 39.69 38.71 38.29 37.63 37.83 38.71 39.66 38.87 38.07 37.58 37.15 36.24 35.56 35.06 35.13 34.86 35.09 35.40 35.45 35.27 34.86 34.84 35.04 35.10 35.31 34.97 35.43 35.56 35.58 35.32 35.08 34.48 34.50 34.13 33.42 32.70 31.50 30.68 30.39 30.38 30.97 30.25
40.72 40.24 39.23 38.09 37.35 37.04 37.68 39.04 38.53 37.57 37.23 36.63 36.07 35.29 35.60 35.31 35.29 35.46 35.43 35.46 35.50 35.04 35.30 35.01 35.11 34.90 35.33 36.67 36.14 36.20 35.71 35.62 35.27 35.76 36.63 36.70 37.71 38.30 35.91 31.77 29.71 29.62 28.96
41.88 40.94 40.13 38.21 36.84 36.40 36.37 38.04 37.93 37.81 37.57 36.24 35.68 36.13 35.92 36.05 35.84 36.47 36.62 36.24 35.85 35.54 35.49 35.50 36.56 37.42 38.28 39.06 38.55 36.50 34.92 34.66 34.09 32.80 32.59 32.90 33.40 36.47 38.66 37.83 37.29 33.29 28.25
42.17 42.05 41.03 39.43 37.56 36.72 36.73 37.03 37.33 37.27 36.72 36.40 36.37 36.72 37.52 37.04 36.58 36.48 36.28 35.99 36.13 36.48 36.50 36.64 36.97 36.85 37.59 39.11 38.21 36.50 32.79 32.09 29.43 25.88 26.15 28.80 31.24 29.97 28.38 33.46 34.52 34.74 35.73
41.91 42.20 41.57 39.39 38.27 37.12 36.86 36.80 37.53 36.57 35.89 35.32 35.54 36.36 36.77 35.93 35.67 35.36 34.76 34.76 35.37 35.05 34.96 33.91 34.62 35.50 37.72 38.37 37.05 34.34 26.64 25.04 23.89 23.34 23.77 25.30 26.08 29.11 27.62 27.48 27.20 26.12 25.89
41.85 42.15 41.86 39.72 37.81 37.78 37.10 35.99 35.68 35.96 35.64 34.70 35.49 35.90 36.71 35.50 35.01 33.88 33.74 34.22 33.94 32.98 32.73 32.86 31.72 30.66 32.28 36.21 34.45 29.37 25.36 26.00 25.14 26.45 25.90 26.89 26.58 33.39 32.48 26.19 25.63 24.05 24.36
41.33 39.80 38.70 37.81 37.13 36.11 36.51 35.80 35.23 35.79 34.09 35.19 36.46 36.64 36.32 35.31 34.03 33.79 33.20 32.68 33.16 31.77 30.98 28.17 28.42 33.33 29.66 34.90 33.67 29.11 26.77 24.77 25.45 24.98 25.49 32.95 28.84 32.30 32.10 24.95 23.36 21.53 22.12
37.61 37.85 37.72 37.48 37.01 36.84 36.52 35.92 35.58 34.74 35.88 36.93 36.83 36.46 35.97 34.97 34.25 33.45 33.01 32.03 30.88 28.29 25.38 26.59 26.29 27.25 29.18 30.72 33.76 32.01 26.23 25.15 23.96 24.50 24.58 25.66 31.79 31.45 31.02 30.07 23.08 23.96 25.08
37.01 36.97 36.22 35.76 36.08 36.15 35.67 34.37 33.73 35.92 36.66 36.50 35.95 35.47 35.01 35.25 34.38 33.00 30.98 30.25 27.48 25.71 24.68 25.18 25.78 25.86 25.21 32.43 33.85 33.30 30.66 29.20 24.35 23.57 24.55 25.17 30.56 30.08 30.28 28.29 29.77 31.31 27.79
36.30 36.82 36.11 35.57 35.50 35.61 35.31 33.76 34.57 36.34 35.95 35.72 35.03 34.86 34.81 34.36 33.44 31.34 29.26 26.82 26.02 24.93 23.73 25.45 24.30 24.71 26.25 24.11 33.02 32.93 32.64 31.82 25.49 25.70 27.65 30.42 30.56 29.53 26.69 29.38 30.80 29.18 22.78
34.93 35.40 35.10 35.55 35.26 34.84 35.81 35.90 36.17 36.20 35.57 34.91 34.64 34.37 33.41 33.03 31.98 31.29 29.15 26.10 24.68 23.52 24.43 24.12 23.20 22.10 22.69 23.11 24.30 25.84 24.40 29.34 27.06 27.35 23.92 26.44 27.39 28.17 26.95 25.92 24.67 23.51 22.50
35.11 34.97 35.48 34.55 34.85 33.62 34.03 35.10 36.52 36.11 34.93 34.72 34.38 33.64 32.98 32.55 30.88 28.89 27.10 24.83 24.03 25.29 22.82 22.37 22.51 20.80 20.69 23.97 27.15 26.78 25.37 23.83 27.13 24.71 21.02 19.79 20.23 20.50 21.35 21.80 22.11 22.30 22.74
35.45 34.50 35.49 35.06 33.63 33.28 34.89 36.41 36.46 36.13 35.13 33.86 33.45 33.30 32.78 31.37 30.84 27.23 24.35 31.50 30.27 31.49 32.08 30.87 25.65 24.94 28.70 30.83 32.61 32.72 31.89 31.14 30.76 23.22 19.75 17.26 17.99 18.80 20.36 20.63 20.90 21.15 22.45

GFSMW_sfc_wetblb_087.txt.gz
Wetbulb
54.18 52.42 52.60 54.99 61.87 63.43 64.01 65.18 65.71 65.45 64.80 64.73 64.80 65.07 65.35 65.80 65.41 65.48 66.13 66.10 66.83 66.15 64.47 63.92 63.27 62.01 61.52 61.58 61.28 60.88 60.56 60.47 60.36 59.64 60.65 60.42 61.04 60.51 60.63 60.34 59.32 58.19 57.86
52.94 51.24 52.03 50.30 51.43 60.64 62.34 63.53 64.64 65.59 66.04 65.39 64.78 65.02 65.21 65.60 66.97 65.98 64.72 64.92 64.85 65.39 64.81 64.08 63.11 62.37 61.37 60.76 60.60 60.22 59.79 59.81 59.41 59.69 58.01 57.26 59.95 59.74 58.34 58.54 57.70 57.70 56.58
52.12 52.33 50.08 50.73 50.06 51.29 57.07 61.81 63.25 64.44 65.58 65.69 64.93 64.27 64.10 64.04 64.47 65.39 65.42 64.05 63.32 63.40 63.68 63.61 63.35 62.83 62.33 62.36 61.67 60.77 60.03 59.83 58.83 59.57 59.67 53.50 53.49 55.17 57.80 55.25 54.43 54.41 54.73
50.87 47.75 47.51 48.79 49.72 49.30 50.10 52.56 58.94 62.86 64.06 64.87 64.88 64.59 64.50 63.40 64.26 65.08 65.40 65.55 64.40 63.34 63.08 63.08 62.68 62.75 62.50 61.93 62.31 62.01 61.53 60.86 59.99 57.90 57.10 58.99 57.54 54.41 54.46 54.92 53.42 51.18 52.46
49.19 49.20 47.95 47.89 48.45 48.87 49.13 49.28 49.46 50.23 51.31 58.06 63.31 64.31 63.87 64.01 63.76 63.90 63.84 64.09 64.68 65.09 64.64 63.66 62.74 62.05 62.09 62.18 61.84 61.21 60.93 61.08 61.06 60.19 56.61 56.24 55.62 54.96 52.79 51.74 54.63 53.83 49.97
48.04 48.17 47.11 48.04 48.30 48.39 48.02 49.19 49.63 49.37 49.18 49.72 50.51 55.54 59.62 60.80 61.13 61.63 61.46 62.18 62.53 63.39 63.87 64.36 64.55 63.89 62.48 61.88 61.73 61.40 61.00 60.81 60.86 61.15 59.40 58.22 56.43 53.42 53.03 51.70 52.43 53.41 51.89
48.42 47.98 46.29 46.96 48.01 47.49 48.68 49.45 49.91 49.11 49.88 49.86 49.83 49.39 49.20 49.64 51.94 53.02 54.15 54.29 55.75 58.31 59.70 60.61 62.62 63.26 63.72 63.37 62.76 62.15 61.49 60.86 60.72 60.73 60.54 60.11 59.32 57.49 55.67 54.28 53.14 52.03 48.79
45.21 45.74 46.62 47.97 47.44 47.78 48.45 48.67 48.75 48.76 49.53 49.81 49.55 49.99 50.48 50.46 50.57 51.17 52.43 53.81 55.29 56.25 57.23 58.12 59.71 61.09 61.73 62.00 62.13 62.12 61.54 60.86 59.70 58.38 56.28 55.57 53.01 53.78 54.60 54.65 52.19 49.41 47.56
42.61 44.52 46.75 47.29 46.96 47.10 47.43 48.24 48.00 47.97 48.45 48.67 48.75 48.16 48.66 48.97 48.99 49.26 50.63 50.99 51.94 53.72 54.21 55.02 55.93 56.08 57.96 59.74 59.56 57.68 54.35 53.65 52.73 52.31 51.75 50.32 48.25 48.38 49.21 50.84 52.54 51.13 47.39
41.90 44.76 46.08 45.55 46.15 46.52 46.56 47.23 47.62 46.81 46.65 46.23 45.68 44.47 44.41 44.59 44.47 44.88 45.02 46.13 47.13 48.28 49.62 50.25 50.77 50.73 50.98 52.15 52.52 51.03 50.22 49.42 48.70 48.90 48.31 46.72 45.84 45.88 46.28 47.11 47.02 48.40 48.40
42.89 44.36 44.29 44.20 44.42 44.88 45.30 45.73 45.35 44.63 43.56 43.02 42.27 41.96 41.19 40.96 41.16 41.19 41.25 42.06 42.34 43.11 43.98 45.32 46.46 47.02 47.83 48.50 49.83 49.16 48.68 47.26 46.30 46.61 45.03 43.16 43.70 42.58 42.31 43.14 43.83 43.63 43.85
43.47 43.85 43.14 42.60 42.71 42.94 43.73 44.40 43.46 42.95 42.15 41.17 40.67 40.06 39.81 39.83 39.81 39.40 39.46 40.22 40.49 40.58 41.10 42.05 42.37 42.71 43.05 44.80 46.11 45.58 45.51 45.01 44.21 43.84 43.04 41.52 41.33 40.60 41.00 41.38 39.87 39.48 40.80
42.56 42.11 41.63 41.87 42.15 41.99 42.41 42.80 42.21 41.23 40.56 40.24 39.63 39.16 38.82 38.82 38.30 38.57 38.78 39.30 39.33 39.22 39.59 40.10 40.09 40.03 40.17 40.57 41.11 42.04 41.87 41.85 41.94 41.67 40.80 39.82 39.67 38.20 38.27 37.89 37.47 37.22 37.75
42.34 41.42 40.87 40.98 41.04 40.88 41.42 41.78 41.01 40.82 40.11 39.49 38.85 38.15 38.15 38.13 38.06 38.21 38.19 38.26 38.36 38.17 38.13 38.32 38.16 37.98 38.41 38.61 38.75 39.21 38.72 38.01 37.32 37.29 37.35 37.13 37.06 36.32 35.69 35.70 36.06 36.41 37.21
41.78 41.65 40.93 40.41 39.95 39.79 40.34 41.11 40.53 39.87 39.80 39.00 38.35 37.57 37.63 37.82 37.76 37.64 37.50 37.54 37.76 37.46 37.66 37.63 37.47 37.79 38.57 38.26 38.21 38.15 37.64 37.53 37.29 37.96 38.01 37.51 37.55 37.87 37.02 35.78 35.23 35.57 35.40
42.63 42.07 41.57 40.48 39.51 39.35 39.36 40.21 39.87 39.27 39.41 38.56 37.66 37.49 37.38 37.68 37.57 37.84 37.70 37.44 37.37 37.58 37.91 38.06 38.72 38.76 39.02 40.45 39.80 38.21 37.20 36.37 35.76 34.40 34.49 34.93 35.12 38.74 39.36 38.72 37.57 35.68 34.10
43.03 42.87 42.52 41.76 40.50 39.59 39.61 39.44 39.43 39.21 38.63 38.07 37.47 37.58 38.02 37.65 37.80 38.03 37.82 37.38 37.35 38.02 37.79 37.97 38.19 37.92 38.54 39.83 39.31 37.97 34.88 33.88 32.76 31.98 32.46 32.44 33.22 32.88 33.60 36.31 35.77 36.06 36.55
43.05 43.82 43.57 42.39 41.57 40.19 39.02 39.21 39.07 38.42 38.06 37.53 37.42 38.06 38.10 37.48 36.99 36.55 36.09 36.29 36.69 36.38 36.48 34.79 36.16 37.61 38.51 39.04 37.89 35.98 31.74 30.12 29.42 29.79 30.80 31.75 31.79 32.03 31.43 31.68 31.00 30.62 32.70
43.74 44.22 44.83 43.44 40.93 39.95 39.40 38.87 37.89 37.79 37.28 36.78 36.96 37.49 37.49 36.78 35.98 35.11 34.90 35.45 34.87 33.93 33.92 35.04 35.09 35.86 36.82 37.42 35.43 31.13 29.83 29.28 28.76 29.89 31.05 31.48 31.90 34.38 31.67 30.11 29.19 28.77 28.79
42.39 42.63 42.21 40.65 40.36 39.14 38.53 37.89 37.10 37.00 36.58 36.97 37.33 37.81 37.67 36.57 35.27 34.83 34.26 33.46 34.54 32.92 32.55 31.58 32.42 34.31 33.38 34.81 33.82 30.81 30.01 28.87 28.96 29.76 31.21 32.97 32.27 32.86 32.28 28.82 27.77 26.68 27.21
39.97 39.88 39.36 39.33 38.92 37.98 38.13 37.26 36.88 36.42 37.54 37.34 37.82 37.52 37.03 36.08 35.20 34.23 33.76 33.19 32.33 31.15 30.20 30.41 30.63 31.57 32.87 34.23 34.21 32.49 29.20 28.67 27.55 27.62 27.80 29.91 32.39 31.92 31.96 30.01 27.82 27.86 29.52
38.20 38.15 38.03 37.87 37.74 38.18 37.93 36.55 35.86 36.85 37.21 37.60 37.15 36.50 35.98 35.93 34.99 33.77 32.84 32.00 30.19 28.82 28.75 28.92 28.99 29.74 30.10 34.24 34.05 32.71 30.55 30.61 27.60 26.86 28.05 29.05 31.29 30.78 31.20 30.71 31.03 33.13 29.72
37.31 37.40 37.26 36.71 36.88 37.20 37.54 35.95 36.16 36.77 36.88 36.70 36.05 35.66 35.51 35.16 34.34 32.70 31.18 29.90 28.72 28.18 27.36 28.42 28.09 28.10 28.83 29.63 34.54 34.73 33.76 31.69 27.77 28.56 29.65 31.14 31.45 30.75 28.94 30.95 31.73 31.10 27.70
36.97 36.98 36.50 35.84 35.62 36.39 36.49 36.83 36.23 36.92 36.59 35.96 35.46 35.28 34.26 33.70 32.91 32.40 31.16 29.74 28.49 27.29 27.40 27.50 26.77 27.07 27.18 27.52 29.06 30.31 32.00 32.65 29.90 30.49 29.15 28.41 28.46 27.80 28.04 28.74 28.40 26.99 26.84
36.52 36.54 36.22 36.40 36.77 36.52 36.37 36.88 36.94 36.98 35.99 35.77 35.05 34.40 33.97 33.73 31.52 31.57 30.65 29.69 29.43 29.53 27.93 27.66 27.22 25.45 24.84 26.82 29.11 29.15 27.54 27.70 28.43 26.81 25.09 24.15 24.17 24.43 24.83 25.16 25.52 26.00 26.57
36.68 35.57 35.79 36.58 36.32 35.82 35.61 36.16 36.88 36.76 35.94 34.90 34.30 33.54 33.21 32.22 31.55 30.29 29.27 33.29 32.29 33.14 32.85 31.56 28.32 27.21 29.65 31.14 32.60 32.72 31.96 31.25 31.92 26.78 23.88 22.84 22.72 23.16 23.81 24.00 24.41 25.12 26.30

GFSMW_sfc_wetblb_090.txt.gz
Wetbulb
58.68 58.83 57.68 56.33 65.35 67.14 68.06 68.45 68.30 68.55 68.85 67.91 66.69 67.02 67.62 68.59 68.83 69.48 69.95 70.15 70.08 69.52 69.05 68.58 68.15 67.78 66.53 66.10 65.79 64.73 63.79 63.79 64.16 62.76 63.40 64.01 65.08 64.90 65.44 65.77 65.27 64.40 63.46
57.31 57.59 57.41 55.36 59.38 65.06 66.92 67.65 67.74 68.06 67.94 68.45 67.67 67.64 67.84 67.88 69.29 69.44 68.68 69.47 69.37 69.52 68.78 68.29 67.84 67.55 66.25 65.75 65.07 64.05 63.31 63.51 64.35 62.10 62.09 59.89 62.53 64.09 64.26 64.23 63.23 62.56 62.60
55.70 56.65 56.59 55.58 55.22 55.96 63.03 64.82 65.96 66.19 67.36 67.57 66.74 66.70 66.74 65.71 66.22 67.30 67.64 67.86 67.73 67.58 67.25 67.62 67.49 67.13 66.42 65.57 65.60 64.91 63.53 62.46 63.47 62.85 61.96 57.04 56.73 59.70 61.73 60.85 60.66 60.00 59.98
56.68 57.07 55.98 54.64 54.52 54.54 56.01 58.97 63.49 65.76 66.16 67.07 66.02 65.48 65.20 64.73 65.77 67.05 68.17 68.47 67.02 66.32 66.44 66.61 66.59 66.69 66.25 65.49 66.13 65.65 64.67 63.66 62.34 62.59 61.99 63.31 61.19 57.13 55.07 58.64 59.81 57.43 56.27
55.15 55.74 54.54 55.14 54.34 54.71 53.95 55.62 57.97 63.44 65.42 66.53 66.27 66.52 65.88 66.84 67.22 66.23 65.95 67.01 67.60 67.94 66.74 65.70 65.39 65.13 65.31 65.11 65.26 64.82 64.36 64.39 63.47 63.39 62.39 60.49 58.74 57.87 55.36 54.13 58.13 58.13 54.71
54.02 55.32 55.91 53.70 53.05 54.40 54.11 53.23 53.87 54.53 55.83 60.70 64.04 65.52 65.56 65.53 64.69 64.93 64.92 66.37 67.06 67.23 67.28 67.13 66.83 66.34 65.58 64.99 65.09 65.09 64.58 64.20 63.79 63.65 63.07 60.94 59.65 58.56 56.68 54.97 55.29 56.14 55.50
53.40 54.04 54.70 52.37 52.32 52.32 53.16 52.97 53.35 51.80 53.09 53.20 52.62 54.29 58.45 60.15 60.91 61.50 61.44 61.74 61.86 62.46 64.03 64.30 64.68 64.63 64.92 65.03 65.36 65.25 64.71 64.24 63.24 62.91 62.22 62.06 61.50 60.91 59.67 57.13 56.33 55.29 54.89
53.23 53.72 54.27 54.26 52.28 51.48 52.56 52.36 53.24 53.09 53.20 53.21 53.56 53.72 53.34 52.86 53.00 53.66 54.37 56.19 57.53 59.17 59.54 60.05 61.39 62.49 62.78 63.61 64.45 64.40 64.11 63.94 63.46 62.45 61.67 59.74 55.70 56.08 56.69 56.26 55.38 52.38 52.80
49.95 52.04 53.70 53.03 52.93 52.69 52.80 52.82 53.03 53.25 53.50 53.74 53.83 53.72 53.95 53.85 53.68 54.05 55.54 55.79 55.81 56.04 57.25 58.14 58.85 59.70 60.77 61.85 62.61 61.93 59.91 59.89 56.84 55.60 54.41 52.61 51.48 52.41 52.30 52.31 53.40 53.30 50.66
48.17 48.96 50.97 51.91 52.30 52.05 51.64 52.56 52.84 52.70 52.66 52.79 52.82 52.08 51.80 51.62 51.46 52.60 52.09 52.24 52.80 53.04 54.15 55.16 55.88 56.23 56.35 56.91 57.35 54.91 53.20 52.13 51.45 51.37 50.69 50.16 49.88 49.42 49.97 50.20 50.53 51.15 50.96
47.45 48.46 50.00 51.10 51.35 50.81 50.66 50.81 51.15 51.12 50.74 50.61 50.38 50.13 49.20 48.79 49.20 49.21 48.94 48.87 49.44 49.80 50.52 50.30 52.24 52.41 52.76 52.52 52.01 51.15 50.89 49.77 48.98 50.75 50.81 48.74 47.39 46.07 45.78 46.48 48.06 48.81 49.05
47.68 48.82 49.26 49.59 49.76 49.93 49.91 49.20 48.78 48.84 48.60 48.08 48.34 47.57 47.60 47.86 48.01 47.15 46.34 47.05 47.00 46.99 47.38 48.35 48.89 48.51 48.69 49.63 50.54 49.19 50.08 50.14 49.46 48.42 47.31 44.82 44.31 44.32 45.28 46.73 45.52 45.77 46.36
47.58 48.28 48.60 49.06 49.42 49.55 49.65 49.19 48.56 47.52 46.32 46.22 46.61 46.13 45.74 46.22 45.83 45.69 45.38 45.44 45.67 45.67 45.54 45.96 46.14 45.97 46.01 47.07 48.14 48.53 48.12 47.96 47.49 46.94 46.21 44.82 44.33 42.64 42.49 43.24 42.40 42.32 42.00
47.34 47.99 48.33 48.65 48.93 48.71 48.70 48.28 47.85 47.29 46.08 45.55 45.29 44.86 44.68 44.95 44.53 44.34 44.12 44.05 44.42 44.54 44.34 44.20 43.83 43.50 43.88 44.26 44.72 45.38 44.84 44.25 43.48 43.12 42.61 42.18 42.12 41.47 41.27 40.51 40.88 41.60 42.04
46.95 47.39 47.93 48.23 48.17 47.54 47.72 47.76 47.06 46.31 45.99 44.72 44.17 43.29 42.91 42.76 42.73 42.53 42.56 42.74 43.11 42.82 42.86 42.45 42.30 42.32 42.53 42.55 43.09 42.78 42.04 41.25 40.14 39.90 40.05 40.32 39.43 39.37 39.53 40.40 40.05 40.46 40.65
46.86 47.78 47.86 48.25 47.89 47.77 47.27 46.96 46.32 45.49 45.15 44.39 43.28 42.73 42.30 41.99 42.01 42.18 41.68 41.65 41.68 41.87 42.18 41.59 41.76 41.22 41.09 40.94 41.20 41.95 41.32 40.75 39.46 38.40 38.96 39.39 40.36 40.31 39.89 38.91 37.72 38.64 38.60
47.62 47.61 48.07 48.19 48.30 47.90 47.56 46.27 46.12 45.45 44.35 43.84 42.87 42.00 42.04 41.71 41.79 41.71 41.42 40.83 40.87 41.30 40.56 40.40 40.46 40.14 40.69 41.41 41.10 39.97 38.56 36.89 35.59 35.64 35.95 36.19 36.24 37.81 38.21 37.74 37.40 37.36 36.35
48.10 49.04 49.51 49.43 49.06 48.40 46.77 46.78 45.86 44.39 43.68 43.08 42.45 42.33 42.15 41.64 41.02 40.35 39.46 38.77 38.85 38.85 38.59 37.37 39.09 39.29 39.61 40.23 39.73 37.75 36.30 35.82 35.10 35.09 35.42 34.68 34.03 34.22 34.14 34.45 33.85 34.55 34.76
50.23 50.68 51.30 50.75 49.79 47.97 46.82 45.13 44.00 43.52 42.85 42.35 41.86 41.79 41.86 40.87 40.09 38.53 37.86 37.51 36.74 35.81 36.16 37.65 38.19 38.00 38.11 38.47 37.65 35.65 34.49 32.50 32.19 33.67 35.00 35.38 35.23 33.59 33.09 33.42 31.99 32.32 33.33
49.03 49.66 50.24 49.57 48.70 47.88 46.50 44.34 43.19 42.59 41.81 42.15 42.08 42.18 41.27 39.99 39.27 38.36 36.64 34.92 36.36 34.88 35.17 34.81 36.71 37.83 37.17 36.88 34.98 33.87 32.57 31.86 32.03 33.05 33.50 33.32 34.32 34.46 31.54 31.74 31.62 30.37 31.00
44.12 45.28 46.50 46.89 47.16 46.19 44.49 43.33 43.02 41.59 42.19 41.97 41.52 41.02 40.35 39.36 38.51 36.41 35.26 34.68 34.38 33.63 33.16 33.23 35.36 35.42 35.44 34.92 34.34 33.20 32.56 32.44 31.82 31.67 32.35 33.78 33.43 32.95 33.00 30.62 31.11 30.71 32.04
42.67 43.06 43.96 43.66 43.56 43.80 43.35 42.36 41.20 41.95 41.58 41.28 40.40 40.07 39.63 38.46 36.67 35.02 34.33 33.96 32.65 31.70 31.35 32.90 33.18 33.85 35.14 35.29 34.90 33.78 32.04 32.49 30.99 30.01 31.07 31.71 32.22 31.87 32.14 32.08 31.56 33.16 31.67
42.03 42.31 42.76 41.97 42.05 42.30 42.40 40.61 41.76 40.97 40.54 40.03 39.66 39.27 38.30 37.00 36.01 34.41 33.17 31.59 31.25 30.40 31.05 32.34 32.02 31.96 32.71 34.95 34.88 33.93 33.11 32.29 30.32 30.92 31.09 31.65 32.36 31.25 31.19 31.27 32.28 33.42 31.23
42.04 41.66 41.55 40.89 40.64 41.27 41.53 42.78 41.18 40.61 40.09 39.50 39.06 38.13 36.28 35.52 34.90 34.08 33.03 31.75 30.28 30.02 31.52 31.31 30.95 31.26 31.14 32.18 33.64 34.15 34.37 33.06 30.79 30.64 32.06 30.70 30.52 31.17 30.01 30.80 32.28 31.40 30.92
40.36 40.30 41.52 41.65 41.37 40.93 40.34 39.99 40.98 40.65 39.48 39.38 38.30 36.67 35.74 35.79 33.73 33.18 32.52 32.23 32.43 32.80 32.30 31.65 31.66 30.32 29.59 30.53 33.20 33.12 32.46 32.56 31.27 30.35 29.28 28.43 28.23 28.58 28.53 28.88 29.53 29.58 29.39
40.76 40.04 39.10 40.21 40.67 39.28 38.89 38.91 39.27 39.62 39.77 38.34 37.28 36.19 35.00 34.71 33.10 32.13 31.27 35.42 35.41 35.28 34.39 33.66 32.85 31.42 32.43 32.52 33.28 33.66 33.04 32.21 31.56 28.66 27.49 27.17 27.17 26.98 27.38 27.09 27.47 28.37 28.52

GFSMW_sfc_wetblb_093.txt.gz
Wetbulb
58.56 59.74 59.55 64.27 65.99 67.05 67.54 68.08 68.48 69.49 69.12 69.00 68.94 68.23 67.32 68.63 69.26 70.19 70.25 70.13 69.59 69.29 68.74 68.41 68.26 68.03 66.68 66.26 66.25 65.53 64.54 64.42 64.63 63.32 63.22 63.98 65.04 65.05 65.45 66.01 65.59 65.67 64.98
56.76 58.75 58.87 60.28 65.28 66.14 67.03 67.52 67.46 68.37 69.43 69.06 69.00 69.09 68.91 69.56 69.85 69.95 69.61 69.98 69.85 69.71 68.87 68.68 68.28 68.04 67.36 66.70 66.43 65.67 64.16 63.99 64.91 62.26 63.00 59.79 62.78 63.96 64.32 65.12 64.38 64.14 63.93
55.32 57.25 57.87 57.89 63.72 65.21 66.17 66.68 66.59 67.47 68.39 68.86 68.34 67.75 67.78 67.43 67.60 68.49 68.93 68.68 68.16 69.09 69.17 68.93 68.63 68.34 67.80 66.32 66.49 65.83 64.32 62.78 64.21 64.12 61.99 58.28 57.31 60.23 62.20 61.41 61.73 61.52 60.96
55.75 57.95 57.59 57.41 57.48 58.19 62.51 66.39 66.73 65.94 66.94 67.49 67.06 65.99 65.33 64.81 66.20 67.42 68.37 68.47 68.09 67.38 66.56 66.76 67.05 67.28 67.20 66.46 66.39 66.45 65.46 64.52 62.51 63.42 62.82 63.53 62.57 58.53 56.85 60.38 60.34 58.93 57.80
55.95 56.94 57.66 57.59 57.53 57.70 57.47 59.85 62.82 65.50 66.42 66.93 66.77 65.66 64.82 66.98 66.34 66.47 65.91 66.94 68.36 66.76 65.83 65.85 65.84 65.67 66.12 66.14 65.91 65.98 65.54 64.77 63.59 63.43 63.05 61.69 61.73 59.84 57.56 55.54 58.06 59.04 56.30
55.92 57.61 57.01 57.26 56.80 57.85 57.06 57.48 58.02 60.21 63.14 65.55 65.07 65.18 63.92 64.06 64.85 64.25 64.42 66.30 67.14 67.60 67.22 67.18 66.21 65.75 65.50 65.08 65.17 65.50 65.33 64.72 64.43 64.25 63.72 60.89 59.14 57.83 57.30 55.93 56.23 57.00 56.09
54.82 55.85 56.72 55.26 55.41 55.74 55.98 54.59 55.63 54.93 56.16 59.99 61.78 64.45 65.30 65.78 64.94 64.39 64.40 64.15 65.06 64.62 64.86 65.74 65.13 65.39 65.74 65.50 65.49 65.23 64.87 64.56 63.48 63.03 62.50 62.71 61.87 60.93 59.63 58.21 56.64 56.04 55.79
53.88 54.59 55.85 56.85 55.47 54.86 52.75 53.00 52.75 52.72 54.40 54.39 55.86 55.30 55.10 54.75 56.41 56.16 55.55 57.79 58.61 59.95 61.25 61.11 61.77 63.03 63.65 63.48 64.01 63.96 63.69 63.57 62.86 62.59 62.17 60.31 58.30 58.88 57.93 56.92 56.47 52.81 52.50
52.70 54.08 55.11 55.90 56.30 53.62 53.78 53.38 53.87 54.13 54.23 54.62 54.99 54.49 54.72 54.68 54.30 54.69 55.79 56.20 56.49 57.03 57.54 58.28 58.86 59.91 60.47 61.24 62.04 62.74 62.54 62.05 60.49 58.62 57.73 55.17 53.69 54.17 54.01 53.73 54.26 53.65 49.25
50.44 51.54 53.76 55.32 55.49 55.12 54.41 54.43 53.06 53.92 54.49 54.52 54.56 54.12 53.90 53.47 54.14 54.57 54.01 54.21 54.64 54.94 55.71 56.38 56.93 57.34 57.57 57.73 59.18 56.73 54.84 53.50 51.91 52.33 50.95 50.12 50.33 50.99 51.19 51.39 51.18 51.07 50.82
49.76 50.53 51.22 53.54 54.44 54.23 53.76 53.51 53.39 52.63 52.16 52.28 52.18 51.85 51.29 51.30 51.59 51.24 50.95 51.00 51.36 51.62 52.88 52.86 53.88 54.25 54.68 54.21 53.27 52.83 51.90 50.57 50.52 51.17 50.49 49.60 49.95 48.34 48.05 48.33 48.88 49.39 49.37
49.61 50.32 51.14 52.11 52.37 51.88 52.26 52.22 51.96 51.33 50.97 50.53 51.09 50.09 49.73 50.21 49.96 49.00 48.54 48.86 48.97 49.15 49.18 50.13 50.99 50.73 51.01 52.51 52.03 49.81 50.18 50.04 49.81 49.03 48.23 46.35 46.33 46.15 46.90 47.64 47.43 47.86 47.89
49.08 49.90 50.47 50.49 50.70 51.21 51.42 51.23 51.21 50.22 49.69 49.56 49.36 48.86 48.71 48.82 48.40 47.86 47.34 47.39 47.35 47.34 47.55 47.79 47.98 48.13 48.05 49.39 50.79 51.03 50.54 49.79 49.18 47.94 46.90 45.45 45.84 45.09 45.01 45.29 44.08 43.74 43.33
48.59 49.30 49.60 50.25 50.92 51.22 51.13 50.73 50.31 49.68 48.73 48.75 48.32 47.39 47.14 47.05 46.86 46.23 46.00 45.76 46.04 46.05 45.94 45.86 45.52 45.48 45.83 46.37 47.00 48.15 47.63 46.82 45.70 45.45 45.41 44.90 44.77 43.55 43.11 42.44 42.54 42.72 42.55
48.17 48.76 49.30 49.97 50.35 50.24 50.40 50.44 49.51 48.92 48.49 47.52 47.01 46.11 45.59 45.16 44.99 44.47 44.34 44.45 44.56 44.47 44.46 44.34 44.23 44.33 44.43 44.11 45.15 45.64 44.67 43.51 41.89 41.62 41.27 41.32 41.23 42.07 41.78 42.02 41.11 41.58 41.16
48.27 49.01 49.58 50.02 49.83 49.88 49.86 49.48 48.54 48.02 47.92 46.94 46.09 45.28 44.55 44.07 43.95 43.72 43.43 43.20 43.12 43.35 43.52 43.20 43.29 42.78 42.35 41.22 42.46 43.45 42.77 42.31 41.22 40.10 39.97 39.91 40.11 40.11 40.19 39.57 39.30 39.66 39.35
48.61 49.13 49.70 50.06 50.30 50.33 50.21 48.75 48.29 47.87 46.91 46.29 45.54 44.66 44.50 43.91 43.72 43.43 42.81 42.09 42.18 42.43 41.71 41.39 41.43 40.90 41.29 41.71 41.98 41.75 39.43 37.44 36.60 36.24 36.97 37.55 38.61 39.42 37.87 38.62 38.15 37.37 37.56
48.97 49.98 50.46 50.69 51.25 51.21 50.03 49.64 48.59 46.91 46.15 45.56 44.81 44.56 44.21 43.68 43.35 42.69 41.98 41.02 41.02 40.52 39.80 38.45 39.66 40.06 40.37 41.21 40.62 39.38 37.75 37.75 37.70 37.56 37.15 35.78 35.37 35.00 35.07 33.90 33.57 33.29 33.40
50.63 51.17 52.12 52.19 51.97 50.77 49.85 48.70 47.25 46.28 45.40 45.01 44.33 44.30 44.19 43.37 42.49 41.20 39.98 39.65 38.36 37.05 36.77 38.18 38.61 38.48 38.72 40.05 39.50 37.29 35.87 34.36 33.94 34.32 35.13 34.84 33.80 34.60 35.15 33.29 31.89 31.91 32.23
50.65 51.60 52.46 52.53 51.91 50.98 49.68 47.57 46.23 45.48 44.43 44.65 44.52 44.42 43.79 42.97 41.55 40.88 39.16 36.42 37.79 35.77 36.49 35.89 37.78 38.49 37.46 38.51 37.64 36.35 34.11 32.62 32.14 33.50 33.13 34.58 35.23 33.69 33.12 32.10 30.93 28.95 29.52
46.21 47.49 50.39 50.60 50.89 50.90 48.87 46.36 46.22 45.10 45.61 45.01 44.31 43.60 42.89 41.91 41.52 39.85 37.66 36.11 35.53 34.72 34.33 34.07 35.65 36.72 37.81 36.45 35.95 34.41 32.42 31.85 30.93 30.85 31.29 32.14 34.54 34.60 32.61 31.65 29.40 29.77 31.12
44.88 45.65 46.34 46.34 46.98 47.35 46.41 45.48 44.64 45.09 44.35 43.68 42.51 41.95 41.60 40.84 39.40 37.43 36.24 35.34 34.08 33.10 32.51 32.69 33.13 34.69 35.08 35.98 35.53 34.65 33.19 33.68 30.70 29.82 30.88 32.45 33.73 33.02 33.35 30.84 32.72 32.82 32.37
43.96 44.86 45.26 44.45 44.64 45.10 45.64 44.64 44.45 43.59 42.57 41.94 41.35 41.02 40.67 39.53 38.28 36.54 34.76 33.34 32.82 31.72 30.85 31.10 31.81 32.31 33.06 34.33 35.82 35.21 33.87 33.69 30.28 30.35 31.16 32.51 32.99 32.21 31.91 32.68 32.95 33.95 29.60
43.77 43.89 43.61 43.30 42.84 43.60 43.73 45.07 44.33 43.38 42.25 41.24 41.06 40.65 39.15 37.68 36.94 35.64 34.44 33.01 31.62 30.71 30.66 30.83 31.50 32.11 31.45 32.29 33.79 33.09 32.66 33.05 30.50 31.16 31.30 31.87 31.98 32.54 30.88 30.29 31.35 30.68 29.88
42.74 42.84 43.03 43.42 43.46 43.08 42.70 43.03 42.30 42.05 40.81 41.25 40.97 39.54 38.29 37.13 35.74 34.59 33.92 33.44 33.34 32.81 31.45 31.71 31.53 31.17 30.02 31.12 33.98 34.19 32.67 32.05 31.47 30.68 29.32 27.65 27.34 27.26 27.22 27.71 29.26 28.92 27.83
42.89 42.35 41.89 41.47 41.87 41.26 40.64 40.44 40.51 40.40 39.75 39.03 39.65 38.67 36.95 36.72 35.12 33.54 32.89 36.84 35.85 36.46 36.87 36.52 34.48 32.11 34.24 34.58 34.71 35.28 34.95 34.71 33.72 28.87 26.35 25.87 25.87 25.80 26.65 26.33 26.41 26.84 28.07

GFSMW_sfc_wetblb_096.txt.gz
Wetbulb
54.00 56.11 57.63 62.20 64.16 64.58 65.64 66.89 67.20 67.51 68.27 67.99 66.11 65.64 65.07 66.62 67.48 67.52 67.36 67.37 67.37 66.57 65.54 65.18 64.84 64.32 62.54 62.03 61.90 61.62 60.89 60.18 60.57 59.06 59.03 59.76 60.76 60.89 61.36 61.86 61.62 61.43 61.12
52.50 53.81 56.12 59.63 62.48 63.13 64.08 65.89 66.93 67.18 67.67 67.43 67.67 66.39 65.74 65.76 65.74 66.86 67.19 67.74 67.74 67.46 66.55 65.45 65.11 64.87 64.03 63.41 62.92 62.14 60.82 60.82 61.26 58.57 58.23 56.27 58.56 60.29 61.22 60.96 60.14 58.16 58.54
50.38 52.24 53.92 56.07 61.07 62.17 63.37 64.66 65.84 66.62 67.53 67.55 66.43 65.66 65.39 65.28 65.00 65.76 65.91 66.63 67.12 66.81 66.82 66.03 65.03 64.82 64.50 63.51 63.38 62.86 61.40 59.58 60.40 60.71 58.63 54.82 54.20 56.44 57.86 57.39 57.38 56.60 54.56
50.12 52.14 53.62 54.32 59.28 61.84 63.28 63.87 63.69 64.95 66.36 66.42 65.40 63.54 62.94 61.98 62.98 64.11 65.31 65.84 66.17 65.80 65.78 65.66 65.48 64.97 64.60 63.73 63.08 63.76 62.05 61.15 59.76 60.40 60.88 59.89 58.95 54.76 53.64 56.49 55.48 54.32 53.99
49.43 51.31 52.52 54.01 53.84 54.97 56.20 61.42 63.67 63.77 64.81 64.82 64.21 63.52 62.80 62.57 62.56 63.55 64.32 64.84 65.76 65.77 65.15 65.12 64.87 64.54 64.44 64.42 64.13 63.21 63.20 62.51 60.94 60.55 59.34 58.62 58.16 57.98 55.34 53.61 53.44 53.87 51.56
49.59 52.12 54.07 54.38 52.89 52.92 53.07 53.41 59.39 61.98 63.41 63.66 62.38 61.08 61.65 61.38 62.16 62.32 62.32 63.56 64.74 65.24 65.11 65.09 64.60 64.44 64.16 63.91 63.60 63.75 63.27 62.02 61.79 61.51 61.56 59.57 57.82 56.75 55.62 54.71 55.04 52.54 51.24
49.56 51.20 52.25 51.55 51.60 51.69 52.43 53.15 53.53 54.22 58.71 61.16 62.43 62.08 60.29 60.74 60.12 61.24 60.95 59.93 59.59 60.65 63.12 64.03 63.47 63.33 63.99 64.07 64.40 63.52 63.28 63.31 62.79 62.50 61.84 61.27 60.19 59.98 58.16 55.84 54.36 52.04 50.73
49.11 50.96 51.66 51.17 51.03 51.90 51.54 50.87 51.67 50.69 52.91 54.03 55.41 56.46 59.08 58.26 57.02 57.25 57.60 58.44 59.00 58.71 59.08 58.57 58.96 60.01 61.50 62.59 62.93 62.98 63.19 63.00 62.47 61.85 60.98 60.43 59.25 58.63 58.18 56.15 54.01 51.39 51.11
47.94 50.11 50.98 51.39 51.06 50.34 49.93 49.63 50.02 50.86 51.28 51.79 50.82 51.30 51.53 51.33 51.60 52.03 53.25 53.31 53.95 54.59 54.88 56.07 56.40 57.01 57.88 58.37 60.03 60.85 61.65 61.75 61.11 60.69 59.63 56.47 54.27 54.42 54.20 54.32 54.11 53.16 49.13
44.80 46.42 49.20 50.31 51.47 49.98 50.06 50.34 50.42 50.27 51.71 52.18 51.18 51.72 51.16 51.48 51.67 51.42 51.25 51.15 51.81 52.56 53.12 54.08 54.49 54.79 54.89 54.75 55.35 56.42 55.16 55.30 53.51 53.34 52.49 50.80 50.88 50.90 51.29 50.81 51.12 50.96 50.85
45.73 45.90 46.80 48.84 49.87 49.38 49.25 48.84 49.47 50.04 50.35 50.90 50.99 49.91 49.50 48.68 48.05 47.56 47.17 47.18 47.31 48.01 49.59 50.14 50.68 51.24 51.53 51.89 52.56 52.89 52.76 52.30 51.24 51.24 50.44 49.61 49.58 48.15 47.00 46.71 47.14 48.04 48.76
45.37 45.82 45.72 47.36 47.68 47.82 48.31 48.01 48.16 47.88 47.66 48.15 48.66 48.35 47.97 47.80 46.15 45.32 45.01 45.96 45.46 45.75 45.67 46.68 47.69 47.95 47.97 49.14 50.96 49.92 50.54 50.16 49.85 49.04 47.83 46.63 46.61 45.27 46.13 46.61 45.99 46.41 46.13
44.59 45.26 45.60 46.25 46.43 46.84 47.18 47.12 46.91 45.89 45.98 45.96 45.65 45.91 46.51 46.05 45.28 44.68 45.04 45.26 45.06 44.79 44.38 44.67 44.42 44.48 44.95 45.71 46.81 49.41 49.63 49.27 48.41 47.77 46.25 45.18 45.50 44.55 44.16 41.85 40.48 41.09 41.74
45.37 44.76 44.58 45.11 45.74 46.61 46.56 46.30 45.37 45.19 45.16 44.95 44.28 43.64 43.59 43.80 42.68 42.62 42.88 42.65 43.03 42.75 42.50 42.60 42.62 42.62 43.14 43.48 44.19 46.11 46.07 44.90 44.60 44.80 44.90 44.73 44.42 42.83 40.37 39.70 38.81 39.34 38.58
44.72 44.75 44.54 44.52 45.20 45.66 45.92 45.73 44.99 44.52 44.52 43.91 43.08 42.20 41.83 41.85 41.65 41.58 41.48 41.59 41.62 41.62 41.61 41.87 41.54 41.66 41.30 41.77 42.07 42.80 41.54 40.69 40.57 40.64 40.49 39.65 40.98 42.98 41.18 39.03 37.11 38.26 37.81
45.30 45.56 45.99 45.33 44.68 44.83 45.15 45.30 44.42 44.14 44.31 43.30 42.11 42.05 41.36 41.19 40.81 40.71 40.34 40.30 40.22 40.58 40.89 40.62 40.74 40.05 41.41 42.09 43.12 42.88 39.51 39.37 37.94 36.23 36.53 38.96 40.43 40.95 42.00 41.76 41.40 39.72 36.93
45.29 45.79 45.52 45.38 45.47 45.40 45.60 44.12 43.81 43.90 43.30 42.67 42.09 41.84 41.63 41.18 40.70 40.57 39.94 39.34 38.90 39.23 38.37 38.44 39.20 39.87 40.91 42.01 42.60 42.22 38.85 37.44 36.21 35.82 36.26 37.37 38.74 37.26 35.84 39.09 39.25 39.17 39.85
45.58 46.34 46.16 46.12 46.18 46.26 45.50 45.02 44.18 42.88 42.87 41.99 41.56 41.87 41.62 41.05 40.67 40.00 38.94 37.65 37.83 38.97 38.63 35.44 36.83 39.06 40.27 41.94 41.55 40.37 36.91 36.70 36.61 36.53 35.97 34.12 33.02 34.28 32.42 31.97 30.07 29.52 31.55
45.07 47.00 47.16 46.85 46.73 45.86 45.28 44.31 42.91 42.29 42.29 41.59 41.14 41.66 41.56 40.56 39.81 37.75 37.55 39.01 37.84 36.07 35.28 37.11 36.85 37.76 38.58 41.06 40.32 37.14 34.65 33.89 33.08 32.81 32.51 31.82 30.99 36.05 36.65 31.21 29.45 29.44 30.03
44.30 45.73 47.32 47.83 46.82 45.53 44.77 43.30 41.99 41.30 41.07 41.79 41.55 41.59 41.30 40.24 38.57 37.50 38.21 35.54 37.23 35.13 36.26 35.68 37.26 38.53 36.95 39.80 39.50 36.59 32.63 30.60 29.47 30.15 31.37 36.33 32.47 35.92 36.03 30.14 28.33 27.55 28.08
42.34 44.38 46.07 46.29 46.48 45.84 44.22 42.43 41.94 40.81 42.00 42.58 41.77 41.03 40.50 39.31 38.03 36.61 36.70 35.58 35.14 34.86 34.47 34.62 35.80 36.84 36.90 36.96 38.26 36.76 30.49 28.85 28.06 28.80 28.40 29.81 36.29 34.35 33.31 32.33 27.03 27.89 28.69
42.12 43.55 42.53 42.02 42.79 43.59 43.22 41.70 40.77 41.51 41.60 41.16 40.60 39.65 38.76 39.11 38.15 37.16 35.62 35.31 34.55 33.70 33.15 32.96 32.63 33.82 34.58 37.20 37.43 35.76 34.00 33.50 28.49 27.59 28.60 30.28 34.93 34.55 33.90 30.20 33.26 34.75 32.56
40.61 41.49 41.15 40.70 40.96 41.93 42.17 40.73 40.38 40.92 40.49 39.58 38.78 38.23 38.49 38.40 38.05 36.49 35.21 33.91 33.64 32.82 31.91 31.53 31.07 30.77 31.36 30.87 36.49 36.33 35.26 34.12 28.26 28.00 30.74 34.36 34.53 33.82 32.79 33.16 33.78 33.95 27.08
39.69 40.58 40.36 39.70 38.92 40.10 41.00 41.51 41.24 40.80 39.78 38.48 38.05 37.82 36.78 37.55 36.86 35.62 35.06 33.62 32.59 31.88 31.15 30.55 30.37 30.36 30.03 29.75 29.84 30.58 30.88 33.56 30.29 31.44 29.38 31.14 31.67 31.70 29.87 30.40 30.26 29.34 27.62
39.87 39.54 38.93 38.86 38.84 39.18 39.14 39.19 40.06 40.18 38.67 38.54 39.26 38.46 37.92 37.36 35.56 34.93 34.19 33.67 33.82 33.42 31.69 31.73 31.81 30.84 28.93 30.09 33.26 31.89 29.31 28.34 29.38 28.79 28.06 26.37 25.48 26.24 25.82 25.45 27.45 27.96 27.39
40.22 39.54 39.03 38.73 39.17 38.78 38.52 39.36 40.05 40.09 39.29 38.65 38.28 37.58 36.40 36.10 35.17 33.81 33.15 37.09 36.57 36.83 37.09 36.36 34.55 31.80 34.48 35.35 35.89 36.19 36.06 35.23 34.57 28.00 25.19 24.61 24.59 24.78 25.31 25.21 25.76 26.28 27.68

GFSMW_sfc_wetblb_099.txt.gz
Wetbulb
53.10 54.73 58.99 61.54 64.30 65.51 65.45 66.46 66.46 66.70 66.93 66.43 65.41 65.10 65.78 66.63 66.79 66.85 66.98 66.64 66.27 64.60 63.95 63.81 63.12 61.22 60.59 60.51 60.83 60.79 60.14 59.31 59.56 58.75 58.51 59.24 59.74 59.57 60.18 60.55 60.57 60.67 61.57
49.83 52.54 57.14 60.35 62.59 63.14 65.31 64.74 66.04 66.78 67.19 67.36 66.06 65.65 64.68 64.90 65.85 67.05 66.87 67.05 66.57 65.63 64.74 64.10 63.83 63.54 61.70 61.13 61.04 60.71 59.88 59.92 60.05 58.10 57.06 55.31 57.32 58.93 59.58 59.78 59.89 57.71 58.42
49.04 52.55 54.58 58.42 60.67 61.26 62.40 65.16 66.01 66.35 66.40 66.60 64.99 64.51 64.23 64.19 64.62 64.43 65.47 65.22 66.19 66.39 65.90 64.93 64.77 64.12 64.05 62.63 62.24 61.66 60.57 58.94 59.32 59.31 57.48 53.39 53.35 54.91 57.01 56.50 56.19 56.01 53.78
48.70 51.98 54.91 56.44 59.33 60.66 62.07 63.91 64.77 65.48 66.25 65.34 65.18 63.30 62.47 61.84 63.55 64.53 64.96 65.25 65.40 65.69 65.93 65.73 65.28 64.84 64.84 63.99 63.15 63.41 62.16 60.70 59.11 60.10 60.62 58.82 57.47 55.46 54.74 56.44 54.49 53.88 52.06
47.08 49.33 51.50 56.98 59.22 60.39 60.03 61.23 62.39 64.17 64.95 64.97 63.61 62.24 61.43 61.03 62.26 62.50 63.25 63.97 64.49 65.14 65.02 64.79 64.64 64.46 64.16 63.95 63.70 63.45 62.71 62.31 61.14 60.66 59.25 58.60 58.34 58.14 55.93 54.38 53.91 52.34 49.83
47.32 49.00 52.75 53.79 53.11 53.73 53.88 57.35 60.41 61.85 62.80 62.65 61.68 60.65 58.69 59.19 60.08 60.87 61.39 61.94 63.52 64.01 64.80 64.26 63.68 63.25 63.42 63.19 63.38 63.47 63.14 63.01 62.56 61.48 60.64 58.58 57.23 56.36 55.74 54.70 54.54 54.00 50.67
47.54 48.45 50.10 49.41 49.87 50.58 51.54 53.64 56.82 58.42 59.93 59.12 58.31 58.60 58.58 58.66 59.35 60.15 60.18 59.02 58.93 59.50 62.95 63.67 63.26 62.64 63.13 63.12 63.29 62.77 62.00 61.95 61.08 60.99 61.11 61.49 59.85 59.01 57.86 56.17 54.62 52.69 48.05
45.43 48.64 50.62 50.24 50.33 49.89 50.17 51.30 53.05 53.41 56.49 58.53 58.46 58.42 58.48 58.05 57.79 57.92 57.05 57.45 57.73 58.29 60.54 60.18 60.52 61.25 62.18 62.64 62.50 61.74 62.05 61.53 61.18 61.17 61.22 60.52 59.87 59.52 58.41 56.69 54.48 51.69 50.15
45.58 48.23 49.86 50.75 49.36 49.56 50.08 49.10 49.98 50.30 51.86 52.41 50.23 50.82 51.82 52.50 51.36 51.60 52.54 53.04 54.02 54.56 54.29 55.46 55.58 55.93 56.75 57.00 57.72 58.31 58.92 59.35 60.14 59.93 59.57 58.62 57.14 56.69 56.41 55.91 55.47 53.48 48.76
45.30 47.42 50.75 50.12 49.42 49.81 48.80 48.44 48.80 48.73 49.35 49.80 49.84 49.99 49.97 50.41 50.55 51.18 51.05 51.31 51.96 52.33 52.98 53.30 53.46 53.44 53.42 53.18 53.84 54.15 53.98 55.66 55.02 55.15 56.25 53.76 52.58 52.91 52.90 51.98 52.94 52.61 52.09
43.84 44.63 46.22 47.81 48.53 47.80 47.36 47.11 48.05 48.41 48.62 48.64 48.48 48.63 49.69 49.00 48.64 47.86 47.98 48.28 47.69 48.65 48.90 49.46 50.04 50.04 50.28 51.10 50.98 51.35 52.37 53.19 52.53 52.23 52.14 50.95 50.82 49.64 47.98 48.93 49.14 49.31 50.10
43.53 43.75 45.62 46.29 46.73 46.46 46.39 46.90 47.35 47.75 47.66 47.44 47.39 47.39 48.34 48.26 46.98 46.54 45.99 46.14 44.97 45.32 45.73 46.33 46.96 46.93 47.02 47.63 49.22 49.06 49.27 51.24 51.05 50.60 49.57 48.34 48.19 47.44 47.27 47.38 46.86 45.50 47.26
43.42 42.85 44.66 45.43 45.50 45.44 45.63 46.10 46.12 45.54 45.50 45.48 45.04 44.90 45.31 43.84 43.33 43.74 44.22 45.03 44.69 44.25 44.58 44.32 43.51 43.56 43.75 44.11 45.08 47.59 49.77 49.06 49.45 48.60 47.57 46.52 46.54 45.02 45.53 45.21 43.95 43.96 43.76
43.98 43.36 43.48 43.98 44.66 45.18 45.28 44.74 44.12 44.45 44.27 44.06 43.51 42.86 42.32 41.62 41.41 41.63 42.28 42.29 41.94 42.36 41.83 41.53 41.84 41.77 42.41 42.20 42.82 44.34 45.96 46.03 45.82 46.12 45.85 45.50 45.32 44.36 43.48 42.55 41.60 39.48 39.13
43.41 43.49 43.41 43.20 43.95 44.28 44.03 43.60 43.32 43.41 43.36 42.68 41.97 41.04 40.85 40.61 40.48 40.39 40.47 40.58 40.55 41.24 40.60 40.56 40.86 40.44 40.35 41.56 41.19 41.63 41.55 42.20 41.56 41.36 41.29 41.74 43.08 43.85 42.73 40.87 37.75 37.72 36.87
44.21 44.29 44.16 43.45 43.21 43.33 43.20 43.41 42.78 42.87 42.94 41.80 40.90 40.82 40.49 40.19 39.79 39.67 39.50 39.33 39.34 39.53 39.91 39.66 39.87 39.23 40.85 42.49 43.51 42.18 38.97 38.76 37.74 36.64 37.79 39.56 41.83 42.61 43.77 42.56 41.89 39.59 36.43
44.47 44.61 44.04 43.89 43.87 43.77 43.77 42.58 42.35 42.63 42.07 41.22 40.83 40.58 40.36 40.02 39.55 39.42 39.03 38.42 37.77 37.82 36.88 36.71 37.76 37.54 38.48 42.24 42.75 42.69 40.12 38.57 37.13 35.99 36.13 36.88 38.60 38.59 38.05 40.88 40.60 40.99 41.29
44.86 44.99 44.52 44.04 44.32 44.39 43.65 42.91 42.60 41.99 41.63 40.64 40.50 40.58 40.40 39.87 39.47 38.70 37.66 36.52 36.27 36.25 36.37 35.97 35.36 35.97 39.04 42.17 42.41 40.85 37.48 37.53 37.40 37.20 37.08 36.60 34.07 33.77 33.03 30.31 29.55 30.32 31.83
43.62 45.48 46.00 45.17 44.50 44.13 43.77 42.95 41.62 41.37 41.06 40.14 40.04 40.49 40.48 39.54 38.82 37.14 36.04 36.76 38.04 36.85 37.02 36.76 34.46 34.59 37.63 41.97 40.89 38.48 36.18 35.54 35.09 35.36 34.99 34.12 32.31 37.13 36.94 30.08 29.16 28.80 30.53
42.08 43.14 45.71 46.15 44.58 43.76 43.33 42.46 40.68 40.31 40.28 40.37 40.41 40.62 40.31 39.36 37.70 36.50 35.84 35.88 37.61 35.91 35.63 34.43 35.18 37.98 37.50 40.86 40.06 36.70 33.80 31.99 31.21 31.79 32.58 36.43 33.07 37.56 37.22 29.73 28.96 27.46 28.13
41.93 43.11 44.27 44.15 44.59 43.96 43.03 41.37 40.48 39.89 41.07 41.50 40.86 40.32 39.74 38.72 37.30 35.46 35.30 36.68 35.65 35.09 34.66 35.06 36.42 37.10 37.28 37.69 40.01 38.76 32.30 30.76 29.81 30.12 29.53 30.19 36.51 36.77 36.69 33.89 28.30 28.86 29.46
41.17 42.37 41.23 40.89 41.83 42.77 42.38 40.97 39.97 40.80 41.14 40.62 39.81 39.03 38.12 38.52 37.19 35.47 36.18 35.72 35.35 34.52 34.15 34.15 33.73 35.00 36.09 38.51 39.33 38.83 35.10 33.66 29.16 28.46 28.07 29.30 36.79 35.08 34.38 31.35 33.07 34.70 33.06
39.39 40.30 39.88 39.68 39.92 40.89 41.44 39.71 39.51 40.21 39.67 38.97 38.09 37.42 37.31 36.85 36.36 36.31 35.31 34.52 34.59 33.80 33.07 32.56 32.31 31.97 31.89 32.88 37.82 38.40 36.50 35.19 28.64 28.03 30.76 33.73 35.75 35.01 33.75 32.83 34.29 35.20 27.59
38.73 39.25 38.98 38.32 38.06 39.13 39.82 40.45 39.91 39.96 39.06 37.58 36.99 36.68 35.86 36.68 37.04 36.38 35.61 34.59 33.55 33.01 32.48 31.72 31.44 31.52 30.48 30.51 31.29 32.82 33.10 35.14 31.77 31.83 30.91 32.98 33.24 32.70 30.76 31.66 31.39 29.04 27.12
39.20 38.52 37.76 37.62 37.69 38.26 37.91 39.21 39.56 39.29 38.00 37.49 37.90 38.55 38.28 38.37 36.02 35.42 35.09 34.51 34.72 34.25 32.60 32.10 32.27 31.27 30.28 30.62 33.33 32.44 29.87 28.69 29.07 28.23 28.33 27.82 27.41 27.41 26.86 26.42 27.68 28.49 28.42
38.85 38.71 38.47 37.60 37.53 37.49 37.10 37.61 38.14 38.07 38.05 37.75 38.35 38.06 37.25 36.55 35.35 34.40 34.08 37.67 37.50 37.41 37.93 37.48 34.81 33.46 36.00 35.82 36.50 36.39 35.94 34.83 34.05 28.37 26.67 26.55 25.98 25.63 26.61 25.49 25.20 27.16 29.29

GFSMW_sfc_wetblb_102.txt.gz
Wetbulb
54.45 55.61 59.05 62.42 63.95 64.43 65.14 66.00 66.37 66.41 67.14 66.54 65.32 65.05 64.33 65.37 65.60 65.70 64.50 64.36 64.18 63.20 62.38 62.16 61.95 59.56 59.52 59.67 59.81 59.89 59.27 58.62 58.77 58.15 57.85 58.17 58.93 58.32 58.54 59.63 59.57 59.82 60.71
50.58 52.45 57.15 60.24 63.07 64.22 65.05 64.45 65.48 66.49 67.06 66.89 66.10 65.24 64.54 64.75 65.97 66.70 66.44 66.06 65.58 64.84 63.36 62.68 62.30 61.53 59.96 59.93 60.08 60.09 59.54 59.66 59.54 57.72 56.25 54.39 56.35 57.94 58.57 58.80 59.34 58.13 57.64
49.60 49.92 54.86 58.59 61.04 62.13 63.69 64.63 65.37 66.08 66.68 66.38 64.83 64.16 64.44 64.01 63.91 64.70 65.79 66.08 66.33 65.91 65.18 63.65 63.64 63.52 62.23 61.09 61.04 61.05 60.30 59.12 59.42 59.01 57.13 53.20 52.99 54.47 56.22 55.07 55.39 55.23 54.03
48.04 50.20 53.23 57.16 59.14 61.47 62.44 63.82 64.66 65.32 65.73 65.31 65.28 64.18 64.04 62.37 63.70 64.29 63.95 64.75 65.75 65.60 65.01 64.76 64.86 64.65 64.13 63.17 62.65 63.07 61.94 60.79 59.20 59.90 60.51 59.14 58.06 55.99 54.56 56.26 53.82 53.22 52.70
46.23 49.60 52.73 57.92 59.90 59.48 61.31 62.15 63.09 63.72 63.86 64.46 64.01 62.86 61.34 61.94 62.40 63.07 63.13 63.35 64.26 64.72 64.49 64.74 64.35 64.26 64.18 63.97 63.59 63.03 62.50 62.10 60.85 60.10 59.05 58.63 58.42 58.26 55.73 54.33 52.89 51.43 50.65
45.31 47.99 51.69 55.55 57.08 56.86 57.81 59.72 61.03 62.15 63.06 62.78 61.35 61.42 60.22 59.51 60.18 59.92 60.56 62.08 62.77 63.50 63.86 63.96 63.67 63.48 63.10 62.73 62.84 62.61 62.34 62.32 61.86 61.41 60.88 59.40 57.30 56.67 55.93 54.29 54.54 53.51 50.01
45.23 47.21 49.25 52.84 53.71 54.17 55.33 58.29 59.85 59.92 60.02 60.49 60.37 59.42 59.29 59.43 59.66 60.09 60.02 59.35 59.20 59.24 62.28 63.10 62.64 61.79 62.72 62.62 61.95 62.04 61.89 61.61 61.09 61.19 60.86 61.05 60.03 58.59 57.48 56.00 54.45 53.08 48.77
45.11 47.22 48.90 51.18 52.59 52.83 52.64 55.73 57.66 58.74 57.99 57.66 57.57 57.15 57.30 57.66 57.74 58.40 58.48 58.09 57.19 57.09 59.06 60.79 59.65 59.41 59.21 60.64 60.25 60.17 61.24 61.47 60.79 60.13 60.99 60.73 60.47 58.86 57.60 56.61 54.35 51.70 49.47
44.27 47.30 48.67 50.51 49.52 49.49 51.36 54.09 55.32 55.46 56.70 56.87 56.31 55.96 55.73 55.39 54.18 53.05 53.63 53.72 54.09 55.16 55.93 56.40 56.45 56.74 57.09 57.03 57.12 57.01 56.84 57.08 58.16 59.59 59.23 58.54 57.62 57.29 57.23 57.04 56.04 55.31 49.33
43.09 45.63 48.76 49.94 49.17 49.24 49.37 49.12 51.70 52.84 53.74 53.59 53.31 53.21 53.02 52.07 50.94 51.21 51.04 51.11 51.25 52.09 52.65 52.75 52.91 53.73 54.20 53.22 53.33 53.39 53.32 52.35 53.40 54.98 55.82 56.36 55.06 55.34 54.29 54.94 54.43 53.71 52.86
42.00 44.91 47.31 47.88 48.46 48.00 47.98 47.57 47.89 48.40 49.21 49.27 48.96 49.47 49.10 49.38 49.62 49.48 49.18 49.11 49.58 49.90 49.33 50.44 50.48 50.24 50.03 49.74 50.38 51.02 51.25 51.41 51.81 52.57 53.34 53.62 52.45 51.68 51.06 50.55 50.23 51.25 51.40
41.19 42.73 45.78 46.33 46.63 46.87 46.30 46.77 46.61 47.06 47.11 46.90 47.05 46.83 46.90 46.74 46.39 45.99 46.18 45.62 44.80 44.91 46.21 45.99 46.23 46.07 46.07 46.43 47.57 48.56 48.43 48.82 51.71 51.84 49.92 50.78 49.30 49.27 48.65 48.65 48.54 48.29 48.34
41.66 43.23 44.40 45.36 45.31 45.38 45.86 46.50 46.39 46.14 45.88 45.88 45.22 44.63 44.33 44.08 43.09 43.19 44.04 44.12 43.02 43.10 43.72 43.79 43.58 43.46 43.46 43.48 44.11 45.19 47.57 48.45 49.62 50.06 48.49 48.63 47.79 46.87 46.44 46.44 45.90 45.73 45.07
42.02 42.69 43.56 43.80 44.46 45.27 45.42 45.30 44.78 44.99 44.42 44.23 43.65 42.91 42.36 41.80 41.42 41.37 41.50 41.73 41.51 41.23 40.93 41.33 41.62 41.51 41.24 41.54 41.71 42.81 44.88 45.91 46.85 46.82 46.62 46.60 46.30 45.83 44.89 44.09 43.47 42.74 42.66
42.05 42.51 43.28 43.73 44.19 44.66 44.48 44.05 43.67 43.28 43.16 42.65 42.17 41.29 40.72 40.50 40.25 40.06 39.98 40.02 40.03 39.92 40.01 40.20 40.08 39.35 39.82 41.18 40.56 40.46 41.21 40.70 40.64 41.32 41.89 42.67 43.99 45.25 44.53 42.82 41.52 40.87 40.11
42.53 42.86 43.55 43.21 43.02 43.29 43.52 43.33 42.53 42.43 42.45 41.52 40.74 40.36 39.94 39.66 39.24 38.98 38.94 38.84 38.68 38.81 39.03 38.76 38.96 38.23 40.37 42.93 43.58 42.66 39.03 38.44 37.81 37.08 38.90 40.29 42.60 43.54 44.54 43.67 42.85 40.98 36.63
43.51 43.67 43.31 43.78 44.03 43.83 43.75 42.38 42.13 41.80 41.28 40.74 40.10 39.95 39.72 39.34 38.90 38.82 38.48 37.68 37.00 37.17 36.41 36.18 36.86 36.77 37.64 42.76 43.00 43.22 40.47 39.26 38.05 36.34 36.80 37.52 39.24 39.80 40.15 41.75 41.41 42.35 42.89
43.48 44.22 43.97 43.90 44.33 44.12 43.16 42.46 42.03 41.36 41.00 40.22 39.85 39.79 39.57 39.10 38.63 37.96 37.02 35.93 35.55 35.33 34.96 36.70 35.70 35.07 37.39 42.23 43.02 41.60 38.30 38.38 38.20 37.99 37.85 37.49 35.70 35.43 34.20 32.11 31.22 30.49 30.20
43.06 43.62 45.14 44.67 44.28 43.68 42.96 42.17 41.11 40.92 40.42 39.72 39.49 39.64 39.68 38.78 37.91 36.65 35.49 35.35 35.20 34.58 37.06 37.15 35.94 33.61 34.90 41.09 41.95 39.65 36.91 36.05 35.66 36.59 36.26 36.05 34.71 38.04 36.56 30.19 29.53 29.85 31.13
42.25 43.20 45.28 45.51 44.63 43.67 42.80 41.70 40.55 39.97 39.54 39.83 39.86 39.89 39.58 38.68 37.22 36.10 35.08 33.31 35.20 36.80 36.32 35.06 33.95 36.25 34.70 40.63 41.42 37.99 35.15 33.72 33.16 32.41 33.30 37.88 34.64 38.14 37.65 29.71 27.65 28.87 29.63
41.84 42.29 43.67 43.82 43.87 43.69 43.33 41.78 40.68 40.07 40.98 40.92 40.46 39.80 39.32 38.30 37.38 35.14 36.12 34.03 35.29 35.57 34.94 34.59 35.16 37.12 38.06 37.56 41.07 39.87 33.62 32.43 30.75 30.75 30.49 31.86 37.14 37.40 38.05 34.19 28.33 28.16 29.56
40.21 41.39 40.47 40.41 41.47 42.34 42.34 40.87 40.29 41.04 41.06 40.82 39.92 39.16 38.37 38.32 36.57 34.61 34.85 34.21 35.81 35.20 34.93 34.82 34.55 35.55 36.60 38.88 39.05 40.79 38.43 34.57 30.31 29.88 30.35 30.87 37.04 36.50 36.61 33.93 33.56 35.00 33.43
38.64 39.54 39.52 39.97 39.62 40.66 41.49 40.32 40.25 40.51 39.97 39.28 38.35 37.45 36.83 36.42 36.78 36.37 34.00 35.11 35.21 34.51 34.08 33.43 33.24 33.57 33.79 33.92 38.96 39.49 39.66 36.80 30.85 30.08 31.36 33.32 35.99 36.53 34.07 34.40 33.72 35.42 27.80
37.75 38.19 38.20 37.58 37.52 38.49 39.36 40.33 40.12 39.54 38.66 37.39 36.51 35.92 35.27 34.90 35.91 36.77 35.99 35.12 34.24 33.81 33.12 32.63 32.50 33.13 32.35 31.16 31.33 34.12 34.39 37.07 33.49 32.35 31.44 33.33 33.74 33.86 31.32 31.46 31.33 28.58 27.24
38.48 37.87 37.49 37.75 37.46 37.67 37.68 39.36 39.39 38.73 37.59 36.85 36.37 37.32 37.87 38.72 36.74 36.11 35.85 35.23 35.54 34.97 33.48 33.46 33.25 32.24 31.73 32.35 33.76 33.00 30.49 30.10 30.87 28.86 27.88 27.90 27.96 27.51 27.26 27.75 28.07 28.64 28.19
36.92 36.81 37.10 37.00 36.77 36.63 36.66 37.24 37.51 37.33 36.67 37.41 37.25 37.95 37.31 37.66 36.22 35.10 34.90 38.30 38.21 38.15 38.54 38.67 36.25 33.73 36.54 37.81 36.89 37.14 37.02 36.36 35.48 29.12 27.15 27.04 26.71 27.00 27.45 26.43 25.81 27.07 29.76

GFSMW_sfc_wetblb_105.txt.gz
Wetbulb
50.75 53.52 61.13 63.71 64.20 64.49 65.98 67.03 66.31 66.96 66.96 66.09 65.24 64.28 63.43 62.84 63.18 62.42 62.16 61.60 61.55 61.59 60.92 60.95 60.16 59.82 59.45 59.12 58.72 58.64 58.13 57.97 58.15 57.63 57.83 58.26 59.02 57.79 57.60 58.31 58.97 59.25 59.78
49.35 50.20 55.97 60.99 64.33 64.39 64.80 65.21 65.95 65.89 66.41 66.62 66.26 64.98 64.83 64.37 64.40 64.46 64.40 63.49 63.04 62.36 61.65 61.34 60.97 59.16 58.88 58.89 58.89 59.30 59.10 59.47 59.09 57.47 55.96 54.20 55.96 57.07 56.68 57.60 58.37 56.63 56.11
48.02 48.18 51.52 58.12 60.98 62.22 63.19 64.86 65.07 66.07 66.59 66.12 64.65 64.36 64.05 63.60 63.70 63.82 64.42 64.48 64.70 64.43 64.23 63.55 63.13 61.73 60.16 59.34 59.70 60.13 60.10 59.00 59.31 58.99 57.53 53.42 53.05 54.31 55.47 54.24 55.10 55.21 54.91
48.53 47.72 50.37 55.69 58.93 61.36 63.41 64.27 64.32 65.55 65.16 65.00 64.45 63.73 63.81 62.83 63.74 63.78 64.09 64.36 65.53 65.16 64.98 63.99 63.90 63.51 63.23 62.27 61.61 62.34 61.40 60.60 59.23 59.72 60.48 59.54 58.36 55.37 54.30 55.14 52.92 52.23 52.15
48.80 48.86 49.24 55.79 58.49 60.04 61.29 62.22 63.27 63.39 63.22 64.38 63.95 62.74 61.61 62.42 62.38 62.84 63.15 63.32 63.89 64.33 64.84 64.62 63.58 63.66 63.94 63.94 63.70 62.96 62.47 61.53 60.30 59.78 58.90 58.80 58.57 58.43 56.36 54.12 53.03 51.75 50.84
50.02 49.21 48.88 54.01 56.39 57.01 58.64 60.08 61.22 62.11 62.64 63.08 62.51 61.92 60.74 60.17 60.31 60.58 61.32 61.20 62.64 63.35 63.84 63.51 63.24 63.37 63.39 63.15 63.03 63.24 62.56 62.25 61.85 61.09 60.22 58.53 57.20 56.80 56.45 55.68 54.29 52.40 49.59
46.61 46.46 49.44 53.29 55.15 56.50 57.11 58.07 59.43 60.01 61.69 60.92 60.73 60.60 59.96 59.90 59.92 59.67 59.56 59.43 59.68 60.29 61.85 62.46 62.07 61.44 61.13 60.82 60.35 59.47 58.56 60.06 60.44 60.69 60.59 60.61 59.69 58.97 58.02 56.36 54.60 52.89 48.64
46.18 46.37 48.64 51.74 54.20 55.25 55.79 57.39 58.00 59.59 60.84 59.87 59.05 58.49 58.95 59.42 59.41 59.50 58.97 58.73 58.39 57.53 58.81 59.20 58.75 58.78 59.05 59.66 58.46 57.74 58.08 58.88 59.60 59.67 58.92 59.40 59.77 59.57 58.85 57.47 55.33 51.80 49.31
43.83 45.33 47.53 50.32 52.80 52.98 53.60 55.95 56.93 58.83 58.29 57.42 56.88 56.84 56.60 56.97 56.37 55.92 55.81 55.53 55.02 55.81 56.53 57.14 56.91 56.40 56.65 56.69 56.90 56.86 56.50 56.70 57.87 58.63 58.84 58.83 59.31 59.22 58.98 56.92 55.02 54.28 49.69
43.73 44.42 47.75 49.53 51.18 52.49 51.75 53.08 54.50 55.33 55.54 55.15 55.21 55.31 54.98 54.34 53.09 52.65 52.72 52.40 51.98 52.83 53.32 53.03 53.13 52.95 53.04 52.57 52.47 52.43 52.54 52.24 52.41 52.47 53.18 53.83 55.24 56.25 56.20 56.17 55.94 54.48 53.97
42.48 43.51 47.51 48.19 48.26 48.42 48.93 49.55 51.44 52.21 53.09 52.91 51.13 51.75 51.19 50.63 50.12 50.39 49.74 49.58 49.27 49.95 50.18 50.31 50.25 50.18 49.16 49.77 49.22 49.51 49.58 49.27 49.48 52.00 52.26 52.67 53.41 52.78 52.59 52.04 52.08 52.50 52.47
41.35 42.89 46.75 47.09 46.71 46.87 46.49 46.94 47.56 49.19 49.45 49.09 49.32 48.75 48.09 47.88 46.96 46.34 45.76 46.27 45.74 46.66 46.04 46.48 46.13 45.62 45.43 45.57 45.20 45.86 47.11 47.68 48.64 50.92 51.21 50.97 50.26 50.24 50.10 49.82 50.08 49.80 49.52
41.78 42.79 44.28 44.91 45.95 45.99 45.55 45.80 46.01 45.97 45.81 46.27 46.27 45.43 44.77 44.20 43.38 43.37 43.53 43.61 43.24 43.10 44.41 43.50 42.97 42.60 42.31 42.37 42.30 43.02 44.36 45.83 46.96 47.65 49.36 48.82 48.60 48.15 47.47 46.89 46.67 46.62 46.08
41.38 42.26 42.01 42.50 43.54 44.56 45.11 44.89 44.65 45.17 44.76 44.52 43.99 43.26 42.74 42.08 41.62 41.55 41.83 42.03 42.08 42.23 40.79 40.72 40.69 40.54 40.26 40.60 40.66 41.10 41.55 42.60 43.23 43.40 43.83 44.04 45.54 45.95 45.90 45.04 44.77 44.25 44.00
41.14 42.45 42.28 42.03 42.81 43.87 44.03 44.01 43.64 43.83 43.69 43.24 42.73 41.72 41.08 40.59 40.16 39.98 39.88 40.00 40.01 39.69 39.69 39.50 39.06 38.56 39.37 41.00 40.02 39.52 38.96 39.01 39.37 39.35 39.66 40.69 42.65 45.08 45.54 43.91 43.17 42.48 42.07
41.20 41.70 42.12 42.10 42.26 42.66 43.18 43.38 42.62 42.60 42.92 42.12 41.34 40.85 40.08 39.60 39.22 38.86 38.63 38.64 38.29 38.23 38.31 37.92 38.16 37.55 39.93 43.41 43.83 42.20 38.32 37.56 37.05 36.67 36.96 38.19 40.96 42.28 45.03 44.73 43.89 42.70 40.42
41.61 41.51 42.10 43.30 43.66 43.35 43.36 42.57 42.21 41.85 41.69 41.20 40.30 39.75 39.47 39.03 38.57 38.31 37.98 37.09 36.58 36.67 35.74 35.39 35.80 35.76 36.63 42.56 43.63 43.56 37.78 37.23 38.69 37.94 37.54 38.23 39.38 39.81 40.02 41.07 41.17 41.67 43.01
41.36 42.40 42.64 42.56 43.45 44.22 43.41 42.71 42.29 41.71 41.25 40.29 39.67 39.50 39.19 38.54 37.89 37.48 36.57 35.39 35.07 34.85 34.43 36.80 36.65 33.82 36.41 41.54 42.53 42.39 35.46 35.56 37.29 38.27 38.13 37.79 37.14 36.59 36.10 34.03 33.39 32.64 32.63
41.03 41.94 43.21 43.63 43.68 43.68 43.28 42.28 41.26 40.89 40.59 39.81 39.40 39.45 39.29 38.26 37.28 36.16 34.97 34.65 34.56 33.89 34.04 36.86 36.66 34.48 33.80 39.96 42.37 40.67 34.67 33.89 35.26 36.90 36.88 36.82 35.90 37.57 37.61 32.79 32.10 31.45 32.05
41.42 42.12 43.10 44.43 43.97 43.03 42.67 41.79 40.65 40.27 39.73 39.69 39.74 39.55 39.22 38.25 36.78 35.82 34.59 33.58 34.38 34.42 35.99 35.77 35.88 35.76 34.23 38.94 41.79 40.49 35.62 32.97 34.27 33.88 33.74 38.02 36.34 38.05 37.93 31.11 30.67 30.23 30.12
40.78 41.77 42.79 43.02 43.01 43.18 42.64 41.36 40.36 40.02 40.84 40.77 40.18 39.48 38.84 38.08 36.94 34.92 35.37 35.27 32.63 33.49 35.79 35.20 35.51 33.27 35.53 37.69 40.42 41.31 35.33 33.21 32.29 31.33 31.35 31.89 37.92 38.28 38.87 35.18 29.72 30.06 31.28
39.20 39.98 39.97 40.09 41.08 42.57 42.51 40.90 40.37 40.96 41.17 40.62 39.73 38.96 38.26 38.15 36.63 34.67 35.16 33.01 35.31 35.75 35.55 35.34 33.96 34.21 36.24 38.56 39.73 40.46 40.84 36.39 30.75 30.40 30.96 31.27 35.58 37.65 37.66 36.79 34.33 34.95 33.77
37.74 38.55 38.91 39.05 39.22 40.32 41.40 40.47 39.95 40.28 39.67 39.12 38.39 37.77 36.84 36.34 35.21 34.00 34.86 35.74 35.68 35.23 34.67 34.10 33.79 33.30 33.62 33.97 38.40 39.70 40.72 40.71 32.72 29.99 31.82 34.76 35.24 37.64 35.22 35.84 34.24 35.26 28.34
37.03 37.54 37.45 37.71 37.74 38.82 40.42 40.18 39.82 40.02 38.98 37.96 37.11 36.30 35.78 35.22 34.92 36.14 36.20 35.66 35.05 34.51 33.46 33.10 33.02 33.77 32.35 32.97 32.89 32.93 35.85 37.16 36.49 34.32 31.65 33.10 34.19 34.93 33.12 32.90 30.37 28.46 27.56
38.18 37.74 37.57 37.63 36.58 36.62 36.83 38.11 38.98 39.13 37.91 37.18 36.62 36.19 36.08 36.63 35.39 36.56 36.57 34.96 36.03 35.54 33.90 33.93 33.73 32.98 32.74 33.26 35.52 33.77 31.80 32.26 32.65 30.16 26.96 27.12 28.81 29.68 28.81 27.99 28.11 27.75 27.94
35.34 35.86 36.31 36.18 36.08 35.26 35.02 35.68 36.69 37.03 36.49 36.35 36.69 36.65 37.20 35.48 35.59 35.43 35.23 38.95 38.80 38.75 39.13 39.20 37.23 34.22 37.18 38.23 38.72 38.60 37.91 37.61 37.17 30.36 25.75 25.64 27.24 28.13 28.20 27.55 26.79 27.10 29.25

GFSMW_sfc_wetblb_108.txt.gz
Wetbulb
52.53 55.76 62.04 63.58 64.08 65.97 66.57 67.63 67.40 67.48 66.55 65.91 64.72 63.90 63.33 61.29 60.68 60.44 60.69 60.38 60.81 60.96 61.64 61.81 61.50 61.76 61.43 61.26 59.85 58.46 57.74 57.12 57.43 57.25 57.66 57.91 58.65 57.23 57.09 57.26 57.97 58.49 59.15
51.00 51.87 59.41 62.71 63.33 63.63 65.47 65.77 66.85 66.80 66.60 66.20 65.83 64.70 64.34 63.19 63.42 62.74 61.75 61.27 61.03 61.16 61.13 60.38 59.70 59.74 59.47 59.12 58.63 58.52 57.82 58.02 58.14 57.03 56.65 55.25 56.12 56.32 55.17 55.99 57.23 55.26 55.86
49.26 49.91 55.25 60.29 62.26 63.05 63.73 64.87 65.44 65.93 66.04 65.74 64.74 63.95 63.53 63.23 62.64 62.60 62.23 62.92 62.86 61.69 61.44 61.18 60.81 59.35 59.12 59.02 58.34 58.57 58.78 58.12 58.76 59.09 57.80 54.18 53.65 55.36 55.65 53.89 55.54 55.88 54.85
47.96 47.84 49.64 56.06 60.48 62.51 63.62 64.95 65.11 65.77 66.19 66.04 65.35 63.84 63.24 62.13 62.73 63.21 63.75 63.96 64.03 63.36 63.05 63.39 62.96 61.89 61.34 61.28 60.65 61.42 60.86 60.58 59.03 59.98 60.35 59.42 58.50 55.59 54.32 54.68 52.95 52.96 53.09
47.66 47.21 47.60 52.88 57.95 61.13 62.68 62.99 63.68 64.51 65.18 65.46 65.00 63.07 63.39 64.25 63.98 63.30 63.48 63.82 64.13 64.54 64.14 63.82 62.98 62.76 63.22 63.27 63.27 62.31 61.62 61.26 60.69 59.86 59.08 59.08 58.92 59.00 56.73 54.07 54.03 52.68 52.11
48.28 47.48 46.24 48.44 55.87 58.34 60.64 62.48 63.62 63.36 63.87 64.38 63.89 63.52 62.79 62.53 62.44 62.28 62.98 63.40 62.57 62.93 63.75 64.18 64.18 63.88 63.67 63.45 63.15 62.94 62.26 61.86 61.27 60.20 60.20 58.50 56.80 56.64 56.63 55.62 55.11 53.46 51.52
49.09 47.07 44.43 49.94 54.81 56.95 57.96 59.80 61.05 61.26 62.44 63.19 62.57 62.22 61.64 61.84 61.68 61.47 61.88 61.43 61.35 61.60 62.23 62.08 61.56 61.34 61.52 61.46 61.17 60.77 60.06 59.72 60.26 60.40 59.73 60.00 59.40 58.76 57.62 56.04 54.60 53.89 50.37
49.34 46.07 45.10 47.86 52.28 55.43 56.39 58.18 58.82 59.75 61.29 60.94 60.50 60.90 60.53 60.03 59.77 59.84 60.32 59.96 59.30 59.24 60.50 60.00 59.64 59.23 59.50 58.86 57.82 57.15 57.49 58.76 58.33 57.02 57.98 57.62 57.84 58.52 57.07 56.17 54.63 52.58 50.51
45.40 45.48 45.93 48.07 52.07 54.29 55.94 57.31 57.33 59.45 59.79 59.88 57.75 58.14 57.64 57.85 58.07 57.62 57.42 56.56 56.18 56.79 58.14 57.82 57.36 56.45 56.48 56.29 56.23 55.94 55.57 56.87 57.78 57.74 57.70 57.64 57.83 58.29 58.51 58.45 57.65 54.88 52.07
44.65 45.36 46.22 47.52 51.49 53.88 53.67 54.80 56.29 58.30 57.47 55.39 55.66 55.50 55.51 55.55 54.96 54.77 54.14 53.73 53.08 53.70 53.88 53.49 53.37 52.78 52.08 51.70 51.68 50.79 50.61 50.38 50.19 50.65 51.79 52.46 52.43 53.34 53.65 55.54 56.17 55.79 55.06
42.91 43.82 45.33 47.44 48.65 49.93 50.84 51.93 53.12 53.90 53.99 53.03 52.63 53.06 52.10 51.51 51.54 51.15 50.27 49.73 49.57 50.00 49.98 50.03 49.81 49.38 48.70 48.29 48.70 48.85 48.96 49.93 49.79 49.92 52.15 51.93 52.17 50.58 50.94 51.86 51.99 52.40 52.80
42.77 43.10 43.42 46.96 46.95 47.93 48.58 49.78 49.68 51.30 50.47 50.03 50.44 49.49 48.96 48.87 48.19 47.04 46.66 47.22 46.09 46.33 46.65 46.52 45.67 44.74 44.16 43.82 43.96 44.26 44.98 45.51 46.18 47.17 49.49 50.16 50.21 48.54 49.69 49.82 49.52 49.52 50.38
42.88 43.13 44.05 45.12 46.13 46.29 45.73 46.20 46.65 47.65 47.63 48.48 47.17 46.77 46.48 45.73 44.77 44.37 44.24 44.13 43.75 43.53 43.65 43.43 42.54 41.99 41.53 41.13 40.84 41.27 41.87 42.89 43.86 44.25 44.36 46.01 45.83 45.33 46.55 47.38 46.75 46.75 46.62
42.03 42.80 43.03 43.51 44.76 45.03 44.85 44.84 44.21 44.74 44.82 45.11 44.82 43.96 43.81 43.17 42.58 42.28 42.14 42.08 42.20 41.48 41.06 40.81 40.70 39.97 39.65 39.80 39.76 39.85 39.66 40.15 40.64 40.79 40.62 40.53 40.94 42.22 45.18 45.31 45.25 44.86 44.60
41.35 41.92 42.10 42.16 42.73 43.48 44.41 44.59 44.04 44.06 43.85 43.19 42.78 41.65 40.89 40.49 40.22 40.06 39.87 39.85 39.74 39.40 39.83 39.04 38.40 38.45 39.41 41.17 39.36 39.02 38.06 37.67 37.73 38.03 38.35 38.66 41.13 44.03 44.96 44.07 43.05 43.15 42.78
41.10 41.80 43.02 42.04 41.41 42.22 43.94 43.85 43.13 43.18 43.65 42.19 40.84 40.21 39.71 39.41 38.98 38.80 38.61 38.25 38.02 38.18 38.12 37.88 37.73 37.20 39.57 43.89 44.16 41.13 37.48 36.98 36.36 36.00 36.33 37.06 39.79 41.29 44.08 45.10 44.67 43.65 41.23
40.49 41.76 41.66 42.57 42.48 42.80 43.11 42.31 41.80 42.31 41.84 41.00 39.98 39.57 39.10 38.61 38.38 37.99 37.69 37.03 36.52 36.74 35.65 35.50 35.75 35.17 36.01 42.97 43.61 42.88 36.21 35.80 35.08 35.25 35.42 37.47 38.94 39.61 39.50 39.88 40.26 40.57 42.04
39.05 40.34 41.10 41.55 42.32 42.87 42.46 41.73 41.43 40.97 40.59 39.50 39.00 39.03 38.81 37.87 37.54 37.28 36.30 34.97 35.59 35.25 35.68 36.59 36.86 34.17 35.88 41.17 42.19 42.04 34.61 33.96 33.97 34.57 35.04 36.70 37.20 37.34 37.87 35.33 34.49 33.62 33.95
39.54 41.18 42.39 42.73 42.48 42.55 42.02 41.19 40.16 39.84 39.83 38.86 38.77 39.04 38.86 37.53 36.86 36.17 35.40 35.37 34.83 33.78 33.54 35.74 37.01 35.80 32.86 39.39 41.95 39.59 35.94 33.63 32.28 34.95 36.60 36.95 36.48 38.14 39.44 33.71 32.85 32.03 32.48
39.99 40.71 41.49 43.15 42.92 42.20 41.56 40.74 39.63 39.45 39.02 39.13 39.27 39.20 38.93 37.90 37.40 36.02 35.29 33.84 34.61 34.63 34.06 36.02 36.53 36.72 34.26 38.38 40.74 40.85 36.40 34.49 33.83 32.21 33.94 36.01 38.33 38.74 39.33 32.06 31.16 30.67 31.22
39.43 40.37 40.88 40.59 41.61 42.10 41.82 40.96 39.99 39.25 40.11 40.28 39.61 38.97 38.77 38.10 37.42 35.21 35.52 35.75 33.36 33.46 35.07 35.87 36.17 35.43 33.64 34.62 40.40 41.07 37.36 34.57 32.80 30.24 30.25 32.04 35.76 38.73 38.99 36.73 30.02 30.28 31.93
38.25 38.99 38.45 38.41 39.62 41.15 41.63 40.01 39.72 40.81 40.79 40.27 39.60 38.77 37.89 38.11 36.47 34.87 35.83 33.13 33.27 33.48 35.15 35.43 33.88 33.55 35.06 38.01 39.19 40.77 40.91 39.39 32.89 31.25 29.30 29.81 35.32 36.57 37.91 37.17 36.33 35.64 34.23
36.64 37.32 37.68 37.24 38.19 40.23 41.57 40.25 39.04 40.18 39.89 39.64 39.08 38.42 38.04 37.50 36.31 35.25 34.96 33.84 34.24 35.09 35.53 34.43 33.53 34.46 34.94 34.34 38.01 39.97 40.63 41.23 34.77 31.74 31.84 34.82 35.41 36.10 36.60 36.72 36.09 35.13 30.35
36.40 36.81 36.39 37.15 37.17 39.20 40.25 40.23 40.21 40.21 39.63 38.66 37.60 36.87 36.13 35.25 34.36 35.04 34.88 34.86 35.42 35.26 33.92 33.41 33.16 34.10 33.75 33.80 34.13 34.09 34.14 37.70 36.93 36.31 32.52 32.64 33.49 34.82 33.50 33.65 31.82 29.45 29.71
36.17 36.86 36.32 36.94 36.05 35.99 36.43 37.22 38.75 39.77 38.97 38.34 37.60 36.73 36.69 36.87 35.19 35.10 35.06 34.60 36.27 34.74 32.51 33.39 33.85 32.76 32.18 33.77 35.41 34.46 32.10 32.48 33.97 33.47 27.13 26.26 27.06 27.87 28.34 28.07 28.12 27.61 28.47
33.85 34.62 34.72 34.71 35.19 33.78 33.17 34.19 35.40 36.26 36.68 36.72 36.69 36.62 36.42 35.92 35.61 34.54 35.96 39.27 38.88 39.21 39.58 39.27 36.84 34.54 37.35 38.59 39.09 39.29 39.38 38.99 37.70 33.21 27.71 24.99 24.80 25.80 27.66 27.44 26.69 26.93 28.64

GFSMW_sfc_wetblb_111.txt.gz
Wetbulb
52.50 56.96 63.60 64.36 64.62 66.72 67.51 67.46 67.21 67.38 66.86 65.98 64.96 64.29 63.83 64.62 64.72 64.44 63.92 64.53 65.33 65.70 66.33 66.19 65.77 65.01 64.58 64.49 63.99 63.22 62.67 61.55 61.44 61.27 61.71 61.73 61.63 61.42 59.84 61.24 62.64 62.85 63.58
51.06 55.29 62.28 63.13 63.79 64.96 67.10 67.04 66.84 66.93 66.78 66.83 66.26 66.11 65.65 64.70 64.73 64.12 63.19 63.22 63.49 63.79 64.16 64.53 64.13 64.48 63.93 63.38 63.17 62.51 61.00 61.29 61.27 60.35 59.02 58.25 58.81 58.38 57.55 59.02 61.22 61.11 60.63
50.10 51.97 60.03 62.41 62.77 63.11 65.32 66.75 66.76 66.83 66.74 66.58 65.98 65.63 65.40 65.14 64.40 63.85 63.72 63.01 62.74 62.99 62.92 62.93 63.43 63.00 63.20 63.03 62.64 62.12 62.05 61.00 61.25 61.33 60.33 56.65 55.15 56.92 57.28 55.79 56.21 57.60 57.63
49.91 50.38 56.03 60.54 61.91 62.19 64.39 64.99 64.89 64.46 65.80 65.66 64.90 64.17 63.76 63.17 64.73 64.34 64.19 63.84 63.50 63.09 63.36 63.43 63.45 62.51 62.93 62.40 62.19 62.23 61.71 61.00 60.26 61.47 61.78 61.97 61.39 56.68 56.31 55.99 54.35 54.39 54.44
49.75 49.76 52.43 57.00 59.54 63.07 63.53 64.68 64.39 63.82 64.09 64.98 64.73 62.95 61.70 63.24 63.68 64.01 63.82 63.52 63.83 64.29 64.00 64.23 64.46 63.70 63.45 62.84 62.45 61.71 61.77 62.43 62.15 61.86 60.79 60.87 60.45 59.72 57.44 54.59 56.05 54.73 54.13
49.89 50.00 50.16 51.12 57.26 61.12 62.66 63.13 62.84 63.06 64.46 64.15 64.22 61.98 61.04 62.40 64.39 64.04 63.78 63.49 64.43 64.20 64.74 64.19 64.58 64.82 64.20 63.89 63.86 63.45 62.92 63.08 62.65 62.67 62.31 60.11 57.93 57.68 57.32 55.84 56.24 56.01 54.81
49.53 48.13 49.35 51.88 57.01 59.31 61.44 61.96 62.85 62.68 63.46 62.62 62.25 63.71 62.20 63.08 63.00 62.79 63.07 63.29 62.93 63.22 63.46 64.18 64.15 63.96 64.06 64.33 63.82 63.48 62.71 63.00 61.44 61.47 61.66 61.94 61.18 59.62 58.44 56.71 55.66 54.89 55.94
49.15 48.17 47.96 50.78 55.27 58.13 59.79 60.73 61.82 61.60 63.06 63.53 62.90 62.51 62.96 62.57 63.13 63.01 63.09 63.20 62.68 62.77 63.21 62.78 62.69 62.82 63.06 62.86 62.31 61.25 60.79 61.25 61.25 59.97 59.97 60.18 60.46 60.70 60.14 58.34 57.26 54.65 55.22
45.94 47.36 47.96 50.20 53.45 56.51 58.74 60.33 60.82 61.06 61.97 62.43 62.14 62.28 62.81 61.95 60.95 61.76 61.38 60.59 60.79 61.17 61.58 61.37 60.05 60.41 59.87 59.54 59.51 59.04 58.60 59.38 59.07 58.35 57.99 57.45 57.53 57.51 58.19 58.29 57.89 55.72 51.88
45.94 47.22 46.72 49.23 52.49 55.27 56.83 58.24 59.60 59.68 59.81 59.77 59.75 59.26 59.21 59.69 59.34 59.57 57.99 57.32 57.75 59.08 58.31 57.33 56.59 55.14 55.14 55.71 55.48 54.84 53.98 53.82 53.35 54.32 53.85 53.60 54.11 54.88 55.67 56.21 55.93 55.64 53.46
43.50 46.16 45.90 48.86 51.14 53.32 55.22 56.26 57.43 57.21 56.64 56.75 56.90 57.27 56.65 56.48 56.62 55.85 54.45 53.80 54.71 54.92 54.59 54.24 53.41 52.03 50.94 51.36 51.83 51.90 51.83 51.83 52.12 53.10 53.37 52.26 53.17 53.48 54.04 54.31 54.33 53.89 54.02
44.51 45.31 45.91 47.31 49.00 51.35 53.32 54.56 55.30 55.13 54.75 54.48 54.59 54.15 53.81 53.81 52.81 51.78 51.59 51.87 51.10 51.46 51.17 50.28 48.86 47.86 47.15 47.70 48.05 47.62 48.21 49.04 49.49 50.05 51.07 50.92 50.81 51.25 51.65 52.03 51.74 51.44 50.92
43.63 44.34 45.75 46.45 47.49 48.91 50.20 50.45 51.99 51.97 51.46 52.02 51.59 50.86 50.68 50.43 49.44 49.23 48.98 48.55 48.29 47.86 47.56 47.13 45.82 44.96 44.75 44.73 44.80 45.24 45.81 46.73 47.00 46.96 47.19 46.74 47.31 47.87 48.82 48.93 49.52 49.27 48.11
43.10 43.65 43.99 44.94 45.87 46.52 46.86 47.16 47.93 48.72 49.04 49.18 49.18 48.37 48.32 48.06 47.09 46.19 45.93 45.79 45.75 44.92 44.38 44.02 43.48 43.03 43.12 43.18 43.13 43.20 43.73 44.15 44.08 43.85 43.85 43.89 44.31 44.90 46.13 46.67 46.80 46.68 46.62
42.05 43.23 43.46 44.16 44.68 45.22 45.64 45.57 45.72 46.55 47.13 46.76 46.65 45.39 44.83 44.29 43.91 43.43 43.20 43.17 43.22 42.79 42.38 41.73 41.67 42.33 43.04 42.47 42.62 42.42 42.22 42.20 41.97 41.74 41.62 42.27 42.69 43.25 45.29 45.77 45.86 45.62 44.97
41.02 41.97 42.99 43.62 43.95 44.79 45.10 44.97 44.92 44.97 45.74 44.87 43.17 42.50 42.26 42.26 41.83 41.59 41.32 41.38 41.19 41.19 41.30 40.97 41.26 41.74 42.94 44.94 44.35 41.94 41.18 40.45 40.15 40.24 40.71 40.97 41.25 42.33 43.50 44.79 44.52 44.90 44.02
39.61 40.49 41.66 42.54 44.20 44.35 44.63 44.29 44.42 44.86 44.27 43.01 42.11 41.81 41.76 41.15 40.83 40.57 40.48 40.09 39.93 39.84 39.03 39.03 39.64 39.62 42.44 44.41 43.90 41.33 39.85 39.10 38.95 38.89 39.31 39.91 40.39 40.68 40.79 40.82 40.15 39.52 40.54
39.05 40.31 41.77 42.69 43.40 44.41 43.80 43.27 43.47 43.26 43.44 42.32 41.45 41.27 41.11 40.29 40.09 40.06 39.34 38.71 38.92 38.39 38.41 38.68 38.22 38.57 40.55 43.08 43.20 41.58 38.98 38.33 37.79 38.19 38.64 39.19 39.52 39.69 40.21 38.82 37.22 35.46 35.28
39.94 41.05 42.08 42.59 43.56 43.92 43.22 42.52 41.94 41.90 41.53 40.86 40.80 40.94 40.72 39.43 39.26 38.40 38.11 38.24 37.88 36.91 37.36 38.75 38.81 37.90 38.08 40.93 42.47 40.62 38.38 37.50 37.05 37.68 38.22 38.25 38.52 38.86 40.15 36.45 35.38 34.07 33.93
39.81 40.47 41.42 43.05 43.85 43.25 42.75 42.06 41.25 41.28 40.82 40.56 40.69 40.64 40.38 39.71 39.04 38.53 37.54 36.29 37.89 37.32 38.16 38.14 38.80 38.66 37.64 39.39 41.51 41.57 38.81 37.63 36.87 36.03 36.16 36.21 37.58 40.06 39.77 35.47 34.37 32.88 32.73
38.98 40.46 40.49 40.57 41.68 43.09 42.94 41.74 41.15 41.36 41.66 41.28 40.90 40.32 40.22 39.94 39.05 37.55 37.51 37.10 36.69 36.62 37.83 37.86 38.00 37.88 37.40 37.78 40.92 41.74 39.22 38.07 36.62 35.60 34.41 34.94 36.48 37.63 39.38 38.79 33.87 32.93 33.16
38.14 39.15 38.98 38.99 40.64 42.49 42.71 41.47 41.44 41.77 41.65 41.10 40.51 40.01 39.76 39.39 37.95 37.35 37.84 36.71 36.64 36.49 37.02 37.15 36.75 36.36 36.58 39.01 40.04 41.18 41.46 40.32 36.99 35.72 34.30 33.44 35.89 36.79 37.92 38.31 37.42 37.11 34.90
37.35 37.96 38.36 38.57 39.84 41.13 42.26 41.01 39.98 41.25 40.92 40.51 40.02 39.58 38.97 38.77 37.76 37.57 36.64 35.96 35.96 36.18 36.93 36.07 35.83 36.25 36.73 37.13 38.86 40.26 41.14 41.49 38.33 35.31 34.49 35.20 35.82 36.01 36.33 37.63 37.61 37.22 32.81
36.95 37.51 37.26 37.02 36.90 37.99 39.08 39.72 40.29 40.96 40.70 39.98 39.36 38.89 38.69 38.19 37.68 37.60 37.34 37.04 36.51 36.70 36.11 35.37 35.26 35.78 35.69 36.28 36.29 36.40 36.60 37.82 38.46 38.48 35.82 35.18 34.89 34.68 34.40 35.50 34.29 32.44 32.71
36.45 36.87 36.72 36.77 35.95 36.39 36.09 36.53 37.39 39.98 39.45 39.29 38.58 38.17 38.05 38.71 37.29 36.99 37.28 37.30 37.95 37.65 35.98 35.98 35.33 35.15 35.02 35.10 36.95 35.89 34.59 34.98 35.15 34.98 31.30 30.41 30.37 30.63 31.42 31.92 31.85 31.25 30.90
34.42 34.99 34.83 34.75 34.45 34.29 33.73 34.43 35.20 36.47 37.17 37.78 37.94 37.98 37.78 37.49 36.74 36.61 37.10 39.44 39.41 39.75 39.87 39.39 37.75 36.15 37.96 38.20 38.77 39.28 39.70 40.01 39.63 34.47 31.15 30.37 29.77 29.41 29.72 30.13 30.76 30.58 30.87

GFSMW_sfc_wetblb_114.txt.gz
Wetbulb
51.24 53.39 55.53 58.10 62.12 63.85 65.85 66.83 67.27 67.66 67.48 66.78 65.99 66.03 65.81 66.57 67.40 68.65 68.71 67.91 67.63 67.56 67.32 67.23 67.00 67.33 66.72 66.61 66.71 66.53 65.68 65.04 64.77 63.80 63.91 64.46 65.02 64.55 64.61 65.01 63.99 64.37 64.79
50.28 51.61 54.72 60.84 60.06 64.15 65.12 66.84 67.10 66.67 67.07 67.68 67.04 66.68 66.26 66.76 66.88 67.44 67.42 67.74 67.87 68.07 67.81 67.68 67.20 67.15 66.76 66.64 66.19 65.55 63.94 65.17 65.30 62.88 62.66 60.65 61.98 63.01 62.41 62.87 62.92 62.27 62.78
49.32 50.96 53.32 61.16 61.26 62.34 64.28 65.66 66.32 66.61 66.97 67.47 67.27 66.79 67.00 66.44 65.61 66.27 66.09 66.11 66.56 66.72 67.15 67.09 67.03 66.83 66.41 65.48 66.11 66.30 65.78 64.06 64.31 63.11 62.71 59.86 58.82 61.92 63.08 60.53 59.17 59.82 61.44
50.37 51.22 53.34 60.40 61.33 62.40 64.80 65.42 66.24 66.32 66.77 68.19 66.46 65.57 64.79 64.12 64.91 66.08 66.58 65.52 64.97 65.03 65.51 64.90 65.22 65.89 66.25 65.58 65.56 65.80 65.47 62.04 60.56 63.00 63.55 64.37 63.12 59.48 57.66 60.90 59.98 58.49 57.03
49.14 50.94 53.80 60.77 62.05 62.45 61.31 64.25 64.64 65.12 65.53 67.27 65.93 64.97 65.66 66.57 66.90 66.64 65.73 65.35 64.80 65.24 64.84 65.12 65.81 65.13 65.31 64.11 62.76 61.93 61.82 63.08 63.04 63.13 62.72 62.05 62.26 61.74 58.80 55.73 56.87 56.78 56.07
49.88 51.90 57.32 61.08 60.96 61.06 61.12 62.57 63.42 63.16 64.19 64.09 64.33 63.94 63.16 63.01 63.48 64.73 64.72 64.60 64.40 64.31 64.38 64.55 64.77 64.52 64.13 63.54 63.82 64.37 63.60 63.35 63.78 63.85 63.33 62.05 60.07 59.21 59.06 56.68 57.07 57.18 56.86
50.13 50.44 53.25 58.53 61.21 60.70 60.81 62.11 61.94 61.52 61.87 62.59 63.28 62.47 62.04 61.91 62.49 63.90 63.82 64.25 64.16 64.38 64.14 64.36 63.90 64.10 63.82 64.90 64.21 64.42 64.24 63.48 63.24 63.12 63.05 63.37 62.45 62.24 60.56 59.01 58.25 57.21 57.01
49.06 49.29 54.26 57.15 59.90 61.42 61.90 61.56 61.36 61.04 61.56 61.81 62.12 62.50 61.91 61.66 62.04 62.18 62.79 62.32 62.90 63.72 64.38 63.81 63.98 64.34 64.17 64.40 64.33 63.75 63.19 63.92 63.64 63.02 63.10 62.37 61.69 61.23 60.43 58.03 57.69 55.71 56.68
46.90 48.60 52.69 56.08 59.93 60.65 61.11 61.56 60.93 61.22 61.46 61.70 61.54 61.16 62.54 58.95 61.52 61.75 62.81 62.52 62.86 62.78 63.36 63.58 63.31 63.54 64.13 64.17 64.04 62.83 62.17 62.62 61.57 60.70 60.41 59.46 59.56 58.62 59.24 59.07 58.55 56.48 52.46
47.13 49.59 51.87 53.99 56.67 60.28 60.27 61.02 62.07 61.27 61.98 61.63 61.31 61.00 60.13 59.16 60.75 61.04 61.74 61.43 60.97 61.66 62.35 61.81 62.22 61.61 61.32 61.42 61.62 60.90 60.11 60.13 59.13 58.34 57.38 56.03 55.79 56.36 57.20 56.94 55.80 55.16 54.22
45.95 48.35 49.12 52.94 55.72 58.64 59.94 59.93 60.29 60.55 60.23 61.46 61.87 61.46 61.05 60.80 61.05 60.77 60.16 59.95 60.25 60.59 60.12 59.51 58.71 57.57 57.74 58.28 58.01 56.89 56.26 55.81 55.40 56.00 55.29 54.50 54.75 55.24 55.42 55.67 55.37 53.70 54.37
46.00 48.22 49.14 50.77 54.14 56.76 58.36 57.51 58.18 58.22 59.51 59.46 59.39 59.56 58.82 58.81 58.77 57.61 57.66 58.16 57.96 58.04 56.99 56.47 55.36 54.94 54.91 55.55 55.35 53.50 53.98 53.80 53.43 53.64 53.74 52.79 51.94 53.06 53.78 54.24 53.34 52.53 53.53
45.68 48.20 48.42 50.19 51.11 53.43 54.87 55.31 56.18 56.73 57.96 58.00 56.80 56.23 56.60 56.61 55.50 54.87 55.17 55.30 55.16 54.52 54.10 54.01 52.24 51.13 51.18 51.47 51.75 51.41 51.17 51.43 51.50 51.36 51.35 50.54 50.88 50.91 51.16 50.53 49.84 50.38 49.94
45.28 46.02 46.91 47.25 49.49 51.15 51.33 53.43 52.98 54.68 55.65 56.22 55.42 54.46 54.25 54.53 54.53 53.56 52.76 53.03 53.05 51.95 51.48 50.99 49.75 48.70 48.43 48.55 48.17 48.76 48.94 48.82 48.37 48.17 48.19 48.04 48.17 48.55 49.10 49.48 49.58 48.33 48.57
44.40 45.31 46.25 47.27 48.53 49.25 49.22 50.89 51.47 52.23 53.46 53.97 53.64 52.76 52.21 51.89 51.67 51.32 51.10 50.10 50.07 49.03 48.20 47.44 47.08 47.18 47.27 46.55 47.02 47.17 47.24 46.84 46.03 45.73 45.41 45.79 44.50 43.27 45.72 47.18 47.15 46.01 45.50
43.42 43.97 45.83 48.04 48.11 48.28 49.06 49.01 49.49 50.41 52.01 51.60 50.37 49.53 48.26 48.37 48.31 47.57 47.89 48.08 47.14 46.59 46.38 46.02 46.17 46.23 45.24 44.13 44.75 45.96 45.29 44.57 44.50 43.99 44.03 44.40 42.45 43.78 43.20 44.59 44.35 45.13 44.60
42.94 42.72 45.47 46.33 47.76 48.51 49.21 48.75 48.76 49.28 49.03 48.02 47.52 47.23 47.23 46.37 46.33 45.98 45.81 45.03 44.95 45.27 44.99 44.97 45.45 45.51 45.88 45.11 43.62 43.36 44.33 43.44 42.73 42.30 42.85 43.14 43.23 42.96 43.67 42.74 41.22 41.28 40.50
43.18 44.67 44.98 46.64 47.66 48.71 48.61 48.46 48.56 48.40 47.53 46.71 46.12 46.00 46.08 45.26 44.98 44.89 44.41 43.87 44.00 43.34 43.17 42.86 43.73 44.41 44.70 44.48 43.17 42.00 42.92 42.66 41.93 42.01 42.30 42.68 42.85 42.81 42.13 42.39 41.73 41.33 40.01
43.77 44.96 46.18 46.98 47.65 48.31 48.32 48.23 47.73 47.31 46.90 46.17 45.86 45.69 45.46 44.34 44.32 43.44 43.34 43.56 42.80 41.27 41.60 42.08 42.29 43.02 42.93 43.60 43.48 42.66 42.61 41.60 41.23 41.25 41.88 41.96 41.84 40.61 40.17 40.08 38.18 39.73 39.12
44.06 44.25 45.52 47.22 48.08 47.27 47.68 47.25 47.01 47.34 46.86 46.05 45.88 45.75 45.40 44.64 44.18 43.82 42.86 42.84 43.31 40.87 42.17 41.72 42.32 42.34 42.64 42.07 43.20 42.90 42.70 41.67 41.15 40.69 40.61 37.95 39.76 39.66 40.38 40.40 38.75 37.76 37.83
43.21 44.53 45.19 44.89 45.93 47.15 47.44 46.42 46.16 45.94 45.84 45.83 45.68 45.33 45.24 44.81 44.58 43.33 42.45 41.92 41.63 40.77 40.21 40.74 41.75 41.76 42.19 42.50 42.09 42.87 42.76 42.38 41.38 40.58 39.59 39.45 37.55 38.20 39.55 40.64 38.12 37.16 36.71
42.19 43.16 43.77 43.47 44.80 46.42 46.91 45.86 44.87 44.97 45.15 45.11 44.54 44.42 44.61 43.40 43.10 42.77 41.17 42.41 42.38 42.08 41.01 41.12 40.38 41.27 41.71 40.19 40.68 41.96 42.19 41.84 40.78 40.03 39.90 37.90 36.28 37.47 38.10 39.19 39.16 38.25 36.35
41.22 42.09 42.81 42.60 41.76 41.93 43.80 43.75 43.39 44.80 44.76 44.64 44.38 44.17 43.78 43.38 43.22 42.93 41.57 41.79 42.07 42.19 40.92 39.07 39.87 40.85 40.59 41.78 40.95 41.31 41.79 41.80 40.79 39.40 39.60 37.23 36.20 36.64 37.24 37.86 38.46 38.60 37.34
40.68 41.54 41.68 40.84 38.62 38.30 37.81 38.24 39.80 42.59 43.55 42.31 42.64 43.01 43.03 42.88 42.65 42.36 42.42 42.50 41.39 41.30 40.85 39.42 39.40 40.76 40.36 40.79 40.96 40.35 41.16 41.06 40.79 40.40 39.06 37.55 36.71 35.74 35.85 35.46 37.13 36.86 36.23
40.54 40.73 40.31 39.81 38.71 39.37 38.90 37.84 37.78 39.74 39.85 39.98 39.64 39.37 39.34 40.10 39.64 39.85 40.95 41.32 42.58 41.93 40.61 40.32 40.59 39.70 39.21 39.66 40.17 39.52 38.29 39.20 38.45 38.01 35.60 34.24 33.41 32.26 33.33 34.36 34.92 35.43 34.80
39.15 39.35 39.34 39.25 38.17 37.76 37.38 37.75 38.60 39.33 39.46 39.46 38.73 38.76 38.91 38.86 37.85 37.75 38.02 39.90 40.02 40.05 40.33 40.08 39.19 37.98 39.83 39.09 39.40 39.47 39.53 39.72 39.19 35.83 34.76 33.65 32.30 31.11 32.09 33.14 33.18 33.79 33.46

GFSMW_sfc_wetblb_117.txt.gz
Wetbulb
52.28 53.73 55.59 59.39 60.51 61.62 61.37 64.25 65.99 66.27 66.72 65.56 65.09 65.47 64.85 64.71 64.44 64.67 64.46 64.81 64.89 64.99 64.58 64.46 64.97 65.64 65.62 65.63 65.76 65.75 65.20 65.16 65.80 64.11 63.73 64.24 65.10 64.80 64.92 65.23 64.79 64.86 64.98
51.10 52.71 54.36 57.71 58.06 60.95 60.75 61.51 65.48 66.33 66.48 65.72 65.95 66.75 67.58 67.47 67.12 66.27 65.26 64.58 65.01 65.30 65.22 66.14 65.96 66.13 66.07 65.46 66.03 66.08 65.26 65.54 66.15 62.61 63.09 60.34 61.98 63.42 63.49 63.37 63.10 63.22 62.74
50.38 51.80 53.50 56.24 58.77 57.24 61.12 61.40 63.19 65.85 66.35 66.50 66.96 67.10 66.99 67.31 66.66 66.80 67.32 67.05 67.50 67.68 67.51 67.15 66.56 66.93 66.81 66.12 66.71 66.29 65.75 63.96 65.61 64.16 62.47 59.10 58.32 61.34 62.61 61.66 60.62 60.49 61.14
51.02 51.93 52.83 54.81 58.41 58.36 59.20 62.93 62.81 65.13 66.40 67.06 65.77 65.18 64.20 63.65 65.13 65.76 66.24 66.15 67.18 67.74 67.93 67.78 67.48 67.28 67.08 66.67 66.24 66.71 66.83 66.03 62.46 63.19 63.75 64.21 62.92 59.02 57.70 60.88 60.57 60.35 59.65
51.14 50.98 52.74 55.39 60.25 60.59 60.97 62.77 63.44 64.81 66.18 66.09 66.14 65.72 64.66 64.74 65.09 66.14 65.21 65.48 66.01 66.35 66.59 66.16 65.63 65.47 66.56 66.97 66.58 65.34 63.36 63.13 63.08 63.41 63.68 62.41 62.36 62.24 59.41 57.18 58.38 58.96 59.82
51.21 51.64 53.69 56.17 60.76 60.93 61.31 62.35 61.80 63.40 65.26 65.74 65.22 65.14 65.40 65.55 64.43 64.92 64.61 64.51 64.79 64.89 64.96 65.43 65.41 65.63 65.82 64.92 63.97 62.83 63.64 63.74 64.00 64.48 63.82 62.48 60.99 59.72 58.72 57.14 58.07 58.12 59.74
50.02 51.53 53.23 57.99 60.14 60.56 60.37 59.85 60.97 62.07 62.84 63.83 64.07 62.87 62.69 63.63 65.37 65.12 65.15 63.97 63.33 63.59 63.96 64.21 64.43 64.72 64.61 64.53 63.77 63.14 63.45 64.06 63.88 63.79 63.34 63.54 62.67 62.38 60.02 58.30 56.98 57.21 59.00
47.79 49.19 54.35 58.63 60.37 59.76 59.85 59.87 59.80 59.96 61.18 60.85 61.62 61.96 61.84 62.56 62.86 62.96 64.37 64.05 63.82 64.50 64.58 63.95 64.46 63.31 63.51 63.77 63.78 63.37 63.84 63.60 63.22 62.69 62.66 62.84 62.15 61.68 60.87 58.86 57.10 55.08 56.41
46.25 48.57 53.33 58.74 59.47 59.26 59.26 59.93 60.48 60.15 60.66 60.93 60.50 61.50 60.73 61.53 61.06 61.65 62.51 61.94 62.69 63.56 64.17 64.01 63.61 63.69 63.62 63.42 63.52 63.12 62.27 62.68 63.36 62.76 61.11 60.77 60.20 60.07 59.98 59.43 58.82 56.73 51.82
46.68 47.65 53.54 59.13 60.29 60.44 60.86 61.60 61.42 60.60 60.67 61.12 61.09 60.73 61.03 61.34 61.74 61.28 60.87 61.48 62.03 62.41 62.82 62.87 63.05 62.98 62.99 62.95 63.10 61.56 61.54 60.50 60.51 59.92 59.69 59.00 57.61 57.07 57.46 57.35 55.85 55.60 53.38
46.07 47.16 52.30 58.87 59.65 60.30 60.57 60.85 61.25 60.67 60.59 60.88 60.55 60.53 60.56 60.46 60.58 60.19 60.96 61.03 61.00 61.87 61.91 61.91 61.40 60.95 60.46 61.06 60.49 59.44 59.19 58.87 56.74 56.55 56.26 55.56 55.69 55.27 55.32 55.67 54.49 53.12 53.35
46.08 48.30 51.45 56.88 57.89 58.02 58.41 58.33 59.29 59.93 60.53 60.94 60.59 60.47 59.79 59.66 59.58 60.10 60.80 61.12 60.87 61.28 60.89 60.17 58.97 58.40 58.68 58.56 57.95 56.51 56.01 55.65 54.82 54.78 54.54 53.86 52.83 53.40 53.75 53.94 53.47 51.74 52.01
46.19 46.94 48.40 51.48 53.36 55.17 55.24 56.12 57.44 58.27 58.89 59.97 60.14 59.00 58.69 59.37 58.54 57.69 58.20 58.82 58.69 58.29 57.97 57.53 56.68 56.13 55.44 55.51 55.50 54.30 53.97 53.57 53.47 53.04 52.84 52.65 51.84 51.75 51.77 51.18 50.04 49.80 49.19
45.56 46.48 48.02 48.55 49.72 51.57 53.98 53.68 54.59 56.37 57.28 57.31 56.99 57.01 57.17 56.57 56.11 56.14 56.22 55.75 56.07 55.90 55.33 54.47 52.81 52.02 51.73 51.38 51.15 51.23 51.23 51.01 50.69 50.41 50.69 50.02 49.55 49.36 49.78 49.38 49.57 48.03 47.66
44.32 45.78 46.86 48.09 49.40 50.33 52.05 52.44 52.59 53.89 55.48 55.51 55.08 54.77 54.97 54.49 53.57 53.02 53.69 53.63 54.10 53.14 51.52 49.86 49.45 48.91 48.68 47.93 48.56 48.95 48.90 48.28 47.44 47.11 46.96 47.06 44.42 43.76 45.04 46.22 47.28 46.66 45.18
44.05 45.44 46.53 48.15 48.59 48.92 49.16 50.77 51.65 52.13 53.76 53.53 52.10 52.12 52.24 51.76 51.24 50.58 50.02 50.04 48.92 48.09 47.96 47.50 47.17 46.84 45.54 46.20 47.54 47.83 46.90 46.45 46.04 45.00 44.72 45.13 42.58 43.57 43.50 44.53 44.11 43.90 43.50
43.89 44.88 45.88 47.55 48.41 49.13 49.66 48.81 49.75 51.46 50.90 49.98 49.53 49.50 50.16 49.23 49.08 49.10 48.87 48.91 47.78 47.17 46.68 46.56 46.40 45.50 44.63 45.42 45.77 46.20 45.58 44.85 44.07 43.51 43.47 43.84 43.50 42.52 44.06 43.62 42.45 42.01 40.97
44.17 45.40 46.31 47.48 48.61 49.79 49.31 49.55 49.43 48.97 49.07 48.70 48.72 49.43 48.92 47.92 47.61 47.36 46.23 45.63 45.62 45.40 45.14 45.23 46.04 45.77 44.96 44.54 44.00 44.43 43.85 43.45 43.03 43.07 43.24 43.26 43.27 43.16 42.16 42.52 41.27 41.27 41.15
45.26 45.84 47.32 48.37 48.89 48.71 49.51 49.34 48.76 48.45 47.74 46.97 46.86 47.51 46.79 45.75 45.80 44.80 44.68 44.76 44.37 43.88 43.57 44.14 44.33 44.72 43.91 44.31 43.25 43.37 43.16 42.36 41.72 42.18 42.54 42.48 42.15 41.70 40.49 40.76 37.52 39.15 39.74
45.12 45.86 47.38 48.48 48.63 48.59 49.56 48.85 48.18 48.37 47.01 47.04 46.66 47.04 46.94 46.18 45.43 45.94 44.59 44.41 43.51 42.18 43.12 42.85 43.73 44.39 43.51 44.17 43.71 43.19 43.19 41.68 41.42 41.05 41.43 39.93 41.06 40.69 40.80 39.88 39.27 36.06 37.14
44.44 46.39 46.29 45.74 46.95 48.49 49.25 47.69 47.38 45.54 46.39 46.90 46.41 46.17 46.25 45.79 45.59 44.56 43.64 43.68 42.31 41.84 42.08 41.99 42.82 42.24 43.64 42.55 43.55 43.50 43.00 42.16 41.30 40.21 39.61 40.22 39.60 39.15 39.32 40.59 39.10 36.86 36.32
43.28 44.99 44.21 43.37 44.01 45.81 47.62 45.20 44.22 46.24 46.59 46.43 45.75 45.45 45.73 44.55 44.35 43.34 42.78 42.84 42.00 41.51 40.98 41.37 41.42 42.09 42.57 42.17 42.74 43.23 43.13 42.91 40.84 39.73 40.03 39.07 37.65 37.79 38.11 38.54 39.65 39.46 38.04
43.07 43.84 43.42 41.79 41.07 40.72 40.99 39.90 40.52 43.40 45.20 45.84 45.52 45.06 44.85 44.16 44.36 43.39 42.43 42.35 42.82 42.62 41.79 40.75 40.54 40.94 41.50 41.90 42.25 42.66 42.96 42.57 40.78 40.48 40.28 39.74 37.39 37.17 37.03 38.01 38.83 38.88 36.67
42.28 43.29 42.94 41.63 40.30 39.98 39.31 38.41 38.91 42.52 42.01 41.22 41.27 41.76 43.41 43.77 43.80 43.63 43.68 43.16 42.63 42.44 42.20 40.24 39.57 41.62 40.88 41.20 41.42 41.01 41.41 42.06 41.62 41.11 39.41 39.09 38.02 37.92 36.54 35.30 35.38 35.08 34.81
41.96 42.22 41.62 40.75 39.94 40.60 40.16 40.57 40.88 41.24 40.21 40.01 39.85 39.64 39.56 39.94 39.30 39.32 40.42 41.02 42.25 42.05 41.44 41.55 41.23 40.94 39.70 40.31 42.29 41.14 39.85 40.16 39.92 39.34 35.76 34.53 33.17 32.93 32.55 32.66 33.36 33.41 33.29
41.22 40.85 40.92 40.50 39.62 39.57 38.85 39.06 39.77 40.27 40.41 40.27 39.98 39.47 39.60 39.16 38.20 37.82 38.27 40.66 40.79 41.05 41.04 41.03 40.23 39.06 40.46 40.67 41.08 41.04 40.72 40.81 40.24 36.42 34.17 34.09 33.54 31.92 31.66 31.27 31.84 31.85 32.62

GFSMW_sfc_wetblb_120.txt.gz
Wetbulb
46.85 52.16 53.53 56.01 59.44 60.55 60.14 59.22 61.91 62.89 64.12 63.57 61.84 60.28 60.18 61.95 61.71 62.61 64.80 64.88 64.53 63.67 61.98 61.08 61.11 61.04 61.75 61.73 62.09 62.14 61.68 61.68 61.90 60.48 59.59 59.98 60.80 60.51 60.63 61.03 60.88 61.20 61.80
47.39 50.84 51.87 55.54 58.23 59.44 60.44 59.52 59.65 63.40 64.27 64.23 63.11 61.52 60.77 61.18 62.16 62.87 63.58 63.29 63.42 62.67 61.02 60.89 61.22 62.35 62.35 62.34 62.05 62.32 61.74 62.08 62.37 59.31 58.31 56.70 58.27 59.45 59.72 60.02 59.74 59.28 60.03
46.52 48.11 50.44 54.26 57.41 58.89 59.52 59.53 60.05 64.20 65.24 64.57 63.98 63.30 62.73 61.47 60.92 60.63 61.74 61.36 61.76 61.95 61.98 62.87 63.15 62.83 63.19 62.24 62.65 63.08 62.48 60.81 61.56 61.05 59.21 55.16 53.88 57.93 58.55 58.06 57.79 57.48 57.92
49.18 49.69 49.73 53.01 57.86 57.81 59.58 60.18 60.72 62.57 64.99 64.88 64.04 63.83 62.30 60.47 61.71 61.76 61.38 61.56 63.18 63.27 64.69 64.62 63.85 63.91 64.20 63.40 63.35 63.97 63.03 62.37 60.14 61.42 61.81 60.69 59.49 55.35 54.76 56.83 56.11 56.77 56.79
47.93 47.85 49.64 52.61 58.56 57.47 58.77 60.18 60.53 60.91 61.94 64.57 64.77 63.96 63.07 63.66 64.40 64.20 63.91 63.54 64.46 65.31 65.15 64.99 64.50 64.52 64.19 64.05 63.57 61.85 61.50 61.44 61.07 60.63 60.81 59.31 59.06 59.77 56.47 53.61 54.02 55.62 56.21
49.53 49.74 50.52 52.62 58.66 58.08 58.21 60.32 60.39 59.90 61.03 63.60 64.75 63.30 63.01 62.27 62.78 63.00 62.37 62.60 63.68 64.02 63.95 63.83 64.03 64.04 63.58 62.89 62.09 62.14 62.02 61.67 61.78 61.81 60.66 59.38 57.32 57.52 56.72 55.58 54.51 53.92 55.40
48.19 48.67 48.76 51.42 58.50 58.30 59.10 60.10 59.56 60.38 61.11 61.66 64.01 63.92 63.80 62.43 62.66 62.46 62.28 61.48 61.89 62.15 62.20 63.37 63.57 63.24 63.16 62.77 62.32 61.57 61.40 61.21 61.31 61.41 60.98 61.06 60.61 61.05 58.94 56.96 55.52 54.46 56.65
46.99 45.81 49.32 52.50 58.61 58.24 58.44 58.39 57.79 58.19 58.82 61.54 61.79 62.11 62.27 62.40 62.91 63.27 63.07 62.20 62.05 62.35 62.59 62.87 62.69 62.85 62.90 62.46 62.02 61.29 61.49 61.83 61.37 61.15 61.71 61.51 60.13 60.11 58.62 56.77 53.82 51.34 51.96
46.12 46.73 50.73 56.84 58.81 58.57 58.47 57.44 58.37 58.61 59.91 60.01 61.14 60.87 61.31 61.19 60.99 61.35 62.91 62.56 62.74 62.44 62.14 62.72 62.18 61.62 61.87 62.05 61.66 61.13 60.94 61.11 60.74 61.05 60.83 59.41 58.53 57.79 57.04 56.08 55.91 53.56 48.53
46.73 48.45 53.53 58.25 58.90 58.53 58.10 57.19 58.30 58.72 59.52 59.55 60.07 60.50 60.70 60.74 61.18 60.95 60.69 61.43 61.89 62.10 62.28 62.19 62.14 61.17 61.43 61.55 61.84 60.91 60.77 60.17 59.48 59.06 58.56 57.86 54.87 54.93 54.46 54.16 53.91 53.38 51.05
45.92 48.39 54.80 58.08 58.64 58.79 58.91 58.65 59.25 59.37 59.55 59.68 60.18 60.06 59.86 60.60 60.70 60.10 60.67 60.52 60.97 61.60 61.67 61.94 62.16 62.05 61.86 61.66 60.72 59.94 59.71 58.90 56.99 56.78 56.22 53.87 53.42 51.96 52.03 51.91 51.51 52.23 52.10
47.00 48.93 56.13 56.82 57.64 58.17 58.54 59.23 59.64 59.45 59.89 60.20 59.89 59.46 59.67 59.89 59.63 59.08 60.15 60.65 60.85 61.49 60.77 60.51 60.21 60.15 59.76 59.52 58.51 57.35 57.77 55.67 53.77 52.81 52.37 51.54 51.49 50.13 50.35 50.26 49.00 50.09 50.41
46.68 47.83 49.52 51.83 53.45 53.96 54.76 56.51 57.92 58.28 59.86 59.75 59.41 58.77 58.12 58.64 58.60 58.83 59.77 59.96 59.97 60.46 60.06 59.65 58.61 58.34 58.48 57.99 57.49 55.73 54.26 52.81 52.18 51.48 50.44 49.49 48.97 48.56 47.90 47.38 46.18 46.64 48.29
45.63 47.39 47.51 48.17 50.43 52.00 52.34 53.08 54.57 56.56 56.96 57.67 57.34 56.80 56.98 56.49 56.38 56.60 57.34 57.60 57.76 56.96 56.96 57.39 56.48 55.60 55.08 54.60 53.07 51.70 49.96 49.14 48.53 48.43 48.15 47.43 46.95 46.59 46.59 46.75 45.85 45.01 43.90
43.67 45.36 46.26 46.69 47.68 49.41 51.13 51.65 52.50 54.21 55.22 54.78 55.13 54.43 54.69 54.50 54.63 54.18 53.87 53.98 53.65 53.23 52.81 51.56 51.03 50.35 50.03 48.67 48.17 48.13 47.26 46.11 45.32 45.15 45.36 44.33 42.94 44.41 44.80 43.90 42.61 42.66 42.12
42.83 44.14 45.77 46.36 46.78 47.36 48.94 50.41 51.22 51.99 51.86 50.91 50.46 51.47 51.57 51.09 50.53 51.37 51.05 50.23 49.11 49.63 48.62 47.60 48.15 46.40 45.58 47.92 48.29 47.29 45.57 44.78 43.89 42.49 42.14 41.66 42.28 43.26 44.59 45.21 44.59 42.96 39.95
42.39 43.37 44.62 45.79 46.52 46.83 47.63 47.92 48.95 49.52 49.08 48.83 48.73 49.14 48.90 48.44 48.24 48.12 47.96 47.33 47.28 48.80 48.05 47.94 45.68 44.35 44.54 47.76 48.29 46.69 44.49 42.95 42.18 41.48 41.47 41.83 42.30 42.05 42.08 43.89 43.37 42.54 42.31
42.48 43.52 44.60 45.57 46.41 46.97 46.44 46.65 46.75 47.66 47.93 48.02 48.58 49.16 47.99 46.88 46.78 46.57 46.08 46.34 46.45 46.07 46.22 45.54 44.77 43.44 44.05 46.22 46.50 45.33 42.41 41.48 41.15 41.29 41.39 40.83 40.35 41.16 40.85 40.17 38.56 38.65 39.14
43.31 44.23 45.72 46.08 45.76 45.70 46.61 46.35 45.99 45.64 45.36 45.00 45.96 46.57 46.88 46.18 44.94 43.85 43.55 43.99 43.45 41.38 41.63 43.60 44.25 42.43 41.70 44.56 44.89 42.84 40.75 39.93 39.42 40.59 40.71 40.54 39.79 42.31 41.94 38.82 35.25 36.28 37.13
43.27 43.46 44.42 45.56 45.62 45.87 46.40 45.35 43.98 43.78 43.74 44.22 44.48 45.12 45.95 45.78 44.66 44.05 43.54 43.06 43.30 42.25 42.41 41.31 41.90 43.03 41.05 44.06 43.87 42.74 40.82 39.07 38.72 38.54 39.23 42.21 40.03 42.55 41.72 37.36 37.71 35.08 32.61
42.57 42.87 42.37 41.41 41.65 45.21 45.07 43.42 43.19 42.43 43.74 44.34 44.00 43.72 43.80 44.54 44.56 43.75 43.00 42.58 40.86 40.87 39.75 39.98 40.41 40.74 41.48 42.32 43.99 43.86 40.90 39.62 38.13 37.40 37.05 37.59 41.16 40.37 40.48 41.07 36.58 35.52 35.67
41.12 41.49 39.63 38.84 39.54 41.38 42.27 40.30 39.75 42.37 44.05 44.01 43.52 42.88 41.91 42.55 41.88 39.81 39.60 40.01 39.30 38.77 38.29 38.39 38.50 39.43 39.79 42.61 44.16 44.22 43.44 42.49 38.60 37.39 37.33 37.27 40.10 39.27 39.19 38.55 39.83 40.83 38.72
39.87 40.41 38.75 37.50 37.50 37.83 38.44 37.77 38.25 41.56 42.27 42.02 41.91 41.83 41.97 41.52 41.61 39.85 38.97 39.00 39.26 38.66 38.04 37.82 37.40 38.07 39.27 39.03 43.32 44.03 44.03 43.67 38.87 38.10 38.71 39.60 39.13 38.47 37.71 38.82 39.07 39.34 33.37
38.76 39.57 38.59 37.20 36.29 37.00 37.19 36.86 37.80 40.04 40.94 40.46 38.63 39.18 39.92 40.08 39.88 40.38 40.19 39.10 38.62 38.59 38.99 37.78 36.90 38.31 38.31 38.07 38.81 40.39 41.61 42.99 41.47 41.13 39.59 39.92 38.47 37.57 35.67 35.04 35.03 32.62 31.99
38.47 38.53 37.31 36.25 35.76 36.31 36.13 36.61 37.30 37.93 38.12 38.53 38.89 38.02 38.42 39.53 39.32 39.28 39.50 39.73 39.97 40.30 39.27 39.26 39.23 38.97 38.55 39.15 41.01 40.13 39.34 38.86 39.64 39.08 35.68 35.01 33.80 32.48 31.51 30.20 30.59 32.11 32.18
37.87 37.66 37.30 36.15 35.70 35.54 35.29 35.74 36.56 36.96 36.57 37.12 36.77 36.49 36.28 36.86 37.78 38.03 38.52 41.13 41.32 41.63 41.73 41.76 40.84 39.87 41.23 41.34 41.78 42.12 41.82 42.03 41.81 35.09 33.26 32.94 31.81 31.12 29.70 29.97 30.06 31.41 32.45